<?xml version="1.0" encoding="UTF-8" standalone="no" ?>
<gpx xmlns="http://www.topografix.com/GPX/1/1" xmlns:xsi="http://www.w3.org/2001/XMLSchema-instance" xsi:schemaLocation="http://www.topografix.com/GPX/1/1 http://www.topografix.com/GPX/1/1/gpx.xsd" version="1.1" creator="VisuGPX - https://www.visugpx.com">
  <metadata>
    <name>Cabries - parking collège Marie Mauron</name>
  </metadata>
  <trk>
    <name><![CDATA[track-19-01-2021_16h11-08s]]></name>
    <trkseg>
      <trkpt lat="43.44586" lon="5.35383">
        <ele>240</ele>
        <time>2021-01-19T13:57:31Z</time>
      </trkpt>
      <trkpt lat="43.44586" lon="5.35383">
        <ele>240</ele>
        <time>2021-01-19T13:57:33Z</time>
      </trkpt>
      <trkpt lat="43.44587" lon="5.35381">
        <ele>240</ele>
        <time>2021-01-19T13:57:36Z</time>
      </trkpt>
      <trkpt lat="43.44588" lon="5.35379">
        <ele>242</ele>
        <time>2021-01-19T13:57:38Z</time>
      </trkpt>
      <trkpt lat="43.44589" lon="5.35379">
        <ele>242</ele>
        <time>2021-01-19T13:57:41Z</time>
      </trkpt>
      <trkpt lat="43.4459" lon="5.35378">
        <ele>242</ele>
        <time>2021-01-19T13:57:43Z</time>
      </trkpt>
      <trkpt lat="43.4459" lon="5.35378">
        <ele>242</ele>
        <time>2021-01-19T13:57:46Z</time>
      </trkpt>
      <trkpt lat="43.4459" lon="5.35378">
        <ele>242</ele>
        <time>2021-01-19T13:57:48Z</time>
      </trkpt>
      <trkpt lat="43.44591" lon="5.35377">
        <ele>243</ele>
        <time>2021-01-19T13:57:51Z</time>
      </trkpt>
      <trkpt lat="43.44591" lon="5.35377">
        <ele>243</ele>
        <time>2021-01-19T13:57:53Z</time>
      </trkpt>
      <trkpt lat="43.44591" lon="5.35377">
        <ele>243</ele>
        <time>2021-01-19T13:57:55Z</time>
      </trkpt>
      <trkpt lat="43.44592" lon="5.35378">
        <ele>243</ele>
        <time>2021-01-19T13:57:58Z</time>
      </trkpt>
      <trkpt lat="43.44592" lon="5.35378">
        <ele>243</ele>
        <time>2021-01-19T13:58:00Z</time>
      </trkpt>
      <trkpt lat="43.44592" lon="5.35378">
        <ele>243</ele>
        <time>2021-01-19T13:58:02Z</time>
      </trkpt>
      <trkpt lat="43.44592" lon="5.35378">
        <ele>243</ele>
        <time>2021-01-19T13:58:04Z</time>
      </trkpt>
      <trkpt lat="43.44592" lon="5.35378">
        <ele>243</ele>
        <time>2021-01-19T13:58:07Z</time>
      </trkpt>
      <trkpt lat="43.44592" lon="5.35377">
        <ele>243</ele>
        <time>2021-01-19T13:58:10Z</time>
      </trkpt>
      <trkpt lat="43.44591" lon="5.35373">
        <ele>243</ele>
        <time>2021-01-19T13:58:13Z</time>
      </trkpt>
      <trkpt lat="43.44591" lon="5.35371">
        <ele>243</ele>
        <time>2021-01-19T13:58:15Z</time>
      </trkpt>
      <trkpt lat="43.4459" lon="5.35371">
        <ele>243</ele>
        <time>2021-01-19T13:58:17Z</time>
      </trkpt>
      <trkpt lat="43.4459" lon="5.35371">
        <ele>243</ele>
        <time>2021-01-19T13:58:20Z</time>
      </trkpt>
      <trkpt lat="43.4459" lon="5.35371">
        <ele>243</ele>
        <time>2021-01-19T13:58:22Z</time>
      </trkpt>
      <trkpt lat="43.4459" lon="5.35371">
        <ele>243</ele>
        <time>2021-01-19T13:58:24Z</time>
      </trkpt>
      <trkpt lat="43.4459" lon="5.35371">
        <ele>243</ele>
        <time>2021-01-19T13:58:26Z</time>
      </trkpt>
      <trkpt lat="43.44591" lon="5.35371">
        <ele>244</ele>
        <time>2021-01-19T13:58:29Z</time>
      </trkpt>
      <trkpt lat="43.44591" lon="5.35372">
        <ele>244</ele>
        <time>2021-01-19T13:58:31Z</time>
      </trkpt>
      <trkpt lat="43.44591" lon="5.35372">
        <ele>244</ele>
        <time>2021-01-19T13:58:34Z</time>
      </trkpt>
      <trkpt lat="43.44591" lon="5.35372">
        <ele>244</ele>
        <time>2021-01-19T13:58:36Z</time>
      </trkpt>
      <trkpt lat="43.44591" lon="5.35372">
        <ele>244</ele>
        <time>2021-01-19T13:58:39Z</time>
      </trkpt>
      <trkpt lat="43.44591" lon="5.35372">
        <ele>244</ele>
        <time>2021-01-19T13:58:42Z</time>
      </trkpt>
      <trkpt lat="43.44591" lon="5.35372">
        <ele>244</ele>
        <time>2021-01-19T13:58:44Z</time>
      </trkpt>
      <trkpt lat="43.44591" lon="5.35372">
        <ele>244</ele>
        <time>2021-01-19T13:58:46Z</time>
      </trkpt>
      <trkpt lat="43.44591" lon="5.35372">
        <ele>244</ele>
        <time>2021-01-19T13:58:49Z</time>
      </trkpt>
      <trkpt lat="43.44591" lon="5.35372">
        <ele>244</ele>
        <time>2021-01-19T13:58:51Z</time>
      </trkpt>
      <trkpt lat="43.44591" lon="5.35372">
        <ele>244</ele>
        <time>2021-01-19T13:58:53Z</time>
      </trkpt>
      <trkpt lat="43.44591" lon="5.35372">
        <ele>244</ele>
        <time>2021-01-19T13:58:55Z</time>
      </trkpt>
      <trkpt lat="43.44591" lon="5.35372">
        <ele>244</ele>
        <time>2021-01-19T13:58:58Z</time>
      </trkpt>
      <trkpt lat="43.44591" lon="5.35372">
        <ele>244</ele>
        <time>2021-01-19T13:59:00Z</time>
      </trkpt>
      <trkpt lat="43.44591" lon="5.35372">
        <ele>244</ele>
        <time>2021-01-19T13:59:02Z</time>
      </trkpt>
      <trkpt lat="43.44591" lon="5.35372">
        <ele>244</ele>
        <time>2021-01-19T13:59:04Z</time>
      </trkpt>
      <trkpt lat="43.44591" lon="5.35372">
        <ele>244</ele>
        <time>2021-01-19T13:59:07Z</time>
      </trkpt>
      <trkpt lat="43.44591" lon="5.35372">
        <ele>244</ele>
        <time>2021-01-19T13:59:09Z</time>
      </trkpt>
      <trkpt lat="43.44591" lon="5.35372">
        <ele>244</ele>
        <time>2021-01-19T13:59:11Z</time>
      </trkpt>
      <trkpt lat="43.44591" lon="5.35372">
        <ele>244</ele>
        <time>2021-01-19T13:59:14Z</time>
      </trkpt>
      <trkpt lat="43.44591" lon="5.35372">
        <ele>244</ele>
        <time>2021-01-19T13:59:17Z</time>
      </trkpt>
      <trkpt lat="43.44591" lon="5.35372">
        <ele>244</ele>
        <time>2021-01-19T13:59:19Z</time>
      </trkpt>
      <trkpt lat="43.44591" lon="5.35372">
        <ele>244</ele>
        <time>2021-01-19T13:59:22Z</time>
      </trkpt>
      <trkpt lat="43.44591" lon="5.35372">
        <ele>244</ele>
        <time>2021-01-19T13:59:25Z</time>
      </trkpt>
      <trkpt lat="43.44591" lon="5.35372">
        <ele>244</ele>
        <time>2021-01-19T13:59:27Z</time>
      </trkpt>
      <trkpt lat="43.44591" lon="5.35372">
        <ele>244</ele>
        <time>2021-01-19T13:59:29Z</time>
      </trkpt>
      <trkpt lat="43.44591" lon="5.35372">
        <ele>244</ele>
        <time>2021-01-19T13:59:32Z</time>
      </trkpt>
      <trkpt lat="43.44591" lon="5.35372">
        <ele>244</ele>
        <time>2021-01-19T13:59:34Z</time>
      </trkpt>
      <trkpt lat="43.44591" lon="5.35372">
        <ele>244</ele>
        <time>2021-01-19T13:59:37Z</time>
      </trkpt>
      <trkpt lat="43.44591" lon="5.35372">
        <ele>244</ele>
        <time>2021-01-19T13:59:39Z</time>
      </trkpt>
      <trkpt lat="43.44591" lon="5.35372">
        <ele>244</ele>
        <time>2021-01-19T13:59:42Z</time>
      </trkpt>
      <trkpt lat="43.44591" lon="5.35372">
        <ele>244</ele>
        <time>2021-01-19T13:59:44Z</time>
      </trkpt>
      <trkpt lat="43.44591" lon="5.35372">
        <ele>244</ele>
        <time>2021-01-19T13:59:47Z</time>
      </trkpt>
      <trkpt lat="43.44591" lon="5.35372">
        <ele>244</ele>
        <time>2021-01-19T13:59:49Z</time>
      </trkpt>
      <trkpt lat="43.44591" lon="5.35372">
        <ele>244</ele>
        <time>2021-01-19T13:59:51Z</time>
      </trkpt>
      <trkpt lat="43.44591" lon="5.35372">
        <ele>244</ele>
        <time>2021-01-19T13:59:54Z</time>
      </trkpt>
      <trkpt lat="43.44591" lon="5.35372">
        <ele>244</ele>
        <time>2021-01-19T13:59:56Z</time>
      </trkpt>
      <trkpt lat="43.44591" lon="5.35372">
        <ele>244</ele>
        <time>2021-01-19T13:59:59Z</time>
      </trkpt>
      <trkpt lat="43.44591" lon="5.35372">
        <ele>244</ele>
        <time>2021-01-19T14:00:02Z</time>
      </trkpt>
      <trkpt lat="43.44591" lon="5.35372">
        <ele>244</ele>
        <time>2021-01-19T14:00:05Z</time>
      </trkpt>
      <trkpt lat="43.44591" lon="5.35372">
        <ele>243</ele>
        <time>2021-01-19T14:00:08Z</time>
      </trkpt>
      <trkpt lat="43.44591" lon="5.35372">
        <ele>243</ele>
        <time>2021-01-19T14:00:10Z</time>
      </trkpt>
      <trkpt lat="43.44591" lon="5.35372">
        <ele>243</ele>
        <time>2021-01-19T14:00:13Z</time>
      </trkpt>
      <trkpt lat="43.44591" lon="5.35372">
        <ele>243</ele>
        <time>2021-01-19T14:00:15Z</time>
      </trkpt>
      <trkpt lat="43.44591" lon="5.35372">
        <ele>243</ele>
        <time>2021-01-19T14:00:18Z</time>
      </trkpt>
      <trkpt lat="43.44591" lon="5.35372">
        <ele>243</ele>
        <time>2021-01-19T14:00:20Z</time>
      </trkpt>
      <trkpt lat="43.44591" lon="5.35372">
        <ele>243</ele>
        <time>2021-01-19T14:00:22Z</time>
      </trkpt>
      <trkpt lat="43.44591" lon="5.35372">
        <ele>243</ele>
        <time>2021-01-19T14:00:24Z</time>
      </trkpt>
      <trkpt lat="43.44591" lon="5.35372">
        <ele>243</ele>
        <time>2021-01-19T14:00:27Z</time>
      </trkpt>
      <trkpt lat="43.44591" lon="5.35372">
        <ele>243</ele>
        <time>2021-01-19T14:00:30Z</time>
      </trkpt>
      <trkpt lat="43.44591" lon="5.35372">
        <ele>243</ele>
        <time>2021-01-19T14:00:32Z</time>
      </trkpt>
      <trkpt lat="43.44591" lon="5.35372">
        <ele>243</ele>
        <time>2021-01-19T14:00:34Z</time>
      </trkpt>
      <trkpt lat="43.44591" lon="5.35372">
        <ele>243</ele>
        <time>2021-01-19T14:00:37Z</time>
      </trkpt>
      <trkpt lat="43.44591" lon="5.35372">
        <ele>243</ele>
        <time>2021-01-19T14:00:40Z</time>
      </trkpt>
      <trkpt lat="43.44591" lon="5.35372">
        <ele>243</ele>
        <time>2021-01-19T14:00:43Z</time>
      </trkpt>
      <trkpt lat="43.44591" lon="5.35372">
        <ele>243</ele>
        <time>2021-01-19T14:00:46Z</time>
      </trkpt>
      <trkpt lat="43.44591" lon="5.35372">
        <ele>243</ele>
        <time>2021-01-19T14:00:48Z</time>
      </trkpt>
      <trkpt lat="43.44591" lon="5.35372">
        <ele>243</ele>
        <time>2021-01-19T14:00:51Z</time>
      </trkpt>
      <trkpt lat="43.44591" lon="5.35372">
        <ele>243</ele>
        <time>2021-01-19T14:00:54Z</time>
      </trkpt>
      <trkpt lat="43.44591" lon="5.35372">
        <ele>243</ele>
        <time>2021-01-19T14:00:57Z</time>
      </trkpt>
      <trkpt lat="43.44591" lon="5.35372">
        <ele>243</ele>
        <time>2021-01-19T14:00:59Z</time>
      </trkpt>
      <trkpt lat="43.44591" lon="5.35372">
        <ele>243</ele>
        <time>2021-01-19T14:01:02Z</time>
      </trkpt>
      <trkpt lat="43.4459" lon="5.35372">
        <ele>242</ele>
        <time>2021-01-19T14:01:04Z</time>
      </trkpt>
      <trkpt lat="43.44589" lon="5.3537">
        <ele>242</ele>
        <time>2021-01-19T14:01:06Z</time>
      </trkpt>
      <trkpt lat="43.44588" lon="5.35367">
        <ele>244</ele>
        <time>2021-01-19T14:01:09Z</time>
      </trkpt>
      <trkpt lat="43.44588" lon="5.35366">
        <ele>244</ele>
        <time>2021-01-19T14:01:11Z</time>
      </trkpt>
      <trkpt lat="43.44586" lon="5.35364">
        <ele>244</ele>
        <time>2021-01-19T14:01:14Z</time>
      </trkpt>
      <trkpt lat="43.44584" lon="5.35363">
        <ele>245</ele>
        <time>2021-01-19T14:01:16Z</time>
      </trkpt>
      <trkpt lat="43.44582" lon="5.35364">
        <ele>245</ele>
        <time>2021-01-19T14:01:18Z</time>
      </trkpt>
      <trkpt lat="43.4458" lon="5.35364">
        <ele>247</ele>
        <time>2021-01-19T14:01:21Z</time>
      </trkpt>
      <trkpt lat="43.44579" lon="5.35363">
        <ele>248</ele>
        <time>2021-01-19T14:01:24Z</time>
      </trkpt>
      <trkpt lat="43.44577" lon="5.35363">
        <ele>248</ele>
        <time>2021-01-19T14:01:26Z</time>
      </trkpt>
      <trkpt lat="43.44576" lon="5.35362">
        <ele>248</ele>
        <time>2021-01-19T14:01:28Z</time>
      </trkpt>
      <trkpt lat="43.44576" lon="5.35362">
        <ele>248</ele>
        <time>2021-01-19T14:01:31Z</time>
      </trkpt>
      <trkpt lat="43.44576" lon="5.35361">
        <ele>248</ele>
        <time>2021-01-19T14:01:34Z</time>
      </trkpt>
      <trkpt lat="43.44576" lon="5.35361">
        <ele>248</ele>
        <time>2021-01-19T14:01:37Z</time>
      </trkpt>
      <trkpt lat="43.44576" lon="5.35361">
        <ele>248</ele>
        <time>2021-01-19T14:01:40Z</time>
      </trkpt>
      <trkpt lat="43.44576" lon="5.35361">
        <ele>248</ele>
        <time>2021-01-19T14:01:42Z</time>
      </trkpt>
      <trkpt lat="43.44576" lon="5.35361">
        <ele>248</ele>
        <time>2021-01-19T14:01:45Z</time>
      </trkpt>
      <trkpt lat="43.44576" lon="5.35361">
        <ele>248</ele>
        <time>2021-01-19T14:01:47Z</time>
      </trkpt>
      <trkpt lat="43.44576" lon="5.35361">
        <ele>248</ele>
        <time>2021-01-19T14:01:50Z</time>
      </trkpt>
      <trkpt lat="43.44576" lon="5.35362">
        <ele>248</ele>
        <time>2021-01-19T14:01:52Z</time>
      </trkpt>
      <trkpt lat="43.44574" lon="5.35362">
        <ele>248</ele>
        <time>2021-01-19T14:01:55Z</time>
      </trkpt>
      <trkpt lat="43.44574" lon="5.35362">
        <ele>247</ele>
        <time>2021-01-19T14:01:57Z</time>
      </trkpt>
      <trkpt lat="43.44575" lon="5.35362">
        <ele>247</ele>
        <time>2021-01-19T14:02:00Z</time>
      </trkpt>
      <trkpt lat="43.44575" lon="5.35362">
        <ele>247</ele>
        <time>2021-01-19T14:02:02Z</time>
      </trkpt>
      <trkpt lat="43.44574" lon="5.35362">
        <ele>247</ele>
        <time>2021-01-19T14:02:05Z</time>
      </trkpt>
      <trkpt lat="43.44574" lon="5.35362">
        <ele>247</ele>
        <time>2021-01-19T14:02:07Z</time>
      </trkpt>
      <trkpt lat="43.44574" lon="5.35362">
        <ele>247</ele>
        <time>2021-01-19T14:02:09Z</time>
      </trkpt>
      <trkpt lat="43.44574" lon="5.35362">
        <ele>247</ele>
        <time>2021-01-19T14:02:12Z</time>
      </trkpt>
      <trkpt lat="43.44575" lon="5.35362">
        <ele>248</ele>
        <time>2021-01-19T14:02:15Z</time>
      </trkpt>
      <trkpt lat="43.44575" lon="5.35363">
        <ele>248</ele>
        <time>2021-01-19T14:02:18Z</time>
      </trkpt>
      <trkpt lat="43.44575" lon="5.35363">
        <ele>248</ele>
        <time>2021-01-19T14:02:20Z</time>
      </trkpt>
      <trkpt lat="43.44575" lon="5.35363">
        <ele>248</ele>
        <time>2021-01-19T14:02:22Z</time>
      </trkpt>
      <trkpt lat="43.44575" lon="5.35363">
        <ele>248</ele>
        <time>2021-01-19T14:02:24Z</time>
      </trkpt>
      <trkpt lat="43.44575" lon="5.35362">
        <ele>246</ele>
        <time>2021-01-19T14:02:27Z</time>
      </trkpt>
      <trkpt lat="43.44575" lon="5.35363">
        <ele>246</ele>
        <time>2021-01-19T14:02:30Z</time>
      </trkpt>
      <trkpt lat="43.44575" lon="5.35363">
        <ele>245</ele>
        <time>2021-01-19T14:02:33Z</time>
      </trkpt>
      <trkpt lat="43.44574" lon="5.35364">
        <ele>245</ele>
        <time>2021-01-19T14:02:36Z</time>
      </trkpt>
      <trkpt lat="43.44573" lon="5.35364">
        <ele>244</ele>
        <time>2021-01-19T14:02:39Z</time>
      </trkpt>
      <trkpt lat="43.44573" lon="5.35364">
        <ele>243</ele>
        <time>2021-01-19T14:02:41Z</time>
      </trkpt>
      <trkpt lat="43.44573" lon="5.35364">
        <ele>243</ele>
        <time>2021-01-19T14:02:43Z</time>
      </trkpt>
      <trkpt lat="43.44573" lon="5.35364">
        <ele>242</ele>
        <time>2021-01-19T14:02:46Z</time>
      </trkpt>
      <trkpt lat="43.44572" lon="5.35363">
        <ele>243</ele>
        <time>2021-01-19T14:02:48Z</time>
      </trkpt>
      <trkpt lat="43.44572" lon="5.35362">
        <ele>244</ele>
        <time>2021-01-19T14:02:51Z</time>
      </trkpt>
      <trkpt lat="43.44572" lon="5.35362">
        <ele>244</ele>
        <time>2021-01-19T14:02:54Z</time>
      </trkpt>
      <trkpt lat="43.44572" lon="5.35362">
        <ele>245</ele>
        <time>2021-01-19T14:02:57Z</time>
      </trkpt>
      <trkpt lat="43.44572" lon="5.35362">
        <ele>245</ele>
        <time>2021-01-19T14:03:00Z</time>
      </trkpt>
      <trkpt lat="43.44572" lon="5.35362">
        <ele>245</ele>
        <time>2021-01-19T14:03:03Z</time>
      </trkpt>
      <trkpt lat="43.44572" lon="5.35362">
        <ele>245</ele>
        <time>2021-01-19T14:03:05Z</time>
      </trkpt>
      <trkpt lat="43.44572" lon="5.35362">
        <ele>245</ele>
        <time>2021-01-19T14:03:07Z</time>
      </trkpt>
      <trkpt lat="43.44573" lon="5.3536">
        <ele>246</ele>
        <time>2021-01-19T14:03:09Z</time>
      </trkpt>
      <trkpt lat="43.44573" lon="5.35359">
        <ele>247</ele>
        <time>2021-01-19T14:03:12Z</time>
      </trkpt>
      <trkpt lat="43.44572" lon="5.35358">
        <ele>249</ele>
        <time>2021-01-19T14:03:15Z</time>
      </trkpt>
      <trkpt lat="43.44573" lon="5.35358">
        <ele>249</ele>
        <time>2021-01-19T14:03:18Z</time>
      </trkpt>
      <trkpt lat="43.44573" lon="5.35358">
        <ele>249</ele>
        <time>2021-01-19T14:03:21Z</time>
      </trkpt>
      <trkpt lat="43.44573" lon="5.35358">
        <ele>249</ele>
        <time>2021-01-19T14:03:24Z</time>
      </trkpt>
      <trkpt lat="43.44573" lon="5.35358">
        <ele>249</ele>
        <time>2021-01-19T14:03:27Z</time>
      </trkpt>
      <trkpt lat="43.44573" lon="5.35358">
        <ele>249</ele>
        <time>2021-01-19T14:03:29Z</time>
      </trkpt>
      <trkpt lat="43.44573" lon="5.35358">
        <ele>249</ele>
        <time>2021-01-19T14:03:31Z</time>
      </trkpt>
      <trkpt lat="43.44572" lon="5.35358">
        <ele>249</ele>
        <time>2021-01-19T14:03:34Z</time>
      </trkpt>
      <trkpt lat="43.44573" lon="5.35357">
        <ele>250</ele>
        <time>2021-01-19T14:03:37Z</time>
      </trkpt>
      <trkpt lat="43.44573" lon="5.35357">
        <ele>250</ele>
        <time>2021-01-19T14:03:40Z</time>
      </trkpt>
      <trkpt lat="43.44573" lon="5.35354">
        <ele>249</ele>
        <time>2021-01-19T14:03:42Z</time>
      </trkpt>
      <trkpt lat="43.44572" lon="5.35351">
        <ele>248</ele>
        <time>2021-01-19T14:03:44Z</time>
      </trkpt>
      <trkpt lat="43.44571" lon="5.35347">
        <ele>248</ele>
        <time>2021-01-19T14:03:47Z</time>
      </trkpt>
      <trkpt lat="43.44572" lon="5.35345">
        <ele>248</ele>
        <time>2021-01-19T14:03:49Z</time>
      </trkpt>
      <trkpt lat="43.44572" lon="5.35344">
        <ele>248</ele>
        <time>2021-01-19T14:03:51Z</time>
      </trkpt>
      <trkpt lat="43.44572" lon="5.35344">
        <ele>248</ele>
        <time>2021-01-19T14:03:53Z</time>
      </trkpt>
      <trkpt lat="43.44574" lon="5.3534">
        <ele>249</ele>
        <time>2021-01-19T14:03:56Z</time>
      </trkpt>
      <trkpt lat="43.44574" lon="5.35338">
        <ele>249</ele>
        <time>2021-01-19T14:03:58Z</time>
      </trkpt>
      <trkpt lat="43.44574" lon="5.35334">
        <ele>248</ele>
        <time>2021-01-19T14:04:00Z</time>
      </trkpt>
      <trkpt lat="43.44573" lon="5.35331">
        <ele>248</ele>
        <time>2021-01-19T14:04:02Z</time>
      </trkpt>
      <trkpt lat="43.44573" lon="5.35329">
        <ele>248</ele>
        <time>2021-01-19T14:04:04Z</time>
      </trkpt>
      <trkpt lat="43.44573" lon="5.35328">
        <ele>248</ele>
        <time>2021-01-19T14:04:07Z</time>
      </trkpt>
      <trkpt lat="43.44574" lon="5.35324">
        <ele>248</ele>
        <time>2021-01-19T14:04:09Z</time>
      </trkpt>
      <trkpt lat="43.44574" lon="5.35321">
        <ele>248</ele>
        <time>2021-01-19T14:04:11Z</time>
      </trkpt>
      <trkpt lat="43.44575" lon="5.35319">
        <ele>249</ele>
        <time>2021-01-19T14:04:13Z</time>
      </trkpt>
      <trkpt lat="43.44575" lon="5.35315">
        <ele>249</ele>
        <time>2021-01-19T14:04:16Z</time>
      </trkpt>
      <trkpt lat="43.44576" lon="5.35311">
        <ele>249</ele>
        <time>2021-01-19T14:04:19Z</time>
      </trkpt>
      <trkpt lat="43.44576" lon="5.35308">
        <ele>249</ele>
        <time>2021-01-19T14:04:21Z</time>
      </trkpt>
      <trkpt lat="43.44577" lon="5.35305">
        <ele>249</ele>
        <time>2021-01-19T14:04:24Z</time>
      </trkpt>
      <trkpt lat="43.44577" lon="5.35301">
        <ele>249</ele>
        <time>2021-01-19T14:04:27Z</time>
      </trkpt>
      <trkpt lat="43.44577" lon="5.35299">
        <ele>248</ele>
        <time>2021-01-19T14:04:29Z</time>
      </trkpt>
      <trkpt lat="43.44578" lon="5.35297">
        <ele>248</ele>
        <time>2021-01-19T14:04:32Z</time>
      </trkpt>
      <trkpt lat="43.44578" lon="5.35295">
        <ele>249</ele>
        <time>2021-01-19T14:04:34Z</time>
      </trkpt>
      <trkpt lat="43.44579" lon="5.35293">
        <ele>250</ele>
        <time>2021-01-19T14:04:36Z</time>
      </trkpt>
      <trkpt lat="43.44579" lon="5.35289">
        <ele>251</ele>
        <time>2021-01-19T14:04:39Z</time>
      </trkpt>
      <trkpt lat="43.4458" lon="5.35285">
        <ele>251</ele>
        <time>2021-01-19T14:04:42Z</time>
      </trkpt>
      <trkpt lat="43.4458" lon="5.35281">
        <ele>251</ele>
        <time>2021-01-19T14:04:45Z</time>
      </trkpt>
      <trkpt lat="43.4458" lon="5.35279">
        <ele>250</ele>
        <time>2021-01-19T14:04:47Z</time>
      </trkpt>
      <trkpt lat="43.44581" lon="5.35276">
        <ele>250</ele>
        <time>2021-01-19T14:04:49Z</time>
      </trkpt>
      <trkpt lat="43.44581" lon="5.35272">
        <ele>251</ele>
        <time>2021-01-19T14:04:52Z</time>
      </trkpt>
      <trkpt lat="43.44582" lon="5.35268">
        <ele>249</ele>
        <time>2021-01-19T14:04:55Z</time>
      </trkpt>
      <trkpt lat="43.44582" lon="5.35264">
        <ele>249</ele>
        <time>2021-01-19T14:04:57Z</time>
      </trkpt>
      <trkpt lat="43.44582" lon="5.35258">
        <ele>248</ele>
        <time>2021-01-19T14:05:00Z</time>
      </trkpt>
      <trkpt lat="43.44583" lon="5.35254">
        <ele>248</ele>
        <time>2021-01-19T14:05:02Z</time>
      </trkpt>
      <trkpt lat="43.44584" lon="5.3525">
        <ele>247</ele>
        <time>2021-01-19T14:05:04Z</time>
      </trkpt>
      <trkpt lat="43.44585" lon="5.35245">
        <ele>248</ele>
        <time>2021-01-19T14:05:07Z</time>
      </trkpt>
      <trkpt lat="43.44585" lon="5.35242">
        <ele>249</ele>
        <time>2021-01-19T14:05:09Z</time>
      </trkpt>
      <trkpt lat="43.44586" lon="5.3524">
        <ele>249</ele>
        <time>2021-01-19T14:05:12Z</time>
      </trkpt>
      <trkpt lat="43.44586" lon="5.35239">
        <ele>249</ele>
        <time>2021-01-19T14:05:14Z</time>
      </trkpt>
      <trkpt lat="43.44587" lon="5.35237">
        <ele>250</ele>
        <time>2021-01-19T14:05:16Z</time>
      </trkpt>
      <trkpt lat="43.44588" lon="5.35234">
        <ele>251</ele>
        <time>2021-01-19T14:05:19Z</time>
      </trkpt>
      <trkpt lat="43.44587" lon="5.35231">
        <ele>252</ele>
        <time>2021-01-19T14:05:22Z</time>
      </trkpt>
      <trkpt lat="43.44587" lon="5.35228">
        <ele>252</ele>
        <time>2021-01-19T14:05:24Z</time>
      </trkpt>
      <trkpt lat="43.44587" lon="5.35226">
        <ele>252</ele>
        <time>2021-01-19T14:05:26Z</time>
      </trkpt>
      <trkpt lat="43.44586" lon="5.35224">
        <ele>250</ele>
        <time>2021-01-19T14:05:29Z</time>
      </trkpt>
      <trkpt lat="43.44585" lon="5.35221">
        <ele>250</ele>
        <time>2021-01-19T14:05:31Z</time>
      </trkpt>
      <trkpt lat="43.44584" lon="5.35219">
        <ele>250</ele>
        <time>2021-01-19T14:05:33Z</time>
      </trkpt>
      <trkpt lat="43.44584" lon="5.35216">
        <ele>250</ele>
        <time>2021-01-19T14:05:35Z</time>
      </trkpt>
      <trkpt lat="43.44583" lon="5.35211">
        <ele>250</ele>
        <time>2021-01-19T14:05:38Z</time>
      </trkpt>
      <trkpt lat="43.44583" lon="5.35208">
        <ele>250</ele>
        <time>2021-01-19T14:05:40Z</time>
      </trkpt>
      <trkpt lat="43.44583" lon="5.35206">
        <ele>250</ele>
        <time>2021-01-19T14:05:42Z</time>
      </trkpt>
      <trkpt lat="43.44584" lon="5.35203">
        <ele>251</ele>
        <time>2021-01-19T14:05:45Z</time>
      </trkpt>
      <trkpt lat="43.44584" lon="5.35202">
        <ele>251</ele>
        <time>2021-01-19T14:05:47Z</time>
      </trkpt>
      <trkpt lat="43.44584" lon="5.35198">
        <ele>251</ele>
        <time>2021-01-19T14:05:49Z</time>
      </trkpt>
      <trkpt lat="43.44584" lon="5.35193">
        <ele>251</ele>
        <time>2021-01-19T14:05:52Z</time>
      </trkpt>
      <trkpt lat="43.44584" lon="5.35191">
        <ele>251</ele>
        <time>2021-01-19T14:05:54Z</time>
      </trkpt>
      <trkpt lat="43.44585" lon="5.35186">
        <ele>253</ele>
        <time>2021-01-19T14:05:57Z</time>
      </trkpt>
      <trkpt lat="43.44585" lon="5.35184">
        <ele>253</ele>
        <time>2021-01-19T14:05:59Z</time>
      </trkpt>
      <trkpt lat="43.44585" lon="5.35179">
        <ele>253</ele>
        <time>2021-01-19T14:06:02Z</time>
      </trkpt>
      <trkpt lat="43.44585" lon="5.35177">
        <ele>253</ele>
        <time>2021-01-19T14:06:04Z</time>
      </trkpt>
      <trkpt lat="43.44585" lon="5.35173">
        <ele>253</ele>
        <time>2021-01-19T14:06:07Z</time>
      </trkpt>
      <trkpt lat="43.44585" lon="5.3517">
        <ele>255</ele>
        <time>2021-01-19T14:06:09Z</time>
      </trkpt>
      <trkpt lat="43.44584" lon="5.35167">
        <ele>256</ele>
        <time>2021-01-19T14:06:11Z</time>
      </trkpt>
      <trkpt lat="43.44585" lon="5.35163">
        <ele>255</ele>
        <time>2021-01-19T14:06:14Z</time>
      </trkpt>
      <trkpt lat="43.44585" lon="5.35161">
        <ele>255</ele>
        <time>2021-01-19T14:06:16Z</time>
      </trkpt>
      <trkpt lat="43.44585" lon="5.35157">
        <ele>255</ele>
        <time>2021-01-19T14:06:18Z</time>
      </trkpt>
      <trkpt lat="43.44585" lon="5.35154">
        <ele>255</ele>
        <time>2021-01-19T14:06:20Z</time>
      </trkpt>
      <trkpt lat="43.44586" lon="5.35152">
        <ele>256</ele>
        <time>2021-01-19T14:06:22Z</time>
      </trkpt>
      <trkpt lat="43.44587" lon="5.35149">
        <ele>255</ele>
        <time>2021-01-19T14:06:24Z</time>
      </trkpt>
      <trkpt lat="43.44588" lon="5.35145">
        <ele>254</ele>
        <time>2021-01-19T14:06:27Z</time>
      </trkpt>
      <trkpt lat="43.44587" lon="5.35143">
        <ele>254</ele>
        <time>2021-01-19T14:06:30Z</time>
      </trkpt>
      <trkpt lat="43.44588" lon="5.35139">
        <ele>254</ele>
        <time>2021-01-19T14:06:32Z</time>
      </trkpt>
      <trkpt lat="43.44588" lon="5.35134">
        <ele>253</ele>
        <time>2021-01-19T14:06:35Z</time>
      </trkpt>
      <trkpt lat="43.44588" lon="5.35131">
        <ele>253</ele>
        <time>2021-01-19T14:06:37Z</time>
      </trkpt>
      <trkpt lat="43.44588" lon="5.35127">
        <ele>252</ele>
        <time>2021-01-19T14:06:40Z</time>
      </trkpt>
      <trkpt lat="43.44587" lon="5.35124">
        <ele>251</ele>
        <time>2021-01-19T14:06:42Z</time>
      </trkpt>
      <trkpt lat="43.44587" lon="5.35119">
        <ele>251</ele>
        <time>2021-01-19T14:06:45Z</time>
      </trkpt>
      <trkpt lat="43.44587" lon="5.35117">
        <ele>250</ele>
        <time>2021-01-19T14:06:48Z</time>
      </trkpt>
      <trkpt lat="43.44586" lon="5.35113">
        <ele>248</ele>
        <time>2021-01-19T14:06:51Z</time>
      </trkpt>
      <trkpt lat="43.44586" lon="5.3511">
        <ele>247</ele>
        <time>2021-01-19T14:06:53Z</time>
      </trkpt>
      <trkpt lat="43.44586" lon="5.35107">
        <ele>247</ele>
        <time>2021-01-19T14:06:55Z</time>
      </trkpt>
      <trkpt lat="43.44586" lon="5.35104">
        <ele>247</ele>
        <time>2021-01-19T14:06:58Z</time>
      </trkpt>
      <trkpt lat="43.44585" lon="5.35101">
        <ele>247</ele>
        <time>2021-01-19T14:07:00Z</time>
      </trkpt>
      <trkpt lat="43.44585" lon="5.35098">
        <ele>247</ele>
        <time>2021-01-19T14:07:02Z</time>
      </trkpt>
      <trkpt lat="43.44585" lon="5.35097">
        <ele>247</ele>
        <time>2021-01-19T14:07:04Z</time>
      </trkpt>
      <trkpt lat="43.44586" lon="5.35092">
        <ele>247</ele>
        <time>2021-01-19T14:07:07Z</time>
      </trkpt>
      <trkpt lat="43.44586" lon="5.35089">
        <ele>248</ele>
        <time>2021-01-19T14:07:09Z</time>
      </trkpt>
      <trkpt lat="43.44586" lon="5.35085">
        <ele>249</ele>
        <time>2021-01-19T14:07:12Z</time>
      </trkpt>
      <trkpt lat="43.44585" lon="5.3508">
        <ele>249</ele>
        <time>2021-01-19T14:07:15Z</time>
      </trkpt>
      <trkpt lat="43.44585" lon="5.35075">
        <ele>249</ele>
        <time>2021-01-19T14:07:18Z</time>
      </trkpt>
      <trkpt lat="43.44585" lon="5.35072">
        <ele>249</ele>
        <time>2021-01-19T14:07:20Z</time>
      </trkpt>
      <trkpt lat="43.44585" lon="5.35069">
        <ele>249</ele>
        <time>2021-01-19T14:07:22Z</time>
      </trkpt>
      <trkpt lat="43.44586" lon="5.35067">
        <ele>249</ele>
        <time>2021-01-19T14:07:24Z</time>
      </trkpt>
      <trkpt lat="43.44586" lon="5.35065">
        <ele>249</ele>
        <time>2021-01-19T14:07:26Z</time>
      </trkpt>
      <trkpt lat="43.44586" lon="5.35062">
        <ele>250</ele>
        <time>2021-01-19T14:07:29Z</time>
      </trkpt>
      <trkpt lat="43.44587" lon="5.3506">
        <ele>249</ele>
        <time>2021-01-19T14:07:31Z</time>
      </trkpt>
      <trkpt lat="43.44587" lon="5.35058">
        <ele>249</ele>
        <time>2021-01-19T14:07:33Z</time>
      </trkpt>
      <trkpt lat="43.44587" lon="5.35056">
        <ele>248</ele>
        <time>2021-01-19T14:07:35Z</time>
      </trkpt>
      <trkpt lat="43.44587" lon="5.35051">
        <ele>247</ele>
        <time>2021-01-19T14:07:38Z</time>
      </trkpt>
      <trkpt lat="43.44587" lon="5.35046">
        <ele>247</ele>
        <time>2021-01-19T14:07:41Z</time>
      </trkpt>
      <trkpt lat="43.44587" lon="5.35043">
        <ele>247</ele>
        <time>2021-01-19T14:07:43Z</time>
      </trkpt>
      <trkpt lat="43.44586" lon="5.35039">
        <ele>246</ele>
        <time>2021-01-19T14:07:45Z</time>
      </trkpt>
      <trkpt lat="43.44587" lon="5.35033">
        <ele>248</ele>
        <time>2021-01-19T14:07:48Z</time>
      </trkpt>
      <trkpt lat="43.44587" lon="5.35028">
        <ele>248</ele>
        <time>2021-01-19T14:07:51Z</time>
      </trkpt>
      <trkpt lat="43.44587" lon="5.35025">
        <ele>250</ele>
        <time>2021-01-19T14:07:53Z</time>
      </trkpt>
      <trkpt lat="43.44587" lon="5.3502">
        <ele>251</ele>
        <time>2021-01-19T14:07:56Z</time>
      </trkpt>
      <trkpt lat="43.44586" lon="5.35016">
        <ele>250</ele>
        <time>2021-01-19T14:07:59Z</time>
      </trkpt>
      <trkpt lat="43.44586" lon="5.35013">
        <ele>251</ele>
        <time>2021-01-19T14:08:01Z</time>
      </trkpt>
      <trkpt lat="43.44586" lon="5.35009">
        <ele>251</ele>
        <time>2021-01-19T14:08:04Z</time>
      </trkpt>
      <trkpt lat="43.44585" lon="5.35004">
        <ele>250</ele>
        <time>2021-01-19T14:08:07Z</time>
      </trkpt>
      <trkpt lat="43.44585" lon="5.35001">
        <ele>250</ele>
        <time>2021-01-19T14:08:09Z</time>
      </trkpt>
      <trkpt lat="43.44585" lon="5.34996">
        <ele>251</ele>
        <time>2021-01-19T14:08:12Z</time>
      </trkpt>
      <trkpt lat="43.44584" lon="5.34994">
        <ele>250</ele>
        <time>2021-01-19T14:08:14Z</time>
      </trkpt>
      <trkpt lat="43.44584" lon="5.34989">
        <ele>250</ele>
        <time>2021-01-19T14:08:17Z</time>
      </trkpt>
      <trkpt lat="43.44583" lon="5.34985">
        <ele>250</ele>
        <time>2021-01-19T14:08:20Z</time>
      </trkpt>
      <trkpt lat="43.44582" lon="5.34981">
        <ele>250</ele>
        <time>2021-01-19T14:08:23Z</time>
      </trkpt>
      <trkpt lat="43.44581" lon="5.34979">
        <ele>250</ele>
        <time>2021-01-19T14:08:26Z</time>
      </trkpt>
      <trkpt lat="43.4458" lon="5.34976">
        <ele>250</ele>
        <time>2021-01-19T14:08:29Z</time>
      </trkpt>
      <trkpt lat="43.4458" lon="5.34974">
        <ele>249</ele>
        <time>2021-01-19T14:08:31Z</time>
      </trkpt>
      <trkpt lat="43.44579" lon="5.34972">
        <ele>249</ele>
        <time>2021-01-19T14:08:33Z</time>
      </trkpt>
      <trkpt lat="43.44578" lon="5.34969">
        <ele>248</ele>
        <time>2021-01-19T14:08:36Z</time>
      </trkpt>
      <trkpt lat="43.44578" lon="5.34964">
        <ele>248</ele>
        <time>2021-01-19T14:08:39Z</time>
      </trkpt>
      <trkpt lat="43.44577" lon="5.34959">
        <ele>247</ele>
        <time>2021-01-19T14:08:42Z</time>
      </trkpt>
      <trkpt lat="43.44575" lon="5.34955">
        <ele>246</ele>
        <time>2021-01-19T14:08:45Z</time>
      </trkpt>
      <trkpt lat="43.44574" lon="5.34952">
        <ele>246</ele>
        <time>2021-01-19T14:08:47Z</time>
      </trkpt>
      <trkpt lat="43.44573" lon="5.34948">
        <ele>245</ele>
        <time>2021-01-19T14:08:50Z</time>
      </trkpt>
      <trkpt lat="43.44572" lon="5.34945">
        <ele>245</ele>
        <time>2021-01-19T14:08:52Z</time>
      </trkpt>
      <trkpt lat="43.44571" lon="5.34942">
        <ele>245</ele>
        <time>2021-01-19T14:08:55Z</time>
      </trkpt>
      <trkpt lat="43.4457" lon="5.3494">
        <ele>246</ele>
        <time>2021-01-19T14:08:57Z</time>
      </trkpt>
      <trkpt lat="43.44569" lon="5.34936">
        <ele>245</ele>
        <time>2021-01-19T14:09:00Z</time>
      </trkpt>
      <trkpt lat="43.44569" lon="5.34933">
        <ele>245</ele>
        <time>2021-01-19T14:09:02Z</time>
      </trkpt>
      <trkpt lat="43.44568" lon="5.34928">
        <ele>245</ele>
        <time>2021-01-19T14:09:05Z</time>
      </trkpt>
      <trkpt lat="43.44568" lon="5.34925">
        <ele>245</ele>
        <time>2021-01-19T14:09:07Z</time>
      </trkpt>
      <trkpt lat="43.44567" lon="5.3492">
        <ele>246</ele>
        <time>2021-01-19T14:09:10Z</time>
      </trkpt>
      <trkpt lat="43.44567" lon="5.34915">
        <ele>245</ele>
        <time>2021-01-19T14:09:13Z</time>
      </trkpt>
      <trkpt lat="43.44566" lon="5.34912">
        <ele>246</ele>
        <time>2021-01-19T14:09:15Z</time>
      </trkpt>
      <trkpt lat="43.44566" lon="5.34909">
        <ele>246</ele>
        <time>2021-01-19T14:09:17Z</time>
      </trkpt>
      <trkpt lat="43.44565" lon="5.34906">
        <ele>246</ele>
        <time>2021-01-19T14:09:19Z</time>
      </trkpt>
      <trkpt lat="43.44564" lon="5.34901">
        <ele>247</ele>
        <time>2021-01-19T14:09:22Z</time>
      </trkpt>
      <trkpt lat="43.44564" lon="5.34898">
        <ele>247</ele>
        <time>2021-01-19T14:09:24Z</time>
      </trkpt>
      <trkpt lat="43.44564" lon="5.34894">
        <ele>248</ele>
        <time>2021-01-19T14:09:26Z</time>
      </trkpt>
      <trkpt lat="43.44563" lon="5.34891">
        <ele>248</ele>
        <time>2021-01-19T14:09:28Z</time>
      </trkpt>
      <trkpt lat="43.44562" lon="5.34886">
        <ele>249</ele>
        <time>2021-01-19T14:09:31Z</time>
      </trkpt>
      <trkpt lat="43.44562" lon="5.34883">
        <ele>249</ele>
        <time>2021-01-19T14:09:33Z</time>
      </trkpt>
      <trkpt lat="43.44561" lon="5.34879">
        <ele>249</ele>
        <time>2021-01-19T14:09:36Z</time>
      </trkpt>
      <trkpt lat="43.44561" lon="5.34876">
        <ele>249</ele>
        <time>2021-01-19T14:09:38Z</time>
      </trkpt>
      <trkpt lat="43.4456" lon="5.34871">
        <ele>248</ele>
        <time>2021-01-19T14:09:41Z</time>
      </trkpt>
      <trkpt lat="43.4456" lon="5.34867">
        <ele>248</ele>
        <time>2021-01-19T14:09:44Z</time>
      </trkpt>
      <trkpt lat="43.44561" lon="5.34864">
        <ele>248</ele>
        <time>2021-01-19T14:09:46Z</time>
      </trkpt>
      <trkpt lat="43.44562" lon="5.34859">
        <ele>248</ele>
        <time>2021-01-19T14:09:49Z</time>
      </trkpt>
      <trkpt lat="43.44563" lon="5.34856">
        <ele>248</ele>
        <time>2021-01-19T14:09:52Z</time>
      </trkpt>
      <trkpt lat="43.44564" lon="5.34854">
        <ele>247</ele>
        <time>2021-01-19T14:09:55Z</time>
      </trkpt>
      <trkpt lat="43.44564" lon="5.34855">
        <ele>247</ele>
        <time>2021-01-19T14:09:57Z</time>
      </trkpt>
      <trkpt lat="43.44564" lon="5.34855">
        <ele>247</ele>
        <time>2021-01-19T14:10:00Z</time>
      </trkpt>
      <trkpt lat="43.44563" lon="5.34856">
        <ele>248</ele>
        <time>2021-01-19T14:10:02Z</time>
      </trkpt>
      <trkpt lat="43.44563" lon="5.34855">
        <ele>248</ele>
        <time>2021-01-19T14:10:05Z</time>
      </trkpt>
      <trkpt lat="43.44563" lon="5.34856">
        <ele>249</ele>
        <time>2021-01-19T14:10:08Z</time>
      </trkpt>
      <trkpt lat="43.44563" lon="5.34855">
        <ele>248</ele>
        <time>2021-01-19T14:10:10Z</time>
      </trkpt>
      <trkpt lat="43.44565" lon="5.34854">
        <ele>249</ele>
        <time>2021-01-19T14:10:13Z</time>
      </trkpt>
      <trkpt lat="43.44566" lon="5.34853">
        <ele>250</ele>
        <time>2021-01-19T14:10:15Z</time>
      </trkpt>
      <trkpt lat="43.44568" lon="5.34852">
        <ele>250</ele>
        <time>2021-01-19T14:10:17Z</time>
      </trkpt>
      <trkpt lat="43.44572" lon="5.34852">
        <ele>249</ele>
        <time>2021-01-19T14:10:20Z</time>
      </trkpt>
      <trkpt lat="43.44576" lon="5.34851">
        <ele>249</ele>
        <time>2021-01-19T14:10:23Z</time>
      </trkpt>
      <trkpt lat="43.44579" lon="5.34851">
        <ele>250</ele>
        <time>2021-01-19T14:10:26Z</time>
      </trkpt>
      <trkpt lat="43.44582" lon="5.34851">
        <ele>250</ele>
        <time>2021-01-19T14:10:29Z</time>
      </trkpt>
      <trkpt lat="43.44585" lon="5.34851">
        <ele>251</ele>
        <time>2021-01-19T14:10:31Z</time>
      </trkpt>
      <trkpt lat="43.44587" lon="5.34851">
        <ele>250</ele>
        <time>2021-01-19T14:10:33Z</time>
      </trkpt>
      <trkpt lat="43.44591" lon="5.34851">
        <ele>252</ele>
        <time>2021-01-19T14:10:36Z</time>
      </trkpt>
      <trkpt lat="43.44593" lon="5.34851">
        <ele>252</ele>
        <time>2021-01-19T14:10:38Z</time>
      </trkpt>
      <trkpt lat="43.44595" lon="5.34852">
        <ele>252</ele>
        <time>2021-01-19T14:10:40Z</time>
      </trkpt>
      <trkpt lat="43.44596" lon="5.34852">
        <ele>252</ele>
        <time>2021-01-19T14:10:42Z</time>
      </trkpt>
      <trkpt lat="43.44599" lon="5.34853">
        <ele>252</ele>
        <time>2021-01-19T14:10:44Z</time>
      </trkpt>
      <trkpt lat="43.44602" lon="5.34854">
        <ele>252</ele>
        <time>2021-01-19T14:10:47Z</time>
      </trkpt>
      <trkpt lat="43.44604" lon="5.34855">
        <ele>252</ele>
        <time>2021-01-19T14:10:49Z</time>
      </trkpt>
      <trkpt lat="43.44606" lon="5.34855">
        <ele>252</ele>
        <time>2021-01-19T14:10:51Z</time>
      </trkpt>
      <trkpt lat="43.44609" lon="5.34855">
        <ele>253</ele>
        <time>2021-01-19T14:10:54Z</time>
      </trkpt>
      <trkpt lat="43.44612" lon="5.34855">
        <ele>255</ele>
        <time>2021-01-19T14:10:57Z</time>
      </trkpt>
      <trkpt lat="43.44614" lon="5.34855">
        <ele>255</ele>
        <time>2021-01-19T14:10:59Z</time>
      </trkpt>
      <trkpt lat="43.44616" lon="5.34856">
        <ele>256</ele>
        <time>2021-01-19T14:11:01Z</time>
      </trkpt>
      <trkpt lat="43.44619" lon="5.34856">
        <ele>256</ele>
        <time>2021-01-19T14:11:04Z</time>
      </trkpt>
      <trkpt lat="43.44622" lon="5.34856">
        <ele>257</ele>
        <time>2021-01-19T14:11:06Z</time>
      </trkpt>
      <trkpt lat="43.44625" lon="5.34856">
        <ele>257</ele>
        <time>2021-01-19T14:11:09Z</time>
      </trkpt>
      <trkpt lat="43.44627" lon="5.34855">
        <ele>256</ele>
        <time>2021-01-19T14:11:11Z</time>
      </trkpt>
      <trkpt lat="43.44631" lon="5.34856">
        <ele>256</ele>
        <time>2021-01-19T14:11:14Z</time>
      </trkpt>
      <trkpt lat="43.44634" lon="5.34856">
        <ele>257</ele>
        <time>2021-01-19T14:11:16Z</time>
      </trkpt>
      <trkpt lat="43.44635" lon="5.34856">
        <ele>257</ele>
        <time>2021-01-19T14:11:18Z</time>
      </trkpt>
      <trkpt lat="43.44637" lon="5.34856">
        <ele>258</ele>
        <time>2021-01-19T14:11:20Z</time>
      </trkpt>
      <trkpt lat="43.44639" lon="5.34856">
        <ele>258</ele>
        <time>2021-01-19T14:11:23Z</time>
      </trkpt>
      <trkpt lat="43.44641" lon="5.34856">
        <ele>257</ele>
        <time>2021-01-19T14:11:25Z</time>
      </trkpt>
      <trkpt lat="43.44643" lon="5.34855">
        <ele>257</ele>
        <time>2021-01-19T14:11:28Z</time>
      </trkpt>
      <trkpt lat="43.44646" lon="5.34855">
        <ele>256</ele>
        <time>2021-01-19T14:11:31Z</time>
      </trkpt>
      <trkpt lat="43.44649" lon="5.34855">
        <ele>257</ele>
        <time>2021-01-19T14:11:34Z</time>
      </trkpt>
      <trkpt lat="43.44651" lon="5.34855">
        <ele>257</ele>
        <time>2021-01-19T14:11:36Z</time>
      </trkpt>
      <trkpt lat="43.44653" lon="5.34856">
        <ele>257</ele>
        <time>2021-01-19T14:11:38Z</time>
      </trkpt>
      <trkpt lat="43.44657" lon="5.34856">
        <ele>256</ele>
        <time>2021-01-19T14:11:41Z</time>
      </trkpt>
      <trkpt lat="43.4466" lon="5.34856">
        <ele>257</ele>
        <time>2021-01-19T14:11:44Z</time>
      </trkpt>
      <trkpt lat="43.44663" lon="5.34856">
        <ele>257</ele>
        <time>2021-01-19T14:11:46Z</time>
      </trkpt>
      <trkpt lat="43.44665" lon="5.34856">
        <ele>258</ele>
        <time>2021-01-19T14:11:48Z</time>
      </trkpt>
      <trkpt lat="43.44667" lon="5.34856">
        <ele>258</ele>
        <time>2021-01-19T14:11:51Z</time>
      </trkpt>
      <trkpt lat="43.44669" lon="5.34855">
        <ele>259</ele>
        <time>2021-01-19T14:11:53Z</time>
      </trkpt>
      <trkpt lat="43.44671" lon="5.34855">
        <ele>258</ele>
        <time>2021-01-19T14:11:56Z</time>
      </trkpt>
      <trkpt lat="43.44672" lon="5.34855">
        <ele>257</ele>
        <time>2021-01-19T14:11:58Z</time>
      </trkpt>
      <trkpt lat="43.44675" lon="5.34855">
        <ele>257</ele>
        <time>2021-01-19T14:12:01Z</time>
      </trkpt>
      <trkpt lat="43.44679" lon="5.34854">
        <ele>256</ele>
        <time>2021-01-19T14:12:04Z</time>
      </trkpt>
      <trkpt lat="43.44681" lon="5.34853">
        <ele>255</ele>
        <time>2021-01-19T14:12:06Z</time>
      </trkpt>
      <trkpt lat="43.44683" lon="5.34853">
        <ele>255</ele>
        <time>2021-01-19T14:12:08Z</time>
      </trkpt>
      <trkpt lat="43.44686" lon="5.34853">
        <ele>254</ele>
        <time>2021-01-19T14:12:10Z</time>
      </trkpt>
      <trkpt lat="43.44689" lon="5.34853">
        <ele>254</ele>
        <time>2021-01-19T14:12:13Z</time>
      </trkpt>
      <trkpt lat="43.44691" lon="5.34852">
        <ele>254</ele>
        <time>2021-01-19T14:12:15Z</time>
      </trkpt>
      <trkpt lat="43.44695" lon="5.34851">
        <ele>254</ele>
        <time>2021-01-19T14:12:18Z</time>
      </trkpt>
      <trkpt lat="43.44698" lon="5.3485">
        <ele>254</ele>
        <time>2021-01-19T14:12:21Z</time>
      </trkpt>
      <trkpt lat="43.447" lon="5.34849">
        <ele>255</ele>
        <time>2021-01-19T14:12:23Z</time>
      </trkpt>
      <trkpt lat="43.44702" lon="5.34849">
        <ele>254</ele>
        <time>2021-01-19T14:12:25Z</time>
      </trkpt>
      <trkpt lat="43.44705" lon="5.34847">
        <ele>254</ele>
        <time>2021-01-19T14:12:28Z</time>
      </trkpt>
      <trkpt lat="43.44707" lon="5.34846">
        <ele>254</ele>
        <time>2021-01-19T14:12:30Z</time>
      </trkpt>
      <trkpt lat="43.44709" lon="5.34844">
        <ele>254</ele>
        <time>2021-01-19T14:12:32Z</time>
      </trkpt>
      <trkpt lat="43.44711" lon="5.34841">
        <ele>255</ele>
        <time>2021-01-19T14:12:35Z</time>
      </trkpt>
      <trkpt lat="43.44713" lon="5.34839">
        <ele>255</ele>
        <time>2021-01-19T14:12:37Z</time>
      </trkpt>
      <trkpt lat="43.44715" lon="5.34836">
        <ele>254</ele>
        <time>2021-01-19T14:12:40Z</time>
      </trkpt>
      <trkpt lat="43.44717" lon="5.34834">
        <ele>254</ele>
        <time>2021-01-19T14:12:43Z</time>
      </trkpt>
      <trkpt lat="43.44717" lon="5.34833">
        <ele>254</ele>
        <time>2021-01-19T14:12:46Z</time>
      </trkpt>
      <trkpt lat="43.44717" lon="5.34832">
        <ele>254</ele>
        <time>2021-01-19T14:12:48Z</time>
      </trkpt>
      <trkpt lat="43.44716" lon="5.34831">
        <ele>252</ele>
        <time>2021-01-19T14:12:51Z</time>
      </trkpt>
      <trkpt lat="43.44715" lon="5.34829">
        <ele>251</ele>
        <time>2021-01-19T14:12:54Z</time>
      </trkpt>
      <trkpt lat="43.44715" lon="5.34829">
        <ele>251</ele>
        <time>2021-01-19T14:12:56Z</time>
      </trkpt>
      <trkpt lat="43.44715" lon="5.34827">
        <ele>251</ele>
        <time>2021-01-19T14:12:58Z</time>
      </trkpt>
      <trkpt lat="43.44714" lon="5.34824">
        <ele>251</ele>
        <time>2021-01-19T14:13:01Z</time>
      </trkpt>
      <trkpt lat="43.44714" lon="5.34822">
        <ele>251</ele>
        <time>2021-01-19T14:13:03Z</time>
      </trkpt>
      <trkpt lat="43.44714" lon="5.34821">
        <ele>249</ele>
        <time>2021-01-19T14:13:06Z</time>
      </trkpt>
      <trkpt lat="43.44714" lon="5.34821">
        <ele>249</ele>
        <time>2021-01-19T14:13:08Z</time>
      </trkpt>
      <trkpt lat="43.44714" lon="5.34821">
        <ele>249</ele>
        <time>2021-01-19T14:13:11Z</time>
      </trkpt>
      <trkpt lat="43.44714" lon="5.34821">
        <ele>249</ele>
        <time>2021-01-19T14:13:13Z</time>
      </trkpt>
      <trkpt lat="43.44714" lon="5.34821">
        <ele>249</ele>
        <time>2021-01-19T14:13:15Z</time>
      </trkpt>
      <trkpt lat="43.44714" lon="5.3482">
        <ele>249</ele>
        <time>2021-01-19T14:13:17Z</time>
      </trkpt>
      <trkpt lat="43.44714" lon="5.3482">
        <ele>249</ele>
        <time>2021-01-19T14:13:20Z</time>
      </trkpt>
      <trkpt lat="43.44714" lon="5.34819">
        <ele>248</ele>
        <time>2021-01-19T14:13:23Z</time>
      </trkpt>
      <trkpt lat="43.44715" lon="5.3482">
        <ele>247</ele>
        <time>2021-01-19T14:13:26Z</time>
      </trkpt>
      <trkpt lat="43.44715" lon="5.3482">
        <ele>247</ele>
        <time>2021-01-19T14:13:29Z</time>
      </trkpt>
      <trkpt lat="43.44715" lon="5.3482">
        <ele>247</ele>
        <time>2021-01-19T14:13:31Z</time>
      </trkpt>
      <trkpt lat="43.44715" lon="5.3482">
        <ele>247</ele>
        <time>2021-01-19T14:13:33Z</time>
      </trkpt>
      <trkpt lat="43.44715" lon="5.3482">
        <ele>247</ele>
        <time>2021-01-19T14:13:35Z</time>
      </trkpt>
      <trkpt lat="43.44715" lon="5.3482">
        <ele>247</ele>
        <time>2021-01-19T14:13:37Z</time>
      </trkpt>
      <trkpt lat="43.44715" lon="5.3482">
        <ele>247</ele>
        <time>2021-01-19T14:13:40Z</time>
      </trkpt>
      <trkpt lat="43.44715" lon="5.3482">
        <ele>247</ele>
        <time>2021-01-19T14:13:42Z</time>
      </trkpt>
      <trkpt lat="43.44715" lon="5.3482">
        <ele>247</ele>
        <time>2021-01-19T14:13:44Z</time>
      </trkpt>
      <trkpt lat="43.44715" lon="5.3482">
        <ele>247</ele>
        <time>2021-01-19T14:13:46Z</time>
      </trkpt>
      <trkpt lat="43.44715" lon="5.3482">
        <ele>247</ele>
        <time>2021-01-19T14:13:49Z</time>
      </trkpt>
      <trkpt lat="43.44715" lon="5.3482">
        <ele>247</ele>
        <time>2021-01-19T14:13:51Z</time>
      </trkpt>
      <trkpt lat="43.44715" lon="5.3482">
        <ele>247</ele>
        <time>2021-01-19T14:13:54Z</time>
      </trkpt>
      <trkpt lat="43.44715" lon="5.3482">
        <ele>247</ele>
        <time>2021-01-19T14:13:57Z</time>
      </trkpt>
      <trkpt lat="43.44715" lon="5.3482">
        <ele>247</ele>
        <time>2021-01-19T14:13:59Z</time>
      </trkpt>
      <trkpt lat="43.44715" lon="5.3482">
        <ele>247</ele>
        <time>2021-01-19T14:14:02Z</time>
      </trkpt>
      <trkpt lat="43.44715" lon="5.3482">
        <ele>247</ele>
        <time>2021-01-19T14:14:04Z</time>
      </trkpt>
      <trkpt lat="43.44715" lon="5.3482">
        <ele>247</ele>
        <time>2021-01-19T14:14:07Z</time>
      </trkpt>
      <trkpt lat="43.44715" lon="5.3482">
        <ele>247</ele>
        <time>2021-01-19T14:14:10Z</time>
      </trkpt>
      <trkpt lat="43.44715" lon="5.3482">
        <ele>251</ele>
        <time>2021-01-19T14:14:13Z</time>
      </trkpt>
      <trkpt lat="43.44714" lon="5.3482">
        <ele>252</ele>
        <time>2021-01-19T14:14:15Z</time>
      </trkpt>
      <trkpt lat="43.44714" lon="5.3482">
        <ele>252</ele>
        <time>2021-01-19T14:14:17Z</time>
      </trkpt>
      <trkpt lat="43.44714" lon="5.3482">
        <ele>252</ele>
        <time>2021-01-19T14:14:20Z</time>
      </trkpt>
      <trkpt lat="43.44714" lon="5.3482">
        <ele>252</ele>
        <time>2021-01-19T14:14:22Z</time>
      </trkpt>
      <trkpt lat="43.44714" lon="5.3482">
        <ele>252</ele>
        <time>2021-01-19T14:14:24Z</time>
      </trkpt>
      <trkpt lat="43.44714" lon="5.3482">
        <ele>252</ele>
        <time>2021-01-19T14:14:27Z</time>
      </trkpt>
      <trkpt lat="43.44714" lon="5.3482">
        <ele>252</ele>
        <time>2021-01-19T14:14:29Z</time>
      </trkpt>
      <trkpt lat="43.44714" lon="5.3482">
        <ele>252</ele>
        <time>2021-01-19T14:14:32Z</time>
      </trkpt>
      <trkpt lat="43.44714" lon="5.3482">
        <ele>252</ele>
        <time>2021-01-19T14:14:35Z</time>
      </trkpt>
      <trkpt lat="43.44714" lon="5.3482">
        <ele>252</ele>
        <time>2021-01-19T14:14:38Z</time>
      </trkpt>
      <trkpt lat="43.44714" lon="5.3482">
        <ele>252</ele>
        <time>2021-01-19T14:14:41Z</time>
      </trkpt>
      <trkpt lat="43.44715" lon="5.3482">
        <ele>252</ele>
        <time>2021-01-19T14:14:44Z</time>
      </trkpt>
      <trkpt lat="43.44716" lon="5.34819">
        <ele>253</ele>
        <time>2021-01-19T14:14:47Z</time>
      </trkpt>
      <trkpt lat="43.44717" lon="5.34816">
        <ele>254</ele>
        <time>2021-01-19T14:14:50Z</time>
      </trkpt>
      <trkpt lat="43.44718" lon="5.34812">
        <ele>254</ele>
        <time>2021-01-19T14:14:53Z</time>
      </trkpt>
      <trkpt lat="43.44719" lon="5.34809">
        <ele>255</ele>
        <time>2021-01-19T14:14:56Z</time>
      </trkpt>
      <trkpt lat="43.44719" lon="5.34806">
        <ele>254</ele>
        <time>2021-01-19T14:14:59Z</time>
      </trkpt>
      <trkpt lat="43.44719" lon="5.34804">
        <ele>252</ele>
        <time>2021-01-19T14:15:02Z</time>
      </trkpt>
      <trkpt lat="43.4472" lon="5.34801">
        <ele>251</ele>
        <time>2021-01-19T14:15:04Z</time>
      </trkpt>
      <trkpt lat="43.44721" lon="5.34796">
        <ele>251</ele>
        <time>2021-01-19T14:15:07Z</time>
      </trkpt>
      <trkpt lat="43.44722" lon="5.34793">
        <ele>251</ele>
        <time>2021-01-19T14:15:09Z</time>
      </trkpt>
      <trkpt lat="43.44722" lon="5.34791">
        <ele>251</ele>
        <time>2021-01-19T14:15:11Z</time>
      </trkpt>
      <trkpt lat="43.44723" lon="5.34788">
        <ele>250</ele>
        <time>2021-01-19T14:15:14Z</time>
      </trkpt>
      <trkpt lat="43.44724" lon="5.34785">
        <ele>250</ele>
        <time>2021-01-19T14:15:16Z</time>
      </trkpt>
      <trkpt lat="43.44725" lon="5.34783">
        <ele>250</ele>
        <time>2021-01-19T14:15:19Z</time>
      </trkpt>
      <trkpt lat="43.44724" lon="5.3478">
        <ele>250</ele>
        <time>2021-01-19T14:15:21Z</time>
      </trkpt>
      <trkpt lat="43.44723" lon="5.34777">
        <ele>250</ele>
        <time>2021-01-19T14:15:23Z</time>
      </trkpt>
      <trkpt lat="43.44722" lon="5.34775">
        <ele>250</ele>
        <time>2021-01-19T14:15:25Z</time>
      </trkpt>
      <trkpt lat="43.44722" lon="5.34772">
        <ele>250</ele>
        <time>2021-01-19T14:15:27Z</time>
      </trkpt>
      <trkpt lat="43.44722" lon="5.34768">
        <ele>251</ele>
        <time>2021-01-19T14:15:30Z</time>
      </trkpt>
      <trkpt lat="43.44722" lon="5.34766">
        <ele>251</ele>
        <time>2021-01-19T14:15:32Z</time>
      </trkpt>
      <trkpt lat="43.44723" lon="5.34762">
        <ele>252</ele>
        <time>2021-01-19T14:15:35Z</time>
      </trkpt>
      <trkpt lat="43.44723" lon="5.3476">
        <ele>252</ele>
        <time>2021-01-19T14:15:37Z</time>
      </trkpt>
      <trkpt lat="43.44723" lon="5.34759">
        <ele>251</ele>
        <time>2021-01-19T14:15:39Z</time>
      </trkpt>
      <trkpt lat="43.44723" lon="5.34756">
        <ele>251</ele>
        <time>2021-01-19T14:15:42Z</time>
      </trkpt>
      <trkpt lat="43.44724" lon="5.34753">
        <ele>250</ele>
        <time>2021-01-19T14:15:44Z</time>
      </trkpt>
      <trkpt lat="43.44725" lon="5.34749">
        <ele>252</ele>
        <time>2021-01-19T14:15:47Z</time>
      </trkpt>
      <trkpt lat="43.44726" lon="5.34746">
        <ele>253</ele>
        <time>2021-01-19T14:15:49Z</time>
      </trkpt>
      <trkpt lat="43.44727" lon="5.34742">
        <ele>252</ele>
        <time>2021-01-19T14:15:52Z</time>
      </trkpt>
      <trkpt lat="43.44729" lon="5.34738">
        <ele>252</ele>
        <time>2021-01-19T14:15:55Z</time>
      </trkpt>
      <trkpt lat="43.4473" lon="5.34736">
        <ele>252</ele>
        <time>2021-01-19T14:15:57Z</time>
      </trkpt>
      <trkpt lat="43.44732" lon="5.34732">
        <ele>252</ele>
        <time>2021-01-19T14:16:00Z</time>
      </trkpt>
      <trkpt lat="43.44734" lon="5.3473">
        <ele>252</ele>
        <time>2021-01-19T14:16:02Z</time>
      </trkpt>
      <trkpt lat="43.44735" lon="5.34729">
        <ele>252</ele>
        <time>2021-01-19T14:16:04Z</time>
      </trkpt>
      <trkpt lat="43.44736" lon="5.34727">
        <ele>252</ele>
        <time>2021-01-19T14:16:07Z</time>
      </trkpt>
      <trkpt lat="43.44738" lon="5.34725">
        <ele>254</ele>
        <time>2021-01-19T14:16:09Z</time>
      </trkpt>
      <trkpt lat="43.44739" lon="5.34723">
        <ele>254</ele>
        <time>2021-01-19T14:16:11Z</time>
      </trkpt>
      <trkpt lat="43.4474" lon="5.34721">
        <ele>254</ele>
        <time>2021-01-19T14:16:13Z</time>
      </trkpt>
      <trkpt lat="43.4474" lon="5.34717">
        <ele>254</ele>
        <time>2021-01-19T14:16:16Z</time>
      </trkpt>
      <trkpt lat="43.44738" lon="5.34714">
        <ele>254</ele>
        <time>2021-01-19T14:16:19Z</time>
      </trkpt>
      <trkpt lat="43.44737" lon="5.34711">
        <ele>255</ele>
        <time>2021-01-19T14:16:22Z</time>
      </trkpt>
      <trkpt lat="43.44736" lon="5.34707">
        <ele>256</ele>
        <time>2021-01-19T14:16:25Z</time>
      </trkpt>
      <trkpt lat="43.44736" lon="5.34702">
        <ele>255</ele>
        <time>2021-01-19T14:16:28Z</time>
      </trkpt>
      <trkpt lat="43.44736" lon="5.34699">
        <ele>254</ele>
        <time>2021-01-19T14:16:30Z</time>
      </trkpt>
      <trkpt lat="43.44736" lon="5.34697">
        <ele>254</ele>
        <time>2021-01-19T14:16:32Z</time>
      </trkpt>
      <trkpt lat="43.44737" lon="5.34695">
        <ele>254</ele>
        <time>2021-01-19T14:16:34Z</time>
      </trkpt>
      <trkpt lat="43.44737" lon="5.34693">
        <ele>254</ele>
        <time>2021-01-19T14:16:37Z</time>
      </trkpt>
      <trkpt lat="43.44739" lon="5.34691">
        <ele>252</ele>
        <time>2021-01-19T14:16:40Z</time>
      </trkpt>
      <trkpt lat="43.4474" lon="5.34689">
        <ele>252</ele>
        <time>2021-01-19T14:16:42Z</time>
      </trkpt>
      <trkpt lat="43.44741" lon="5.34688">
        <ele>252</ele>
        <time>2021-01-19T14:16:44Z</time>
      </trkpt>
      <trkpt lat="43.44743" lon="5.34685">
        <ele>252</ele>
        <time>2021-01-19T14:16:47Z</time>
      </trkpt>
      <trkpt lat="43.44744" lon="5.34683">
        <ele>252</ele>
        <time>2021-01-19T14:16:49Z</time>
      </trkpt>
      <trkpt lat="43.44746" lon="5.34681">
        <ele>253</ele>
        <time>2021-01-19T14:16:52Z</time>
      </trkpt>
      <trkpt lat="43.44748" lon="5.34679">
        <ele>252</ele>
        <time>2021-01-19T14:16:55Z</time>
      </trkpt>
      <trkpt lat="43.44748" lon="5.34678">
        <ele>252</ele>
        <time>2021-01-19T14:16:57Z</time>
      </trkpt>
      <trkpt lat="43.4475" lon="5.34674">
        <ele>252</ele>
        <time>2021-01-19T14:17:00Z</time>
      </trkpt>
      <trkpt lat="43.4475" lon="5.34673">
        <ele>252</ele>
        <time>2021-01-19T14:17:02Z</time>
      </trkpt>
      <trkpt lat="43.44751" lon="5.3467">
        <ele>254</ele>
        <time>2021-01-19T14:17:05Z</time>
      </trkpt>
      <trkpt lat="43.44751" lon="5.34667">
        <ele>253</ele>
        <time>2021-01-19T14:17:08Z</time>
      </trkpt>
      <trkpt lat="43.4475" lon="5.34664">
        <ele>252</ele>
        <time>2021-01-19T14:17:11Z</time>
      </trkpt>
      <trkpt lat="43.44749" lon="5.34661">
        <ele>251</ele>
        <time>2021-01-19T14:17:13Z</time>
      </trkpt>
      <trkpt lat="43.44749" lon="5.34657">
        <ele>251</ele>
        <time>2021-01-19T14:17:16Z</time>
      </trkpt>
      <trkpt lat="43.4475" lon="5.34654">
        <ele>252</ele>
        <time>2021-01-19T14:17:18Z</time>
      </trkpt>
      <trkpt lat="43.44752" lon="5.3465">
        <ele>251</ele>
        <time>2021-01-19T14:17:21Z</time>
      </trkpt>
      <trkpt lat="43.44753" lon="5.34648">
        <ele>252</ele>
        <time>2021-01-19T14:17:23Z</time>
      </trkpt>
      <trkpt lat="43.44755" lon="5.34644">
        <ele>252</ele>
        <time>2021-01-19T14:17:26Z</time>
      </trkpt>
      <trkpt lat="43.44757" lon="5.34641">
        <ele>253</ele>
        <time>2021-01-19T14:17:28Z</time>
      </trkpt>
      <trkpt lat="43.44758" lon="5.34637">
        <ele>253</ele>
        <time>2021-01-19T14:17:31Z</time>
      </trkpt>
      <trkpt lat="43.44759" lon="5.34634">
        <ele>253</ele>
        <time>2021-01-19T14:17:33Z</time>
      </trkpt>
      <trkpt lat="43.44759" lon="5.3463">
        <ele>251</ele>
        <time>2021-01-19T14:17:36Z</time>
      </trkpt>
      <trkpt lat="43.44758" lon="5.34627">
        <ele>250</ele>
        <time>2021-01-19T14:17:39Z</time>
      </trkpt>
      <trkpt lat="43.44758" lon="5.34627">
        <ele>250</ele>
        <time>2021-01-19T14:17:41Z</time>
      </trkpt>
      <trkpt lat="43.44758" lon="5.34625">
        <ele>250</ele>
        <time>2021-01-19T14:17:43Z</time>
      </trkpt>
      <trkpt lat="43.44758" lon="5.34624">
        <ele>250</ele>
        <time>2021-01-19T14:17:45Z</time>
      </trkpt>
      <trkpt lat="43.44757" lon="5.34623">
        <ele>249</ele>
        <time>2021-01-19T14:17:48Z</time>
      </trkpt>
      <trkpt lat="43.44757" lon="5.34622">
        <ele>249</ele>
        <time>2021-01-19T14:17:51Z</time>
      </trkpt>
      <trkpt lat="43.44757" lon="5.34622">
        <ele>249</ele>
        <time>2021-01-19T14:17:54Z</time>
      </trkpt>
      <trkpt lat="43.44757" lon="5.34622">
        <ele>249</ele>
        <time>2021-01-19T14:17:57Z</time>
      </trkpt>
      <trkpt lat="43.44756" lon="5.34621">
        <ele>248</ele>
        <time>2021-01-19T14:18:00Z</time>
      </trkpt>
      <trkpt lat="43.44756" lon="5.34621">
        <ele>247</ele>
        <time>2021-01-19T14:18:03Z</time>
      </trkpt>
      <trkpt lat="43.44755" lon="5.34621">
        <ele>247</ele>
        <time>2021-01-19T14:18:06Z</time>
      </trkpt>
      <trkpt lat="43.44755" lon="5.34621">
        <ele>248</ele>
        <time>2021-01-19T14:18:08Z</time>
      </trkpt>
      <trkpt lat="43.44754" lon="5.34621">
        <ele>248</ele>
        <time>2021-01-19T14:18:11Z</time>
      </trkpt>
      <trkpt lat="43.44754" lon="5.34621">
        <ele>248</ele>
        <time>2021-01-19T14:18:13Z</time>
      </trkpt>
      <trkpt lat="43.44754" lon="5.34621">
        <ele>249</ele>
        <time>2021-01-19T14:18:16Z</time>
      </trkpt>
      <trkpt lat="43.44754" lon="5.34621">
        <ele>250</ele>
        <time>2021-01-19T14:18:19Z</time>
      </trkpt>
      <trkpt lat="43.44754" lon="5.34621">
        <ele>250</ele>
        <time>2021-01-19T14:18:21Z</time>
      </trkpt>
      <trkpt lat="43.44754" lon="5.34621">
        <ele>250</ele>
        <time>2021-01-19T14:18:23Z</time>
      </trkpt>
      <trkpt lat="43.44754" lon="5.34621">
        <ele>250</ele>
        <time>2021-01-19T14:18:25Z</time>
      </trkpt>
      <trkpt lat="43.44754" lon="5.34621">
        <ele>250</ele>
        <time>2021-01-19T14:18:28Z</time>
      </trkpt>
      <trkpt lat="43.44754" lon="5.34621">
        <ele>250</ele>
        <time>2021-01-19T14:18:30Z</time>
      </trkpt>
      <trkpt lat="43.44756" lon="5.34621">
        <ele>250</ele>
        <time>2021-01-19T14:18:33Z</time>
      </trkpt>
      <trkpt lat="43.44757" lon="5.34621">
        <ele>250</ele>
        <time>2021-01-19T14:18:35Z</time>
      </trkpt>
      <trkpt lat="43.44758" lon="5.3462">
        <ele>250</ele>
        <time>2021-01-19T14:18:37Z</time>
      </trkpt>
      <trkpt lat="43.44762" lon="5.34618">
        <ele>250</ele>
        <time>2021-01-19T14:18:40Z</time>
      </trkpt>
      <trkpt lat="43.44765" lon="5.34616">
        <ele>250</ele>
        <time>2021-01-19T14:18:42Z</time>
      </trkpt>
      <trkpt lat="43.44768" lon="5.34615">
        <ele>250</ele>
        <time>2021-01-19T14:18:45Z</time>
      </trkpt>
      <trkpt lat="43.44769" lon="5.34614">
        <ele>250</ele>
        <time>2021-01-19T14:18:47Z</time>
      </trkpt>
      <trkpt lat="43.44771" lon="5.34613">
        <ele>250</ele>
        <time>2021-01-19T14:18:50Z</time>
      </trkpt>
      <trkpt lat="43.44773" lon="5.34612">
        <ele>250</ele>
        <time>2021-01-19T14:18:52Z</time>
      </trkpt>
      <trkpt lat="43.44776" lon="5.34611">
        <ele>251</ele>
        <time>2021-01-19T14:18:55Z</time>
      </trkpt>
      <trkpt lat="43.44777" lon="5.3461">
        <ele>251</ele>
        <time>2021-01-19T14:18:57Z</time>
      </trkpt>
      <trkpt lat="43.44779" lon="5.34608">
        <ele>251</ele>
        <time>2021-01-19T14:19:00Z</time>
      </trkpt>
      <trkpt lat="43.44781" lon="5.34607">
        <ele>252</ele>
        <time>2021-01-19T14:19:03Z</time>
      </trkpt>
      <trkpt lat="43.44783" lon="5.34606">
        <ele>253</ele>
        <time>2021-01-19T14:19:05Z</time>
      </trkpt>
      <trkpt lat="43.44786" lon="5.34604">
        <ele>254</ele>
        <time>2021-01-19T14:19:08Z</time>
      </trkpt>
      <trkpt lat="43.44788" lon="5.34603">
        <ele>254</ele>
        <time>2021-01-19T14:19:10Z</time>
      </trkpt>
      <trkpt lat="43.4479" lon="5.34602">
        <ele>253</ele>
        <time>2021-01-19T14:19:13Z</time>
      </trkpt>
      <trkpt lat="43.44793" lon="5.34601">
        <ele>253</ele>
        <time>2021-01-19T14:19:15Z</time>
      </trkpt>
      <trkpt lat="43.44796" lon="5.346">
        <ele>253</ele>
        <time>2021-01-19T14:19:18Z</time>
      </trkpt>
      <trkpt lat="43.44799" lon="5.34599">
        <ele>252</ele>
        <time>2021-01-19T14:19:21Z</time>
      </trkpt>
      <trkpt lat="43.44802" lon="5.34598">
        <ele>252</ele>
        <time>2021-01-19T14:19:24Z</time>
      </trkpt>
      <trkpt lat="43.44806" lon="5.34597">
        <ele>252</ele>
        <time>2021-01-19T14:19:27Z</time>
      </trkpt>
      <trkpt lat="43.44808" lon="5.34597">
        <ele>252</ele>
        <time>2021-01-19T14:19:29Z</time>
      </trkpt>
      <trkpt lat="43.44811" lon="5.34595">
        <ele>254</ele>
        <time>2021-01-19T14:19:32Z</time>
      </trkpt>
      <trkpt lat="43.44813" lon="5.34593">
        <ele>254</ele>
        <time>2021-01-19T14:19:34Z</time>
      </trkpt>
      <trkpt lat="43.44814" lon="5.34592">
        <ele>253</ele>
        <time>2021-01-19T14:19:36Z</time>
      </trkpt>
      <trkpt lat="43.44817" lon="5.34589">
        <ele>254</ele>
        <time>2021-01-19T14:19:39Z</time>
      </trkpt>
      <trkpt lat="43.44819" lon="5.34587">
        <ele>253</ele>
        <time>2021-01-19T14:19:41Z</time>
      </trkpt>
      <trkpt lat="43.44821" lon="5.34586">
        <ele>253</ele>
        <time>2021-01-19T14:19:43Z</time>
      </trkpt>
      <trkpt lat="43.44824" lon="5.34585">
        <ele>254</ele>
        <time>2021-01-19T14:19:46Z</time>
      </trkpt>
      <trkpt lat="43.44827" lon="5.34583">
        <ele>254</ele>
        <time>2021-01-19T14:19:49Z</time>
      </trkpt>
      <trkpt lat="43.44829" lon="5.34581">
        <ele>254</ele>
        <time>2021-01-19T14:19:51Z</time>
      </trkpt>
      <trkpt lat="43.4483" lon="5.3458">
        <ele>253</ele>
        <time>2021-01-19T14:19:53Z</time>
      </trkpt>
      <trkpt lat="43.44833" lon="5.34577">
        <ele>254</ele>
        <time>2021-01-19T14:19:56Z</time>
      </trkpt>
      <trkpt lat="43.44836" lon="5.34574">
        <ele>254</ele>
        <time>2021-01-19T14:19:59Z</time>
      </trkpt>
      <trkpt lat="43.44837" lon="5.34572">
        <ele>254</ele>
        <time>2021-01-19T14:20:01Z</time>
      </trkpt>
      <trkpt lat="43.44839" lon="5.3457">
        <ele>254</ele>
        <time>2021-01-19T14:20:04Z</time>
      </trkpt>
      <trkpt lat="43.4484" lon="5.34568">
        <ele>254</ele>
        <time>2021-01-19T14:20:06Z</time>
      </trkpt>
      <trkpt lat="43.44841" lon="5.34567">
        <ele>255</ele>
        <time>2021-01-19T14:20:09Z</time>
      </trkpt>
      <trkpt lat="43.44844" lon="5.34564">
        <ele>254</ele>
        <time>2021-01-19T14:20:12Z</time>
      </trkpt>
      <trkpt lat="43.44846" lon="5.34562">
        <ele>255</ele>
        <time>2021-01-19T14:20:14Z</time>
      </trkpt>
      <trkpt lat="43.44849" lon="5.34559">
        <ele>255</ele>
        <time>2021-01-19T14:20:17Z</time>
      </trkpt>
      <trkpt lat="43.44851" lon="5.34556">
        <ele>255</ele>
        <time>2021-01-19T14:20:19Z</time>
      </trkpt>
      <trkpt lat="43.44853" lon="5.34552">
        <ele>254</ele>
        <time>2021-01-19T14:20:22Z</time>
      </trkpt>
      <trkpt lat="43.44855" lon="5.3455">
        <ele>255</ele>
        <time>2021-01-19T14:20:24Z</time>
      </trkpt>
      <trkpt lat="43.44858" lon="5.34546">
        <ele>255</ele>
        <time>2021-01-19T14:20:27Z</time>
      </trkpt>
      <trkpt lat="43.44859" lon="5.34544">
        <ele>255</ele>
        <time>2021-01-19T14:20:29Z</time>
      </trkpt>
      <trkpt lat="43.44861" lon="5.3454">
        <ele>255</ele>
        <time>2021-01-19T14:20:32Z</time>
      </trkpt>
      <trkpt lat="43.44862" lon="5.34538">
        <ele>255</ele>
        <time>2021-01-19T14:20:34Z</time>
      </trkpt>
      <trkpt lat="43.44864" lon="5.34535">
        <ele>255</ele>
        <time>2021-01-19T14:20:37Z</time>
      </trkpt>
      <trkpt lat="43.44866" lon="5.34532">
        <ele>255</ele>
        <time>2021-01-19T14:20:40Z</time>
      </trkpt>
      <trkpt lat="43.44867" lon="5.3453">
        <ele>255</ele>
        <time>2021-01-19T14:20:42Z</time>
      </trkpt>
      <trkpt lat="43.44868" lon="5.34526">
        <ele>255</ele>
        <time>2021-01-19T14:20:45Z</time>
      </trkpt>
      <trkpt lat="43.44869" lon="5.34522">
        <ele>254</ele>
        <time>2021-01-19T14:20:48Z</time>
      </trkpt>
      <trkpt lat="43.4487" lon="5.34519">
        <ele>254</ele>
        <time>2021-01-19T14:20:51Z</time>
      </trkpt>
      <trkpt lat="43.44873" lon="5.34516">
        <ele>253</ele>
        <time>2021-01-19T14:20:54Z</time>
      </trkpt>
      <trkpt lat="43.44875" lon="5.34513">
        <ele>253</ele>
        <time>2021-01-19T14:20:57Z</time>
      </trkpt>
      <trkpt lat="43.44877" lon="5.3451">
        <ele>253</ele>
        <time>2021-01-19T14:21:00Z</time>
      </trkpt>
      <trkpt lat="43.44879" lon="5.34508">
        <ele>252</ele>
        <time>2021-01-19T14:21:02Z</time>
      </trkpt>
      <trkpt lat="43.44881" lon="5.34504">
        <ele>252</ele>
        <time>2021-01-19T14:21:05Z</time>
      </trkpt>
      <trkpt lat="43.44882" lon="5.34499">
        <ele>252</ele>
        <time>2021-01-19T14:21:08Z</time>
      </trkpt>
      <trkpt lat="43.44884" lon="5.34495">
        <ele>252</ele>
        <time>2021-01-19T14:21:11Z</time>
      </trkpt>
      <trkpt lat="43.44884" lon="5.34491">
        <ele>251</ele>
        <time>2021-01-19T14:21:14Z</time>
      </trkpt>
      <trkpt lat="43.44886" lon="5.34488">
        <ele>251</ele>
        <time>2021-01-19T14:21:17Z</time>
      </trkpt>
      <trkpt lat="43.44887" lon="5.34486">
        <ele>252</ele>
        <time>2021-01-19T14:21:19Z</time>
      </trkpt>
      <trkpt lat="43.44889" lon="5.34482">
        <ele>252</ele>
        <time>2021-01-19T14:21:22Z</time>
      </trkpt>
      <trkpt lat="43.4489" lon="5.3448">
        <ele>253</ele>
        <time>2021-01-19T14:21:24Z</time>
      </trkpt>
      <trkpt lat="43.44891" lon="5.34478">
        <ele>253</ele>
        <time>2021-01-19T14:21:27Z</time>
      </trkpt>
      <trkpt lat="43.44893" lon="5.34475">
        <ele>252</ele>
        <time>2021-01-19T14:21:29Z</time>
      </trkpt>
      <trkpt lat="43.44894" lon="5.34471">
        <ele>252</ele>
        <time>2021-01-19T14:21:32Z</time>
      </trkpt>
      <trkpt lat="43.44895" lon="5.34469">
        <ele>252</ele>
        <time>2021-01-19T14:21:34Z</time>
      </trkpt>
      <trkpt lat="43.44896" lon="5.34467">
        <ele>252</ele>
        <time>2021-01-19T14:21:36Z</time>
      </trkpt>
      <trkpt lat="43.44898" lon="5.34465">
        <ele>252</ele>
        <time>2021-01-19T14:21:38Z</time>
      </trkpt>
      <trkpt lat="43.449" lon="5.34462">
        <ele>251</ele>
        <time>2021-01-19T14:21:41Z</time>
      </trkpt>
      <trkpt lat="43.44902" lon="5.34459">
        <ele>251</ele>
        <time>2021-01-19T14:21:44Z</time>
      </trkpt>
      <trkpt lat="43.44903" lon="5.34456">
        <ele>252</ele>
        <time>2021-01-19T14:21:46Z</time>
      </trkpt>
      <trkpt lat="43.44903" lon="5.34453">
        <ele>252</ele>
        <time>2021-01-19T14:21:48Z</time>
      </trkpt>
      <trkpt lat="43.44905" lon="5.3445">
        <ele>252</ele>
        <time>2021-01-19T14:21:51Z</time>
      </trkpt>
      <trkpt lat="43.44906" lon="5.34448">
        <ele>252</ele>
        <time>2021-01-19T14:21:53Z</time>
      </trkpt>
      <trkpt lat="43.44907" lon="5.34445">
        <ele>252</ele>
        <time>2021-01-19T14:21:56Z</time>
      </trkpt>
      <trkpt lat="43.44907" lon="5.34445">
        <ele>252</ele>
        <time>2021-01-19T14:21:59Z</time>
      </trkpt>
      <trkpt lat="43.44907" lon="5.34445">
        <ele>252</ele>
        <time>2021-01-19T14:22:01Z</time>
      </trkpt>
      <trkpt lat="43.44907" lon="5.34445">
        <ele>252</ele>
        <time>2021-01-19T14:22:04Z</time>
      </trkpt>
      <trkpt lat="43.44907" lon="5.34445">
        <ele>252</ele>
        <time>2021-01-19T14:22:07Z</time>
      </trkpt>
      <trkpt lat="43.44907" lon="5.34443">
        <ele>252</ele>
        <time>2021-01-19T14:22:10Z</time>
      </trkpt>
      <trkpt lat="43.44907" lon="5.34443">
        <ele>253</ele>
        <time>2021-01-19T14:22:12Z</time>
      </trkpt>
      <trkpt lat="43.44907" lon="5.34442">
        <ele>253</ele>
        <time>2021-01-19T14:22:15Z</time>
      </trkpt>
      <trkpt lat="43.44906" lon="5.34442">
        <ele>253</ele>
        <time>2021-01-19T14:22:18Z</time>
      </trkpt>
      <trkpt lat="43.44906" lon="5.34442">
        <ele>253</ele>
        <time>2021-01-19T14:22:20Z</time>
      </trkpt>
      <trkpt lat="43.44906" lon="5.34442">
        <ele>253</ele>
        <time>2021-01-19T14:22:23Z</time>
      </trkpt>
      <trkpt lat="43.44907" lon="5.34441">
        <ele>253</ele>
        <time>2021-01-19T14:22:25Z</time>
      </trkpt>
      <trkpt lat="43.44907" lon="5.3444">
        <ele>253</ele>
        <time>2021-01-19T14:22:28Z</time>
      </trkpt>
      <trkpt lat="43.44907" lon="5.34439">
        <ele>253</ele>
        <time>2021-01-19T14:22:30Z</time>
      </trkpt>
      <trkpt lat="43.44907" lon="5.34439">
        <ele>253</ele>
        <time>2021-01-19T14:22:33Z</time>
      </trkpt>
      <trkpt lat="43.44907" lon="5.34439">
        <ele>253</ele>
        <time>2021-01-19T14:22:35Z</time>
      </trkpt>
      <trkpt lat="43.44908" lon="5.34439">
        <ele>253</ele>
        <time>2021-01-19T14:22:38Z</time>
      </trkpt>
      <trkpt lat="43.44909" lon="5.34437">
        <ele>254</ele>
        <time>2021-01-19T14:22:40Z</time>
      </trkpt>
      <trkpt lat="43.4491" lon="5.34434">
        <ele>254</ele>
        <time>2021-01-19T14:22:43Z</time>
      </trkpt>
      <trkpt lat="43.44912" lon="5.34432">
        <ele>253</ele>
        <time>2021-01-19T14:22:45Z</time>
      </trkpt>
      <trkpt lat="43.44914" lon="5.34429">
        <ele>253</ele>
        <time>2021-01-19T14:22:48Z</time>
      </trkpt>
      <trkpt lat="43.44916" lon="5.34428">
        <ele>254</ele>
        <time>2021-01-19T14:22:51Z</time>
      </trkpt>
      <trkpt lat="43.44917" lon="5.34425">
        <ele>254</ele>
        <time>2021-01-19T14:22:54Z</time>
      </trkpt>
      <trkpt lat="43.44919" lon="5.3442">
        <ele>254</ele>
        <time>2021-01-19T14:22:57Z</time>
      </trkpt>
      <trkpt lat="43.44921" lon="5.34418">
        <ele>253</ele>
        <time>2021-01-19T14:22:59Z</time>
      </trkpt>
      <trkpt lat="43.44922" lon="5.34415">
        <ele>253</ele>
        <time>2021-01-19T14:23:01Z</time>
      </trkpt>
      <trkpt lat="43.44923" lon="5.34413">
        <ele>254</ele>
        <time>2021-01-19T14:23:03Z</time>
      </trkpt>
      <trkpt lat="43.44925" lon="5.34409">
        <ele>255</ele>
        <time>2021-01-19T14:23:06Z</time>
      </trkpt>
      <trkpt lat="43.44927" lon="5.34407">
        <ele>255</ele>
        <time>2021-01-19T14:23:08Z</time>
      </trkpt>
      <trkpt lat="43.4493" lon="5.34403">
        <ele>255</ele>
        <time>2021-01-19T14:23:11Z</time>
      </trkpt>
      <trkpt lat="43.44931" lon="5.344">
        <ele>254</ele>
        <time>2021-01-19T14:23:13Z</time>
      </trkpt>
      <trkpt lat="43.44933" lon="5.34398">
        <ele>254</ele>
        <time>2021-01-19T14:23:15Z</time>
      </trkpt>
      <trkpt lat="43.44934" lon="5.34394">
        <ele>254</ele>
        <time>2021-01-19T14:23:18Z</time>
      </trkpt>
      <trkpt lat="43.44935" lon="5.3439">
        <ele>254</ele>
        <time>2021-01-19T14:23:21Z</time>
      </trkpt>
      <trkpt lat="43.44937" lon="5.34387">
        <ele>255</ele>
        <time>2021-01-19T14:23:24Z</time>
      </trkpt>
      <trkpt lat="43.44938" lon="5.34385">
        <ele>255</ele>
        <time>2021-01-19T14:23:26Z</time>
      </trkpt>
      <trkpt lat="43.4494" lon="5.34383">
        <ele>255</ele>
        <time>2021-01-19T14:23:28Z</time>
      </trkpt>
      <trkpt lat="43.44942" lon="5.3438">
        <ele>255</ele>
        <time>2021-01-19T14:23:30Z</time>
      </trkpt>
      <trkpt lat="43.44945" lon="5.34376">
        <ele>255</ele>
        <time>2021-01-19T14:23:33Z</time>
      </trkpt>
      <trkpt lat="43.44948" lon="5.34373">
        <ele>254</ele>
        <time>2021-01-19T14:23:36Z</time>
      </trkpt>
      <trkpt lat="43.4495" lon="5.34371">
        <ele>254</ele>
        <time>2021-01-19T14:23:38Z</time>
      </trkpt>
      <trkpt lat="43.44952" lon="5.34367">
        <ele>254</ele>
        <time>2021-01-19T14:23:41Z</time>
      </trkpt>
      <trkpt lat="43.44954" lon="5.34364">
        <ele>255</ele>
        <time>2021-01-19T14:23:43Z</time>
      </trkpt>
      <trkpt lat="43.44956" lon="5.3436">
        <ele>255</ele>
        <time>2021-01-19T14:23:46Z</time>
      </trkpt>
      <trkpt lat="43.44959" lon="5.34357">
        <ele>255</ele>
        <time>2021-01-19T14:23:49Z</time>
      </trkpt>
      <trkpt lat="43.44959" lon="5.34355">
        <ele>254</ele>
        <time>2021-01-19T14:23:51Z</time>
      </trkpt>
      <trkpt lat="43.44959" lon="5.34352">
        <ele>254</ele>
        <time>2021-01-19T14:23:54Z</time>
      </trkpt>
      <trkpt lat="43.4496" lon="5.34347">
        <ele>253</ele>
        <time>2021-01-19T14:23:57Z</time>
      </trkpt>
      <trkpt lat="43.44962" lon="5.34344">
        <ele>253</ele>
        <time>2021-01-19T14:24:00Z</time>
      </trkpt>
      <trkpt lat="43.44963" lon="5.3434">
        <ele>253</ele>
        <time>2021-01-19T14:24:03Z</time>
      </trkpt>
      <trkpt lat="43.44963" lon="5.34338">
        <ele>253</ele>
        <time>2021-01-19T14:24:05Z</time>
      </trkpt>
      <trkpt lat="43.44963" lon="5.34335">
        <ele>253</ele>
        <time>2021-01-19T14:24:08Z</time>
      </trkpt>
      <trkpt lat="43.44964" lon="5.34334">
        <ele>252</ele>
        <time>2021-01-19T14:24:10Z</time>
      </trkpt>
      <trkpt lat="43.44964" lon="5.34332">
        <ele>252</ele>
        <time>2021-01-19T14:24:12Z</time>
      </trkpt>
      <trkpt lat="43.44964" lon="5.34329">
        <ele>252</ele>
        <time>2021-01-19T14:24:15Z</time>
      </trkpt>
      <trkpt lat="43.44963" lon="5.34326">
        <ele>251</ele>
        <time>2021-01-19T14:24:18Z</time>
      </trkpt>
      <trkpt lat="43.44963" lon="5.34325">
        <ele>251</ele>
        <time>2021-01-19T14:24:20Z</time>
      </trkpt>
      <trkpt lat="43.44963" lon="5.34326">
        <ele>251</ele>
        <time>2021-01-19T14:24:23Z</time>
      </trkpt>
      <trkpt lat="43.44963" lon="5.34326">
        <ele>252</ele>
        <time>2021-01-19T14:24:25Z</time>
      </trkpt>
      <trkpt lat="43.44963" lon="5.34326">
        <ele>251</ele>
        <time>2021-01-19T14:24:27Z</time>
      </trkpt>
      <trkpt lat="43.44963" lon="5.34325">
        <ele>251</ele>
        <time>2021-01-19T14:24:30Z</time>
      </trkpt>
      <trkpt lat="43.44963" lon="5.34325">
        <ele>251</ele>
        <time>2021-01-19T14:24:32Z</time>
      </trkpt>
      <trkpt lat="43.44962" lon="5.34325">
        <ele>252</ele>
        <time>2021-01-19T14:24:34Z</time>
      </trkpt>
      <trkpt lat="43.4496" lon="5.34324">
        <ele>253</ele>
        <time>2021-01-19T14:24:37Z</time>
      </trkpt>
      <trkpt lat="43.4496" lon="5.34325">
        <ele>253</ele>
        <time>2021-01-19T14:24:39Z</time>
      </trkpt>
      <trkpt lat="43.44959" lon="5.34325">
        <ele>252</ele>
        <time>2021-01-19T14:24:42Z</time>
      </trkpt>
      <trkpt lat="43.44959" lon="5.34325">
        <ele>252</ele>
        <time>2021-01-19T14:24:44Z</time>
      </trkpt>
      <trkpt lat="43.44959" lon="5.34325">
        <ele>252</ele>
        <time>2021-01-19T14:24:46Z</time>
      </trkpt>
      <trkpt lat="43.44959" lon="5.34325">
        <ele>252</ele>
        <time>2021-01-19T14:24:49Z</time>
      </trkpt>
      <trkpt lat="43.4496" lon="5.34324">
        <ele>253</ele>
        <time>2021-01-19T14:24:52Z</time>
      </trkpt>
      <trkpt lat="43.4496" lon="5.34323">
        <ele>252</ele>
        <time>2021-01-19T14:24:54Z</time>
      </trkpt>
      <trkpt lat="43.44959" lon="5.3432">
        <ele>253</ele>
        <time>2021-01-19T14:24:57Z</time>
      </trkpt>
      <trkpt lat="43.44958" lon="5.34319">
        <ele>253</ele>
        <time>2021-01-19T14:24:59Z</time>
      </trkpt>
      <trkpt lat="43.44956" lon="5.34318">
        <ele>253</ele>
        <time>2021-01-19T14:25:02Z</time>
      </trkpt>
      <trkpt lat="43.44956" lon="5.34317">
        <ele>253</ele>
        <time>2021-01-19T14:25:04Z</time>
      </trkpt>
      <trkpt lat="43.44955" lon="5.34317">
        <ele>254</ele>
        <time>2021-01-19T14:25:07Z</time>
      </trkpt>
      <trkpt lat="43.44955" lon="5.34316">
        <ele>254</ele>
        <time>2021-01-19T14:25:10Z</time>
      </trkpt>
      <trkpt lat="43.44954" lon="5.34315">
        <ele>254</ele>
        <time>2021-01-19T14:25:12Z</time>
      </trkpt>
      <trkpt lat="43.44954" lon="5.34315">
        <ele>254</ele>
        <time>2021-01-19T14:25:15Z</time>
      </trkpt>
      <trkpt lat="43.44954" lon="5.34315">
        <ele>254</ele>
        <time>2021-01-19T14:25:18Z</time>
      </trkpt>
      <trkpt lat="43.44954" lon="5.34315">
        <ele>254</ele>
        <time>2021-01-19T14:25:20Z</time>
      </trkpt>
      <trkpt lat="43.44954" lon="5.34315">
        <ele>254</ele>
        <time>2021-01-19T14:25:22Z</time>
      </trkpt>
      <trkpt lat="43.44954" lon="5.34315">
        <ele>254</ele>
        <time>2021-01-19T14:25:25Z</time>
      </trkpt>
      <trkpt lat="43.44955" lon="5.34316">
        <ele>254</ele>
        <time>2021-01-19T14:25:27Z</time>
      </trkpt>
      <trkpt lat="43.44955" lon="5.34316">
        <ele>255</ele>
        <time>2021-01-19T14:25:29Z</time>
      </trkpt>
      <trkpt lat="43.44956" lon="5.34316">
        <ele>255</ele>
        <time>2021-01-19T14:25:32Z</time>
      </trkpt>
      <trkpt lat="43.44956" lon="5.34316">
        <ele>255</ele>
        <time>2021-01-19T14:25:34Z</time>
      </trkpt>
      <trkpt lat="43.44956" lon="5.34316">
        <ele>255</ele>
        <time>2021-01-19T14:25:36Z</time>
      </trkpt>
      <trkpt lat="43.44956" lon="5.34316">
        <ele>256</ele>
        <time>2021-01-19T14:25:38Z</time>
      </trkpt>
      <trkpt lat="43.44956" lon="5.34315">
        <ele>257</ele>
        <time>2021-01-19T14:25:41Z</time>
      </trkpt>
      <trkpt lat="43.44956" lon="5.34314">
        <ele>257</ele>
        <time>2021-01-19T14:25:43Z</time>
      </trkpt>
      <trkpt lat="43.44956" lon="5.34314">
        <ele>257</ele>
        <time>2021-01-19T14:25:46Z</time>
      </trkpt>
      <trkpt lat="43.44956" lon="5.34314">
        <ele>257</ele>
        <time>2021-01-19T14:25:48Z</time>
      </trkpt>
      <trkpt lat="43.44956" lon="5.34314">
        <ele>257</ele>
        <time>2021-01-19T14:25:51Z</time>
      </trkpt>
      <trkpt lat="43.44955" lon="5.34314">
        <ele>256</ele>
        <time>2021-01-19T14:25:53Z</time>
      </trkpt>
      <trkpt lat="43.44955" lon="5.34315">
        <ele>256</ele>
        <time>2021-01-19T14:25:55Z</time>
      </trkpt>
      <trkpt lat="43.44954" lon="5.34315">
        <ele>256</ele>
        <time>2021-01-19T14:25:57Z</time>
      </trkpt>
      <trkpt lat="43.44954" lon="5.34315">
        <ele>256</ele>
        <time>2021-01-19T14:26:00Z</time>
      </trkpt>
      <trkpt lat="43.44955" lon="5.34316">
        <ele>257</ele>
        <time>2021-01-19T14:26:02Z</time>
      </trkpt>
      <trkpt lat="43.44959" lon="5.34317">
        <ele>257</ele>
        <time>2021-01-19T14:26:05Z</time>
      </trkpt>
      <trkpt lat="43.44962" lon="5.34317">
        <ele>256</ele>
        <time>2021-01-19T14:26:08Z</time>
      </trkpt>
      <trkpt lat="43.44966" lon="5.34319">
        <ele>255</ele>
        <time>2021-01-19T14:26:11Z</time>
      </trkpt>
      <trkpt lat="43.44969" lon="5.3432">
        <ele>256</ele>
        <time>2021-01-19T14:26:14Z</time>
      </trkpt>
      <trkpt lat="43.44971" lon="5.3432">
        <ele>256</ele>
        <time>2021-01-19T14:26:16Z</time>
      </trkpt>
      <trkpt lat="43.44974" lon="5.34321">
        <ele>256</ele>
        <time>2021-01-19T14:26:19Z</time>
      </trkpt>
      <trkpt lat="43.44978" lon="5.34322">
        <ele>255</ele>
        <time>2021-01-19T14:26:22Z</time>
      </trkpt>
      <trkpt lat="43.4498" lon="5.34322">
        <ele>255</ele>
        <time>2021-01-19T14:26:24Z</time>
      </trkpt>
      <trkpt lat="43.44983" lon="5.34323">
        <ele>254</ele>
        <time>2021-01-19T14:26:27Z</time>
      </trkpt>
      <trkpt lat="43.44985" lon="5.34323">
        <ele>254</ele>
        <time>2021-01-19T14:26:29Z</time>
      </trkpt>
      <trkpt lat="43.44988" lon="5.34324">
        <ele>253</ele>
        <time>2021-01-19T14:26:32Z</time>
      </trkpt>
      <trkpt lat="43.4499" lon="5.34325">
        <ele>253</ele>
        <time>2021-01-19T14:26:34Z</time>
      </trkpt>
      <trkpt lat="43.44993" lon="5.34327">
        <ele>252</ele>
        <time>2021-01-19T14:26:37Z</time>
      </trkpt>
      <trkpt lat="43.44994" lon="5.34328">
        <ele>252</ele>
        <time>2021-01-19T14:26:39Z</time>
      </trkpt>
      <trkpt lat="43.44997" lon="5.3433">
        <ele>253</ele>
        <time>2021-01-19T14:26:42Z</time>
      </trkpt>
      <trkpt lat="43.44999" lon="5.34331">
        <ele>253</ele>
        <time>2021-01-19T14:26:44Z</time>
      </trkpt>
      <trkpt lat="43.45" lon="5.34332">
        <ele>253</ele>
        <time>2021-01-19T14:26:46Z</time>
      </trkpt>
      <trkpt lat="43.45003" lon="5.34333">
        <ele>251</ele>
        <time>2021-01-19T14:26:49Z</time>
      </trkpt>
      <trkpt lat="43.45005" lon="5.34334">
        <ele>251</ele>
        <time>2021-01-19T14:26:52Z</time>
      </trkpt>
      <trkpt lat="43.45007" lon="5.34334">
        <ele>252</ele>
        <time>2021-01-19T14:26:54Z</time>
      </trkpt>
      <trkpt lat="43.45009" lon="5.34335">
        <ele>252</ele>
        <time>2021-01-19T14:26:57Z</time>
      </trkpt>
      <trkpt lat="43.45012" lon="5.34334">
        <ele>251</ele>
        <time>2021-01-19T14:27:00Z</time>
      </trkpt>
      <trkpt lat="43.45014" lon="5.34333">
        <ele>251</ele>
        <time>2021-01-19T14:27:02Z</time>
      </trkpt>
      <trkpt lat="43.45017" lon="5.34333">
        <ele>252</ele>
        <time>2021-01-19T14:27:05Z</time>
      </trkpt>
      <trkpt lat="43.4502" lon="5.34333">
        <ele>253</ele>
        <time>2021-01-19T14:27:08Z</time>
      </trkpt>
      <trkpt lat="43.45023" lon="5.34334">
        <ele>253</ele>
        <time>2021-01-19T14:27:11Z</time>
      </trkpt>
      <trkpt lat="43.45025" lon="5.34335">
        <ele>252</ele>
        <time>2021-01-19T14:27:14Z</time>
      </trkpt>
      <trkpt lat="43.45028" lon="5.34336">
        <ele>252</ele>
        <time>2021-01-19T14:27:17Z</time>
      </trkpt>
      <trkpt lat="43.45031" lon="5.34337">
        <ele>251</ele>
        <time>2021-01-19T14:27:20Z</time>
      </trkpt>
      <trkpt lat="43.45033" lon="5.34337">
        <ele>251</ele>
        <time>2021-01-19T14:27:23Z</time>
      </trkpt>
      <trkpt lat="43.45035" lon="5.34337">
        <ele>251</ele>
        <time>2021-01-19T14:27:25Z</time>
      </trkpt>
      <trkpt lat="43.45036" lon="5.34337">
        <ele>251</ele>
        <time>2021-01-19T14:27:28Z</time>
      </trkpt>
      <trkpt lat="43.45038" lon="5.34336">
        <ele>251</ele>
        <time>2021-01-19T14:27:31Z</time>
      </trkpt>
      <trkpt lat="43.45041" lon="5.34337">
        <ele>251</ele>
        <time>2021-01-19T14:27:34Z</time>
      </trkpt>
      <trkpt lat="43.45044" lon="5.34337">
        <ele>251</ele>
        <time>2021-01-19T14:27:37Z</time>
      </trkpt>
      <trkpt lat="43.45046" lon="5.34337">
        <ele>250</ele>
        <time>2021-01-19T14:27:39Z</time>
      </trkpt>
      <trkpt lat="43.45048" lon="5.34337">
        <ele>250</ele>
        <time>2021-01-19T14:27:41Z</time>
      </trkpt>
      <trkpt lat="43.45048" lon="5.34336">
        <ele>250</ele>
        <time>2021-01-19T14:27:43Z</time>
      </trkpt>
      <trkpt lat="43.45048" lon="5.34337">
        <ele>251</ele>
        <time>2021-01-19T14:27:46Z</time>
      </trkpt>
      <trkpt lat="43.45047" lon="5.34337">
        <ele>252</ele>
        <time>2021-01-19T14:27:48Z</time>
      </trkpt>
      <trkpt lat="43.4505" lon="5.34337">
        <ele>252</ele>
        <time>2021-01-19T14:27:51Z</time>
      </trkpt>
      <trkpt lat="43.4505" lon="5.34337">
        <ele>252</ele>
        <time>2021-01-19T14:27:53Z</time>
      </trkpt>
      <trkpt lat="43.45052" lon="5.34337">
        <ele>250</ele>
        <time>2021-01-19T14:27:56Z</time>
      </trkpt>
      <trkpt lat="43.45054" lon="5.34337">
        <ele>251</ele>
        <time>2021-01-19T14:27:58Z</time>
      </trkpt>
      <trkpt lat="43.45056" lon="5.34336">
        <ele>251</ele>
        <time>2021-01-19T14:28:01Z</time>
      </trkpt>
      <trkpt lat="43.45057" lon="5.34336">
        <ele>251</ele>
        <time>2021-01-19T14:28:03Z</time>
      </trkpt>
      <trkpt lat="43.4506" lon="5.34335">
        <ele>251</ele>
        <time>2021-01-19T14:28:05Z</time>
      </trkpt>
      <trkpt lat="43.45063" lon="5.34335">
        <ele>250</ele>
        <time>2021-01-19T14:28:08Z</time>
      </trkpt>
      <trkpt lat="43.45065" lon="5.34335">
        <ele>251</ele>
        <time>2021-01-19T14:28:10Z</time>
      </trkpt>
      <trkpt lat="43.45069" lon="5.34334">
        <ele>251</ele>
        <time>2021-01-19T14:28:13Z</time>
      </trkpt>
      <trkpt lat="43.45071" lon="5.34333">
        <ele>250</ele>
        <time>2021-01-19T14:28:15Z</time>
      </trkpt>
      <trkpt lat="43.4507" lon="5.34332">
        <ele>252</ele>
        <time>2021-01-19T14:28:18Z</time>
      </trkpt>
      <trkpt lat="43.4507" lon="5.34333">
        <ele>252</ele>
        <time>2021-01-19T14:28:20Z</time>
      </trkpt>
      <trkpt lat="43.45071" lon="5.34333">
        <ele>252</ele>
        <time>2021-01-19T14:28:23Z</time>
      </trkpt>
      <trkpt lat="43.45071" lon="5.34333">
        <ele>252</ele>
        <time>2021-01-19T14:28:26Z</time>
      </trkpt>
      <trkpt lat="43.45071" lon="5.34333">
        <ele>252</ele>
        <time>2021-01-19T14:28:29Z</time>
      </trkpt>
      <trkpt lat="43.45071" lon="5.34333">
        <ele>252</ele>
        <time>2021-01-19T14:28:32Z</time>
      </trkpt>
      <trkpt lat="43.45071" lon="5.34333">
        <ele>252</ele>
        <time>2021-01-19T14:28:35Z</time>
      </trkpt>
      <trkpt lat="43.45071" lon="5.34333">
        <ele>252</ele>
        <time>2021-01-19T14:28:37Z</time>
      </trkpt>
      <trkpt lat="43.45071" lon="5.34334">
        <ele>252</ele>
        <time>2021-01-19T14:28:40Z</time>
      </trkpt>
      <trkpt lat="43.45071" lon="5.34334">
        <ele>252</ele>
        <time>2021-01-19T14:28:43Z</time>
      </trkpt>
      <trkpt lat="43.4507" lon="5.34334">
        <ele>252</ele>
        <time>2021-01-19T14:28:45Z</time>
      </trkpt>
      <trkpt lat="43.45071" lon="5.34334">
        <ele>252</ele>
        <time>2021-01-19T14:28:47Z</time>
      </trkpt>
      <trkpt lat="43.45071" lon="5.34334">
        <ele>252</ele>
        <time>2021-01-19T14:28:50Z</time>
      </trkpt>
      <trkpt lat="43.45071" lon="5.34334">
        <ele>252</ele>
        <time>2021-01-19T14:28:52Z</time>
      </trkpt>
      <trkpt lat="43.45071" lon="5.34335">
        <ele>251</ele>
        <time>2021-01-19T14:28:54Z</time>
      </trkpt>
      <trkpt lat="43.45071" lon="5.34335">
        <ele>251</ele>
        <time>2021-01-19T14:28:57Z</time>
      </trkpt>
      <trkpt lat="43.45071" lon="5.34335">
        <ele>251</ele>
        <time>2021-01-19T14:28:59Z</time>
      </trkpt>
      <trkpt lat="43.45071" lon="5.34335">
        <ele>251</ele>
        <time>2021-01-19T14:29:02Z</time>
      </trkpt>
      <trkpt lat="43.45072" lon="5.34335">
        <ele>251</ele>
        <time>2021-01-19T14:29:05Z</time>
      </trkpt>
      <trkpt lat="43.45073" lon="5.34334">
        <ele>251</ele>
        <time>2021-01-19T14:29:08Z</time>
      </trkpt>
      <trkpt lat="43.45075" lon="5.34333">
        <ele>250</ele>
        <time>2021-01-19T14:29:10Z</time>
      </trkpt>
      <trkpt lat="43.45078" lon="5.34331">
        <ele>250</ele>
        <time>2021-01-19T14:29:13Z</time>
      </trkpt>
      <trkpt lat="43.4508" lon="5.3433">
        <ele>250</ele>
        <time>2021-01-19T14:29:15Z</time>
      </trkpt>
      <trkpt lat="43.45082" lon="5.3433">
        <ele>250</ele>
        <time>2021-01-19T14:29:18Z</time>
      </trkpt>
      <trkpt lat="43.45085" lon="5.3433">
        <ele>250</ele>
        <time>2021-01-19T14:29:21Z</time>
      </trkpt>
      <trkpt lat="43.45087" lon="5.34329">
        <ele>250</ele>
        <time>2021-01-19T14:29:23Z</time>
      </trkpt>
      <trkpt lat="43.4509" lon="5.34328">
        <ele>251</ele>
        <time>2021-01-19T14:29:26Z</time>
      </trkpt>
      <trkpt lat="43.45093" lon="5.34326">
        <ele>252</ele>
        <time>2021-01-19T14:29:29Z</time>
      </trkpt>
      <trkpt lat="43.45094" lon="5.34326">
        <ele>252</ele>
        <time>2021-01-19T14:29:32Z</time>
      </trkpt>
      <trkpt lat="43.45094" lon="5.34326">
        <ele>252</ele>
        <time>2021-01-19T14:29:34Z</time>
      </trkpt>
      <trkpt lat="43.45094" lon="5.34326">
        <ele>252</ele>
        <time>2021-01-19T14:29:36Z</time>
      </trkpt>
      <trkpt lat="43.45094" lon="5.34326">
        <ele>252</ele>
        <time>2021-01-19T14:29:38Z</time>
      </trkpt>
      <trkpt lat="43.45094" lon="5.34326">
        <ele>252</ele>
        <time>2021-01-19T14:29:41Z</time>
      </trkpt>
      <trkpt lat="43.45094" lon="5.34326">
        <ele>252</ele>
        <time>2021-01-19T14:29:44Z</time>
      </trkpt>
      <trkpt lat="43.45093" lon="5.34326">
        <ele>252</ele>
        <time>2021-01-19T14:29:46Z</time>
      </trkpt>
      <trkpt lat="43.45093" lon="5.34326">
        <ele>252</ele>
        <time>2021-01-19T14:29:49Z</time>
      </trkpt>
      <trkpt lat="43.45093" lon="5.34326">
        <ele>252</ele>
        <time>2021-01-19T14:29:51Z</time>
      </trkpt>
      <trkpt lat="43.45093" lon="5.34326">
        <ele>252</ele>
        <time>2021-01-19T14:29:54Z</time>
      </trkpt>
      <trkpt lat="43.45093" lon="5.34326">
        <ele>252</ele>
        <time>2021-01-19T14:29:57Z</time>
      </trkpt>
      <trkpt lat="43.45093" lon="5.34326">
        <ele>252</ele>
        <time>2021-01-19T14:29:59Z</time>
      </trkpt>
      <trkpt lat="43.45093" lon="5.34326">
        <ele>252</ele>
        <time>2021-01-19T14:30:02Z</time>
      </trkpt>
      <trkpt lat="43.45093" lon="5.34326">
        <ele>252</ele>
        <time>2021-01-19T14:30:05Z</time>
      </trkpt>
      <trkpt lat="43.45093" lon="5.34326">
        <ele>252</ele>
        <time>2021-01-19T14:30:07Z</time>
      </trkpt>
      <trkpt lat="43.45093" lon="5.34326">
        <ele>251</ele>
        <time>2021-01-19T14:30:09Z</time>
      </trkpt>
      <trkpt lat="43.45094" lon="5.34325">
        <ele>251</ele>
        <time>2021-01-19T14:30:11Z</time>
      </trkpt>
      <trkpt lat="43.45095" lon="5.34324">
        <ele>252</ele>
        <time>2021-01-19T14:30:14Z</time>
      </trkpt>
      <trkpt lat="43.45095" lon="5.34324">
        <ele>252</ele>
        <time>2021-01-19T14:30:16Z</time>
      </trkpt>
      <trkpt lat="43.45095" lon="5.34324">
        <ele>251</ele>
        <time>2021-01-19T14:30:19Z</time>
      </trkpt>
      <trkpt lat="43.45095" lon="5.34324">
        <ele>251</ele>
        <time>2021-01-19T14:30:22Z</time>
      </trkpt>
      <trkpt lat="43.45095" lon="5.34324">
        <ele>251</ele>
        <time>2021-01-19T14:30:25Z</time>
      </trkpt>
      <trkpt lat="43.45095" lon="5.34324">
        <ele>251</ele>
        <time>2021-01-19T14:30:27Z</time>
      </trkpt>
      <trkpt lat="43.45095" lon="5.34324">
        <ele>251</ele>
        <time>2021-01-19T14:30:30Z</time>
      </trkpt>
      <trkpt lat="43.45096" lon="5.34323">
        <ele>250</ele>
        <time>2021-01-19T14:30:33Z</time>
      </trkpt>
      <trkpt lat="43.45096" lon="5.34322">
        <ele>250</ele>
        <time>2021-01-19T14:30:35Z</time>
      </trkpt>
      <trkpt lat="43.45098" lon="5.34322">
        <ele>249</ele>
        <time>2021-01-19T14:30:37Z</time>
      </trkpt>
      <trkpt lat="43.45098" lon="5.34322">
        <ele>249</ele>
        <time>2021-01-19T14:30:40Z</time>
      </trkpt>
      <trkpt lat="43.45098" lon="5.34322">
        <ele>249</ele>
        <time>2021-01-19T14:30:42Z</time>
      </trkpt>
      <trkpt lat="43.45098" lon="5.34322">
        <ele>249</ele>
        <time>2021-01-19T14:30:45Z</time>
      </trkpt>
      <trkpt lat="43.45098" lon="5.34322">
        <ele>249</ele>
        <time>2021-01-19T14:30:48Z</time>
      </trkpt>
      <trkpt lat="43.45098" lon="5.34322">
        <ele>249</ele>
        <time>2021-01-19T14:30:50Z</time>
      </trkpt>
      <trkpt lat="43.45101" lon="5.34322">
        <ele>249</ele>
        <time>2021-01-19T14:30:53Z</time>
      </trkpt>
      <trkpt lat="43.45103" lon="5.34321">
        <ele>248</ele>
        <time>2021-01-19T14:30:56Z</time>
      </trkpt>
      <trkpt lat="43.45105" lon="5.3432">
        <ele>249</ele>
        <time>2021-01-19T14:30:58Z</time>
      </trkpt>
      <trkpt lat="43.45106" lon="5.3432">
        <ele>249</ele>
        <time>2021-01-19T14:31:00Z</time>
      </trkpt>
      <trkpt lat="43.45108" lon="5.34319">
        <ele>249</ele>
        <time>2021-01-19T14:31:03Z</time>
      </trkpt>
      <trkpt lat="43.4511" lon="5.34317">
        <ele>250</ele>
        <time>2021-01-19T14:31:05Z</time>
      </trkpt>
      <trkpt lat="43.45113" lon="5.34317">
        <ele>251</ele>
        <time>2021-01-19T14:31:07Z</time>
      </trkpt>
      <trkpt lat="43.45115" lon="5.34317">
        <ele>251</ele>
        <time>2021-01-19T14:31:09Z</time>
      </trkpt>
      <trkpt lat="43.45118" lon="5.34316">
        <ele>251</ele>
        <time>2021-01-19T14:31:12Z</time>
      </trkpt>
      <trkpt lat="43.4512" lon="5.34315">
        <ele>252</ele>
        <time>2021-01-19T14:31:15Z</time>
      </trkpt>
      <trkpt lat="43.45122" lon="5.34314">
        <ele>252</ele>
        <time>2021-01-19T14:31:17Z</time>
      </trkpt>
      <trkpt lat="43.45123" lon="5.34314">
        <ele>253</ele>
        <time>2021-01-19T14:31:19Z</time>
      </trkpt>
      <trkpt lat="43.45125" lon="5.34313">
        <ele>252</ele>
        <time>2021-01-19T14:31:22Z</time>
      </trkpt>
      <trkpt lat="43.45128" lon="5.34312">
        <ele>252</ele>
        <time>2021-01-19T14:31:24Z</time>
      </trkpt>
      <trkpt lat="43.4513" lon="5.34311">
        <ele>252</ele>
        <time>2021-01-19T14:31:26Z</time>
      </trkpt>
      <trkpt lat="43.45132" lon="5.34309">
        <ele>252</ele>
        <time>2021-01-19T14:31:29Z</time>
      </trkpt>
      <trkpt lat="43.45135" lon="5.34308">
        <ele>252</ele>
        <time>2021-01-19T14:31:32Z</time>
      </trkpt>
      <trkpt lat="43.45137" lon="5.34307">
        <ele>251</ele>
        <time>2021-01-19T14:31:34Z</time>
      </trkpt>
      <trkpt lat="43.45139" lon="5.34306">
        <ele>251</ele>
        <time>2021-01-19T14:31:36Z</time>
      </trkpt>
      <trkpt lat="43.45142" lon="5.34304">
        <ele>252</ele>
        <time>2021-01-19T14:31:39Z</time>
      </trkpt>
      <trkpt lat="43.45145" lon="5.34302">
        <ele>251</ele>
        <time>2021-01-19T14:31:42Z</time>
      </trkpt>
      <trkpt lat="43.45149" lon="5.343">
        <ele>251</ele>
        <time>2021-01-19T14:31:45Z</time>
      </trkpt>
      <trkpt lat="43.45152" lon="5.34298">
        <ele>251</ele>
        <time>2021-01-19T14:31:48Z</time>
      </trkpt>
      <trkpt lat="43.45154" lon="5.34297">
        <ele>251</ele>
        <time>2021-01-19T14:31:50Z</time>
      </trkpt>
      <trkpt lat="43.45157" lon="5.34295">
        <ele>251</ele>
        <time>2021-01-19T14:31:53Z</time>
      </trkpt>
      <trkpt lat="43.45159" lon="5.34294">
        <ele>251</ele>
        <time>2021-01-19T14:31:55Z</time>
      </trkpt>
      <trkpt lat="43.4516" lon="5.34293">
        <ele>251</ele>
        <time>2021-01-19T14:31:57Z</time>
      </trkpt>
      <trkpt lat="43.45163" lon="5.34291">
        <ele>251</ele>
        <time>2021-01-19T14:32:00Z</time>
      </trkpt>
      <trkpt lat="43.45165" lon="5.3429">
        <ele>251</ele>
        <time>2021-01-19T14:32:03Z</time>
      </trkpt>
      <trkpt lat="43.45167" lon="5.34289">
        <ele>250</ele>
        <time>2021-01-19T14:32:06Z</time>
      </trkpt>
      <trkpt lat="43.45169" lon="5.34287">
        <ele>249</ele>
        <time>2021-01-19T14:32:09Z</time>
      </trkpt>
      <trkpt lat="43.45172" lon="5.34285">
        <ele>249</ele>
        <time>2021-01-19T14:32:12Z</time>
      </trkpt>
      <trkpt lat="43.45173" lon="5.34284">
        <ele>248</ele>
        <time>2021-01-19T14:32:14Z</time>
      </trkpt>
      <trkpt lat="43.45176" lon="5.34282">
        <ele>248</ele>
        <time>2021-01-19T14:32:17Z</time>
      </trkpt>
      <trkpt lat="43.45178" lon="5.34281">
        <ele>248</ele>
        <time>2021-01-19T14:32:20Z</time>
      </trkpt>
      <trkpt lat="43.4518" lon="5.3428">
        <ele>248</ele>
        <time>2021-01-19T14:32:22Z</time>
      </trkpt>
      <trkpt lat="43.45182" lon="5.34279">
        <ele>248</ele>
        <time>2021-01-19T14:32:25Z</time>
      </trkpt>
      <trkpt lat="43.45183" lon="5.34278">
        <ele>248</ele>
        <time>2021-01-19T14:32:27Z</time>
      </trkpt>
      <trkpt lat="43.45184" lon="5.34278">
        <ele>248</ele>
        <time>2021-01-19T14:32:29Z</time>
      </trkpt>
      <trkpt lat="43.45186" lon="5.34276">
        <ele>248</ele>
        <time>2021-01-19T14:32:32Z</time>
      </trkpt>
      <trkpt lat="43.45187" lon="5.34275">
        <ele>247</ele>
        <time>2021-01-19T14:32:34Z</time>
      </trkpt>
      <trkpt lat="43.45189" lon="5.34273">
        <ele>247</ele>
        <time>2021-01-19T14:32:36Z</time>
      </trkpt>
      <trkpt lat="43.45191" lon="5.34271">
        <ele>247</ele>
        <time>2021-01-19T14:32:39Z</time>
      </trkpt>
      <trkpt lat="43.45193" lon="5.3427">
        <ele>247</ele>
        <time>2021-01-19T14:32:41Z</time>
      </trkpt>
      <trkpt lat="43.45195" lon="5.34268">
        <ele>247</ele>
        <time>2021-01-19T14:32:44Z</time>
      </trkpt>
      <trkpt lat="43.45197" lon="5.34267">
        <ele>247</ele>
        <time>2021-01-19T14:32:46Z</time>
      </trkpt>
      <trkpt lat="43.45198" lon="5.34265">
        <ele>246</ele>
        <time>2021-01-19T14:32:48Z</time>
      </trkpt>
      <trkpt lat="43.452" lon="5.34262">
        <ele>245</ele>
        <time>2021-01-19T14:32:51Z</time>
      </trkpt>
      <trkpt lat="43.45202" lon="5.3426">
        <ele>245</ele>
        <time>2021-01-19T14:32:54Z</time>
      </trkpt>
      <trkpt lat="43.45204" lon="5.34259">
        <ele>245</ele>
        <time>2021-01-19T14:32:56Z</time>
      </trkpt>
      <trkpt lat="43.45206" lon="5.34257">
        <ele>245</ele>
        <time>2021-01-19T14:32:59Z</time>
      </trkpt>
      <trkpt lat="43.45207" lon="5.34256">
        <ele>245</ele>
        <time>2021-01-19T14:33:01Z</time>
      </trkpt>
      <trkpt lat="43.45209" lon="5.34255">
        <ele>245</ele>
        <time>2021-01-19T14:33:04Z</time>
      </trkpt>
      <trkpt lat="43.45211" lon="5.34253">
        <ele>245</ele>
        <time>2021-01-19T14:33:06Z</time>
      </trkpt>
      <trkpt lat="43.45214" lon="5.34251">
        <ele>246</ele>
        <time>2021-01-19T14:33:09Z</time>
      </trkpt>
      <trkpt lat="43.45216" lon="5.34249">
        <ele>247</ele>
        <time>2021-01-19T14:33:11Z</time>
      </trkpt>
      <trkpt lat="43.45218" lon="5.34247">
        <ele>247</ele>
        <time>2021-01-19T14:33:13Z</time>
      </trkpt>
      <trkpt lat="43.45221" lon="5.34244">
        <ele>247</ele>
        <time>2021-01-19T14:33:16Z</time>
      </trkpt>
      <trkpt lat="43.45222" lon="5.34243">
        <ele>247</ele>
        <time>2021-01-19T14:33:18Z</time>
      </trkpt>
      <trkpt lat="43.45224" lon="5.34241">
        <ele>248</ele>
        <time>2021-01-19T14:33:20Z</time>
      </trkpt>
      <trkpt lat="43.45226" lon="5.34239">
        <ele>248</ele>
        <time>2021-01-19T14:33:23Z</time>
      </trkpt>
      <trkpt lat="43.45228" lon="5.34237">
        <ele>249</ele>
        <time>2021-01-19T14:33:26Z</time>
      </trkpt>
      <trkpt lat="43.45231" lon="5.34236">
        <ele>249</ele>
        <time>2021-01-19T14:33:29Z</time>
      </trkpt>
      <trkpt lat="43.45234" lon="5.34235">
        <ele>248</ele>
        <time>2021-01-19T14:33:32Z</time>
      </trkpt>
      <trkpt lat="43.45235" lon="5.34234">
        <ele>249</ele>
        <time>2021-01-19T14:33:34Z</time>
      </trkpt>
      <trkpt lat="43.45237" lon="5.34233">
        <ele>250</ele>
        <time>2021-01-19T14:33:36Z</time>
      </trkpt>
      <trkpt lat="43.45239" lon="5.34231">
        <ele>251</ele>
        <time>2021-01-19T14:33:38Z</time>
      </trkpt>
      <trkpt lat="43.45241" lon="5.34229">
        <ele>252</ele>
        <time>2021-01-19T14:33:41Z</time>
      </trkpt>
      <trkpt lat="43.45242" lon="5.34228">
        <ele>252</ele>
        <time>2021-01-19T14:33:43Z</time>
      </trkpt>
      <trkpt lat="43.45245" lon="5.34227">
        <ele>253</ele>
        <time>2021-01-19T14:33:46Z</time>
      </trkpt>
      <trkpt lat="43.45247" lon="5.34225">
        <ele>254</ele>
        <time>2021-01-19T14:33:49Z</time>
      </trkpt>
      <trkpt lat="43.45249" lon="5.34224">
        <ele>253</ele>
        <time>2021-01-19T14:33:51Z</time>
      </trkpt>
      <trkpt lat="43.45252" lon="5.34221">
        <ele>253</ele>
        <time>2021-01-19T14:33:54Z</time>
      </trkpt>
      <trkpt lat="43.45254" lon="5.3422">
        <ele>253</ele>
        <time>2021-01-19T14:33:56Z</time>
      </trkpt>
      <trkpt lat="43.45255" lon="5.34219">
        <ele>252</ele>
        <time>2021-01-19T14:33:58Z</time>
      </trkpt>
      <trkpt lat="43.45258" lon="5.34218">
        <ele>252</ele>
        <time>2021-01-19T14:34:01Z</time>
      </trkpt>
      <trkpt lat="43.4526" lon="5.34216">
        <ele>252</ele>
        <time>2021-01-19T14:34:04Z</time>
      </trkpt>
      <trkpt lat="43.45262" lon="5.34215">
        <ele>252</ele>
        <time>2021-01-19T14:34:07Z</time>
      </trkpt>
      <trkpt lat="43.45265" lon="5.34214">
        <ele>253</ele>
        <time>2021-01-19T14:34:10Z</time>
      </trkpt>
      <trkpt lat="43.45267" lon="5.34213">
        <ele>252</ele>
        <time>2021-01-19T14:34:12Z</time>
      </trkpt>
      <trkpt lat="43.45269" lon="5.34211">
        <ele>252</ele>
        <time>2021-01-19T14:34:15Z</time>
      </trkpt>
      <trkpt lat="43.45271" lon="5.3421">
        <ele>252</ele>
        <time>2021-01-19T14:34:17Z</time>
      </trkpt>
      <trkpt lat="43.45275" lon="5.34208">
        <ele>253</ele>
        <time>2021-01-19T14:34:20Z</time>
      </trkpt>
      <trkpt lat="43.45276" lon="5.34206">
        <ele>253</ele>
        <time>2021-01-19T14:34:22Z</time>
      </trkpt>
      <trkpt lat="43.45279" lon="5.34204">
        <ele>251</ele>
        <time>2021-01-19T14:34:25Z</time>
      </trkpt>
      <trkpt lat="43.45282" lon="5.34202">
        <ele>251</ele>
        <time>2021-01-19T14:34:28Z</time>
      </trkpt>
      <trkpt lat="43.45284" lon="5.342">
        <ele>250</ele>
        <time>2021-01-19T14:34:31Z</time>
      </trkpt>
      <trkpt lat="43.45286" lon="5.34198">
        <ele>250</ele>
        <time>2021-01-19T14:34:33Z</time>
      </trkpt>
      <trkpt lat="43.45289" lon="5.34197">
        <ele>250</ele>
        <time>2021-01-19T14:34:36Z</time>
      </trkpt>
      <trkpt lat="43.45291" lon="5.34196">
        <ele>250</ele>
        <time>2021-01-19T14:34:39Z</time>
      </trkpt>
      <trkpt lat="43.45293" lon="5.34195">
        <ele>251</ele>
        <time>2021-01-19T14:34:41Z</time>
      </trkpt>
      <trkpt lat="43.45295" lon="5.34194">
        <ele>251</ele>
        <time>2021-01-19T14:34:44Z</time>
      </trkpt>
      <trkpt lat="43.45298" lon="5.34194">
        <ele>251</ele>
        <time>2021-01-19T14:34:47Z</time>
      </trkpt>
      <trkpt lat="43.45301" lon="5.34192">
        <ele>251</ele>
        <time>2021-01-19T14:34:50Z</time>
      </trkpt>
      <trkpt lat="43.45304" lon="5.34192">
        <ele>251</ele>
        <time>2021-01-19T14:34:53Z</time>
      </trkpt>
      <trkpt lat="43.45306" lon="5.34191">
        <ele>252</ele>
        <time>2021-01-19T14:34:56Z</time>
      </trkpt>
      <trkpt lat="43.45308" lon="5.34189">
        <ele>251</ele>
        <time>2021-01-19T14:34:59Z</time>
      </trkpt>
      <trkpt lat="43.4531" lon="5.34189">
        <ele>252</ele>
        <time>2021-01-19T14:35:01Z</time>
      </trkpt>
      <trkpt lat="43.45313" lon="5.34186">
        <ele>252</ele>
        <time>2021-01-19T14:35:04Z</time>
      </trkpt>
      <trkpt lat="43.45316" lon="5.34185">
        <ele>252</ele>
        <time>2021-01-19T14:35:06Z</time>
      </trkpt>
      <trkpt lat="43.45319" lon="5.34182">
        <ele>251</ele>
        <time>2021-01-19T14:35:09Z</time>
      </trkpt>
      <trkpt lat="43.45321" lon="5.3418">
        <ele>251</ele>
        <time>2021-01-19T14:35:12Z</time>
      </trkpt>
      <trkpt lat="43.45323" lon="5.3418">
        <ele>251</ele>
        <time>2021-01-19T14:35:15Z</time>
      </trkpt>
      <trkpt lat="43.45324" lon="5.3418">
        <ele>250</ele>
        <time>2021-01-19T14:35:17Z</time>
      </trkpt>
      <trkpt lat="43.45327" lon="5.3418">
        <ele>251</ele>
        <time>2021-01-19T14:35:20Z</time>
      </trkpt>
      <trkpt lat="43.45329" lon="5.3418">
        <ele>250</ele>
        <time>2021-01-19T14:35:22Z</time>
      </trkpt>
      <trkpt lat="43.45331" lon="5.34179">
        <ele>250</ele>
        <time>2021-01-19T14:35:25Z</time>
      </trkpt>
      <trkpt lat="43.45333" lon="5.34178">
        <ele>250</ele>
        <time>2021-01-19T14:35:28Z</time>
      </trkpt>
      <trkpt lat="43.45335" lon="5.34178">
        <ele>250</ele>
        <time>2021-01-19T14:35:31Z</time>
      </trkpt>
      <trkpt lat="43.45335" lon="5.34178">
        <ele>250</ele>
        <time>2021-01-19T14:35:33Z</time>
      </trkpt>
      <trkpt lat="43.45334" lon="5.34178">
        <ele>250</ele>
        <time>2021-01-19T14:35:36Z</time>
      </trkpt>
      <trkpt lat="43.45334" lon="5.34178">
        <ele>250</ele>
        <time>2021-01-19T14:35:39Z</time>
      </trkpt>
      <trkpt lat="43.45337" lon="5.34177">
        <ele>249</ele>
        <time>2021-01-19T14:35:42Z</time>
      </trkpt>
      <trkpt lat="43.45339" lon="5.34176">
        <ele>248</ele>
        <time>2021-01-19T14:35:44Z</time>
      </trkpt>
      <trkpt lat="43.45341" lon="5.34174">
        <ele>247</ele>
        <time>2021-01-19T14:35:47Z</time>
      </trkpt>
      <trkpt lat="43.45344" lon="5.34172">
        <ele>247</ele>
        <time>2021-01-19T14:35:50Z</time>
      </trkpt>
      <trkpt lat="43.45346" lon="5.3417">
        <ele>247</ele>
        <time>2021-01-19T14:35:53Z</time>
      </trkpt>
      <trkpt lat="43.45348" lon="5.34169">
        <ele>247</ele>
        <time>2021-01-19T14:35:56Z</time>
      </trkpt>
      <trkpt lat="43.45349" lon="5.34168">
        <ele>246</ele>
        <time>2021-01-19T14:35:58Z</time>
      </trkpt>
      <trkpt lat="43.45349" lon="5.34168">
        <ele>246</ele>
        <time>2021-01-19T14:36:00Z</time>
      </trkpt>
      <trkpt lat="43.45349" lon="5.34166">
        <ele>246</ele>
        <time>2021-01-19T14:36:02Z</time>
      </trkpt>
      <trkpt lat="43.45349" lon="5.34165">
        <ele>246</ele>
        <time>2021-01-19T14:36:04Z</time>
      </trkpt>
      <trkpt lat="43.45349" lon="5.34165">
        <ele>246</ele>
        <time>2021-01-19T14:36:06Z</time>
      </trkpt>
      <trkpt lat="43.45349" lon="5.34164">
        <ele>246</ele>
        <time>2021-01-19T14:36:08Z</time>
      </trkpt>
      <trkpt lat="43.45351" lon="5.34164">
        <ele>245</ele>
        <time>2021-01-19T14:36:10Z</time>
      </trkpt>
      <trkpt lat="43.45351" lon="5.34164">
        <ele>245</ele>
        <time>2021-01-19T14:36:13Z</time>
      </trkpt>
      <trkpt lat="43.45351" lon="5.34164">
        <ele>245</ele>
        <time>2021-01-19T14:36:16Z</time>
      </trkpt>
      <trkpt lat="43.45351" lon="5.34164">
        <ele>245</ele>
        <time>2021-01-19T14:36:18Z</time>
      </trkpt>
      <trkpt lat="43.45351" lon="5.34164">
        <ele>245</ele>
        <time>2021-01-19T14:36:21Z</time>
      </trkpt>
      <trkpt lat="43.45351" lon="5.34164">
        <ele>245</ele>
        <time>2021-01-19T14:36:23Z</time>
      </trkpt>
      <trkpt lat="43.45351" lon="5.34164">
        <ele>245</ele>
        <time>2021-01-19T14:36:25Z</time>
      </trkpt>
      <trkpt lat="43.45351" lon="5.34164">
        <ele>245</ele>
        <time>2021-01-19T14:36:27Z</time>
      </trkpt>
      <trkpt lat="43.45351" lon="5.34164">
        <ele>245</ele>
        <time>2021-01-19T14:36:30Z</time>
      </trkpt>
      <trkpt lat="43.45351" lon="5.34164">
        <ele>245</ele>
        <time>2021-01-19T14:36:32Z</time>
      </trkpt>
      <trkpt lat="43.45351" lon="5.34164">
        <ele>245</ele>
        <time>2021-01-19T14:36:34Z</time>
      </trkpt>
      <trkpt lat="43.45351" lon="5.34164">
        <ele>245</ele>
        <time>2021-01-19T14:36:36Z</time>
      </trkpt>
      <trkpt lat="43.45351" lon="5.34164">
        <ele>245</ele>
        <time>2021-01-19T14:36:38Z</time>
      </trkpt>
      <trkpt lat="43.45351" lon="5.34164">
        <ele>245</ele>
        <time>2021-01-19T14:36:41Z</time>
      </trkpt>
      <trkpt lat="43.45351" lon="5.34164">
        <ele>245</ele>
        <time>2021-01-19T14:36:44Z</time>
      </trkpt>
      <trkpt lat="43.45351" lon="5.34164">
        <ele>245</ele>
        <time>2021-01-19T14:36:47Z</time>
      </trkpt>
      <trkpt lat="43.45351" lon="5.34164">
        <ele>245</ele>
        <time>2021-01-19T14:36:50Z</time>
      </trkpt>
      <trkpt lat="43.45351" lon="5.34164">
        <ele>245</ele>
        <time>2021-01-19T14:36:52Z</time>
      </trkpt>
      <trkpt lat="43.45351" lon="5.34164">
        <ele>245</ele>
        <time>2021-01-19T14:36:55Z</time>
      </trkpt>
      <trkpt lat="43.45351" lon="5.34164">
        <ele>245</ele>
        <time>2021-01-19T14:36:57Z</time>
      </trkpt>
      <trkpt lat="43.45351" lon="5.34164">
        <ele>245</ele>
        <time>2021-01-19T14:36:59Z</time>
      </trkpt>
      <trkpt lat="43.45351" lon="5.34164">
        <ele>245</ele>
        <time>2021-01-19T14:37:01Z</time>
      </trkpt>
      <trkpt lat="43.45351" lon="5.34164">
        <ele>245</ele>
        <time>2021-01-19T14:37:04Z</time>
      </trkpt>
      <trkpt lat="43.45351" lon="5.34164">
        <ele>245</ele>
        <time>2021-01-19T14:37:07Z</time>
      </trkpt>
      <trkpt lat="43.45351" lon="5.34164">
        <ele>245</ele>
        <time>2021-01-19T14:37:09Z</time>
      </trkpt>
      <trkpt lat="43.45351" lon="5.34164">
        <ele>245</ele>
        <time>2021-01-19T14:37:12Z</time>
      </trkpt>
      <trkpt lat="43.45351" lon="5.34164">
        <ele>245</ele>
        <time>2021-01-19T14:37:15Z</time>
      </trkpt>
      <trkpt lat="43.45351" lon="5.34164">
        <ele>245</ele>
        <time>2021-01-19T14:37:17Z</time>
      </trkpt>
      <trkpt lat="43.45351" lon="5.34164">
        <ele>245</ele>
        <time>2021-01-19T14:37:19Z</time>
      </trkpt>
      <trkpt lat="43.45351" lon="5.34164">
        <ele>245</ele>
        <time>2021-01-19T14:37:22Z</time>
      </trkpt>
      <trkpt lat="43.45351" lon="5.34164">
        <ele>245</ele>
        <time>2021-01-19T14:37:24Z</time>
      </trkpt>
      <trkpt lat="43.45351" lon="5.34164">
        <ele>245</ele>
        <time>2021-01-19T14:37:27Z</time>
      </trkpt>
      <trkpt lat="43.45351" lon="5.34164">
        <ele>245</ele>
        <time>2021-01-19T14:37:29Z</time>
      </trkpt>
      <trkpt lat="43.45351" lon="5.34164">
        <ele>245</ele>
        <time>2021-01-19T14:37:32Z</time>
      </trkpt>
      <trkpt lat="43.45351" lon="5.34164">
        <ele>245</ele>
        <time>2021-01-19T14:37:34Z</time>
      </trkpt>
      <trkpt lat="43.45351" lon="5.34164">
        <ele>245</ele>
        <time>2021-01-19T14:37:37Z</time>
      </trkpt>
      <trkpt lat="43.45351" lon="5.34164">
        <ele>245</ele>
        <time>2021-01-19T14:37:39Z</time>
      </trkpt>
      <trkpt lat="43.45351" lon="5.34164">
        <ele>245</ele>
        <time>2021-01-19T14:37:42Z</time>
      </trkpt>
      <trkpt lat="43.45351" lon="5.34165">
        <ele>246</ele>
        <time>2021-01-19T14:37:44Z</time>
      </trkpt>
      <trkpt lat="43.4535" lon="5.34164">
        <ele>246</ele>
        <time>2021-01-19T14:37:46Z</time>
      </trkpt>
      <trkpt lat="43.45351" lon="5.34164">
        <ele>246</ele>
        <time>2021-01-19T14:37:49Z</time>
      </trkpt>
      <trkpt lat="43.45351" lon="5.34164">
        <ele>246</ele>
        <time>2021-01-19T14:37:51Z</time>
      </trkpt>
      <trkpt lat="43.45352" lon="5.34164">
        <ele>247</ele>
        <time>2021-01-19T14:37:53Z</time>
      </trkpt>
      <trkpt lat="43.45352" lon="5.34164">
        <ele>247</ele>
        <time>2021-01-19T14:37:56Z</time>
      </trkpt>
      <trkpt lat="43.45352" lon="5.34164">
        <ele>247</ele>
        <time>2021-01-19T14:37:58Z</time>
      </trkpt>
      <trkpt lat="43.45352" lon="5.34164">
        <ele>247</ele>
        <time>2021-01-19T14:38:01Z</time>
      </trkpt>
      <trkpt lat="43.45352" lon="5.34164">
        <ele>247</ele>
        <time>2021-01-19T14:38:04Z</time>
      </trkpt>
      <trkpt lat="43.45352" lon="5.34164">
        <ele>247</ele>
        <time>2021-01-19T14:38:06Z</time>
      </trkpt>
      <trkpt lat="43.45352" lon="5.34164">
        <ele>247</ele>
        <time>2021-01-19T14:38:09Z</time>
      </trkpt>
      <trkpt lat="43.45352" lon="5.34164">
        <ele>247</ele>
        <time>2021-01-19T14:38:12Z</time>
      </trkpt>
      <trkpt lat="43.45352" lon="5.34164">
        <ele>247</ele>
        <time>2021-01-19T14:38:14Z</time>
      </trkpt>
      <trkpt lat="43.45352" lon="5.34164">
        <ele>247</ele>
        <time>2021-01-19T14:38:17Z</time>
      </trkpt>
      <trkpt lat="43.45352" lon="5.34164">
        <ele>247</ele>
        <time>2021-01-19T14:38:19Z</time>
      </trkpt>
      <trkpt lat="43.45352" lon="5.34164">
        <ele>247</ele>
        <time>2021-01-19T14:38:22Z</time>
      </trkpt>
      <trkpt lat="43.45352" lon="5.34164">
        <ele>247</ele>
        <time>2021-01-19T14:38:25Z</time>
      </trkpt>
      <trkpt lat="43.45353" lon="5.34164">
        <ele>247</ele>
        <time>2021-01-19T14:38:27Z</time>
      </trkpt>
      <trkpt lat="43.45356" lon="5.34162">
        <ele>247</ele>
        <time>2021-01-19T14:38:30Z</time>
      </trkpt>
      <trkpt lat="43.45357" lon="5.34162">
        <ele>248</ele>
        <time>2021-01-19T14:38:33Z</time>
      </trkpt>
      <trkpt lat="43.45358" lon="5.34161">
        <ele>248</ele>
        <time>2021-01-19T14:38:35Z</time>
      </trkpt>
      <trkpt lat="43.4536" lon="5.34159">
        <ele>247</ele>
        <time>2021-01-19T14:38:38Z</time>
      </trkpt>
      <trkpt lat="43.45361" lon="5.34159">
        <ele>247</ele>
        <time>2021-01-19T14:38:41Z</time>
      </trkpt>
      <trkpt lat="43.45363" lon="5.34158">
        <ele>248</ele>
        <time>2021-01-19T14:38:44Z</time>
      </trkpt>
      <trkpt lat="43.45365" lon="5.34156">
        <ele>248</ele>
        <time>2021-01-19T14:38:46Z</time>
      </trkpt>
      <trkpt lat="43.45366" lon="5.34155">
        <ele>248</ele>
        <time>2021-01-19T14:38:48Z</time>
      </trkpt>
      <trkpt lat="43.45369" lon="5.34154">
        <ele>247</ele>
        <time>2021-01-19T14:38:51Z</time>
      </trkpt>
      <trkpt lat="43.45371" lon="5.34153">
        <ele>248</ele>
        <time>2021-01-19T14:38:53Z</time>
      </trkpt>
      <trkpt lat="43.45372" lon="5.34151">
        <ele>247</ele>
        <time>2021-01-19T14:38:55Z</time>
      </trkpt>
      <trkpt lat="43.45375" lon="5.34149">
        <ele>248</ele>
        <time>2021-01-19T14:38:58Z</time>
      </trkpt>
      <trkpt lat="43.45377" lon="5.34148">
        <ele>247</ele>
        <time>2021-01-19T14:39:01Z</time>
      </trkpt>
      <trkpt lat="43.45381" lon="5.34146">
        <ele>248</ele>
        <time>2021-01-19T14:39:04Z</time>
      </trkpt>
      <trkpt lat="43.45382" lon="5.34145">
        <ele>247</ele>
        <time>2021-01-19T14:39:06Z</time>
      </trkpt>
      <trkpt lat="43.45382" lon="5.34145">
        <ele>247</ele>
        <time>2021-01-19T14:39:08Z</time>
      </trkpt>
      <trkpt lat="43.45385" lon="5.34142">
        <ele>247</ele>
        <time>2021-01-19T14:39:11Z</time>
      </trkpt>
      <trkpt lat="43.45387" lon="5.34141">
        <ele>246</ele>
        <time>2021-01-19T14:39:14Z</time>
      </trkpt>
      <trkpt lat="43.45389" lon="5.34139">
        <ele>245</ele>
        <time>2021-01-19T14:39:17Z</time>
      </trkpt>
      <trkpt lat="43.45391" lon="5.34138">
        <ele>245</ele>
        <time>2021-01-19T14:39:19Z</time>
      </trkpt>
      <trkpt lat="43.45393" lon="5.34136">
        <ele>245</ele>
        <time>2021-01-19T14:39:22Z</time>
      </trkpt>
      <trkpt lat="43.45395" lon="5.34135">
        <ele>245</ele>
        <time>2021-01-19T14:39:24Z</time>
      </trkpt>
      <trkpt lat="43.45397" lon="5.34133">
        <ele>245</ele>
        <time>2021-01-19T14:39:27Z</time>
      </trkpt>
      <trkpt lat="43.45399" lon="5.34133">
        <ele>245</ele>
        <time>2021-01-19T14:39:29Z</time>
      </trkpt>
      <trkpt lat="43.454" lon="5.34132">
        <ele>245</ele>
        <time>2021-01-19T14:39:32Z</time>
      </trkpt>
      <trkpt lat="43.45401" lon="5.34131">
        <ele>245</ele>
        <time>2021-01-19T14:39:34Z</time>
      </trkpt>
      <trkpt lat="43.45403" lon="5.3413">
        <ele>245</ele>
        <time>2021-01-19T14:39:36Z</time>
      </trkpt>
      <trkpt lat="43.45405" lon="5.34128">
        <ele>245</ele>
        <time>2021-01-19T14:39:39Z</time>
      </trkpt>
      <trkpt lat="43.45407" lon="5.34127">
        <ele>245</ele>
        <time>2021-01-19T14:39:42Z</time>
      </trkpt>
      <trkpt lat="43.45408" lon="5.34125">
        <ele>244</ele>
        <time>2021-01-19T14:39:44Z</time>
      </trkpt>
      <trkpt lat="43.4541" lon="5.34123">
        <ele>244</ele>
        <time>2021-01-19T14:39:47Z</time>
      </trkpt>
      <trkpt lat="43.45412" lon="5.34122">
        <ele>244</ele>
        <time>2021-01-19T14:39:49Z</time>
      </trkpt>
      <trkpt lat="43.45414" lon="5.3412">
        <ele>244</ele>
        <time>2021-01-19T14:39:52Z</time>
      </trkpt>
      <trkpt lat="43.45416" lon="5.34118">
        <ele>244</ele>
        <time>2021-01-19T14:39:54Z</time>
      </trkpt>
      <trkpt lat="43.45417" lon="5.34117">
        <ele>245</ele>
        <time>2021-01-19T14:39:56Z</time>
      </trkpt>
      <trkpt lat="43.4542" lon="5.34115">
        <ele>245</ele>
        <time>2021-01-19T14:39:59Z</time>
      </trkpt>
      <trkpt lat="43.45422" lon="5.34113">
        <ele>244</ele>
        <time>2021-01-19T14:40:02Z</time>
      </trkpt>
      <trkpt lat="43.45424" lon="5.34111">
        <ele>245</ele>
        <time>2021-01-19T14:40:04Z</time>
      </trkpt>
      <trkpt lat="43.45425" lon="5.3411">
        <ele>245</ele>
        <time>2021-01-19T14:40:06Z</time>
      </trkpt>
      <trkpt lat="43.45428" lon="5.34109">
        <ele>245</ele>
        <time>2021-01-19T14:40:09Z</time>
      </trkpt>
      <trkpt lat="43.45428" lon="5.34108">
        <ele>245</ele>
        <time>2021-01-19T14:40:11Z</time>
      </trkpt>
      <trkpt lat="43.45429" lon="5.34108">
        <ele>245</ele>
        <time>2021-01-19T14:40:13Z</time>
      </trkpt>
      <trkpt lat="43.45431" lon="5.34107">
        <ele>244</ele>
        <time>2021-01-19T14:40:15Z</time>
      </trkpt>
      <trkpt lat="43.45432" lon="5.34107">
        <ele>244</ele>
        <time>2021-01-19T14:40:17Z</time>
      </trkpt>
      <trkpt lat="43.45433" lon="5.34107">
        <ele>245</ele>
        <time>2021-01-19T14:40:20Z</time>
      </trkpt>
      <trkpt lat="43.45435" lon="5.34105">
        <ele>244</ele>
        <time>2021-01-19T14:40:23Z</time>
      </trkpt>
      <trkpt lat="43.45438" lon="5.34104">
        <ele>244</ele>
        <time>2021-01-19T14:40:26Z</time>
      </trkpt>
      <trkpt lat="43.4544" lon="5.34102">
        <ele>244</ele>
        <time>2021-01-19T14:40:28Z</time>
      </trkpt>
      <trkpt lat="43.45443" lon="5.34099">
        <ele>243</ele>
        <time>2021-01-19T14:40:31Z</time>
      </trkpt>
      <trkpt lat="43.45445" lon="5.34098">
        <ele>244</ele>
        <time>2021-01-19T14:40:33Z</time>
      </trkpt>
      <trkpt lat="43.45447" lon="5.34096">
        <ele>244</ele>
        <time>2021-01-19T14:40:36Z</time>
      </trkpt>
      <trkpt lat="43.45449" lon="5.34094">
        <ele>245</ele>
        <time>2021-01-19T14:40:39Z</time>
      </trkpt>
      <trkpt lat="43.45451" lon="5.34092">
        <ele>245</ele>
        <time>2021-01-19T14:40:41Z</time>
      </trkpt>
      <trkpt lat="43.45453" lon="5.3409">
        <ele>245</ele>
        <time>2021-01-19T14:40:44Z</time>
      </trkpt>
      <trkpt lat="43.45455" lon="5.34088">
        <ele>245</ele>
        <time>2021-01-19T14:40:47Z</time>
      </trkpt>
      <trkpt lat="43.45457" lon="5.34087">
        <ele>245</ele>
        <time>2021-01-19T14:40:49Z</time>
      </trkpt>
      <trkpt lat="43.45459" lon="5.34084">
        <ele>245</ele>
        <time>2021-01-19T14:40:52Z</time>
      </trkpt>
      <trkpt lat="43.45461" lon="5.34083">
        <ele>245</ele>
        <time>2021-01-19T14:40:54Z</time>
      </trkpt>
      <trkpt lat="43.45464" lon="5.34082">
        <ele>245</ele>
        <time>2021-01-19T14:40:57Z</time>
      </trkpt>
      <trkpt lat="43.45466" lon="5.34081">
        <ele>245</ele>
        <time>2021-01-19T14:41:00Z</time>
      </trkpt>
      <trkpt lat="43.45469" lon="5.34079">
        <ele>244</ele>
        <time>2021-01-19T14:41:03Z</time>
      </trkpt>
      <trkpt lat="43.45472" lon="5.34077">
        <ele>244</ele>
        <time>2021-01-19T14:41:06Z</time>
      </trkpt>
      <trkpt lat="43.45474" lon="5.34075">
        <ele>245</ele>
        <time>2021-01-19T14:41:09Z</time>
      </trkpt>
      <trkpt lat="43.45476" lon="5.34074">
        <ele>244</ele>
        <time>2021-01-19T14:41:11Z</time>
      </trkpt>
      <trkpt lat="43.45478" lon="5.34071">
        <ele>243</ele>
        <time>2021-01-19T14:41:14Z</time>
      </trkpt>
      <trkpt lat="43.45481" lon="5.34067">
        <ele>244</ele>
        <time>2021-01-19T14:41:17Z</time>
      </trkpt>
      <trkpt lat="43.45484" lon="5.34065">
        <ele>244</ele>
        <time>2021-01-19T14:41:20Z</time>
      </trkpt>
      <trkpt lat="43.45486" lon="5.34063">
        <ele>245</ele>
        <time>2021-01-19T14:41:23Z</time>
      </trkpt>
      <trkpt lat="43.45489" lon="5.3406">
        <ele>244</ele>
        <time>2021-01-19T14:41:26Z</time>
      </trkpt>
      <trkpt lat="43.4549" lon="5.34058">
        <ele>244</ele>
        <time>2021-01-19T14:41:28Z</time>
      </trkpt>
      <trkpt lat="43.45493" lon="5.34056">
        <ele>244</ele>
        <time>2021-01-19T14:41:31Z</time>
      </trkpt>
      <trkpt lat="43.45495" lon="5.34054">
        <ele>244</ele>
        <time>2021-01-19T14:41:33Z</time>
      </trkpt>
      <trkpt lat="43.45498" lon="5.34052">
        <ele>244</ele>
        <time>2021-01-19T14:41:36Z</time>
      </trkpt>
      <trkpt lat="43.45501" lon="5.34051">
        <ele>244</ele>
        <time>2021-01-19T14:41:38Z</time>
      </trkpt>
      <trkpt lat="43.45503" lon="5.34049">
        <ele>244</ele>
        <time>2021-01-19T14:41:40Z</time>
      </trkpt>
      <trkpt lat="43.45505" lon="5.34047">
        <ele>244</ele>
        <time>2021-01-19T14:41:43Z</time>
      </trkpt>
      <trkpt lat="43.45506" lon="5.34045">
        <ele>244</ele>
        <time>2021-01-19T14:41:45Z</time>
      </trkpt>
      <trkpt lat="43.45507" lon="5.34044">
        <ele>243</ele>
        <time>2021-01-19T14:41:47Z</time>
      </trkpt>
      <trkpt lat="43.4551" lon="5.34042">
        <ele>243</ele>
        <time>2021-01-19T14:41:50Z</time>
      </trkpt>
      <trkpt lat="43.45514" lon="5.3404">
        <ele>243</ele>
        <time>2021-01-19T14:41:53Z</time>
      </trkpt>
      <trkpt lat="43.45517" lon="5.34037">
        <ele>243</ele>
        <time>2021-01-19T14:41:56Z</time>
      </trkpt>
      <trkpt lat="43.4552" lon="5.34035">
        <ele>242</ele>
        <time>2021-01-19T14:41:59Z</time>
      </trkpt>
      <trkpt lat="43.45523" lon="5.34034">
        <ele>242</ele>
        <time>2021-01-19T14:42:01Z</time>
      </trkpt>
      <trkpt lat="43.45525" lon="5.34033">
        <ele>241</ele>
        <time>2021-01-19T14:42:03Z</time>
      </trkpt>
      <trkpt lat="43.45527" lon="5.34032">
        <ele>241</ele>
        <time>2021-01-19T14:42:05Z</time>
      </trkpt>
      <trkpt lat="43.45531" lon="5.34032">
        <ele>241</ele>
        <time>2021-01-19T14:42:08Z</time>
      </trkpt>
      <trkpt lat="43.45534" lon="5.34031">
        <ele>241</ele>
        <time>2021-01-19T14:42:11Z</time>
      </trkpt>
      <trkpt lat="43.45537" lon="5.3403">
        <ele>242</ele>
        <time>2021-01-19T14:42:14Z</time>
      </trkpt>
      <trkpt lat="43.4554" lon="5.34029">
        <ele>242</ele>
        <time>2021-01-19T14:42:17Z</time>
      </trkpt>
      <trkpt lat="43.45543" lon="5.34027">
        <ele>242</ele>
        <time>2021-01-19T14:42:19Z</time>
      </trkpt>
      <trkpt lat="43.45545" lon="5.34025">
        <ele>242</ele>
        <time>2021-01-19T14:42:22Z</time>
      </trkpt>
      <trkpt lat="43.45549" lon="5.34024">
        <ele>242</ele>
        <time>2021-01-19T14:42:25Z</time>
      </trkpt>
      <trkpt lat="43.45553" lon="5.34022">
        <ele>242</ele>
        <time>2021-01-19T14:42:28Z</time>
      </trkpt>
      <trkpt lat="43.45556" lon="5.34021">
        <ele>242</ele>
        <time>2021-01-19T14:42:31Z</time>
      </trkpt>
      <trkpt lat="43.45558" lon="5.3402">
        <ele>242</ele>
        <time>2021-01-19T14:42:33Z</time>
      </trkpt>
      <trkpt lat="43.45561" lon="5.34018">
        <ele>242</ele>
        <time>2021-01-19T14:42:36Z</time>
      </trkpt>
      <trkpt lat="43.45562" lon="5.34017">
        <ele>241</ele>
        <time>2021-01-19T14:42:38Z</time>
      </trkpt>
      <trkpt lat="43.45564" lon="5.34015">
        <ele>241</ele>
        <time>2021-01-19T14:42:40Z</time>
      </trkpt>
      <trkpt lat="43.45567" lon="5.34012">
        <ele>240</ele>
        <time>2021-01-19T14:42:43Z</time>
      </trkpt>
      <trkpt lat="43.4557" lon="5.3401">
        <ele>242</ele>
        <time>2021-01-19T14:42:46Z</time>
      </trkpt>
      <trkpt lat="43.45573" lon="5.34008">
        <ele>242</ele>
        <time>2021-01-19T14:42:49Z</time>
      </trkpt>
      <trkpt lat="43.45576" lon="5.34005">
        <ele>242</ele>
        <time>2021-01-19T14:42:52Z</time>
      </trkpt>
      <trkpt lat="43.45579" lon="5.34003">
        <ele>242</ele>
        <time>2021-01-19T14:42:55Z</time>
      </trkpt>
      <trkpt lat="43.45581" lon="5.34002">
        <ele>242</ele>
        <time>2021-01-19T14:42:57Z</time>
      </trkpt>
      <trkpt lat="43.45583" lon="5.34001">
        <ele>242</ele>
        <time>2021-01-19T14:42:59Z</time>
      </trkpt>
      <trkpt lat="43.45585" lon="5.34">
        <ele>242</ele>
        <time>2021-01-19T14:43:01Z</time>
      </trkpt>
      <trkpt lat="43.45587" lon="5.33998">
        <ele>241</ele>
        <time>2021-01-19T14:43:04Z</time>
      </trkpt>
      <trkpt lat="43.45589" lon="5.33996">
        <ele>243</ele>
        <time>2021-01-19T14:43:07Z</time>
      </trkpt>
      <trkpt lat="43.4559" lon="5.33995">
        <ele>244</ele>
        <time>2021-01-19T14:43:09Z</time>
      </trkpt>
      <trkpt lat="43.45592" lon="5.33994">
        <ele>244</ele>
        <time>2021-01-19T14:43:12Z</time>
      </trkpt>
      <trkpt lat="43.45594" lon="5.33993">
        <ele>244</ele>
        <time>2021-01-19T14:43:15Z</time>
      </trkpt>
      <trkpt lat="43.45596" lon="5.33992">
        <ele>244</ele>
        <time>2021-01-19T14:43:17Z</time>
      </trkpt>
      <trkpt lat="43.45599" lon="5.3399">
        <ele>244</ele>
        <time>2021-01-19T14:43:20Z</time>
      </trkpt>
      <trkpt lat="43.45601" lon="5.33989">
        <ele>243</ele>
        <time>2021-01-19T14:43:22Z</time>
      </trkpt>
      <trkpt lat="43.45604" lon="5.33987">
        <ele>242</ele>
        <time>2021-01-19T14:43:25Z</time>
      </trkpt>
      <trkpt lat="43.45607" lon="5.33985">
        <ele>241</ele>
        <time>2021-01-19T14:43:28Z</time>
      </trkpt>
      <trkpt lat="43.45609" lon="5.33983">
        <ele>240</ele>
        <time>2021-01-19T14:43:30Z</time>
      </trkpt>
      <trkpt lat="43.45612" lon="5.33981">
        <ele>240</ele>
        <time>2021-01-19T14:43:33Z</time>
      </trkpt>
      <trkpt lat="43.45614" lon="5.33979">
        <ele>240</ele>
        <time>2021-01-19T14:43:35Z</time>
      </trkpt>
      <trkpt lat="43.45616" lon="5.33978">
        <ele>240</ele>
        <time>2021-01-19T14:43:37Z</time>
      </trkpt>
      <trkpt lat="43.45617" lon="5.33977">
        <ele>240</ele>
        <time>2021-01-19T14:43:39Z</time>
      </trkpt>
      <trkpt lat="43.45619" lon="5.33975">
        <ele>240</ele>
        <time>2021-01-19T14:43:42Z</time>
      </trkpt>
      <trkpt lat="43.45621" lon="5.33974">
        <ele>241</ele>
        <time>2021-01-19T14:43:44Z</time>
      </trkpt>
      <trkpt lat="43.45623" lon="5.33973">
        <ele>240</ele>
        <time>2021-01-19T14:43:46Z</time>
      </trkpt>
      <trkpt lat="43.45625" lon="5.33971">
        <ele>240</ele>
        <time>2021-01-19T14:43:49Z</time>
      </trkpt>
      <trkpt lat="43.45627" lon="5.3397">
        <ele>240</ele>
        <time>2021-01-19T14:43:51Z</time>
      </trkpt>
      <trkpt lat="43.45629" lon="5.33969">
        <ele>240</ele>
        <time>2021-01-19T14:43:53Z</time>
      </trkpt>
      <trkpt lat="43.45631" lon="5.33968">
        <ele>240</ele>
        <time>2021-01-19T14:43:55Z</time>
      </trkpt>
      <trkpt lat="43.45635" lon="5.33966">
        <ele>239</ele>
        <time>2021-01-19T14:43:58Z</time>
      </trkpt>
      <trkpt lat="43.45637" lon="5.33964">
        <ele>239</ele>
        <time>2021-01-19T14:44:00Z</time>
      </trkpt>
      <trkpt lat="43.45639" lon="5.33963">
        <ele>239</ele>
        <time>2021-01-19T14:44:02Z</time>
      </trkpt>
      <trkpt lat="43.45642" lon="5.33961">
        <ele>240</ele>
        <time>2021-01-19T14:44:05Z</time>
      </trkpt>
      <trkpt lat="43.45644" lon="5.3396">
        <ele>240</ele>
        <time>2021-01-19T14:44:07Z</time>
      </trkpt>
      <trkpt lat="43.45646" lon="5.33958">
        <ele>239</ele>
        <time>2021-01-19T14:44:10Z</time>
      </trkpt>
      <trkpt lat="43.45649" lon="5.33956">
        <ele>239</ele>
        <time>2021-01-19T14:44:13Z</time>
      </trkpt>
      <trkpt lat="43.45651" lon="5.33954">
        <ele>239</ele>
        <time>2021-01-19T14:44:15Z</time>
      </trkpt>
      <trkpt lat="43.45653" lon="5.33952">
        <ele>240</ele>
        <time>2021-01-19T14:44:18Z</time>
      </trkpt>
      <trkpt lat="43.45656" lon="5.33949">
        <ele>239</ele>
        <time>2021-01-19T14:44:21Z</time>
      </trkpt>
      <trkpt lat="43.45657" lon="5.33947">
        <ele>239</ele>
        <time>2021-01-19T14:44:23Z</time>
      </trkpt>
      <trkpt lat="43.4566" lon="5.33944">
        <ele>239</ele>
        <time>2021-01-19T14:44:26Z</time>
      </trkpt>
      <trkpt lat="43.45663" lon="5.33942">
        <ele>240</ele>
        <time>2021-01-19T14:44:29Z</time>
      </trkpt>
      <trkpt lat="43.45666" lon="5.33939">
        <ele>241</ele>
        <time>2021-01-19T14:44:32Z</time>
      </trkpt>
      <trkpt lat="43.45668" lon="5.33937">
        <ele>240</ele>
        <time>2021-01-19T14:44:34Z</time>
      </trkpt>
      <trkpt lat="43.45671" lon="5.33935">
        <ele>240</ele>
        <time>2021-01-19T14:44:36Z</time>
      </trkpt>
      <trkpt lat="43.45674" lon="5.33933">
        <ele>240</ele>
        <time>2021-01-19T14:44:39Z</time>
      </trkpt>
      <trkpt lat="43.45676" lon="5.33932">
        <ele>240</ele>
        <time>2021-01-19T14:44:41Z</time>
      </trkpt>
      <trkpt lat="43.45678" lon="5.3393">
        <ele>240</ele>
        <time>2021-01-19T14:44:43Z</time>
      </trkpt>
      <trkpt lat="43.4568" lon="5.33928">
        <ele>241</ele>
        <time>2021-01-19T14:44:45Z</time>
      </trkpt>
      <trkpt lat="43.45682" lon="5.33925">
        <ele>241</ele>
        <time>2021-01-19T14:44:48Z</time>
      </trkpt>
      <trkpt lat="43.45685" lon="5.33923">
        <ele>240</ele>
        <time>2021-01-19T14:44:51Z</time>
      </trkpt>
      <trkpt lat="43.45687" lon="5.33921">
        <ele>240</ele>
        <time>2021-01-19T14:44:53Z</time>
      </trkpt>
      <trkpt lat="43.4569" lon="5.33919">
        <ele>240</ele>
        <time>2021-01-19T14:44:56Z</time>
      </trkpt>
      <trkpt lat="43.45692" lon="5.33918">
        <ele>240</ele>
        <time>2021-01-19T14:44:58Z</time>
      </trkpt>
      <trkpt lat="43.45694" lon="5.33916">
        <ele>241</ele>
        <time>2021-01-19T14:45:01Z</time>
      </trkpt>
      <trkpt lat="43.45697" lon="5.33913">
        <ele>241</ele>
        <time>2021-01-19T14:45:04Z</time>
      </trkpt>
      <trkpt lat="43.45699" lon="5.33912">
        <ele>242</ele>
        <time>2021-01-19T14:45:06Z</time>
      </trkpt>
      <trkpt lat="43.45701" lon="5.33909">
        <ele>241</ele>
        <time>2021-01-19T14:45:09Z</time>
      </trkpt>
      <trkpt lat="43.45703" lon="5.33908">
        <ele>242</ele>
        <time>2021-01-19T14:45:11Z</time>
      </trkpt>
      <trkpt lat="43.45704" lon="5.33907">
        <ele>241</ele>
        <time>2021-01-19T14:45:13Z</time>
      </trkpt>
      <trkpt lat="43.45706" lon="5.33905">
        <ele>240</ele>
        <time>2021-01-19T14:45:15Z</time>
      </trkpt>
      <trkpt lat="43.45708" lon="5.33904">
        <ele>240</ele>
        <time>2021-01-19T14:45:17Z</time>
      </trkpt>
      <trkpt lat="43.4571" lon="5.33902">
        <ele>240</ele>
        <time>2021-01-19T14:45:19Z</time>
      </trkpt>
      <trkpt lat="43.45713" lon="5.33899">
        <ele>239</ele>
        <time>2021-01-19T14:45:22Z</time>
      </trkpt>
      <trkpt lat="43.45715" lon="5.33898">
        <ele>239</ele>
        <time>2021-01-19T14:45:24Z</time>
      </trkpt>
      <trkpt lat="43.45719" lon="5.33895">
        <ele>239</ele>
        <time>2021-01-19T14:45:27Z</time>
      </trkpt>
      <trkpt lat="43.45722" lon="5.33892">
        <ele>238</ele>
        <time>2021-01-19T14:45:30Z</time>
      </trkpt>
      <trkpt lat="43.45723" lon="5.33891">
        <ele>238</ele>
        <time>2021-01-19T14:45:32Z</time>
      </trkpt>
      <trkpt lat="43.45726" lon="5.33888">
        <ele>238</ele>
        <time>2021-01-19T14:45:35Z</time>
      </trkpt>
      <trkpt lat="43.45729" lon="5.33885">
        <ele>238</ele>
        <time>2021-01-19T14:45:38Z</time>
      </trkpt>
      <trkpt lat="43.45731" lon="5.33883">
        <ele>239</ele>
        <time>2021-01-19T14:45:41Z</time>
      </trkpt>
      <trkpt lat="43.45733" lon="5.33881">
        <ele>238</ele>
        <time>2021-01-19T14:45:43Z</time>
      </trkpt>
      <trkpt lat="43.45735" lon="5.33879">
        <ele>238</ele>
        <time>2021-01-19T14:45:45Z</time>
      </trkpt>
      <trkpt lat="43.45737" lon="5.33877">
        <ele>238</ele>
        <time>2021-01-19T14:45:47Z</time>
      </trkpt>
      <trkpt lat="43.4574" lon="5.33874">
        <ele>237</ele>
        <time>2021-01-19T14:45:50Z</time>
      </trkpt>
      <trkpt lat="43.45741" lon="5.33874">
        <ele>237</ele>
        <time>2021-01-19T14:45:53Z</time>
      </trkpt>
      <trkpt lat="43.45741" lon="5.33875">
        <ele>237</ele>
        <time>2021-01-19T14:45:55Z</time>
      </trkpt>
      <trkpt lat="43.45741" lon="5.33875">
        <ele>237</ele>
        <time>2021-01-19T14:45:58Z</time>
      </trkpt>
      <trkpt lat="43.4574" lon="5.33875">
        <ele>237</ele>
        <time>2021-01-19T14:46:00Z</time>
      </trkpt>
      <trkpt lat="43.4574" lon="5.33875">
        <ele>237</ele>
        <time>2021-01-19T14:46:02Z</time>
      </trkpt>
      <trkpt lat="43.45741" lon="5.33875">
        <ele>236</ele>
        <time>2021-01-19T14:46:05Z</time>
      </trkpt>
      <trkpt lat="43.45742" lon="5.33873">
        <ele>236</ele>
        <time>2021-01-19T14:46:08Z</time>
      </trkpt>
      <trkpt lat="43.45741" lon="5.33873">
        <ele>236</ele>
        <time>2021-01-19T14:46:10Z</time>
      </trkpt>
      <trkpt lat="43.45741" lon="5.33873">
        <ele>236</ele>
        <time>2021-01-19T14:46:12Z</time>
      </trkpt>
      <trkpt lat="43.45741" lon="5.33873">
        <ele>236</ele>
        <time>2021-01-19T14:46:15Z</time>
      </trkpt>
      <trkpt lat="43.45741" lon="5.33873">
        <ele>236</ele>
        <time>2021-01-19T14:46:17Z</time>
      </trkpt>
      <trkpt lat="43.45741" lon="5.33873">
        <ele>236</ele>
        <time>2021-01-19T14:46:20Z</time>
      </trkpt>
      <trkpt lat="43.45741" lon="5.33873">
        <ele>236</ele>
        <time>2021-01-19T14:46:22Z</time>
      </trkpt>
      <trkpt lat="43.45741" lon="5.33873">
        <ele>236</ele>
        <time>2021-01-19T14:46:24Z</time>
      </trkpt>
      <trkpt lat="43.45741" lon="5.33873">
        <ele>236</ele>
        <time>2021-01-19T14:46:27Z</time>
      </trkpt>
      <trkpt lat="43.45743" lon="5.33873">
        <ele>236</ele>
        <time>2021-01-19T14:46:29Z</time>
      </trkpt>
      <trkpt lat="43.45745" lon="5.33871">
        <ele>235</ele>
        <time>2021-01-19T14:46:31Z</time>
      </trkpt>
      <trkpt lat="43.45748" lon="5.33868">
        <ele>235</ele>
        <time>2021-01-19T14:46:34Z</time>
      </trkpt>
      <trkpt lat="43.4575" lon="5.33866">
        <ele>235</ele>
        <time>2021-01-19T14:46:36Z</time>
      </trkpt>
      <trkpt lat="43.45753" lon="5.33864">
        <ele>234</ele>
        <time>2021-01-19T14:46:39Z</time>
      </trkpt>
      <trkpt lat="43.45755" lon="5.33862">
        <ele>234</ele>
        <time>2021-01-19T14:46:41Z</time>
      </trkpt>
      <trkpt lat="43.45756" lon="5.3386">
        <ele>234</ele>
        <time>2021-01-19T14:46:43Z</time>
      </trkpt>
      <trkpt lat="43.45758" lon="5.33858">
        <ele>234</ele>
        <time>2021-01-19T14:46:46Z</time>
      </trkpt>
      <trkpt lat="43.45761" lon="5.33855">
        <ele>234</ele>
        <time>2021-01-19T14:46:49Z</time>
      </trkpt>
      <trkpt lat="43.45763" lon="5.33852">
        <ele>233</ele>
        <time>2021-01-19T14:46:52Z</time>
      </trkpt>
      <trkpt lat="43.45764" lon="5.3385">
        <ele>233</ele>
        <time>2021-01-19T14:46:55Z</time>
      </trkpt>
      <trkpt lat="43.45767" lon="5.33847">
        <ele>232</ele>
        <time>2021-01-19T14:46:58Z</time>
      </trkpt>
      <trkpt lat="43.4577" lon="5.33845">
        <ele>232</ele>
        <time>2021-01-19T14:47:00Z</time>
      </trkpt>
      <trkpt lat="43.45773" lon="5.33842">
        <ele>231</ele>
        <time>2021-01-19T14:47:03Z</time>
      </trkpt>
      <trkpt lat="43.45777" lon="5.33839">
        <ele>231</ele>
        <time>2021-01-19T14:47:06Z</time>
      </trkpt>
      <trkpt lat="43.45779" lon="5.33837">
        <ele>230</ele>
        <time>2021-01-19T14:47:08Z</time>
      </trkpt>
      <trkpt lat="43.45783" lon="5.33835">
        <ele>230</ele>
        <time>2021-01-19T14:47:11Z</time>
      </trkpt>
      <trkpt lat="43.45785" lon="5.33833">
        <ele>230</ele>
        <time>2021-01-19T14:47:13Z</time>
      </trkpt>
      <trkpt lat="43.45787" lon="5.33831">
        <ele>229</ele>
        <time>2021-01-19T14:47:16Z</time>
      </trkpt>
      <trkpt lat="43.45789" lon="5.3383">
        <ele>229</ele>
        <time>2021-01-19T14:47:18Z</time>
      </trkpt>
      <trkpt lat="43.45791" lon="5.33828">
        <ele>230</ele>
        <time>2021-01-19T14:47:20Z</time>
      </trkpt>
      <trkpt lat="43.45792" lon="5.33827">
        <ele>231</ele>
        <time>2021-01-19T14:47:22Z</time>
      </trkpt>
      <trkpt lat="43.45794" lon="5.33826">
        <ele>230</ele>
        <time>2021-01-19T14:47:24Z</time>
      </trkpt>
      <trkpt lat="43.45796" lon="5.33825">
        <ele>230</ele>
        <time>2021-01-19T14:47:27Z</time>
      </trkpt>
      <trkpt lat="43.45796" lon="5.33824">
        <ele>230</ele>
        <time>2021-01-19T14:47:29Z</time>
      </trkpt>
      <trkpt lat="43.45798" lon="5.33822">
        <ele>230</ele>
        <time>2021-01-19T14:47:31Z</time>
      </trkpt>
      <trkpt lat="43.45801" lon="5.3382">
        <ele>230</ele>
        <time>2021-01-19T14:47:34Z</time>
      </trkpt>
      <trkpt lat="43.45803" lon="5.3382">
        <ele>230</ele>
        <time>2021-01-19T14:47:36Z</time>
      </trkpt>
      <trkpt lat="43.45806" lon="5.33818">
        <ele>231</ele>
        <time>2021-01-19T14:47:39Z</time>
      </trkpt>
      <trkpt lat="43.45808" lon="5.33817">
        <ele>232</ele>
        <time>2021-01-19T14:47:41Z</time>
      </trkpt>
      <trkpt lat="43.45812" lon="5.33814">
        <ele>231</ele>
        <time>2021-01-19T14:47:44Z</time>
      </trkpt>
      <trkpt lat="43.45814" lon="5.33813">
        <ele>231</ele>
        <time>2021-01-19T14:47:46Z</time>
      </trkpt>
      <trkpt lat="43.45815" lon="5.33812">
        <ele>231</ele>
        <time>2021-01-19T14:47:48Z</time>
      </trkpt>
      <trkpt lat="43.45818" lon="5.3381">
        <ele>231</ele>
        <time>2021-01-19T14:47:51Z</time>
      </trkpt>
      <trkpt lat="43.45821" lon="5.33809">
        <ele>232</ele>
        <time>2021-01-19T14:47:53Z</time>
      </trkpt>
      <trkpt lat="43.45824" lon="5.33809">
        <ele>232</ele>
        <time>2021-01-19T14:47:56Z</time>
      </trkpt>
      <trkpt lat="43.45825" lon="5.33809">
        <ele>232</ele>
        <time>2021-01-19T14:47:58Z</time>
      </trkpt>
      <trkpt lat="43.45827" lon="5.33809">
        <ele>232</ele>
        <time>2021-01-19T14:48:01Z</time>
      </trkpt>
      <trkpt lat="43.45828" lon="5.33809">
        <ele>232</ele>
        <time>2021-01-19T14:48:03Z</time>
      </trkpt>
      <trkpt lat="43.4583" lon="5.33811">
        <ele>233</ele>
        <time>2021-01-19T14:48:06Z</time>
      </trkpt>
      <trkpt lat="43.45832" lon="5.33812">
        <ele>233</ele>
        <time>2021-01-19T14:48:09Z</time>
      </trkpt>
      <trkpt lat="43.45833" lon="5.33812">
        <ele>233</ele>
        <time>2021-01-19T14:48:11Z</time>
      </trkpt>
      <trkpt lat="43.45834" lon="5.33813">
        <ele>233</ele>
        <time>2021-01-19T14:48:13Z</time>
      </trkpt>
      <trkpt lat="43.45837" lon="5.33814">
        <ele>234</ele>
        <time>2021-01-19T14:48:16Z</time>
      </trkpt>
      <trkpt lat="43.45839" lon="5.33815">
        <ele>235</ele>
        <time>2021-01-19T14:48:19Z</time>
      </trkpt>
      <trkpt lat="43.45841" lon="5.33817">
        <ele>235</ele>
        <time>2021-01-19T14:48:22Z</time>
      </trkpt>
      <trkpt lat="43.45843" lon="5.33818">
        <ele>236</ele>
        <time>2021-01-19T14:48:24Z</time>
      </trkpt>
      <trkpt lat="43.45844" lon="5.33819">
        <ele>236</ele>
        <time>2021-01-19T14:48:27Z</time>
      </trkpt>
      <trkpt lat="43.45845" lon="5.33819">
        <ele>236</ele>
        <time>2021-01-19T14:48:29Z</time>
      </trkpt>
      <trkpt lat="43.45848" lon="5.33819">
        <ele>236</ele>
        <time>2021-01-19T14:48:32Z</time>
      </trkpt>
      <trkpt lat="43.45852" lon="5.33819">
        <ele>235</ele>
        <time>2021-01-19T14:48:35Z</time>
      </trkpt>
      <trkpt lat="43.45854" lon="5.3382">
        <ele>235</ele>
        <time>2021-01-19T14:48:37Z</time>
      </trkpt>
      <trkpt lat="43.45856" lon="5.33821">
        <ele>236</ele>
        <time>2021-01-19T14:48:39Z</time>
      </trkpt>
      <trkpt lat="43.45858" lon="5.33822">
        <ele>235</ele>
        <time>2021-01-19T14:48:42Z</time>
      </trkpt>
      <trkpt lat="43.45858" lon="5.33822">
        <ele>235</ele>
        <time>2021-01-19T14:48:44Z</time>
      </trkpt>
      <trkpt lat="43.4586" lon="5.33825">
        <ele>235</ele>
        <time>2021-01-19T14:48:47Z</time>
      </trkpt>
      <trkpt lat="43.45861" lon="5.33827">
        <ele>235</ele>
        <time>2021-01-19T14:48:49Z</time>
      </trkpt>
      <trkpt lat="43.45862" lon="5.33829">
        <ele>235</ele>
        <time>2021-01-19T14:48:51Z</time>
      </trkpt>
      <trkpt lat="43.45863" lon="5.33829">
        <ele>235</ele>
        <time>2021-01-19T14:48:53Z</time>
      </trkpt>
      <trkpt lat="43.45866" lon="5.3383">
        <ele>236</ele>
        <time>2021-01-19T14:48:56Z</time>
      </trkpt>
      <trkpt lat="43.45867" lon="5.33831">
        <ele>236</ele>
        <time>2021-01-19T14:48:58Z</time>
      </trkpt>
      <trkpt lat="43.45869" lon="5.33834">
        <ele>236</ele>
        <time>2021-01-19T14:49:01Z</time>
      </trkpt>
      <trkpt lat="43.45871" lon="5.33836">
        <ele>237</ele>
        <time>2021-01-19T14:49:04Z</time>
      </trkpt>
      <trkpt lat="43.45873" lon="5.33837">
        <ele>236</ele>
        <time>2021-01-19T14:49:06Z</time>
      </trkpt>
      <trkpt lat="43.45875" lon="5.33838">
        <ele>237</ele>
        <time>2021-01-19T14:49:08Z</time>
      </trkpt>
      <trkpt lat="43.45876" lon="5.33839">
        <ele>237</ele>
        <time>2021-01-19T14:49:11Z</time>
      </trkpt>
      <trkpt lat="43.45878" lon="5.3384">
        <ele>236</ele>
        <time>2021-01-19T14:49:13Z</time>
      </trkpt>
      <trkpt lat="43.4588" lon="5.3384">
        <ele>236</ele>
        <time>2021-01-19T14:49:16Z</time>
      </trkpt>
      <trkpt lat="43.45881" lon="5.33841">
        <ele>235</ele>
        <time>2021-01-19T14:49:18Z</time>
      </trkpt>
      <trkpt lat="43.45883" lon="5.33843">
        <ele>235</ele>
        <time>2021-01-19T14:49:21Z</time>
      </trkpt>
      <trkpt lat="43.45885" lon="5.33844">
        <ele>235</ele>
        <time>2021-01-19T14:49:23Z</time>
      </trkpt>
      <trkpt lat="43.45886" lon="5.33845">
        <ele>235</ele>
        <time>2021-01-19T14:49:26Z</time>
      </trkpt>
      <trkpt lat="43.45888" lon="5.33845">
        <ele>235</ele>
        <time>2021-01-19T14:49:28Z</time>
      </trkpt>
      <trkpt lat="43.4589" lon="5.33845">
        <ele>235</ele>
        <time>2021-01-19T14:49:30Z</time>
      </trkpt>
      <trkpt lat="43.45892" lon="5.33845">
        <ele>235</ele>
        <time>2021-01-19T14:49:33Z</time>
      </trkpt>
      <trkpt lat="43.45894" lon="5.33846">
        <ele>235</ele>
        <time>2021-01-19T14:49:35Z</time>
      </trkpt>
      <trkpt lat="43.45897" lon="5.33846">
        <ele>236</ele>
        <time>2021-01-19T14:49:38Z</time>
      </trkpt>
      <trkpt lat="43.45899" lon="5.33847">
        <ele>236</ele>
        <time>2021-01-19T14:49:40Z</time>
      </trkpt>
      <trkpt lat="43.45901" lon="5.33847">
        <ele>236</ele>
        <time>2021-01-19T14:49:42Z</time>
      </trkpt>
      <trkpt lat="43.45902" lon="5.33847">
        <ele>236</ele>
        <time>2021-01-19T14:49:44Z</time>
      </trkpt>
      <trkpt lat="43.45906" lon="5.33847">
        <ele>237</ele>
        <time>2021-01-19T14:49:47Z</time>
      </trkpt>
      <trkpt lat="43.45908" lon="5.33847">
        <ele>237</ele>
        <time>2021-01-19T14:49:50Z</time>
      </trkpt>
      <trkpt lat="43.45911" lon="5.33847">
        <ele>237</ele>
        <time>2021-01-19T14:49:53Z</time>
      </trkpt>
      <trkpt lat="43.45914" lon="5.33847">
        <ele>237</ele>
        <time>2021-01-19T14:49:56Z</time>
      </trkpt>
      <trkpt lat="43.45917" lon="5.33847">
        <ele>236</ele>
        <time>2021-01-19T14:49:59Z</time>
      </trkpt>
      <trkpt lat="43.45919" lon="5.33847">
        <ele>236</ele>
        <time>2021-01-19T14:50:01Z</time>
      </trkpt>
      <trkpt lat="43.45921" lon="5.33847">
        <ele>237</ele>
        <time>2021-01-19T14:50:04Z</time>
      </trkpt>
      <trkpt lat="43.45924" lon="5.33847">
        <ele>236</ele>
        <time>2021-01-19T14:50:07Z</time>
      </trkpt>
      <trkpt lat="43.45926" lon="5.33847">
        <ele>236</ele>
        <time>2021-01-19T14:50:10Z</time>
      </trkpt>
      <trkpt lat="43.45928" lon="5.33848">
        <ele>236</ele>
        <time>2021-01-19T14:50:13Z</time>
      </trkpt>
      <trkpt lat="43.4593" lon="5.33848">
        <ele>235</ele>
        <time>2021-01-19T14:50:16Z</time>
      </trkpt>
      <trkpt lat="43.45933" lon="5.3385">
        <ele>235</ele>
        <time>2021-01-19T14:50:19Z</time>
      </trkpt>
      <trkpt lat="43.45935" lon="5.33851">
        <ele>236</ele>
        <time>2021-01-19T14:50:21Z</time>
      </trkpt>
      <trkpt lat="43.45937" lon="5.33853">
        <ele>235</ele>
        <time>2021-01-19T14:50:23Z</time>
      </trkpt>
      <trkpt lat="43.45938" lon="5.33855">
        <ele>236</ele>
        <time>2021-01-19T14:50:25Z</time>
      </trkpt>
      <trkpt lat="43.45938" lon="5.33859">
        <ele>235</ele>
        <time>2021-01-19T14:50:28Z</time>
      </trkpt>
      <trkpt lat="43.45938" lon="5.33862">
        <ele>234</ele>
        <time>2021-01-19T14:50:30Z</time>
      </trkpt>
      <trkpt lat="43.45938" lon="5.33865">
        <ele>234</ele>
        <time>2021-01-19T14:50:33Z</time>
      </trkpt>
      <trkpt lat="43.45938" lon="5.33868">
        <ele>234</ele>
        <time>2021-01-19T14:50:35Z</time>
      </trkpt>
      <trkpt lat="43.45938" lon="5.3387">
        <ele>234</ele>
        <time>2021-01-19T14:50:38Z</time>
      </trkpt>
      <trkpt lat="43.45937" lon="5.33872">
        <ele>234</ele>
        <time>2021-01-19T14:50:40Z</time>
      </trkpt>
      <trkpt lat="43.45937" lon="5.33875">
        <ele>235</ele>
        <time>2021-01-19T14:50:42Z</time>
      </trkpt>
      <trkpt lat="43.45936" lon="5.33877">
        <ele>235</ele>
        <time>2021-01-19T14:50:44Z</time>
      </trkpt>
      <trkpt lat="43.45934" lon="5.33881">
        <ele>235</ele>
        <time>2021-01-19T14:50:47Z</time>
      </trkpt>
      <trkpt lat="43.45934" lon="5.33883">
        <ele>235</ele>
        <time>2021-01-19T14:50:49Z</time>
      </trkpt>
      <trkpt lat="43.45934" lon="5.33884">
        <ele>235</ele>
        <time>2021-01-19T14:50:51Z</time>
      </trkpt>
      <trkpt lat="43.45933" lon="5.33887">
        <ele>234</ele>
        <time>2021-01-19T14:50:54Z</time>
      </trkpt>
      <trkpt lat="43.45933" lon="5.33889">
        <ele>234</ele>
        <time>2021-01-19T14:50:56Z</time>
      </trkpt>
      <trkpt lat="43.45932" lon="5.33891">
        <ele>233</ele>
        <time>2021-01-19T14:50:58Z</time>
      </trkpt>
      <trkpt lat="43.45932" lon="5.33894">
        <ele>233</ele>
        <time>2021-01-19T14:51:00Z</time>
      </trkpt>
      <trkpt lat="43.45932" lon="5.33896">
        <ele>233</ele>
        <time>2021-01-19T14:51:03Z</time>
      </trkpt>
      <trkpt lat="43.45932" lon="5.33899">
        <ele>232</ele>
        <time>2021-01-19T14:51:06Z</time>
      </trkpt>
      <trkpt lat="43.45932" lon="5.33901">
        <ele>231</ele>
        <time>2021-01-19T14:51:08Z</time>
      </trkpt>
      <trkpt lat="43.45931" lon="5.33903">
        <ele>230</ele>
        <time>2021-01-19T14:51:11Z</time>
      </trkpt>
      <trkpt lat="43.4593" lon="5.33903">
        <ele>230</ele>
        <time>2021-01-19T14:51:13Z</time>
      </trkpt>
      <trkpt lat="43.4593" lon="5.33903">
        <ele>230</ele>
        <time>2021-01-19T14:51:15Z</time>
      </trkpt>
      <trkpt lat="43.4593" lon="5.33903">
        <ele>230</ele>
        <time>2021-01-19T14:51:17Z</time>
      </trkpt>
      <trkpt lat="43.4593" lon="5.33903">
        <ele>230</ele>
        <time>2021-01-19T14:51:20Z</time>
      </trkpt>
      <trkpt lat="43.4593" lon="5.33903">
        <ele>230</ele>
        <time>2021-01-19T14:51:22Z</time>
      </trkpt>
      <trkpt lat="43.4593" lon="5.33903">
        <ele>230</ele>
        <time>2021-01-19T14:51:24Z</time>
      </trkpt>
      <trkpt lat="43.4593" lon="5.33903">
        <ele>230</ele>
        <time>2021-01-19T14:51:27Z</time>
      </trkpt>
      <trkpt lat="43.45929" lon="5.33905">
        <ele>229</ele>
        <time>2021-01-19T14:51:29Z</time>
      </trkpt>
      <trkpt lat="43.45928" lon="5.33905">
        <ele>230</ele>
        <time>2021-01-19T14:51:32Z</time>
      </trkpt>
      <trkpt lat="43.45928" lon="5.33905">
        <ele>230</ele>
        <time>2021-01-19T14:51:34Z</time>
      </trkpt>
      <trkpt lat="43.45928" lon="5.33905">
        <ele>230</ele>
        <time>2021-01-19T14:51:37Z</time>
      </trkpt>
      <trkpt lat="43.45928" lon="5.33905">
        <ele>230</ele>
        <time>2021-01-19T14:51:40Z</time>
      </trkpt>
      <trkpt lat="43.45928" lon="5.33905">
        <ele>230</ele>
        <time>2021-01-19T14:51:43Z</time>
      </trkpt>
      <trkpt lat="43.45928" lon="5.33905">
        <ele>230</ele>
        <time>2021-01-19T14:51:45Z</time>
      </trkpt>
      <trkpt lat="43.45928" lon="5.33905">
        <ele>230</ele>
        <time>2021-01-19T14:51:48Z</time>
      </trkpt>
      <trkpt lat="43.45928" lon="5.33905">
        <ele>230</ele>
        <time>2021-01-19T14:51:51Z</time>
      </trkpt>
      <trkpt lat="43.45929" lon="5.33907">
        <ele>229</ele>
        <time>2021-01-19T14:51:54Z</time>
      </trkpt>
      <trkpt lat="43.45929" lon="5.33907">
        <ele>229</ele>
        <time>2021-01-19T14:51:56Z</time>
      </trkpt>
      <trkpt lat="43.45928" lon="5.33907">
        <ele>229</ele>
        <time>2021-01-19T14:51:59Z</time>
      </trkpt>
      <trkpt lat="43.45928" lon="5.33907">
        <ele>229</ele>
        <time>2021-01-19T14:52:01Z</time>
      </trkpt>
      <trkpt lat="43.45928" lon="5.33907">
        <ele>229</ele>
        <time>2021-01-19T14:52:03Z</time>
      </trkpt>
      <trkpt lat="43.45929" lon="5.33907">
        <ele>229</ele>
        <time>2021-01-19T14:52:05Z</time>
      </trkpt>
      <trkpt lat="43.45928" lon="5.33909">
        <ele>230</ele>
        <time>2021-01-19T14:52:07Z</time>
      </trkpt>
      <trkpt lat="43.45928" lon="5.3391">
        <ele>230</ele>
        <time>2021-01-19T14:52:10Z</time>
      </trkpt>
      <trkpt lat="43.45928" lon="5.3391">
        <ele>230</ele>
        <time>2021-01-19T14:52:12Z</time>
      </trkpt>
      <trkpt lat="43.45928" lon="5.33912">
        <ele>230</ele>
        <time>2021-01-19T14:52:15Z</time>
      </trkpt>
      <trkpt lat="43.45928" lon="5.33913">
        <ele>231</ele>
        <time>2021-01-19T14:52:17Z</time>
      </trkpt>
      <trkpt lat="43.45927" lon="5.33915">
        <ele>232</ele>
        <time>2021-01-19T14:52:19Z</time>
      </trkpt>
      <trkpt lat="43.45926" lon="5.33916">
        <ele>232</ele>
        <time>2021-01-19T14:52:21Z</time>
      </trkpt>
      <trkpt lat="43.45925" lon="5.3392">
        <ele>232</ele>
        <time>2021-01-19T14:52:24Z</time>
      </trkpt>
      <trkpt lat="43.45925" lon="5.33922">
        <ele>232</ele>
        <time>2021-01-19T14:52:27Z</time>
      </trkpt>
      <trkpt lat="43.45926" lon="5.33927">
        <ele>231</ele>
        <time>2021-01-19T14:52:30Z</time>
      </trkpt>
      <trkpt lat="43.45926" lon="5.3393">
        <ele>232</ele>
        <time>2021-01-19T14:52:33Z</time>
      </trkpt>
      <trkpt lat="43.45926" lon="5.33931">
        <ele>232</ele>
        <time>2021-01-19T14:52:36Z</time>
      </trkpt>
      <trkpt lat="43.45928" lon="5.33934">
        <ele>231</ele>
        <time>2021-01-19T14:52:38Z</time>
      </trkpt>
      <trkpt lat="43.45929" lon="5.33937">
        <ele>230</ele>
        <time>2021-01-19T14:52:40Z</time>
      </trkpt>
      <trkpt lat="43.45929" lon="5.33939">
        <ele>230</ele>
        <time>2021-01-19T14:52:43Z</time>
      </trkpt>
      <trkpt lat="43.4593" lon="5.33942">
        <ele>229</ele>
        <time>2021-01-19T14:52:45Z</time>
      </trkpt>
      <trkpt lat="43.4593" lon="5.33946">
        <ele>230</ele>
        <time>2021-01-19T14:52:48Z</time>
      </trkpt>
      <trkpt lat="43.4593" lon="5.33949">
        <ele>229</ele>
        <time>2021-01-19T14:52:50Z</time>
      </trkpt>
      <trkpt lat="43.45931" lon="5.33952">
        <ele>228</ele>
        <time>2021-01-19T14:52:52Z</time>
      </trkpt>
      <trkpt lat="43.45931" lon="5.33955">
        <ele>227</ele>
        <time>2021-01-19T14:52:54Z</time>
      </trkpt>
      <trkpt lat="43.45931" lon="5.33958">
        <ele>227</ele>
        <time>2021-01-19T14:52:56Z</time>
      </trkpt>
      <trkpt lat="43.45933" lon="5.33962">
        <ele>228</ele>
        <time>2021-01-19T14:52:59Z</time>
      </trkpt>
      <trkpt lat="43.45933" lon="5.33964">
        <ele>228</ele>
        <time>2021-01-19T14:53:01Z</time>
      </trkpt>
      <trkpt lat="43.45932" lon="5.33968">
        <ele>228</ele>
        <time>2021-01-19T14:53:04Z</time>
      </trkpt>
      <trkpt lat="43.45932" lon="5.3397">
        <ele>228</ele>
        <time>2021-01-19T14:53:06Z</time>
      </trkpt>
      <trkpt lat="43.45931" lon="5.33971">
        <ele>228</ele>
        <time>2021-01-19T14:53:09Z</time>
      </trkpt>
      <trkpt lat="43.4593" lon="5.33974">
        <ele>228</ele>
        <time>2021-01-19T14:53:11Z</time>
      </trkpt>
      <trkpt lat="43.45929" lon="5.33977">
        <ele>228</ele>
        <time>2021-01-19T14:53:13Z</time>
      </trkpt>
      <trkpt lat="43.45929" lon="5.33981">
        <ele>228</ele>
        <time>2021-01-19T14:53:16Z</time>
      </trkpt>
      <trkpt lat="43.45928" lon="5.33984">
        <ele>229</ele>
        <time>2021-01-19T14:53:18Z</time>
      </trkpt>
      <trkpt lat="43.45927" lon="5.33987">
        <ele>228</ele>
        <time>2021-01-19T14:53:21Z</time>
      </trkpt>
      <trkpt lat="43.45927" lon="5.33989">
        <ele>229</ele>
        <time>2021-01-19T14:53:23Z</time>
      </trkpt>
      <trkpt lat="43.45926" lon="5.3399">
        <ele>229</ele>
        <time>2021-01-19T14:53:26Z</time>
      </trkpt>
      <trkpt lat="43.45925" lon="5.33991">
        <ele>229</ele>
        <time>2021-01-19T14:53:28Z</time>
      </trkpt>
      <trkpt lat="43.45922" lon="5.33993">
        <ele>229</ele>
        <time>2021-01-19T14:53:31Z</time>
      </trkpt>
      <trkpt lat="43.4592" lon="5.33994">
        <ele>229</ele>
        <time>2021-01-19T14:53:33Z</time>
      </trkpt>
      <trkpt lat="43.45917" lon="5.33997">
        <ele>230</ele>
        <time>2021-01-19T14:53:36Z</time>
      </trkpt>
      <trkpt lat="43.45916" lon="5.33999">
        <ele>230</ele>
        <time>2021-01-19T14:53:38Z</time>
      </trkpt>
      <trkpt lat="43.45914" lon="5.34001">
        <ele>230</ele>
        <time>2021-01-19T14:53:41Z</time>
      </trkpt>
      <trkpt lat="43.45913" lon="5.34002">
        <ele>230</ele>
        <time>2021-01-19T14:53:43Z</time>
      </trkpt>
      <trkpt lat="43.45913" lon="5.34003">
        <ele>230</ele>
        <time>2021-01-19T14:53:45Z</time>
      </trkpt>
      <trkpt lat="43.45912" lon="5.34004">
        <ele>231</ele>
        <time>2021-01-19T14:53:48Z</time>
      </trkpt>
      <trkpt lat="43.4591" lon="5.34006">
        <ele>230</ele>
        <time>2021-01-19T14:53:51Z</time>
      </trkpt>
      <trkpt lat="43.45909" lon="5.34007">
        <ele>230</ele>
        <time>2021-01-19T14:53:53Z</time>
      </trkpt>
      <trkpt lat="43.45907" lon="5.34009">
        <ele>230</ele>
        <time>2021-01-19T14:53:55Z</time>
      </trkpt>
      <trkpt lat="43.45906" lon="5.34011">
        <ele>229</ele>
        <time>2021-01-19T14:53:57Z</time>
      </trkpt>
      <trkpt lat="43.45905" lon="5.34013">
        <ele>229</ele>
        <time>2021-01-19T14:53:59Z</time>
      </trkpt>
      <trkpt lat="43.45904" lon="5.34015">
        <ele>228</ele>
        <time>2021-01-19T14:54:02Z</time>
      </trkpt>
      <trkpt lat="43.45903" lon="5.34016">
        <ele>228</ele>
        <time>2021-01-19T14:54:04Z</time>
      </trkpt>
      <trkpt lat="43.45902" lon="5.34018">
        <ele>228</ele>
        <time>2021-01-19T14:54:07Z</time>
      </trkpt>
      <trkpt lat="43.45901" lon="5.34019">
        <ele>228</ele>
        <time>2021-01-19T14:54:10Z</time>
      </trkpt>
      <trkpt lat="43.45898" lon="5.34021">
        <ele>229</ele>
        <time>2021-01-19T14:54:13Z</time>
      </trkpt>
      <trkpt lat="43.45896" lon="5.34023">
        <ele>228</ele>
        <time>2021-01-19T14:54:16Z</time>
      </trkpt>
      <trkpt lat="43.45895" lon="5.34024">
        <ele>229</ele>
        <time>2021-01-19T14:54:18Z</time>
      </trkpt>
      <trkpt lat="43.45893" lon="5.34026">
        <ele>229</ele>
        <time>2021-01-19T14:54:20Z</time>
      </trkpt>
      <trkpt lat="43.45891" lon="5.34029">
        <ele>229</ele>
        <time>2021-01-19T14:54:23Z</time>
      </trkpt>
      <trkpt lat="43.45889" lon="5.34033">
        <ele>230</ele>
        <time>2021-01-19T14:54:26Z</time>
      </trkpt>
      <trkpt lat="43.45888" lon="5.34034">
        <ele>230</ele>
        <time>2021-01-19T14:54:28Z</time>
      </trkpt>
      <trkpt lat="43.45887" lon="5.34036">
        <ele>230</ele>
        <time>2021-01-19T14:54:30Z</time>
      </trkpt>
      <trkpt lat="43.45885" lon="5.34037">
        <ele>229</ele>
        <time>2021-01-19T14:54:33Z</time>
      </trkpt>
      <trkpt lat="43.45884" lon="5.34038">
        <ele>230</ele>
        <time>2021-01-19T14:54:35Z</time>
      </trkpt>
      <trkpt lat="43.45884" lon="5.34038">
        <ele>231</ele>
        <time>2021-01-19T14:54:38Z</time>
      </trkpt>
      <trkpt lat="43.45883" lon="5.34039">
        <ele>232</ele>
        <time>2021-01-19T14:54:40Z</time>
      </trkpt>
      <trkpt lat="43.45882" lon="5.34041">
        <ele>232</ele>
        <time>2021-01-19T14:54:42Z</time>
      </trkpt>
      <trkpt lat="43.45881" lon="5.34044">
        <ele>232</ele>
        <time>2021-01-19T14:54:45Z</time>
      </trkpt>
      <trkpt lat="43.45879" lon="5.34045">
        <ele>232</ele>
        <time>2021-01-19T14:54:47Z</time>
      </trkpt>
      <trkpt lat="43.45877" lon="5.34047">
        <ele>232</ele>
        <time>2021-01-19T14:54:50Z</time>
      </trkpt>
      <trkpt lat="43.45875" lon="5.34051">
        <ele>232</ele>
        <time>2021-01-19T14:54:53Z</time>
      </trkpt>
      <trkpt lat="43.45873" lon="5.34053">
        <ele>231</ele>
        <time>2021-01-19T14:54:56Z</time>
      </trkpt>
      <trkpt lat="43.45872" lon="5.34056">
        <ele>230</ele>
        <time>2021-01-19T14:54:59Z</time>
      </trkpt>
      <trkpt lat="43.45871" lon="5.34058">
        <ele>230</ele>
        <time>2021-01-19T14:55:01Z</time>
      </trkpt>
      <trkpt lat="43.45869" lon="5.34061">
        <ele>230</ele>
        <time>2021-01-19T14:55:04Z</time>
      </trkpt>
      <trkpt lat="43.45868" lon="5.34063">
        <ele>229</ele>
        <time>2021-01-19T14:55:06Z</time>
      </trkpt>
      <trkpt lat="43.45867" lon="5.34065">
        <ele>229</ele>
        <time>2021-01-19T14:55:08Z</time>
      </trkpt>
      <trkpt lat="43.45865" lon="5.34069">
        <ele>229</ele>
        <time>2021-01-19T14:55:11Z</time>
      </trkpt>
      <trkpt lat="43.45864" lon="5.34071">
        <ele>227</ele>
        <time>2021-01-19T14:55:13Z</time>
      </trkpt>
      <trkpt lat="43.45863" lon="5.34072">
        <ele>227</ele>
        <time>2021-01-19T14:55:15Z</time>
      </trkpt>
      <trkpt lat="43.45861" lon="5.34073">
        <ele>227</ele>
        <time>2021-01-19T14:55:18Z</time>
      </trkpt>
      <trkpt lat="43.45859" lon="5.34075">
        <ele>228</ele>
        <time>2021-01-19T14:55:21Z</time>
      </trkpt>
      <trkpt lat="43.45857" lon="5.34078">
        <ele>228</ele>
        <time>2021-01-19T14:55:24Z</time>
      </trkpt>
      <trkpt lat="43.45856" lon="5.34079">
        <ele>228</ele>
        <time>2021-01-19T14:55:26Z</time>
      </trkpt>
      <trkpt lat="43.45854" lon="5.34082">
        <ele>228</ele>
        <time>2021-01-19T14:55:29Z</time>
      </trkpt>
      <trkpt lat="43.45852" lon="5.34085">
        <ele>228</ele>
        <time>2021-01-19T14:55:32Z</time>
      </trkpt>
      <trkpt lat="43.4585" lon="5.34088">
        <ele>228</ele>
        <time>2021-01-19T14:55:35Z</time>
      </trkpt>
      <trkpt lat="43.45849" lon="5.34088">
        <ele>227</ele>
        <time>2021-01-19T14:55:37Z</time>
      </trkpt>
      <trkpt lat="43.45848" lon="5.34089">
        <ele>228</ele>
        <time>2021-01-19T14:55:40Z</time>
      </trkpt>
      <trkpt lat="43.45848" lon="5.3409">
        <ele>227</ele>
        <time>2021-01-19T14:55:43Z</time>
      </trkpt>
      <trkpt lat="43.45847" lon="5.34091">
        <ele>226</ele>
        <time>2021-01-19T14:55:45Z</time>
      </trkpt>
      <trkpt lat="43.45847" lon="5.34093">
        <ele>226</ele>
        <time>2021-01-19T14:55:48Z</time>
      </trkpt>
      <trkpt lat="43.45845" lon="5.34095">
        <ele>225</ele>
        <time>2021-01-19T14:55:51Z</time>
      </trkpt>
      <trkpt lat="43.45845" lon="5.34096">
        <ele>225</ele>
        <time>2021-01-19T14:55:54Z</time>
      </trkpt>
      <trkpt lat="43.45843" lon="5.34099">
        <ele>225</ele>
        <time>2021-01-19T14:55:57Z</time>
      </trkpt>
      <trkpt lat="43.45842" lon="5.34102">
        <ele>225</ele>
        <time>2021-01-19T14:56:00Z</time>
      </trkpt>
      <trkpt lat="43.45841" lon="5.34104">
        <ele>224</ele>
        <time>2021-01-19T14:56:03Z</time>
      </trkpt>
      <trkpt lat="43.45839" lon="5.34106">
        <ele>224</ele>
        <time>2021-01-19T14:56:06Z</time>
      </trkpt>
      <trkpt lat="43.45838" lon="5.34108">
        <ele>224</ele>
        <time>2021-01-19T14:56:08Z</time>
      </trkpt>
      <trkpt lat="43.45836" lon="5.3411">
        <ele>224</ele>
        <time>2021-01-19T14:56:10Z</time>
      </trkpt>
      <trkpt lat="43.45834" lon="5.34111">
        <ele>224</ele>
        <time>2021-01-19T14:56:13Z</time>
      </trkpt>
      <trkpt lat="43.45831" lon="5.34113">
        <ele>224</ele>
        <time>2021-01-19T14:56:16Z</time>
      </trkpt>
      <trkpt lat="43.4583" lon="5.34115">
        <ele>224</ele>
        <time>2021-01-19T14:56:18Z</time>
      </trkpt>
      <trkpt lat="43.45829" lon="5.34118">
        <ele>225</ele>
        <time>2021-01-19T14:56:21Z</time>
      </trkpt>
      <trkpt lat="43.45827" lon="5.3412">
        <ele>225</ele>
        <time>2021-01-19T14:56:23Z</time>
      </trkpt>
      <trkpt lat="43.45826" lon="5.34122">
        <ele>225</ele>
        <time>2021-01-19T14:56:26Z</time>
      </trkpt>
      <trkpt lat="43.45823" lon="5.34125">
        <ele>224</ele>
        <time>2021-01-19T14:56:29Z</time>
      </trkpt>
      <trkpt lat="43.45821" lon="5.34127">
        <ele>224</ele>
        <time>2021-01-19T14:56:32Z</time>
      </trkpt>
      <trkpt lat="43.45819" lon="5.3413">
        <ele>224</ele>
        <time>2021-01-19T14:56:35Z</time>
      </trkpt>
      <trkpt lat="43.45817" lon="5.34132">
        <ele>224</ele>
        <time>2021-01-19T14:56:37Z</time>
      </trkpt>
      <trkpt lat="43.45815" lon="5.34134">
        <ele>225</ele>
        <time>2021-01-19T14:56:40Z</time>
      </trkpt>
      <trkpt lat="43.45812" lon="5.34137">
        <ele>225</ele>
        <time>2021-01-19T14:56:43Z</time>
      </trkpt>
      <trkpt lat="43.45811" lon="5.34138">
        <ele>225</ele>
        <time>2021-01-19T14:56:45Z</time>
      </trkpt>
      <trkpt lat="43.45808" lon="5.34142">
        <ele>225</ele>
        <time>2021-01-19T14:56:48Z</time>
      </trkpt>
      <trkpt lat="43.45806" lon="5.34145">
        <ele>225</ele>
        <time>2021-01-19T14:56:51Z</time>
      </trkpt>
      <trkpt lat="43.45804" lon="5.34148">
        <ele>225</ele>
        <time>2021-01-19T14:56:54Z</time>
      </trkpt>
      <trkpt lat="43.45803" lon="5.3415">
        <ele>224</ele>
        <time>2021-01-19T14:56:56Z</time>
      </trkpt>
      <trkpt lat="43.45802" lon="5.34153">
        <ele>224</ele>
        <time>2021-01-19T14:56:59Z</time>
      </trkpt>
      <trkpt lat="43.45801" lon="5.34156">
        <ele>224</ele>
        <time>2021-01-19T14:57:02Z</time>
      </trkpt>
      <trkpt lat="43.458" lon="5.34159">
        <ele>224</ele>
        <time>2021-01-19T14:57:04Z</time>
      </trkpt>
      <trkpt lat="43.45799" lon="5.34162">
        <ele>224</ele>
        <time>2021-01-19T14:57:06Z</time>
      </trkpt>
      <trkpt lat="43.45797" lon="5.34165">
        <ele>224</ele>
        <time>2021-01-19T14:57:09Z</time>
      </trkpt>
      <trkpt lat="43.45796" lon="5.34168">
        <ele>224</ele>
        <time>2021-01-19T14:57:11Z</time>
      </trkpt>
      <trkpt lat="43.45795" lon="5.34171">
        <ele>224</ele>
        <time>2021-01-19T14:57:13Z</time>
      </trkpt>
      <trkpt lat="43.45793" lon="5.34175">
        <ele>224</ele>
        <time>2021-01-19T14:57:16Z</time>
      </trkpt>
      <trkpt lat="43.45792" lon="5.34179">
        <ele>224</ele>
        <time>2021-01-19T14:57:19Z</time>
      </trkpt>
      <trkpt lat="43.45791" lon="5.34182">
        <ele>223</ele>
        <time>2021-01-19T14:57:21Z</time>
      </trkpt>
      <trkpt lat="43.4579" lon="5.34184">
        <ele>223</ele>
        <time>2021-01-19T14:57:23Z</time>
      </trkpt>
      <trkpt lat="43.45789" lon="5.34186">
        <ele>223</ele>
        <time>2021-01-19T14:57:25Z</time>
      </trkpt>
      <trkpt lat="43.45787" lon="5.3419">
        <ele>223</ele>
        <time>2021-01-19T14:57:28Z</time>
      </trkpt>
      <trkpt lat="43.45785" lon="5.34192">
        <ele>224</ele>
        <time>2021-01-19T14:57:30Z</time>
      </trkpt>
      <trkpt lat="43.45783" lon="5.34192">
        <ele>225</ele>
        <time>2021-01-19T14:57:33Z</time>
      </trkpt>
      <trkpt lat="43.45781" lon="5.34193">
        <ele>225</ele>
        <time>2021-01-19T14:57:36Z</time>
      </trkpt>
      <trkpt lat="43.4578" lon="5.34195">
        <ele>225</ele>
        <time>2021-01-19T14:57:38Z</time>
      </trkpt>
      <trkpt lat="43.45779" lon="5.34197">
        <ele>225</ele>
        <time>2021-01-19T14:57:40Z</time>
      </trkpt>
      <trkpt lat="43.45779" lon="5.34199">
        <ele>225</ele>
        <time>2021-01-19T14:57:42Z</time>
      </trkpt>
      <trkpt lat="43.45777" lon="5.34202">
        <ele>225</ele>
        <time>2021-01-19T14:57:45Z</time>
      </trkpt>
      <trkpt lat="43.45776" lon="5.34205">
        <ele>224</ele>
        <time>2021-01-19T14:57:48Z</time>
      </trkpt>
      <trkpt lat="43.45776" lon="5.34207">
        <ele>224</ele>
        <time>2021-01-19T14:57:50Z</time>
      </trkpt>
      <trkpt lat="43.45774" lon="5.3421">
        <ele>224</ele>
        <time>2021-01-19T14:57:53Z</time>
      </trkpt>
      <trkpt lat="43.45772" lon="5.34212">
        <ele>225</ele>
        <time>2021-01-19T14:57:55Z</time>
      </trkpt>
      <trkpt lat="43.45771" lon="5.34213">
        <ele>225</ele>
        <time>2021-01-19T14:57:58Z</time>
      </trkpt>
      <trkpt lat="43.4577" lon="5.34214">
        <ele>226</ele>
        <time>2021-01-19T14:58:00Z</time>
      </trkpt>
      <trkpt lat="43.4577" lon="5.34215">
        <ele>226</ele>
        <time>2021-01-19T14:58:03Z</time>
      </trkpt>
      <trkpt lat="43.4577" lon="5.34215">
        <ele>226</ele>
        <time>2021-01-19T14:58:05Z</time>
      </trkpt>
      <trkpt lat="43.45771" lon="5.34215">
        <ele>225</ele>
        <time>2021-01-19T14:58:08Z</time>
      </trkpt>
      <trkpt lat="43.45771" lon="5.34215">
        <ele>225</ele>
        <time>2021-01-19T14:58:10Z</time>
      </trkpt>
      <trkpt lat="43.4577" lon="5.34215">
        <ele>225</ele>
        <time>2021-01-19T14:58:12Z</time>
      </trkpt>
      <trkpt lat="43.4577" lon="5.34215">
        <ele>225</ele>
        <time>2021-01-19T14:58:15Z</time>
      </trkpt>
      <trkpt lat="43.4577" lon="5.34215">
        <ele>225</ele>
        <time>2021-01-19T14:58:17Z</time>
      </trkpt>
      <trkpt lat="43.4577" lon="5.34215">
        <ele>225</ele>
        <time>2021-01-19T14:58:19Z</time>
      </trkpt>
      <trkpt lat="43.4577" lon="5.34215">
        <ele>225</ele>
        <time>2021-01-19T14:58:22Z</time>
      </trkpt>
      <trkpt lat="43.45771" lon="5.34215">
        <ele>225</ele>
        <time>2021-01-19T14:58:25Z</time>
      </trkpt>
      <trkpt lat="43.45771" lon="5.34215">
        <ele>225</ele>
        <time>2021-01-19T14:58:28Z</time>
      </trkpt>
      <trkpt lat="43.45771" lon="5.34216">
        <ele>226</ele>
        <time>2021-01-19T14:58:30Z</time>
      </trkpt>
      <trkpt lat="43.4577" lon="5.34219">
        <ele>226</ele>
        <time>2021-01-19T14:58:33Z</time>
      </trkpt>
      <trkpt lat="43.4577" lon="5.3422">
        <ele>226</ele>
        <time>2021-01-19T14:58:35Z</time>
      </trkpt>
      <trkpt lat="43.45772" lon="5.34219">
        <ele>226</ele>
        <time>2021-01-19T14:58:37Z</time>
      </trkpt>
      <trkpt lat="43.45773" lon="5.34219">
        <ele>227</ele>
        <time>2021-01-19T14:58:39Z</time>
      </trkpt>
      <trkpt lat="43.45773" lon="5.34219">
        <ele>227</ele>
        <time>2021-01-19T14:58:42Z</time>
      </trkpt>
      <trkpt lat="43.45773" lon="5.34219">
        <ele>227</ele>
        <time>2021-01-19T14:58:45Z</time>
      </trkpt>
      <trkpt lat="43.45773" lon="5.34219">
        <ele>227</ele>
        <time>2021-01-19T14:58:47Z</time>
      </trkpt>
      <trkpt lat="43.45773" lon="5.34219">
        <ele>227</ele>
        <time>2021-01-19T14:58:49Z</time>
      </trkpt>
      <trkpt lat="43.45773" lon="5.34219">
        <ele>227</ele>
        <time>2021-01-19T14:58:52Z</time>
      </trkpt>
      <trkpt lat="43.45773" lon="5.34219">
        <ele>227</ele>
        <time>2021-01-19T14:58:55Z</time>
      </trkpt>
      <trkpt lat="43.45773" lon="5.34219">
        <ele>227</ele>
        <time>2021-01-19T14:58:57Z</time>
      </trkpt>
      <trkpt lat="43.45773" lon="5.34219">
        <ele>227</ele>
        <time>2021-01-19T14:58:59Z</time>
      </trkpt>
      <trkpt lat="43.45773" lon="5.34219">
        <ele>227</ele>
        <time>2021-01-19T14:59:02Z</time>
      </trkpt>
      <trkpt lat="43.45773" lon="5.3422">
        <ele>226</ele>
        <time>2021-01-19T14:59:05Z</time>
      </trkpt>
      <trkpt lat="43.45773" lon="5.3422">
        <ele>226</ele>
        <time>2021-01-19T14:59:08Z</time>
      </trkpt>
      <trkpt lat="43.45773" lon="5.3422">
        <ele>226</ele>
        <time>2021-01-19T14:59:10Z</time>
      </trkpt>
      <trkpt lat="43.45773" lon="5.3422">
        <ele>226</ele>
        <time>2021-01-19T14:59:13Z</time>
      </trkpt>
      <trkpt lat="43.45773" lon="5.3422">
        <ele>226</ele>
        <time>2021-01-19T14:59:16Z</time>
      </trkpt>
      <trkpt lat="43.45773" lon="5.3422">
        <ele>226</ele>
        <time>2021-01-19T14:59:18Z</time>
      </trkpt>
      <trkpt lat="43.45773" lon="5.3422">
        <ele>227</ele>
        <time>2021-01-19T14:59:20Z</time>
      </trkpt>
      <trkpt lat="43.45773" lon="5.34221">
        <ele>226</ele>
        <time>2021-01-19T14:59:23Z</time>
      </trkpt>
      <trkpt lat="43.45773" lon="5.34221">
        <ele>226</ele>
        <time>2021-01-19T14:59:26Z</time>
      </trkpt>
      <trkpt lat="43.45773" lon="5.34221">
        <ele>226</ele>
        <time>2021-01-19T14:59:28Z</time>
      </trkpt>
      <trkpt lat="43.45773" lon="5.34221">
        <ele>226</ele>
        <time>2021-01-19T14:59:30Z</time>
      </trkpt>
      <trkpt lat="43.45773" lon="5.34221">
        <ele>226</ele>
        <time>2021-01-19T14:59:33Z</time>
      </trkpt>
      <trkpt lat="43.45773" lon="5.34221">
        <ele>226</ele>
        <time>2021-01-19T14:59:35Z</time>
      </trkpt>
      <trkpt lat="43.45773" lon="5.34221">
        <ele>226</ele>
        <time>2021-01-19T14:59:37Z</time>
      </trkpt>
      <trkpt lat="43.45773" lon="5.34221">
        <ele>226</ele>
        <time>2021-01-19T14:59:40Z</time>
      </trkpt>
      <trkpt lat="43.45773" lon="5.34221">
        <ele>226</ele>
        <time>2021-01-19T14:59:43Z</time>
      </trkpt>
      <trkpt lat="43.45773" lon="5.34221">
        <ele>226</ele>
        <time>2021-01-19T14:59:46Z</time>
      </trkpt>
      <trkpt lat="43.45773" lon="5.34221">
        <ele>226</ele>
        <time>2021-01-19T14:59:48Z</time>
      </trkpt>
      <trkpt lat="43.45773" lon="5.34221">
        <ele>226</ele>
        <time>2021-01-19T14:59:50Z</time>
      </trkpt>
      <trkpt lat="43.45773" lon="5.34221">
        <ele>226</ele>
        <time>2021-01-19T14:59:52Z</time>
      </trkpt>
      <trkpt lat="43.45773" lon="5.34221">
        <ele>226</ele>
        <time>2021-01-19T14:59:54Z</time>
      </trkpt>
      <trkpt lat="43.45773" lon="5.34221">
        <ele>226</ele>
        <time>2021-01-19T14:59:57Z</time>
      </trkpt>
      <trkpt lat="43.45773" lon="5.34221">
        <ele>226</ele>
        <time>2021-01-19T14:59:59Z</time>
      </trkpt>
      <trkpt lat="43.45773" lon="5.34221">
        <ele>226</ele>
        <time>2021-01-19T15:00:01Z</time>
      </trkpt>
      <trkpt lat="43.45773" lon="5.34221">
        <ele>226</ele>
        <time>2021-01-19T15:00:04Z</time>
      </trkpt>
      <trkpt lat="43.45774" lon="5.34219">
        <ele>227</ele>
        <time>2021-01-19T15:00:06Z</time>
      </trkpt>
      <trkpt lat="43.45774" lon="5.34218">
        <ele>226</ele>
        <time>2021-01-19T15:00:08Z</time>
      </trkpt>
      <trkpt lat="43.45774" lon="5.34218">
        <ele>226</ele>
        <time>2021-01-19T15:00:11Z</time>
      </trkpt>
      <trkpt lat="43.45774" lon="5.34218">
        <ele>226</ele>
        <time>2021-01-19T15:00:14Z</time>
      </trkpt>
      <trkpt lat="43.45774" lon="5.34218">
        <ele>226</ele>
        <time>2021-01-19T15:00:17Z</time>
      </trkpt>
      <trkpt lat="43.45774" lon="5.34217">
        <ele>227</ele>
        <time>2021-01-19T15:00:20Z</time>
      </trkpt>
      <trkpt lat="43.45774" lon="5.34216">
        <ele>228</ele>
        <time>2021-01-19T15:00:23Z</time>
      </trkpt>
      <trkpt lat="43.45774" lon="5.34215">
        <ele>227</ele>
        <time>2021-01-19T15:00:26Z</time>
      </trkpt>
      <trkpt lat="43.45774" lon="5.34214">
        <ele>226</ele>
        <time>2021-01-19T15:00:28Z</time>
      </trkpt>
      <trkpt lat="43.45774" lon="5.34214">
        <ele>226</ele>
        <time>2021-01-19T15:00:30Z</time>
      </trkpt>
      <trkpt lat="43.45774" lon="5.34214">
        <ele>226</ele>
        <time>2021-01-19T15:00:33Z</time>
      </trkpt>
      <trkpt lat="43.45774" lon="5.34214">
        <ele>226</ele>
        <time>2021-01-19T15:00:36Z</time>
      </trkpt>
      <trkpt lat="43.45774" lon="5.34214">
        <ele>226</ele>
        <time>2021-01-19T15:00:38Z</time>
      </trkpt>
      <trkpt lat="43.45774" lon="5.34214">
        <ele>226</ele>
        <time>2021-01-19T15:00:40Z</time>
      </trkpt>
      <trkpt lat="43.45773" lon="5.34213">
        <ele>224</ele>
        <time>2021-01-19T15:00:43Z</time>
      </trkpt>
      <trkpt lat="43.45772" lon="5.34214">
        <ele>224</ele>
        <time>2021-01-19T15:00:45Z</time>
      </trkpt>
      <trkpt lat="43.45772" lon="5.34218">
        <ele>223</ele>
        <time>2021-01-19T15:00:48Z</time>
      </trkpt>
      <trkpt lat="43.45772" lon="5.34221">
        <ele>221</ele>
        <time>2021-01-19T15:00:50Z</time>
      </trkpt>
      <trkpt lat="43.45772" lon="5.34227">
        <ele>221</ele>
        <time>2021-01-19T15:00:53Z</time>
      </trkpt>
      <trkpt lat="43.45772" lon="5.3423">
        <ele>221</ele>
        <time>2021-01-19T15:00:55Z</time>
      </trkpt>
      <trkpt lat="43.45774" lon="5.34232">
        <ele>220</ele>
        <time>2021-01-19T15:00:57Z</time>
      </trkpt>
      <trkpt lat="43.45776" lon="5.34235">
        <ele>219</ele>
        <time>2021-01-19T15:01:00Z</time>
      </trkpt>
      <trkpt lat="43.45777" lon="5.34237">
        <ele>218</ele>
        <time>2021-01-19T15:01:02Z</time>
      </trkpt>
      <trkpt lat="43.45777" lon="5.34241">
        <ele>218</ele>
        <time>2021-01-19T15:01:05Z</time>
      </trkpt>
      <trkpt lat="43.45778" lon="5.34244">
        <ele>217</ele>
        <time>2021-01-19T15:01:08Z</time>
      </trkpt>
      <trkpt lat="43.45779" lon="5.34244">
        <ele>218</ele>
        <time>2021-01-19T15:01:10Z</time>
      </trkpt>
      <trkpt lat="43.45781" lon="5.34247">
        <ele>217</ele>
        <time>2021-01-19T15:01:13Z</time>
      </trkpt>
      <trkpt lat="43.45782" lon="5.3425">
        <ele>217</ele>
        <time>2021-01-19T15:01:15Z</time>
      </trkpt>
      <trkpt lat="43.45783" lon="5.34253">
        <ele>217</ele>
        <time>2021-01-19T15:01:17Z</time>
      </trkpt>
      <trkpt lat="43.45785" lon="5.34258">
        <ele>216</ele>
        <time>2021-01-19T15:01:20Z</time>
      </trkpt>
      <trkpt lat="43.45788" lon="5.34261">
        <ele>216</ele>
        <time>2021-01-19T15:01:23Z</time>
      </trkpt>
      <trkpt lat="43.4579" lon="5.34263">
        <ele>215</ele>
        <time>2021-01-19T15:01:25Z</time>
      </trkpt>
      <trkpt lat="43.45793" lon="5.34264">
        <ele>215</ele>
        <time>2021-01-19T15:01:28Z</time>
      </trkpt>
      <trkpt lat="43.45795" lon="5.34264">
        <ele>214</ele>
        <time>2021-01-19T15:01:31Z</time>
      </trkpt>
      <trkpt lat="43.45797" lon="5.34264">
        <ele>215</ele>
        <time>2021-01-19T15:01:33Z</time>
      </trkpt>
      <trkpt lat="43.45799" lon="5.34263">
        <ele>215</ele>
        <time>2021-01-19T15:01:35Z</time>
      </trkpt>
      <trkpt lat="43.45802" lon="5.34262">
        <ele>215</ele>
        <time>2021-01-19T15:01:38Z</time>
      </trkpt>
      <trkpt lat="43.45804" lon="5.34261">
        <ele>214</ele>
        <time>2021-01-19T15:01:40Z</time>
      </trkpt>
      <trkpt lat="43.45807" lon="5.34259">
        <ele>214</ele>
        <time>2021-01-19T15:01:43Z</time>
      </trkpt>
      <trkpt lat="43.45811" lon="5.34258">
        <ele>213</ele>
        <time>2021-01-19T15:01:46Z</time>
      </trkpt>
      <trkpt lat="43.45814" lon="5.34256">
        <ele>213</ele>
        <time>2021-01-19T15:01:49Z</time>
      </trkpt>
      <trkpt lat="43.45816" lon="5.34255">
        <ele>214</ele>
        <time>2021-01-19T15:01:52Z</time>
      </trkpt>
      <trkpt lat="43.45818" lon="5.34254">
        <ele>214</ele>
        <time>2021-01-19T15:01:54Z</time>
      </trkpt>
      <trkpt lat="43.4582" lon="5.34254">
        <ele>214</ele>
        <time>2021-01-19T15:01:56Z</time>
      </trkpt>
      <trkpt lat="43.45823" lon="5.34253">
        <ele>214</ele>
        <time>2021-01-19T15:01:59Z</time>
      </trkpt>
      <trkpt lat="43.45824" lon="5.34252">
        <ele>214</ele>
        <time>2021-01-19T15:02:01Z</time>
      </trkpt>
      <trkpt lat="43.45826" lon="5.34251">
        <ele>214</ele>
        <time>2021-01-19T15:02:03Z</time>
      </trkpt>
      <trkpt lat="43.4583" lon="5.34249">
        <ele>213</ele>
        <time>2021-01-19T15:02:06Z</time>
      </trkpt>
      <trkpt lat="43.45833" lon="5.34247">
        <ele>214</ele>
        <time>2021-01-19T15:02:09Z</time>
      </trkpt>
      <trkpt lat="43.45836" lon="5.34245">
        <ele>214</ele>
        <time>2021-01-19T15:02:12Z</time>
      </trkpt>
      <trkpt lat="43.45838" lon="5.34244">
        <ele>214</ele>
        <time>2021-01-19T15:02:14Z</time>
      </trkpt>
      <trkpt lat="43.45839" lon="5.34244">
        <ele>214</ele>
        <time>2021-01-19T15:02:16Z</time>
      </trkpt>
      <trkpt lat="43.45841" lon="5.34243">
        <ele>214</ele>
        <time>2021-01-19T15:02:19Z</time>
      </trkpt>
      <trkpt lat="43.45844" lon="5.34243">
        <ele>214</ele>
        <time>2021-01-19T15:02:22Z</time>
      </trkpt>
      <trkpt lat="43.45847" lon="5.34241">
        <ele>215</ele>
        <time>2021-01-19T15:02:25Z</time>
      </trkpt>
      <trkpt lat="43.4585" lon="5.3424">
        <ele>215</ele>
        <time>2021-01-19T15:02:28Z</time>
      </trkpt>
      <trkpt lat="43.45851" lon="5.3424">
        <ele>215</ele>
        <time>2021-01-19T15:02:30Z</time>
      </trkpt>
      <trkpt lat="43.45853" lon="5.34239">
        <ele>215</ele>
        <time>2021-01-19T15:02:32Z</time>
      </trkpt>
      <trkpt lat="43.45856" lon="5.34238">
        <ele>215</ele>
        <time>2021-01-19T15:02:35Z</time>
      </trkpt>
      <trkpt lat="43.45858" lon="5.34237">
        <ele>216</ele>
        <time>2021-01-19T15:02:37Z</time>
      </trkpt>
      <trkpt lat="43.4586" lon="5.34235">
        <ele>215</ele>
        <time>2021-01-19T15:02:40Z</time>
      </trkpt>
      <trkpt lat="43.45862" lon="5.34233">
        <ele>215</ele>
        <time>2021-01-19T15:02:43Z</time>
      </trkpt>
      <trkpt lat="43.45864" lon="5.34232">
        <ele>214</ele>
        <time>2021-01-19T15:02:46Z</time>
      </trkpt>
      <trkpt lat="43.45866" lon="5.34231">
        <ele>214</ele>
        <time>2021-01-19T15:02:48Z</time>
      </trkpt>
      <trkpt lat="43.45868" lon="5.34229">
        <ele>214</ele>
        <time>2021-01-19T15:02:51Z</time>
      </trkpt>
      <trkpt lat="43.4587" lon="5.34228">
        <ele>215</ele>
        <time>2021-01-19T15:02:53Z</time>
      </trkpt>
      <trkpt lat="43.45873" lon="5.34226">
        <ele>215</ele>
        <time>2021-01-19T15:02:56Z</time>
      </trkpt>
      <trkpt lat="43.45874" lon="5.34225">
        <ele>215</ele>
        <time>2021-01-19T15:02:58Z</time>
      </trkpt>
      <trkpt lat="43.45876" lon="5.34223">
        <ele>214</ele>
        <time>2021-01-19T15:03:01Z</time>
      </trkpt>
      <trkpt lat="43.45878" lon="5.34222">
        <ele>214</ele>
        <time>2021-01-19T15:03:03Z</time>
      </trkpt>
      <trkpt lat="43.45881" lon="5.3422">
        <ele>215</ele>
        <time>2021-01-19T15:03:06Z</time>
      </trkpt>
      <trkpt lat="43.45884" lon="5.34217">
        <ele>216</ele>
        <time>2021-01-19T15:03:09Z</time>
      </trkpt>
      <trkpt lat="43.45888" lon="5.34215">
        <ele>215</ele>
        <time>2021-01-19T15:03:12Z</time>
      </trkpt>
      <trkpt lat="43.45891" lon="5.34214">
        <ele>215</ele>
        <time>2021-01-19T15:03:15Z</time>
      </trkpt>
      <trkpt lat="43.45894" lon="5.34212">
        <ele>215</ele>
        <time>2021-01-19T15:03:18Z</time>
      </trkpt>
      <trkpt lat="43.45896" lon="5.34211">
        <ele>216</ele>
        <time>2021-01-19T15:03:20Z</time>
      </trkpt>
      <trkpt lat="43.45898" lon="5.3421">
        <ele>216</ele>
        <time>2021-01-19T15:03:22Z</time>
      </trkpt>
      <trkpt lat="43.459" lon="5.34208">
        <ele>216</ele>
        <time>2021-01-19T15:03:24Z</time>
      </trkpt>
      <trkpt lat="43.45902" lon="5.34207">
        <ele>216</ele>
        <time>2021-01-19T15:03:26Z</time>
      </trkpt>
      <trkpt lat="43.45905" lon="5.34205">
        <ele>216</ele>
        <time>2021-01-19T15:03:29Z</time>
      </trkpt>
      <trkpt lat="43.45907" lon="5.34204">
        <ele>216</ele>
        <time>2021-01-19T15:03:31Z</time>
      </trkpt>
      <trkpt lat="43.4591" lon="5.34202">
        <ele>216</ele>
        <time>2021-01-19T15:03:34Z</time>
      </trkpt>
      <trkpt lat="43.45913" lon="5.342">
        <ele>216</ele>
        <time>2021-01-19T15:03:37Z</time>
      </trkpt>
      <trkpt lat="43.45917" lon="5.34198">
        <ele>215</ele>
        <time>2021-01-19T15:03:40Z</time>
      </trkpt>
      <trkpt lat="43.45918" lon="5.34196">
        <ele>215</ele>
        <time>2021-01-19T15:03:42Z</time>
      </trkpt>
      <trkpt lat="43.45921" lon="5.34194">
        <ele>215</ele>
        <time>2021-01-19T15:03:45Z</time>
      </trkpt>
      <trkpt lat="43.45924" lon="5.34191">
        <ele>215</ele>
        <time>2021-01-19T15:03:48Z</time>
      </trkpt>
      <trkpt lat="43.45927" lon="5.34189">
        <ele>216</ele>
        <time>2021-01-19T15:03:51Z</time>
      </trkpt>
      <trkpt lat="43.45929" lon="5.34188">
        <ele>215</ele>
        <time>2021-01-19T15:03:53Z</time>
      </trkpt>
      <trkpt lat="43.45932" lon="5.34186">
        <ele>214</ele>
        <time>2021-01-19T15:03:56Z</time>
      </trkpt>
      <trkpt lat="43.45935" lon="5.34184">
        <ele>214</ele>
        <time>2021-01-19T15:03:59Z</time>
      </trkpt>
      <trkpt lat="43.45938" lon="5.34181">
        <ele>214</ele>
        <time>2021-01-19T15:04:02Z</time>
      </trkpt>
      <trkpt lat="43.45939" lon="5.3418">
        <ele>214</ele>
        <time>2021-01-19T15:04:04Z</time>
      </trkpt>
      <trkpt lat="43.4594" lon="5.3418">
        <ele>214</ele>
        <time>2021-01-19T15:04:06Z</time>
      </trkpt>
      <trkpt lat="43.45943" lon="5.34178">
        <ele>214</ele>
        <time>2021-01-19T15:04:09Z</time>
      </trkpt>
      <trkpt lat="43.45944" lon="5.34177">
        <ele>215</ele>
        <time>2021-01-19T15:04:11Z</time>
      </trkpt>
      <trkpt lat="43.45947" lon="5.34175">
        <ele>216</ele>
        <time>2021-01-19T15:04:14Z</time>
      </trkpt>
      <trkpt lat="43.45949" lon="5.34173">
        <ele>217</ele>
        <time>2021-01-19T15:04:16Z</time>
      </trkpt>
      <trkpt lat="43.45951" lon="5.34172">
        <ele>218</ele>
        <time>2021-01-19T15:04:18Z</time>
      </trkpt>
      <trkpt lat="43.45953" lon="5.34171">
        <ele>218</ele>
        <time>2021-01-19T15:04:20Z</time>
      </trkpt>
      <trkpt lat="43.45955" lon="5.34169">
        <ele>218</ele>
        <time>2021-01-19T15:04:23Z</time>
      </trkpt>
      <trkpt lat="43.45957" lon="5.34167">
        <ele>218</ele>
        <time>2021-01-19T15:04:25Z</time>
      </trkpt>
      <trkpt lat="43.45959" lon="5.34165">
        <ele>219</ele>
        <time>2021-01-19T15:04:28Z</time>
      </trkpt>
      <trkpt lat="43.45961" lon="5.34164">
        <ele>219</ele>
        <time>2021-01-19T15:04:30Z</time>
      </trkpt>
      <trkpt lat="43.45964" lon="5.34163">
        <ele>219</ele>
        <time>2021-01-19T15:04:33Z</time>
      </trkpt>
      <trkpt lat="43.45966" lon="5.34162">
        <ele>220</ele>
        <time>2021-01-19T15:04:36Z</time>
      </trkpt>
      <trkpt lat="43.45969" lon="5.34159">
        <ele>221</ele>
        <time>2021-01-19T15:04:39Z</time>
      </trkpt>
      <trkpt lat="43.45971" lon="5.34157">
        <ele>221</ele>
        <time>2021-01-19T15:04:41Z</time>
      </trkpt>
      <trkpt lat="43.45974" lon="5.34155">
        <ele>221</ele>
        <time>2021-01-19T15:04:44Z</time>
      </trkpt>
      <trkpt lat="43.45976" lon="5.34153">
        <ele>222</ele>
        <time>2021-01-19T15:04:46Z</time>
      </trkpt>
      <trkpt lat="43.45978" lon="5.34152">
        <ele>222</ele>
        <time>2021-01-19T15:04:48Z</time>
      </trkpt>
      <trkpt lat="43.4598" lon="5.34151">
        <ele>222</ele>
        <time>2021-01-19T15:04:51Z</time>
      </trkpt>
      <trkpt lat="43.45982" lon="5.34149">
        <ele>222</ele>
        <time>2021-01-19T15:04:54Z</time>
      </trkpt>
      <trkpt lat="43.45984" lon="5.34148">
        <ele>222</ele>
        <time>2021-01-19T15:04:57Z</time>
      </trkpt>
      <trkpt lat="43.45986" lon="5.34147">
        <ele>223</ele>
        <time>2021-01-19T15:05:00Z</time>
      </trkpt>
      <trkpt lat="43.45989" lon="5.34147">
        <ele>223</ele>
        <time>2021-01-19T15:05:03Z</time>
      </trkpt>
      <trkpt lat="43.45993" lon="5.34145">
        <ele>222</ele>
        <time>2021-01-19T15:05:06Z</time>
      </trkpt>
      <trkpt lat="43.45996" lon="5.34143">
        <ele>222</ele>
        <time>2021-01-19T15:05:09Z</time>
      </trkpt>
      <trkpt lat="43.45999" lon="5.34142">
        <ele>222</ele>
        <time>2021-01-19T15:05:11Z</time>
      </trkpt>
      <trkpt lat="43.46002" lon="5.34141">
        <ele>222</ele>
        <time>2021-01-19T15:05:14Z</time>
      </trkpt>
      <trkpt lat="43.46005" lon="5.3414">
        <ele>221</ele>
        <time>2021-01-19T15:05:16Z</time>
      </trkpt>
      <trkpt lat="43.46008" lon="5.34138">
        <ele>221</ele>
        <time>2021-01-19T15:05:19Z</time>
      </trkpt>
      <trkpt lat="43.46013" lon="5.34136">
        <ele>221</ele>
        <time>2021-01-19T15:05:22Z</time>
      </trkpt>
      <trkpt lat="43.46015" lon="5.34135">
        <ele>221</ele>
        <time>2021-01-19T15:05:24Z</time>
      </trkpt>
      <trkpt lat="43.46018" lon="5.34135">
        <ele>221</ele>
        <time>2021-01-19T15:05:26Z</time>
      </trkpt>
      <trkpt lat="43.4602" lon="5.34135">
        <ele>221</ele>
        <time>2021-01-19T15:05:28Z</time>
      </trkpt>
      <trkpt lat="43.46021" lon="5.34134">
        <ele>220</ele>
        <time>2021-01-19T15:05:31Z</time>
      </trkpt>
      <trkpt lat="43.46022" lon="5.34134">
        <ele>220</ele>
        <time>2021-01-19T15:05:33Z</time>
      </trkpt>
      <trkpt lat="43.46022" lon="5.34134">
        <ele>220</ele>
        <time>2021-01-19T15:05:35Z</time>
      </trkpt>
      <trkpt lat="43.46021" lon="5.34133">
        <ele>220</ele>
        <time>2021-01-19T15:05:38Z</time>
      </trkpt>
      <trkpt lat="43.46021" lon="5.34133">
        <ele>220</ele>
        <time>2021-01-19T15:05:41Z</time>
      </trkpt>
      <trkpt lat="43.46021" lon="5.34133">
        <ele>220</ele>
        <time>2021-01-19T15:05:43Z</time>
      </trkpt>
      <trkpt lat="43.46022" lon="5.34132">
        <ele>218</ele>
        <time>2021-01-19T15:05:46Z</time>
      </trkpt>
      <trkpt lat="43.46023" lon="5.34131">
        <ele>218</ele>
        <time>2021-01-19T15:05:48Z</time>
      </trkpt>
      <trkpt lat="43.46024" lon="5.3413">
        <ele>217</ele>
        <time>2021-01-19T15:05:51Z</time>
      </trkpt>
      <trkpt lat="43.46026" lon="5.34129">
        <ele>217</ele>
        <time>2021-01-19T15:05:53Z</time>
      </trkpt>
      <trkpt lat="43.46029" lon="5.34127">
        <ele>217</ele>
        <time>2021-01-19T15:05:56Z</time>
      </trkpt>
      <trkpt lat="43.46031" lon="5.34126">
        <ele>217</ele>
        <time>2021-01-19T15:05:58Z</time>
      </trkpt>
      <trkpt lat="43.46034" lon="5.34125">
        <ele>217</ele>
        <time>2021-01-19T15:06:01Z</time>
      </trkpt>
      <trkpt lat="43.46036" lon="5.34124">
        <ele>217</ele>
        <time>2021-01-19T15:06:03Z</time>
      </trkpt>
      <trkpt lat="43.46038" lon="5.34123">
        <ele>216</ele>
        <time>2021-01-19T15:06:05Z</time>
      </trkpt>
      <trkpt lat="43.46042" lon="5.34121">
        <ele>217</ele>
        <time>2021-01-19T15:06:08Z</time>
      </trkpt>
      <trkpt lat="43.46044" lon="5.34118">
        <ele>216</ele>
        <time>2021-01-19T15:06:11Z</time>
      </trkpt>
      <trkpt lat="43.46046" lon="5.34116">
        <ele>216</ele>
        <time>2021-01-19T15:06:13Z</time>
      </trkpt>
      <trkpt lat="43.46048" lon="5.34114">
        <ele>216</ele>
        <time>2021-01-19T15:06:16Z</time>
      </trkpt>
      <trkpt lat="43.46049" lon="5.34113">
        <ele>216</ele>
        <time>2021-01-19T15:06:18Z</time>
      </trkpt>
      <trkpt lat="43.46052" lon="5.3411">
        <ele>216</ele>
        <time>2021-01-19T15:06:21Z</time>
      </trkpt>
      <trkpt lat="43.46054" lon="5.34108">
        <ele>214</ele>
        <time>2021-01-19T15:06:24Z</time>
      </trkpt>
      <trkpt lat="43.46057" lon="5.34105">
        <ele>214</ele>
        <time>2021-01-19T15:06:27Z</time>
      </trkpt>
      <trkpt lat="43.4606" lon="5.34103">
        <ele>212</ele>
        <time>2021-01-19T15:06:30Z</time>
      </trkpt>
      <trkpt lat="43.46063" lon="5.34101">
        <ele>213</ele>
        <time>2021-01-19T15:06:33Z</time>
      </trkpt>
      <trkpt lat="43.46065" lon="5.34098">
        <ele>213</ele>
        <time>2021-01-19T15:06:36Z</time>
      </trkpt>
      <trkpt lat="43.46066" lon="5.34096">
        <ele>212</ele>
        <time>2021-01-19T15:06:38Z</time>
      </trkpt>
      <trkpt lat="43.46068" lon="5.34092">
        <ele>212</ele>
        <time>2021-01-19T15:06:41Z</time>
      </trkpt>
      <trkpt lat="43.4607" lon="5.3409">
        <ele>212</ele>
        <time>2021-01-19T15:06:43Z</time>
      </trkpt>
      <trkpt lat="43.46072" lon="5.34086">
        <ele>212</ele>
        <time>2021-01-19T15:06:46Z</time>
      </trkpt>
      <trkpt lat="43.46074" lon="5.34084">
        <ele>212</ele>
        <time>2021-01-19T15:06:48Z</time>
      </trkpt>
      <trkpt lat="43.46076" lon="5.3408">
        <ele>213</ele>
        <time>2021-01-19T15:06:51Z</time>
      </trkpt>
      <trkpt lat="43.46078" lon="5.34077">
        <ele>213</ele>
        <time>2021-01-19T15:06:53Z</time>
      </trkpt>
      <trkpt lat="43.46079" lon="5.34074">
        <ele>214</ele>
        <time>2021-01-19T15:06:56Z</time>
      </trkpt>
      <trkpt lat="43.46079" lon="5.3407">
        <ele>214</ele>
        <time>2021-01-19T15:06:59Z</time>
      </trkpt>
      <trkpt lat="43.46078" lon="5.34066">
        <ele>217</ele>
        <time>2021-01-19T15:07:02Z</time>
      </trkpt>
      <trkpt lat="43.46077" lon="5.34064">
        <ele>217</ele>
        <time>2021-01-19T15:07:04Z</time>
      </trkpt>
      <trkpt lat="43.46077" lon="5.34063">
        <ele>217</ele>
        <time>2021-01-19T15:07:06Z</time>
      </trkpt>
      <trkpt lat="43.46078" lon="5.3406">
        <ele>217</ele>
        <time>2021-01-19T15:07:08Z</time>
      </trkpt>
      <trkpt lat="43.46079" lon="5.34058">
        <ele>218</ele>
        <time>2021-01-19T15:07:11Z</time>
      </trkpt>
      <trkpt lat="43.4608" lon="5.34057">
        <ele>217</ele>
        <time>2021-01-19T15:07:13Z</time>
      </trkpt>
      <trkpt lat="43.4608" lon="5.34057">
        <ele>217</ele>
        <time>2021-01-19T15:07:16Z</time>
      </trkpt>
      <trkpt lat="43.4608" lon="5.34054">
        <ele>217</ele>
        <time>2021-01-19T15:07:19Z</time>
      </trkpt>
      <trkpt lat="43.46081" lon="5.34051">
        <ele>216</ele>
        <time>2021-01-19T15:07:22Z</time>
      </trkpt>
      <trkpt lat="43.46081" lon="5.34047">
        <ele>216</ele>
        <time>2021-01-19T15:07:25Z</time>
      </trkpt>
      <trkpt lat="43.46082" lon="5.34043">
        <ele>216</ele>
        <time>2021-01-19T15:07:28Z</time>
      </trkpt>
      <trkpt lat="43.46082" lon="5.34041">
        <ele>216</ele>
        <time>2021-01-19T15:07:30Z</time>
      </trkpt>
      <trkpt lat="43.46084" lon="5.34036">
        <ele>216</ele>
        <time>2021-01-19T15:07:33Z</time>
      </trkpt>
      <trkpt lat="43.46086" lon="5.34033">
        <ele>216</ele>
        <time>2021-01-19T15:07:36Z</time>
      </trkpt>
      <trkpt lat="43.46087" lon="5.34031">
        <ele>216</ele>
        <time>2021-01-19T15:07:39Z</time>
      </trkpt>
      <trkpt lat="43.46087" lon="5.34028">
        <ele>216</ele>
        <time>2021-01-19T15:07:41Z</time>
      </trkpt>
      <trkpt lat="43.46087" lon="5.34023">
        <ele>215</ele>
        <time>2021-01-19T15:07:44Z</time>
      </trkpt>
      <trkpt lat="43.46087" lon="5.3402">
        <ele>215</ele>
        <time>2021-01-19T15:07:46Z</time>
      </trkpt>
      <trkpt lat="43.46086" lon="5.34017">
        <ele>216</ele>
        <time>2021-01-19T15:07:49Z</time>
      </trkpt>
      <trkpt lat="43.46086" lon="5.34014">
        <ele>216</ele>
        <time>2021-01-19T15:07:51Z</time>
      </trkpt>
      <trkpt lat="43.46086" lon="5.34012">
        <ele>216</ele>
        <time>2021-01-19T15:07:53Z</time>
      </trkpt>
      <trkpt lat="43.46086" lon="5.34007">
        <ele>215</ele>
        <time>2021-01-19T15:07:56Z</time>
      </trkpt>
      <trkpt lat="43.46087" lon="5.34002">
        <ele>214</ele>
        <time>2021-01-19T15:07:59Z</time>
      </trkpt>
      <trkpt lat="43.46087" lon="5.33999">
        <ele>215</ele>
        <time>2021-01-19T15:08:01Z</time>
      </trkpt>
      <trkpt lat="43.46087" lon="5.33996">
        <ele>215</ele>
        <time>2021-01-19T15:08:03Z</time>
      </trkpt>
      <trkpt lat="43.46086" lon="5.33993">
        <ele>214</ele>
        <time>2021-01-19T15:08:05Z</time>
      </trkpt>
      <trkpt lat="43.46086" lon="5.3399">
        <ele>214</ele>
        <time>2021-01-19T15:08:07Z</time>
      </trkpt>
      <trkpt lat="43.46085" lon="5.33986">
        <ele>214</ele>
        <time>2021-01-19T15:08:10Z</time>
      </trkpt>
      <trkpt lat="43.46085" lon="5.33984">
        <ele>213</ele>
        <time>2021-01-19T15:08:12Z</time>
      </trkpt>
      <trkpt lat="43.46085" lon="5.33982">
        <ele>214</ele>
        <time>2021-01-19T15:08:14Z</time>
      </trkpt>
      <trkpt lat="43.46086" lon="5.33979">
        <ele>214</ele>
        <time>2021-01-19T15:08:17Z</time>
      </trkpt>
      <trkpt lat="43.46086" lon="5.33975">
        <ele>215</ele>
        <time>2021-01-19T15:08:20Z</time>
      </trkpt>
      <trkpt lat="43.46087" lon="5.3397">
        <ele>214</ele>
        <time>2021-01-19T15:08:23Z</time>
      </trkpt>
      <trkpt lat="43.46088" lon="5.33967">
        <ele>214</ele>
        <time>2021-01-19T15:08:25Z</time>
      </trkpt>
      <trkpt lat="43.46088" lon="5.33962">
        <ele>214</ele>
        <time>2021-01-19T15:08:28Z</time>
      </trkpt>
      <trkpt lat="43.46088" lon="5.3396">
        <ele>214</ele>
        <time>2021-01-19T15:08:30Z</time>
      </trkpt>
      <trkpt lat="43.46088" lon="5.33957">
        <ele>214</ele>
        <time>2021-01-19T15:08:32Z</time>
      </trkpt>
      <trkpt lat="43.46088" lon="5.33953">
        <ele>213</ele>
        <time>2021-01-19T15:08:35Z</time>
      </trkpt>
      <trkpt lat="43.46089" lon="5.33949">
        <ele>213</ele>
        <time>2021-01-19T15:08:37Z</time>
      </trkpt>
      <trkpt lat="43.46089" lon="5.33946">
        <ele>214</ele>
        <time>2021-01-19T15:08:39Z</time>
      </trkpt>
      <trkpt lat="43.46089" lon="5.33942">
        <ele>214</ele>
        <time>2021-01-19T15:08:41Z</time>
      </trkpt>
      <trkpt lat="43.4609" lon="5.33937">
        <ele>215</ele>
        <time>2021-01-19T15:08:44Z</time>
      </trkpt>
      <trkpt lat="43.4609" lon="5.33933">
        <ele>216</ele>
        <time>2021-01-19T15:08:47Z</time>
      </trkpt>
      <trkpt lat="43.46092" lon="5.33929">
        <ele>216</ele>
        <time>2021-01-19T15:08:50Z</time>
      </trkpt>
      <trkpt lat="43.46092" lon="5.33926">
        <ele>215</ele>
        <time>2021-01-19T15:08:53Z</time>
      </trkpt>
      <trkpt lat="43.46093" lon="5.33923">
        <ele>215</ele>
        <time>2021-01-19T15:08:56Z</time>
      </trkpt>
      <trkpt lat="43.46093" lon="5.33921">
        <ele>214</ele>
        <time>2021-01-19T15:08:59Z</time>
      </trkpt>
      <trkpt lat="43.46094" lon="5.33918">
        <ele>214</ele>
        <time>2021-01-19T15:09:02Z</time>
      </trkpt>
      <trkpt lat="43.46094" lon="5.33915">
        <ele>214</ele>
        <time>2021-01-19T15:09:04Z</time>
      </trkpt>
      <trkpt lat="43.46096" lon="5.33911">
        <ele>215</ele>
        <time>2021-01-19T15:09:07Z</time>
      </trkpt>
      <trkpt lat="43.46096" lon="5.33908">
        <ele>214</ele>
        <time>2021-01-19T15:09:09Z</time>
      </trkpt>
      <trkpt lat="43.46096" lon="5.33904">
        <ele>215</ele>
        <time>2021-01-19T15:09:11Z</time>
      </trkpt>
      <trkpt lat="43.46097" lon="5.33901">
        <ele>215</ele>
        <time>2021-01-19T15:09:13Z</time>
      </trkpt>
      <trkpt lat="43.46098" lon="5.33898">
        <ele>214</ele>
        <time>2021-01-19T15:09:15Z</time>
      </trkpt>
      <trkpt lat="43.46099" lon="5.33893">
        <ele>214</ele>
        <time>2021-01-19T15:09:18Z</time>
      </trkpt>
      <trkpt lat="43.461" lon="5.33889">
        <ele>215</ele>
        <time>2021-01-19T15:09:20Z</time>
      </trkpt>
      <trkpt lat="43.46101" lon="5.33885">
        <ele>215</ele>
        <time>2021-01-19T15:09:22Z</time>
      </trkpt>
      <trkpt lat="43.46102" lon="5.3388">
        <ele>214</ele>
        <time>2021-01-19T15:09:25Z</time>
      </trkpt>
      <trkpt lat="43.46102" lon="5.33877">
        <ele>214</ele>
        <time>2021-01-19T15:09:27Z</time>
      </trkpt>
      <trkpt lat="43.46103" lon="5.33874">
        <ele>215</ele>
        <time>2021-01-19T15:09:29Z</time>
      </trkpt>
      <trkpt lat="43.46103" lon="5.33868">
        <ele>215</ele>
        <time>2021-01-19T15:09:32Z</time>
      </trkpt>
      <trkpt lat="43.46104" lon="5.33865">
        <ele>215</ele>
        <time>2021-01-19T15:09:34Z</time>
      </trkpt>
      <trkpt lat="43.46104" lon="5.33861">
        <ele>215</ele>
        <time>2021-01-19T15:09:37Z</time>
      </trkpt>
      <trkpt lat="43.46104" lon="5.33857">
        <ele>216</ele>
        <time>2021-01-19T15:09:40Z</time>
      </trkpt>
      <trkpt lat="43.46105" lon="5.33854">
        <ele>215</ele>
        <time>2021-01-19T15:09:42Z</time>
      </trkpt>
      <trkpt lat="43.46105" lon="5.33851">
        <ele>215</ele>
        <time>2021-01-19T15:09:44Z</time>
      </trkpt>
      <trkpt lat="43.46106" lon="5.33846">
        <ele>216</ele>
        <time>2021-01-19T15:09:47Z</time>
      </trkpt>
      <trkpt lat="43.46106" lon="5.33841">
        <ele>216</ele>
        <time>2021-01-19T15:09:50Z</time>
      </trkpt>
      <trkpt lat="43.46107" lon="5.33837">
        <ele>216</ele>
        <time>2021-01-19T15:09:53Z</time>
      </trkpt>
      <trkpt lat="43.46108" lon="5.33832">
        <ele>215</ele>
        <time>2021-01-19T15:09:56Z</time>
      </trkpt>
      <trkpt lat="43.46108" lon="5.33829">
        <ele>215</ele>
        <time>2021-01-19T15:09:58Z</time>
      </trkpt>
      <trkpt lat="43.46109" lon="5.33824">
        <ele>215</ele>
        <time>2021-01-19T15:10:01Z</time>
      </trkpt>
      <trkpt lat="43.46109" lon="5.33821">
        <ele>214</ele>
        <time>2021-01-19T15:10:03Z</time>
      </trkpt>
      <trkpt lat="43.4611" lon="5.33817">
        <ele>214</ele>
        <time>2021-01-19T15:10:06Z</time>
      </trkpt>
      <trkpt lat="43.46111" lon="5.33812">
        <ele>214</ele>
        <time>2021-01-19T15:10:09Z</time>
      </trkpt>
      <trkpt lat="43.46112" lon="5.33807">
        <ele>214</ele>
        <time>2021-01-19T15:10:12Z</time>
      </trkpt>
      <trkpt lat="43.46113" lon="5.33804">
        <ele>214</ele>
        <time>2021-01-19T15:10:14Z</time>
      </trkpt>
      <trkpt lat="43.46113" lon="5.33799">
        <ele>214</ele>
        <time>2021-01-19T15:10:17Z</time>
      </trkpt>
      <trkpt lat="43.46114" lon="5.33795">
        <ele>214</ele>
        <time>2021-01-19T15:10:20Z</time>
      </trkpt>
      <trkpt lat="43.46114" lon="5.33792">
        <ele>215</ele>
        <time>2021-01-19T15:10:22Z</time>
      </trkpt>
      <trkpt lat="43.46114" lon="5.33789">
        <ele>215</ele>
        <time>2021-01-19T15:10:24Z</time>
      </trkpt>
      <trkpt lat="43.46114" lon="5.33785">
        <ele>214</ele>
        <time>2021-01-19T15:10:27Z</time>
      </trkpt>
      <trkpt lat="43.46114" lon="5.33782">
        <ele>214</ele>
        <time>2021-01-19T15:10:29Z</time>
      </trkpt>
      <trkpt lat="43.46114" lon="5.3378">
        <ele>214</ele>
        <time>2021-01-19T15:10:31Z</time>
      </trkpt>
      <trkpt lat="43.46115" lon="5.33776">
        <ele>213</ele>
        <time>2021-01-19T15:10:34Z</time>
      </trkpt>
      <trkpt lat="43.46115" lon="5.33773">
        <ele>213</ele>
        <time>2021-01-19T15:10:36Z</time>
      </trkpt>
      <trkpt lat="43.46116" lon="5.33768">
        <ele>212</ele>
        <time>2021-01-19T15:10:39Z</time>
      </trkpt>
      <trkpt lat="43.46117" lon="5.33765">
        <ele>213</ele>
        <time>2021-01-19T15:10:41Z</time>
      </trkpt>
      <trkpt lat="43.46117" lon="5.3376">
        <ele>213</ele>
        <time>2021-01-19T15:10:44Z</time>
      </trkpt>
      <trkpt lat="43.46117" lon="5.33756">
        <ele>213</ele>
        <time>2021-01-19T15:10:46Z</time>
      </trkpt>
      <trkpt lat="43.46118" lon="5.33749">
        <ele>214</ele>
        <time>2021-01-19T15:10:49Z</time>
      </trkpt>
      <trkpt lat="43.46119" lon="5.33746">
        <ele>214</ele>
        <time>2021-01-19T15:10:51Z</time>
      </trkpt>
      <trkpt lat="43.4612" lon="5.33742">
        <ele>214</ele>
        <time>2021-01-19T15:10:54Z</time>
      </trkpt>
      <trkpt lat="43.46121" lon="5.33739">
        <ele>213</ele>
        <time>2021-01-19T15:10:56Z</time>
      </trkpt>
      <trkpt lat="43.46123" lon="5.33736">
        <ele>214</ele>
        <time>2021-01-19T15:10:58Z</time>
      </trkpt>
      <trkpt lat="43.46125" lon="5.33732">
        <ele>214</ele>
        <time>2021-01-19T15:11:01Z</time>
      </trkpt>
      <trkpt lat="43.46126" lon="5.33728">
        <ele>214</ele>
        <time>2021-01-19T15:11:04Z</time>
      </trkpt>
      <trkpt lat="43.46127" lon="5.33723">
        <ele>214</ele>
        <time>2021-01-19T15:11:07Z</time>
      </trkpt>
      <trkpt lat="43.46128" lon="5.33719">
        <ele>214</ele>
        <time>2021-01-19T15:11:10Z</time>
      </trkpt>
      <trkpt lat="43.46131" lon="5.33715">
        <ele>213</ele>
        <time>2021-01-19T15:11:13Z</time>
      </trkpt>
      <trkpt lat="43.46132" lon="5.33712">
        <ele>213</ele>
        <time>2021-01-19T15:11:15Z</time>
      </trkpt>
      <trkpt lat="43.46134" lon="5.33708">
        <ele>213</ele>
        <time>2021-01-19T15:11:18Z</time>
      </trkpt>
      <trkpt lat="43.46137" lon="5.33704">
        <ele>214</ele>
        <time>2021-01-19T15:11:21Z</time>
      </trkpt>
      <trkpt lat="43.46139" lon="5.337">
        <ele>214</ele>
        <time>2021-01-19T15:11:24Z</time>
      </trkpt>
      <trkpt lat="43.4614" lon="5.33697">
        <ele>213</ele>
        <time>2021-01-19T15:11:26Z</time>
      </trkpt>
      <trkpt lat="43.46141" lon="5.33693">
        <ele>214</ele>
        <time>2021-01-19T15:11:29Z</time>
      </trkpt>
      <trkpt lat="43.46141" lon="5.33691">
        <ele>214</ele>
        <time>2021-01-19T15:11:31Z</time>
      </trkpt>
      <trkpt lat="43.46138" lon="5.33689">
        <ele>215</ele>
        <time>2021-01-19T15:11:34Z</time>
      </trkpt>
      <trkpt lat="43.46134" lon="5.33688">
        <ele>215</ele>
        <time>2021-01-19T15:11:37Z</time>
      </trkpt>
      <trkpt lat="43.46131" lon="5.33687">
        <ele>214</ele>
        <time>2021-01-19T15:11:40Z</time>
      </trkpt>
      <trkpt lat="43.46129" lon="5.33688">
        <ele>213</ele>
        <time>2021-01-19T15:11:43Z</time>
      </trkpt>
      <trkpt lat="43.46128" lon="5.33688">
        <ele>213</ele>
        <time>2021-01-19T15:11:45Z</time>
      </trkpt>
      <trkpt lat="43.46126" lon="5.33688">
        <ele>212</ele>
        <time>2021-01-19T15:11:47Z</time>
      </trkpt>
      <trkpt lat="43.46124" lon="5.33689">
        <ele>212</ele>
        <time>2021-01-19T15:11:50Z</time>
      </trkpt>
      <trkpt lat="43.46121" lon="5.33688">
        <ele>211</ele>
        <time>2021-01-19T15:11:53Z</time>
      </trkpt>
      <trkpt lat="43.46118" lon="5.33688">
        <ele>211</ele>
        <time>2021-01-19T15:11:56Z</time>
      </trkpt>
      <trkpt lat="43.46115" lon="5.33688">
        <ele>210</ele>
        <time>2021-01-19T15:11:58Z</time>
      </trkpt>
      <trkpt lat="43.46112" lon="5.33687">
        <ele>211</ele>
        <time>2021-01-19T15:12:01Z</time>
      </trkpt>
      <trkpt lat="43.46108" lon="5.33687">
        <ele>211</ele>
        <time>2021-01-19T15:12:04Z</time>
      </trkpt>
      <trkpt lat="43.46105" lon="5.33686">
        <ele>212</ele>
        <time>2021-01-19T15:12:07Z</time>
      </trkpt>
      <trkpt lat="43.46103" lon="5.33685">
        <ele>212</ele>
        <time>2021-01-19T15:12:09Z</time>
      </trkpt>
      <trkpt lat="43.461" lon="5.33684">
        <ele>213</ele>
        <time>2021-01-19T15:12:12Z</time>
      </trkpt>
      <trkpt lat="43.46097" lon="5.33684">
        <ele>213</ele>
        <time>2021-01-19T15:12:14Z</time>
      </trkpt>
      <trkpt lat="43.46093" lon="5.33683">
        <ele>214</ele>
        <time>2021-01-19T15:12:17Z</time>
      </trkpt>
      <trkpt lat="43.4609" lon="5.33682">
        <ele>214</ele>
        <time>2021-01-19T15:12:20Z</time>
      </trkpt>
      <trkpt lat="43.46088" lon="5.33681">
        <ele>215</ele>
        <time>2021-01-19T15:12:22Z</time>
      </trkpt>
      <trkpt lat="43.46085" lon="5.33679">
        <ele>216</ele>
        <time>2021-01-19T15:12:25Z</time>
      </trkpt>
      <trkpt lat="43.46083" lon="5.33678">
        <ele>215</ele>
        <time>2021-01-19T15:12:28Z</time>
      </trkpt>
      <trkpt lat="43.46081" lon="5.33677">
        <ele>216</ele>
        <time>2021-01-19T15:12:30Z</time>
      </trkpt>
      <trkpt lat="43.46079" lon="5.33676">
        <ele>216</ele>
        <time>2021-01-19T15:12:32Z</time>
      </trkpt>
      <trkpt lat="43.46077" lon="5.33675">
        <ele>216</ele>
        <time>2021-01-19T15:12:34Z</time>
      </trkpt>
      <trkpt lat="43.46075" lon="5.33673">
        <ele>217</ele>
        <time>2021-01-19T15:12:36Z</time>
      </trkpt>
      <trkpt lat="43.46072" lon="5.33671">
        <ele>217</ele>
        <time>2021-01-19T15:12:39Z</time>
      </trkpt>
      <trkpt lat="43.46069" lon="5.33669">
        <ele>217</ele>
        <time>2021-01-19T15:12:42Z</time>
      </trkpt>
      <trkpt lat="43.46067" lon="5.33668">
        <ele>217</ele>
        <time>2021-01-19T15:12:44Z</time>
      </trkpt>
      <trkpt lat="43.46066" lon="5.33667">
        <ele>217</ele>
        <time>2021-01-19T15:12:46Z</time>
      </trkpt>
      <trkpt lat="43.46066" lon="5.33667">
        <ele>217</ele>
        <time>2021-01-19T15:12:48Z</time>
      </trkpt>
      <trkpt lat="43.46066" lon="5.33666">
        <ele>217</ele>
        <time>2021-01-19T15:12:51Z</time>
      </trkpt>
      <trkpt lat="43.46066" lon="5.33666">
        <ele>217</ele>
        <time>2021-01-19T15:12:54Z</time>
      </trkpt>
      <trkpt lat="43.46066" lon="5.33666">
        <ele>218</ele>
        <time>2021-01-19T15:12:57Z</time>
      </trkpt>
      <trkpt lat="43.46066" lon="5.33666">
        <ele>218</ele>
        <time>2021-01-19T15:12:59Z</time>
      </trkpt>
      <trkpt lat="43.46066" lon="5.33666">
        <ele>218</ele>
        <time>2021-01-19T15:13:02Z</time>
      </trkpt>
      <trkpt lat="43.46066" lon="5.33665">
        <ele>218</ele>
        <time>2021-01-19T15:13:05Z</time>
      </trkpt>
      <trkpt lat="43.46066" lon="5.33665">
        <ele>218</ele>
        <time>2021-01-19T15:13:08Z</time>
      </trkpt>
      <trkpt lat="43.46066" lon="5.33665">
        <ele>218</ele>
        <time>2021-01-19T15:13:10Z</time>
      </trkpt>
      <trkpt lat="43.46066" lon="5.33665">
        <ele>218</ele>
        <time>2021-01-19T15:13:13Z</time>
      </trkpt>
      <trkpt lat="43.46066" lon="5.33665">
        <ele>218</ele>
        <time>2021-01-19T15:13:15Z</time>
      </trkpt>
      <trkpt lat="43.46065" lon="5.33665">
        <ele>218</ele>
        <time>2021-01-19T15:13:18Z</time>
      </trkpt>
      <trkpt lat="43.46065" lon="5.33665">
        <ele>219</ele>
        <time>2021-01-19T15:13:21Z</time>
      </trkpt>
      <trkpt lat="43.46065" lon="5.33665">
        <ele>219</ele>
        <time>2021-01-19T15:13:23Z</time>
      </trkpt>
      <trkpt lat="43.46065" lon="5.33665">
        <ele>219</ele>
        <time>2021-01-19T15:13:25Z</time>
      </trkpt>
      <trkpt lat="43.46065" lon="5.33665">
        <ele>219</ele>
        <time>2021-01-19T15:13:27Z</time>
      </trkpt>
      <trkpt lat="43.46065" lon="5.33665">
        <ele>219</ele>
        <time>2021-01-19T15:13:30Z</time>
      </trkpt>
      <trkpt lat="43.46065" lon="5.33665">
        <ele>219</ele>
        <time>2021-01-19T15:13:33Z</time>
      </trkpt>
      <trkpt lat="43.46065" lon="5.33665">
        <ele>219</ele>
        <time>2021-01-19T15:13:36Z</time>
      </trkpt>
      <trkpt lat="43.46065" lon="5.33665">
        <ele>219</ele>
        <time>2021-01-19T15:13:38Z</time>
      </trkpt>
      <trkpt lat="43.46065" lon="5.33665">
        <ele>219</ele>
        <time>2021-01-19T15:13:41Z</time>
      </trkpt>
      <trkpt lat="43.46065" lon="5.33665">
        <ele>219</ele>
        <time>2021-01-19T15:13:43Z</time>
      </trkpt>
      <trkpt lat="43.46065" lon="5.33665">
        <ele>219</ele>
        <time>2021-01-19T15:13:46Z</time>
      </trkpt>
      <trkpt lat="43.46065" lon="5.33665">
        <ele>219</ele>
        <time>2021-01-19T15:13:48Z</time>
      </trkpt>
      <trkpt lat="43.46065" lon="5.33665">
        <ele>219</ele>
        <time>2021-01-19T15:13:51Z</time>
      </trkpt>
      <trkpt lat="43.46065" lon="5.33665">
        <ele>219</ele>
        <time>2021-01-19T15:13:54Z</time>
      </trkpt>
      <trkpt lat="43.46065" lon="5.33665">
        <ele>219</ele>
        <time>2021-01-19T15:13:57Z</time>
      </trkpt>
      <trkpt lat="43.46065" lon="5.33665">
        <ele>219</ele>
        <time>2021-01-19T15:13:59Z</time>
      </trkpt>
      <trkpt lat="43.46065" lon="5.33663">
        <ele>219</ele>
        <time>2021-01-19T15:14:02Z</time>
      </trkpt>
      <trkpt lat="43.46064" lon="5.33662">
        <ele>219</ele>
        <time>2021-01-19T15:14:05Z</time>
      </trkpt>
      <trkpt lat="43.46061" lon="5.33661">
        <ele>220</ele>
        <time>2021-01-19T15:14:07Z</time>
      </trkpt>
      <trkpt lat="43.46059" lon="5.33661">
        <ele>220</ele>
        <time>2021-01-19T15:14:10Z</time>
      </trkpt>
      <trkpt lat="43.46057" lon="5.33661">
        <ele>220</ele>
        <time>2021-01-19T15:14:12Z</time>
      </trkpt>
      <trkpt lat="43.46057" lon="5.3366">
        <ele>220</ele>
        <time>2021-01-19T15:14:14Z</time>
      </trkpt>
      <trkpt lat="43.46053" lon="5.3366">
        <ele>219</ele>
        <time>2021-01-19T15:14:17Z</time>
      </trkpt>
      <trkpt lat="43.46049" lon="5.3366">
        <ele>218</ele>
        <time>2021-01-19T15:14:20Z</time>
      </trkpt>
      <trkpt lat="43.46047" lon="5.3366">
        <ele>218</ele>
        <time>2021-01-19T15:14:22Z</time>
      </trkpt>
      <trkpt lat="43.46044" lon="5.3366">
        <ele>217</ele>
        <time>2021-01-19T15:14:25Z</time>
      </trkpt>
      <trkpt lat="43.46041" lon="5.3366">
        <ele>217</ele>
        <time>2021-01-19T15:14:28Z</time>
      </trkpt>
      <trkpt lat="43.4604" lon="5.3366">
        <ele>217</ele>
        <time>2021-01-19T15:14:30Z</time>
      </trkpt>
      <trkpt lat="43.46038" lon="5.33661">
        <ele>217</ele>
        <time>2021-01-19T15:14:33Z</time>
      </trkpt>
      <trkpt lat="43.46036" lon="5.33661">
        <ele>216</ele>
        <time>2021-01-19T15:14:35Z</time>
      </trkpt>
      <trkpt lat="43.46034" lon="5.33661">
        <ele>217</ele>
        <time>2021-01-19T15:14:38Z</time>
      </trkpt>
      <trkpt lat="43.46032" lon="5.33661">
        <ele>217</ele>
        <time>2021-01-19T15:14:40Z</time>
      </trkpt>
      <trkpt lat="43.46031" lon="5.3366">
        <ele>217</ele>
        <time>2021-01-19T15:14:42Z</time>
      </trkpt>
      <trkpt lat="43.46031" lon="5.3366">
        <ele>217</ele>
        <time>2021-01-19T15:14:45Z</time>
      </trkpt>
      <trkpt lat="43.46032" lon="5.3366">
        <ele>217</ele>
        <time>2021-01-19T15:14:47Z</time>
      </trkpt>
      <trkpt lat="43.46032" lon="5.3366">
        <ele>217</ele>
        <time>2021-01-19T15:14:49Z</time>
      </trkpt>
      <trkpt lat="43.4603" lon="5.33659">
        <ele>217</ele>
        <time>2021-01-19T15:14:51Z</time>
      </trkpt>
      <trkpt lat="43.4603" lon="5.33658">
        <ele>217</ele>
        <time>2021-01-19T15:14:54Z</time>
      </trkpt>
      <trkpt lat="43.4603" lon="5.33658">
        <ele>216</ele>
        <time>2021-01-19T15:14:56Z</time>
      </trkpt>
      <trkpt lat="43.46029" lon="5.33657">
        <ele>216</ele>
        <time>2021-01-19T15:14:59Z</time>
      </trkpt>
      <trkpt lat="43.46028" lon="5.33655">
        <ele>216</ele>
        <time>2021-01-19T15:15:02Z</time>
      </trkpt>
      <trkpt lat="43.46027" lon="5.33653">
        <ele>216</ele>
        <time>2021-01-19T15:15:04Z</time>
      </trkpt>
      <trkpt lat="43.46025" lon="5.33649">
        <ele>215</ele>
        <time>2021-01-19T15:15:07Z</time>
      </trkpt>
      <trkpt lat="43.46024" lon="5.33647">
        <ele>215</ele>
        <time>2021-01-19T15:15:09Z</time>
      </trkpt>
      <trkpt lat="43.46023" lon="5.33644">
        <ele>215</ele>
        <time>2021-01-19T15:15:12Z</time>
      </trkpt>
      <trkpt lat="43.46022" lon="5.33642">
        <ele>215</ele>
        <time>2021-01-19T15:15:14Z</time>
      </trkpt>
      <trkpt lat="43.46022" lon="5.33642">
        <ele>214</ele>
        <time>2021-01-19T15:15:16Z</time>
      </trkpt>
      <trkpt lat="43.46021" lon="5.33641">
        <ele>214</ele>
        <time>2021-01-19T15:15:18Z</time>
      </trkpt>
      <trkpt lat="43.4602" lon="5.33638">
        <ele>213</ele>
        <time>2021-01-19T15:15:21Z</time>
      </trkpt>
      <trkpt lat="43.46019" lon="5.33636">
        <ele>213</ele>
        <time>2021-01-19T15:15:23Z</time>
      </trkpt>
      <trkpt lat="43.46019" lon="5.33632">
        <ele>213</ele>
        <time>2021-01-19T15:15:26Z</time>
      </trkpt>
      <trkpt lat="43.46019" lon="5.33629">
        <ele>213</ele>
        <time>2021-01-19T15:15:29Z</time>
      </trkpt>
      <trkpt lat="43.46018" lon="5.33628">
        <ele>213</ele>
        <time>2021-01-19T15:15:31Z</time>
      </trkpt>
      <trkpt lat="43.46016" lon="5.33622">
        <ele>214</ele>
        <time>2021-01-19T15:15:34Z</time>
      </trkpt>
      <trkpt lat="43.46015" lon="5.33619">
        <ele>214</ele>
        <time>2021-01-19T15:15:36Z</time>
      </trkpt>
      <trkpt lat="43.46014" lon="5.33615">
        <ele>214</ele>
        <time>2021-01-19T15:15:39Z</time>
      </trkpt>
      <trkpt lat="43.46011" lon="5.33613">
        <ele>215</ele>
        <time>2021-01-19T15:15:41Z</time>
      </trkpt>
      <trkpt lat="43.4601" lon="5.33611">
        <ele>214</ele>
        <time>2021-01-19T15:15:43Z</time>
      </trkpt>
      <trkpt lat="43.46009" lon="5.33608">
        <ele>214</ele>
        <time>2021-01-19T15:15:45Z</time>
      </trkpt>
      <trkpt lat="43.46006" lon="5.33605">
        <ele>213</ele>
        <time>2021-01-19T15:15:48Z</time>
      </trkpt>
      <trkpt lat="43.46006" lon="5.33603">
        <ele>213</ele>
        <time>2021-01-19T15:15:50Z</time>
      </trkpt>
      <trkpt lat="43.46005" lon="5.33601">
        <ele>213</ele>
        <time>2021-01-19T15:15:53Z</time>
      </trkpt>
      <trkpt lat="43.46003" lon="5.33598">
        <ele>213</ele>
        <time>2021-01-19T15:15:56Z</time>
      </trkpt>
      <trkpt lat="43.46" lon="5.33597">
        <ele>213</ele>
        <time>2021-01-19T15:15:58Z</time>
      </trkpt>
      <trkpt lat="43.45998" lon="5.33596">
        <ele>213</ele>
        <time>2021-01-19T15:16:01Z</time>
      </trkpt>
      <trkpt lat="43.45997" lon="5.33595">
        <ele>213</ele>
        <time>2021-01-19T15:16:04Z</time>
      </trkpt>
      <trkpt lat="43.45996" lon="5.33593">
        <ele>213</ele>
        <time>2021-01-19T15:16:06Z</time>
      </trkpt>
      <trkpt lat="43.45995" lon="5.3359">
        <ele>212</ele>
        <time>2021-01-19T15:16:08Z</time>
      </trkpt>
      <trkpt lat="43.45994" lon="5.33587">
        <ele>212</ele>
        <time>2021-01-19T15:16:10Z</time>
      </trkpt>
      <trkpt lat="43.45992" lon="5.33586">
        <ele>212</ele>
        <time>2021-01-19T15:16:12Z</time>
      </trkpt>
      <trkpt lat="43.45989" lon="5.33588">
        <ele>212</ele>
        <time>2021-01-19T15:16:15Z</time>
      </trkpt>
      <trkpt lat="43.45987" lon="5.33589">
        <ele>213</ele>
        <time>2021-01-19T15:16:17Z</time>
      </trkpt>
      <trkpt lat="43.45985" lon="5.33591">
        <ele>214</ele>
        <time>2021-01-19T15:16:20Z</time>
      </trkpt>
      <trkpt lat="43.45984" lon="5.33593">
        <ele>214</ele>
        <time>2021-01-19T15:16:22Z</time>
      </trkpt>
      <trkpt lat="43.45983" lon="5.33595">
        <ele>214</ele>
        <time>2021-01-19T15:16:25Z</time>
      </trkpt>
      <trkpt lat="43.45982" lon="5.33595">
        <ele>214</ele>
        <time>2021-01-19T15:16:28Z</time>
      </trkpt>
      <trkpt lat="43.4598" lon="5.33597">
        <ele>214</ele>
        <time>2021-01-19T15:16:30Z</time>
      </trkpt>
      <trkpt lat="43.4598" lon="5.336">
        <ele>212</ele>
        <time>2021-01-19T15:16:33Z</time>
      </trkpt>
      <trkpt lat="43.4598" lon="5.336">
        <ele>210</ele>
        <time>2021-01-19T15:16:36Z</time>
      </trkpt>
      <trkpt lat="43.4598" lon="5.336">
        <ele>210</ele>
        <time>2021-01-19T15:16:38Z</time>
      </trkpt>
      <trkpt lat="43.45979" lon="5.33602">
        <ele>210</ele>
        <time>2021-01-19T15:16:41Z</time>
      </trkpt>
      <trkpt lat="43.45978" lon="5.33604">
        <ele>210</ele>
        <time>2021-01-19T15:16:43Z</time>
      </trkpt>
      <trkpt lat="43.45976" lon="5.33607">
        <ele>212</ele>
        <time>2021-01-19T15:16:46Z</time>
      </trkpt>
      <trkpt lat="43.45975" lon="5.33609">
        <ele>213</ele>
        <time>2021-01-19T15:16:49Z</time>
      </trkpt>
      <trkpt lat="43.45974" lon="5.3361">
        <ele>213</ele>
        <time>2021-01-19T15:16:51Z</time>
      </trkpt>
      <trkpt lat="43.45974" lon="5.3361">
        <ele>213</ele>
        <time>2021-01-19T15:16:54Z</time>
      </trkpt>
      <trkpt lat="43.45972" lon="5.33613">
        <ele>213</ele>
        <time>2021-01-19T15:16:57Z</time>
      </trkpt>
      <trkpt lat="43.45971" lon="5.33614">
        <ele>214</ele>
        <time>2021-01-19T15:16:59Z</time>
      </trkpt>
      <trkpt lat="43.45969" lon="5.33616">
        <ele>214</ele>
        <time>2021-01-19T15:17:02Z</time>
      </trkpt>
      <trkpt lat="43.45969" lon="5.33617">
        <ele>214</ele>
        <time>2021-01-19T15:17:04Z</time>
      </trkpt>
      <trkpt lat="43.45968" lon="5.33618">
        <ele>214</ele>
        <time>2021-01-19T15:17:07Z</time>
      </trkpt>
      <trkpt lat="43.45968" lon="5.33618">
        <ele>214</ele>
        <time>2021-01-19T15:17:09Z</time>
      </trkpt>
      <trkpt lat="43.45969" lon="5.33618">
        <ele>214</ele>
        <time>2021-01-19T15:17:12Z</time>
      </trkpt>
      <trkpt lat="43.45968" lon="5.33619">
        <ele>215</ele>
        <time>2021-01-19T15:17:15Z</time>
      </trkpt>
      <trkpt lat="43.45967" lon="5.33621">
        <ele>214</ele>
        <time>2021-01-19T15:17:18Z</time>
      </trkpt>
      <trkpt lat="43.45966" lon="5.33622">
        <ele>215</ele>
        <time>2021-01-19T15:17:20Z</time>
      </trkpt>
      <trkpt lat="43.45964" lon="5.33624">
        <ele>215</ele>
        <time>2021-01-19T15:17:23Z</time>
      </trkpt>
      <trkpt lat="43.45962" lon="5.33626">
        <ele>216</ele>
        <time>2021-01-19T15:17:25Z</time>
      </trkpt>
      <trkpt lat="43.4596" lon="5.33628">
        <ele>215</ele>
        <time>2021-01-19T15:17:27Z</time>
      </trkpt>
      <trkpt lat="43.45959" lon="5.3363">
        <ele>215</ele>
        <time>2021-01-19T15:17:30Z</time>
      </trkpt>
      <trkpt lat="43.45957" lon="5.33631">
        <ele>215</ele>
        <time>2021-01-19T15:17:32Z</time>
      </trkpt>
      <trkpt lat="43.45956" lon="5.33633">
        <ele>215</ele>
        <time>2021-01-19T15:17:34Z</time>
      </trkpt>
      <trkpt lat="43.45955" lon="5.33635">
        <ele>215</ele>
        <time>2021-01-19T15:17:37Z</time>
      </trkpt>
      <trkpt lat="43.45953" lon="5.33638">
        <ele>216</ele>
        <time>2021-01-19T15:17:40Z</time>
      </trkpt>
      <trkpt lat="43.45952" lon="5.3364">
        <ele>215</ele>
        <time>2021-01-19T15:17:42Z</time>
      </trkpt>
      <trkpt lat="43.4595" lon="5.33642">
        <ele>215</ele>
        <time>2021-01-19T15:17:45Z</time>
      </trkpt>
      <trkpt lat="43.45947" lon="5.33644">
        <ele>213</ele>
        <time>2021-01-19T15:17:48Z</time>
      </trkpt>
      <trkpt lat="43.45946" lon="5.33645">
        <ele>214</ele>
        <time>2021-01-19T15:17:50Z</time>
      </trkpt>
      <trkpt lat="43.45943" lon="5.33647">
        <ele>214</ele>
        <time>2021-01-19T15:17:53Z</time>
      </trkpt>
      <trkpt lat="43.45942" lon="5.33648">
        <ele>215</ele>
        <time>2021-01-19T15:17:55Z</time>
      </trkpt>
      <trkpt lat="43.4594" lon="5.33648">
        <ele>216</ele>
        <time>2021-01-19T15:17:57Z</time>
      </trkpt>
      <trkpt lat="43.45937" lon="5.33649">
        <ele>216</ele>
        <time>2021-01-19T15:18:00Z</time>
      </trkpt>
      <trkpt lat="43.45935" lon="5.3365">
        <ele>216</ele>
        <time>2021-01-19T15:18:03Z</time>
      </trkpt>
      <trkpt lat="43.45933" lon="5.33651">
        <ele>216</ele>
        <time>2021-01-19T15:18:05Z</time>
      </trkpt>
      <trkpt lat="43.4593" lon="5.33652">
        <ele>216</ele>
        <time>2021-01-19T15:18:08Z</time>
      </trkpt>
      <trkpt lat="43.45928" lon="5.33652">
        <ele>214</ele>
        <time>2021-01-19T15:18:10Z</time>
      </trkpt>
      <trkpt lat="43.45925" lon="5.33652">
        <ele>214</ele>
        <time>2021-01-19T15:18:13Z</time>
      </trkpt>
      <trkpt lat="43.45923" lon="5.33652">
        <ele>214</ele>
        <time>2021-01-19T15:18:15Z</time>
      </trkpt>
      <trkpt lat="43.45921" lon="5.33652">
        <ele>214</ele>
        <time>2021-01-19T15:18:17Z</time>
      </trkpt>
      <trkpt lat="43.45918" lon="5.33652">
        <ele>214</ele>
        <time>2021-01-19T15:18:20Z</time>
      </trkpt>
      <trkpt lat="43.45916" lon="5.33652">
        <ele>214</ele>
        <time>2021-01-19T15:18:22Z</time>
      </trkpt>
      <trkpt lat="43.45914" lon="5.33652">
        <ele>214</ele>
        <time>2021-01-19T15:18:24Z</time>
      </trkpt>
      <trkpt lat="43.45911" lon="5.33652">
        <ele>214</ele>
        <time>2021-01-19T15:18:27Z</time>
      </trkpt>
      <trkpt lat="43.45908" lon="5.33652">
        <ele>215</ele>
        <time>2021-01-19T15:18:30Z</time>
      </trkpt>
      <trkpt lat="43.45906" lon="5.33652">
        <ele>215</ele>
        <time>2021-01-19T15:18:32Z</time>
      </trkpt>
      <trkpt lat="43.45903" lon="5.33651">
        <ele>215</ele>
        <time>2021-01-19T15:18:35Z</time>
      </trkpt>
      <trkpt lat="43.45902" lon="5.3365">
        <ele>215</ele>
        <time>2021-01-19T15:18:37Z</time>
      </trkpt>
      <trkpt lat="43.459" lon="5.33649">
        <ele>214</ele>
        <time>2021-01-19T15:18:39Z</time>
      </trkpt>
      <trkpt lat="43.45897" lon="5.33649">
        <ele>214</ele>
        <time>2021-01-19T15:18:42Z</time>
      </trkpt>
      <trkpt lat="43.45896" lon="5.33648">
        <ele>213</ele>
        <time>2021-01-19T15:18:44Z</time>
      </trkpt>
      <trkpt lat="43.45894" lon="5.33648">
        <ele>214</ele>
        <time>2021-01-19T15:18:46Z</time>
      </trkpt>
      <trkpt lat="43.45893" lon="5.33648">
        <ele>214</ele>
        <time>2021-01-19T15:18:48Z</time>
      </trkpt>
      <trkpt lat="43.45891" lon="5.33648">
        <ele>214</ele>
        <time>2021-01-19T15:18:51Z</time>
      </trkpt>
      <trkpt lat="43.45889" lon="5.33648">
        <ele>214</ele>
        <time>2021-01-19T15:18:53Z</time>
      </trkpt>
      <trkpt lat="43.45887" lon="5.33648">
        <ele>214</ele>
        <time>2021-01-19T15:18:55Z</time>
      </trkpt>
      <trkpt lat="43.45885" lon="5.33647">
        <ele>214</ele>
        <time>2021-01-19T15:18:57Z</time>
      </trkpt>
      <trkpt lat="43.45882" lon="5.33647">
        <ele>214</ele>
        <time>2021-01-19T15:19:00Z</time>
      </trkpt>
      <trkpt lat="43.45879" lon="5.33647">
        <ele>214</ele>
        <time>2021-01-19T15:19:03Z</time>
      </trkpt>
      <trkpt lat="43.45876" lon="5.33646">
        <ele>215</ele>
        <time>2021-01-19T15:19:06Z</time>
      </trkpt>
      <trkpt lat="43.45873" lon="5.33647">
        <ele>215</ele>
        <time>2021-01-19T15:19:09Z</time>
      </trkpt>
      <trkpt lat="43.4587" lon="5.33648">
        <ele>214</ele>
        <time>2021-01-19T15:19:12Z</time>
      </trkpt>
      <trkpt lat="43.45868" lon="5.33649">
        <ele>216</ele>
        <time>2021-01-19T15:19:15Z</time>
      </trkpt>
      <trkpt lat="43.45866" lon="5.33651">
        <ele>216</ele>
        <time>2021-01-19T15:19:17Z</time>
      </trkpt>
      <trkpt lat="43.45865" lon="5.33652">
        <ele>215</ele>
        <time>2021-01-19T15:19:19Z</time>
      </trkpt>
      <trkpt lat="43.45863" lon="5.33653">
        <ele>216</ele>
        <time>2021-01-19T15:19:21Z</time>
      </trkpt>
      <trkpt lat="43.4586" lon="5.33654">
        <ele>216</ele>
        <time>2021-01-19T15:19:23Z</time>
      </trkpt>
      <trkpt lat="43.45858" lon="5.33654">
        <ele>215</ele>
        <time>2021-01-19T15:19:25Z</time>
      </trkpt>
      <trkpt lat="43.45856" lon="5.33655">
        <ele>216</ele>
        <time>2021-01-19T15:19:27Z</time>
      </trkpt>
      <trkpt lat="43.45853" lon="5.33656">
        <ele>215</ele>
        <time>2021-01-19T15:19:30Z</time>
      </trkpt>
      <trkpt lat="43.45851" lon="5.33656">
        <ele>215</ele>
        <time>2021-01-19T15:19:32Z</time>
      </trkpt>
      <trkpt lat="43.45848" lon="5.33657">
        <ele>215</ele>
        <time>2021-01-19T15:19:35Z</time>
      </trkpt>
      <trkpt lat="43.45847" lon="5.33658">
        <ele>215</ele>
        <time>2021-01-19T15:19:37Z</time>
      </trkpt>
      <trkpt lat="43.45845" lon="5.33659">
        <ele>216</ele>
        <time>2021-01-19T15:19:40Z</time>
      </trkpt>
      <trkpt lat="43.45844" lon="5.3366">
        <ele>216</ele>
        <time>2021-01-19T15:19:43Z</time>
      </trkpt>
      <trkpt lat="43.45842" lon="5.3366">
        <ele>215</ele>
        <time>2021-01-19T15:19:46Z</time>
      </trkpt>
      <trkpt lat="43.45841" lon="5.33661">
        <ele>215</ele>
        <time>2021-01-19T15:19:49Z</time>
      </trkpt>
      <trkpt lat="43.45841" lon="5.33662">
        <ele>215</ele>
        <time>2021-01-19T15:19:51Z</time>
      </trkpt>
      <trkpt lat="43.45841" lon="5.33665">
        <ele>215</ele>
        <time>2021-01-19T15:19:54Z</time>
      </trkpt>
      <trkpt lat="43.4584" lon="5.33667">
        <ele>216</ele>
        <time>2021-01-19T15:19:56Z</time>
      </trkpt>
      <trkpt lat="43.45839" lon="5.3367">
        <ele>216</ele>
        <time>2021-01-19T15:19:59Z</time>
      </trkpt>
      <trkpt lat="43.45838" lon="5.33672">
        <ele>215</ele>
        <time>2021-01-19T15:20:01Z</time>
      </trkpt>
      <trkpt lat="43.45837" lon="5.33675">
        <ele>216</ele>
        <time>2021-01-19T15:20:04Z</time>
      </trkpt>
      <trkpt lat="43.45835" lon="5.33678">
        <ele>216</ele>
        <time>2021-01-19T15:20:07Z</time>
      </trkpt>
      <trkpt lat="43.45835" lon="5.3368">
        <ele>217</ele>
        <time>2021-01-19T15:20:09Z</time>
      </trkpt>
      <trkpt lat="43.45835" lon="5.33681">
        <ele>216</ele>
        <time>2021-01-19T15:20:12Z</time>
      </trkpt>
      <trkpt lat="43.45835" lon="5.33684">
        <ele>216</ele>
        <time>2021-01-19T15:20:14Z</time>
      </trkpt>
      <trkpt lat="43.45835" lon="5.33687">
        <ele>217</ele>
        <time>2021-01-19T15:20:17Z</time>
      </trkpt>
      <trkpt lat="43.45835" lon="5.33689">
        <ele>217</ele>
        <time>2021-01-19T15:20:19Z</time>
      </trkpt>
      <trkpt lat="43.45834" lon="5.33693">
        <ele>217</ele>
        <time>2021-01-19T15:20:22Z</time>
      </trkpt>
      <trkpt lat="43.45834" lon="5.33694">
        <ele>217</ele>
        <time>2021-01-19T15:20:24Z</time>
      </trkpt>
      <trkpt lat="43.45834" lon="5.33695">
        <ele>217</ele>
        <time>2021-01-19T15:20:26Z</time>
      </trkpt>
      <trkpt lat="43.45834" lon="5.33698">
        <ele>216</ele>
        <time>2021-01-19T15:20:29Z</time>
      </trkpt>
      <trkpt lat="43.45833" lon="5.337">
        <ele>218</ele>
        <time>2021-01-19T15:20:32Z</time>
      </trkpt>
      <trkpt lat="43.45833" lon="5.33702">
        <ele>219</ele>
        <time>2021-01-19T15:20:34Z</time>
      </trkpt>
      <trkpt lat="43.45833" lon="5.33703">
        <ele>219</ele>
        <time>2021-01-19T15:20:37Z</time>
      </trkpt>
      <trkpt lat="43.45833" lon="5.33704">
        <ele>219</ele>
        <time>2021-01-19T15:20:39Z</time>
      </trkpt>
      <trkpt lat="43.45833" lon="5.33708">
        <ele>219</ele>
        <time>2021-01-19T15:20:41Z</time>
      </trkpt>
      <trkpt lat="43.45834" lon="5.33709">
        <ele>219</ele>
        <time>2021-01-19T15:20:43Z</time>
      </trkpt>
      <trkpt lat="43.45836" lon="5.33712">
        <ele>219</ele>
        <time>2021-01-19T15:20:46Z</time>
      </trkpt>
      <trkpt lat="43.45836" lon="5.33713">
        <ele>219</ele>
        <time>2021-01-19T15:20:48Z</time>
      </trkpt>
      <trkpt lat="43.45835" lon="5.33714">
        <ele>220</ele>
        <time>2021-01-19T15:20:50Z</time>
      </trkpt>
      <trkpt lat="43.45835" lon="5.33716">
        <ele>220</ele>
        <time>2021-01-19T15:20:52Z</time>
      </trkpt>
      <trkpt lat="43.45834" lon="5.33718">
        <ele>220</ele>
        <time>2021-01-19T15:20:55Z</time>
      </trkpt>
      <trkpt lat="43.45834" lon="5.33721">
        <ele>220</ele>
        <time>2021-01-19T15:20:57Z</time>
      </trkpt>
      <trkpt lat="43.45834" lon="5.33723">
        <ele>221</ele>
        <time>2021-01-19T15:20:59Z</time>
      </trkpt>
      <trkpt lat="43.45834" lon="5.33726">
        <ele>221</ele>
        <time>2021-01-19T15:21:02Z</time>
      </trkpt>
      <trkpt lat="43.45834" lon="5.33727">
        <ele>221</ele>
        <time>2021-01-19T15:21:05Z</time>
      </trkpt>
      <trkpt lat="43.45835" lon="5.3373">
        <ele>221</ele>
        <time>2021-01-19T15:21:07Z</time>
      </trkpt>
      <trkpt lat="43.45837" lon="5.33734">
        <ele>221</ele>
        <time>2021-01-19T15:21:10Z</time>
      </trkpt>
      <trkpt lat="43.45838" lon="5.33735">
        <ele>222</ele>
        <time>2021-01-19T15:21:12Z</time>
      </trkpt>
      <trkpt lat="43.45838" lon="5.33736">
        <ele>222</ele>
        <time>2021-01-19T15:21:15Z</time>
      </trkpt>
      <trkpt lat="43.45839" lon="5.33741">
        <ele>223</ele>
        <time>2021-01-19T15:21:18Z</time>
      </trkpt>
      <trkpt lat="43.4584" lon="5.33744">
        <ele>224</ele>
        <time>2021-01-19T15:21:21Z</time>
      </trkpt>
      <trkpt lat="43.4584" lon="5.33744">
        <ele>224</ele>
        <time>2021-01-19T15:21:24Z</time>
      </trkpt>
      <trkpt lat="43.4584" lon="5.33745">
        <ele>224</ele>
        <time>2021-01-19T15:21:26Z</time>
      </trkpt>
      <trkpt lat="43.45841" lon="5.33749">
        <ele>225</ele>
        <time>2021-01-19T15:21:29Z</time>
      </trkpt>
      <trkpt lat="43.45842" lon="5.33752">
        <ele>225</ele>
        <time>2021-01-19T15:21:32Z</time>
      </trkpt>
      <trkpt lat="43.45841" lon="5.33755">
        <ele>225</ele>
        <time>2021-01-19T15:21:35Z</time>
      </trkpt>
      <trkpt lat="43.45841" lon="5.33759">
        <ele>225</ele>
        <time>2021-01-19T15:21:38Z</time>
      </trkpt>
      <trkpt lat="43.45841" lon="5.33761">
        <ele>225</ele>
        <time>2021-01-19T15:21:40Z</time>
      </trkpt>
      <trkpt lat="43.45841" lon="5.33765">
        <ele>226</ele>
        <time>2021-01-19T15:21:43Z</time>
      </trkpt>
      <trkpt lat="43.4584" lon="5.33764">
        <ele>225</ele>
        <time>2021-01-19T15:21:46Z</time>
      </trkpt>
      <trkpt lat="43.45839" lon="5.33764">
        <ele>224</ele>
        <time>2021-01-19T15:21:49Z</time>
      </trkpt>
      <trkpt lat="43.45838" lon="5.33767">
        <ele>224</ele>
        <time>2021-01-19T15:21:51Z</time>
      </trkpt>
      <trkpt lat="43.45838" lon="5.33768">
        <ele>225</ele>
        <time>2021-01-19T15:21:54Z</time>
      </trkpt>
      <trkpt lat="43.45838" lon="5.33771">
        <ele>224</ele>
        <time>2021-01-19T15:21:57Z</time>
      </trkpt>
      <trkpt lat="43.45837" lon="5.33774">
        <ele>224</ele>
        <time>2021-01-19T15:21:59Z</time>
      </trkpt>
      <trkpt lat="43.45837" lon="5.33776">
        <ele>223</ele>
        <time>2021-01-19T15:22:02Z</time>
      </trkpt>
      <trkpt lat="43.45837" lon="5.33776">
        <ele>224</ele>
        <time>2021-01-19T15:22:05Z</time>
      </trkpt>
      <trkpt lat="43.45836" lon="5.33782">
        <ele>224</ele>
        <time>2021-01-19T15:22:08Z</time>
      </trkpt>
      <trkpt lat="43.45834" lon="5.33787">
        <ele>224</ele>
        <time>2021-01-19T15:22:11Z</time>
      </trkpt>
      <trkpt lat="43.45833" lon="5.33789">
        <ele>226</ele>
        <time>2021-01-19T15:22:14Z</time>
      </trkpt>
      <trkpt lat="43.4583" lon="5.33792">
        <ele>227</ele>
        <time>2021-01-19T15:22:17Z</time>
      </trkpt>
      <trkpt lat="43.45828" lon="5.33796">
        <ele>227</ele>
        <time>2021-01-19T15:22:20Z</time>
      </trkpt>
      <trkpt lat="43.45827" lon="5.33797">
        <ele>227</ele>
        <time>2021-01-19T15:22:22Z</time>
      </trkpt>
      <trkpt lat="43.45826" lon="5.33798">
        <ele>226</ele>
        <time>2021-01-19T15:22:24Z</time>
      </trkpt>
      <trkpt lat="43.45827" lon="5.33799">
        <ele>226</ele>
        <time>2021-01-19T15:22:27Z</time>
      </trkpt>
      <trkpt lat="43.45824" lon="5.33802">
        <ele>227</ele>
        <time>2021-01-19T15:22:30Z</time>
      </trkpt>
      <trkpt lat="43.45824" lon="5.33802">
        <ele>228</ele>
        <time>2021-01-19T15:22:33Z</time>
      </trkpt>
      <trkpt lat="43.45824" lon="5.33804">
        <ele>227</ele>
        <time>2021-01-19T15:22:36Z</time>
      </trkpt>
      <trkpt lat="43.45824" lon="5.33804">
        <ele>227</ele>
        <time>2021-01-19T15:22:38Z</time>
      </trkpt>
      <trkpt lat="43.45825" lon="5.33805">
        <ele>229</ele>
        <time>2021-01-19T15:22:41Z</time>
      </trkpt>
      <trkpt lat="43.45826" lon="5.33805">
        <ele>229</ele>
        <time>2021-01-19T15:22:44Z</time>
      </trkpt>
      <trkpt lat="43.45826" lon="5.33805">
        <ele>229</ele>
        <time>2021-01-19T15:22:47Z</time>
      </trkpt>
      <trkpt lat="43.45826" lon="5.33805">
        <ele>229</ele>
        <time>2021-01-19T15:22:49Z</time>
      </trkpt>
      <trkpt lat="43.45826" lon="5.33805">
        <ele>229</ele>
        <time>2021-01-19T15:22:52Z</time>
      </trkpt>
      <trkpt lat="43.45826" lon="5.33805">
        <ele>229</ele>
        <time>2021-01-19T15:22:54Z</time>
      </trkpt>
      <trkpt lat="43.45825" lon="5.33804">
        <ele>230</ele>
        <time>2021-01-19T15:22:57Z</time>
      </trkpt>
      <trkpt lat="43.45825" lon="5.33804">
        <ele>230</ele>
        <time>2021-01-19T15:23:00Z</time>
      </trkpt>
      <trkpt lat="43.45825" lon="5.33804">
        <ele>230</ele>
        <time>2021-01-19T15:23:03Z</time>
      </trkpt>
      <trkpt lat="43.45825" lon="5.33804">
        <ele>230</ele>
        <time>2021-01-19T15:23:05Z</time>
      </trkpt>
      <trkpt lat="43.45825" lon="5.33804">
        <ele>230</ele>
        <time>2021-01-19T15:23:08Z</time>
      </trkpt>
      <trkpt lat="43.45825" lon="5.33804">
        <ele>230</ele>
        <time>2021-01-19T15:23:10Z</time>
      </trkpt>
      <trkpt lat="43.45826" lon="5.33806">
        <ele>229</ele>
        <time>2021-01-19T15:23:13Z</time>
      </trkpt>
      <trkpt lat="43.45825" lon="5.33808">
        <ele>229</ele>
        <time>2021-01-19T15:23:15Z</time>
      </trkpt>
      <trkpt lat="43.45825" lon="5.33808">
        <ele>229</ele>
        <time>2021-01-19T15:23:18Z</time>
      </trkpt>
      <trkpt lat="43.45825" lon="5.33808">
        <ele>229</ele>
        <time>2021-01-19T15:23:20Z</time>
      </trkpt>
      <trkpt lat="43.45825" lon="5.33808">
        <ele>229</ele>
        <time>2021-01-19T15:23:23Z</time>
      </trkpt>
      <trkpt lat="43.45825" lon="5.33808">
        <ele>229</ele>
        <time>2021-01-19T15:23:25Z</time>
      </trkpt>
      <trkpt lat="43.45825" lon="5.33808">
        <ele>229</ele>
        <time>2021-01-19T15:23:27Z</time>
      </trkpt>
      <trkpt lat="43.45825" lon="5.33808">
        <ele>230</ele>
        <time>2021-01-19T15:23:30Z</time>
      </trkpt>
      <trkpt lat="43.45824" lon="5.33809">
        <ele>230</ele>
        <time>2021-01-19T15:23:33Z</time>
      </trkpt>
      <trkpt lat="43.45823" lon="5.3381">
        <ele>229</ele>
        <time>2021-01-19T15:23:36Z</time>
      </trkpt>
      <trkpt lat="43.45822" lon="5.33811">
        <ele>229</ele>
        <time>2021-01-19T15:23:38Z</time>
      </trkpt>
      <trkpt lat="43.45823" lon="5.33812">
        <ele>228</ele>
        <time>2021-01-19T15:23:41Z</time>
      </trkpt>
      <trkpt lat="43.45823" lon="5.33812">
        <ele>228</ele>
        <time>2021-01-19T15:23:43Z</time>
      </trkpt>
      <trkpt lat="43.45825" lon="5.33811">
        <ele>230</ele>
        <time>2021-01-19T15:23:46Z</time>
      </trkpt>
      <trkpt lat="43.45826" lon="5.3381">
        <ele>231</ele>
        <time>2021-01-19T15:23:49Z</time>
      </trkpt>
      <trkpt lat="43.45826" lon="5.3381">
        <ele>231</ele>
        <time>2021-01-19T15:23:52Z</time>
      </trkpt>
      <trkpt lat="43.45826" lon="5.3381">
        <ele>231</ele>
        <time>2021-01-19T15:23:54Z</time>
      </trkpt>
      <trkpt lat="43.45826" lon="5.3381">
        <ele>231</ele>
        <time>2021-01-19T15:23:57Z</time>
      </trkpt>
      <trkpt lat="43.45826" lon="5.3381">
        <ele>231</ele>
        <time>2021-01-19T15:23:59Z</time>
      </trkpt>
      <trkpt lat="43.45826" lon="5.3381">
        <ele>231</ele>
        <time>2021-01-19T15:24:01Z</time>
      </trkpt>
      <trkpt lat="43.45826" lon="5.3381">
        <ele>231</ele>
        <time>2021-01-19T15:24:04Z</time>
      </trkpt>
      <trkpt lat="43.45826" lon="5.3381">
        <ele>231</ele>
        <time>2021-01-19T15:24:06Z</time>
      </trkpt>
      <trkpt lat="43.45826" lon="5.3381">
        <ele>231</ele>
        <time>2021-01-19T15:24:09Z</time>
      </trkpt>
      <trkpt lat="43.45826" lon="5.3381">
        <ele>231</ele>
        <time>2021-01-19T15:24:12Z</time>
      </trkpt>
      <trkpt lat="43.45826" lon="5.3381">
        <ele>231</ele>
        <time>2021-01-19T15:24:14Z</time>
      </trkpt>
      <trkpt lat="43.45826" lon="5.3381">
        <ele>231</ele>
        <time>2021-01-19T15:24:17Z</time>
      </trkpt>
      <trkpt lat="43.45826" lon="5.3381">
        <ele>231</ele>
        <time>2021-01-19T15:24:19Z</time>
      </trkpt>
      <trkpt lat="43.45826" lon="5.3381">
        <ele>231</ele>
        <time>2021-01-19T15:24:21Z</time>
      </trkpt>
      <trkpt lat="43.45826" lon="5.3381">
        <ele>231</ele>
        <time>2021-01-19T15:24:23Z</time>
      </trkpt>
      <trkpt lat="43.45826" lon="5.3381">
        <ele>231</ele>
        <time>2021-01-19T15:24:26Z</time>
      </trkpt>
      <trkpt lat="43.45826" lon="5.3381">
        <ele>231</ele>
        <time>2021-01-19T15:24:28Z</time>
      </trkpt>
      <trkpt lat="43.45826" lon="5.3381">
        <ele>231</ele>
        <time>2021-01-19T15:24:31Z</time>
      </trkpt>
      <trkpt lat="43.45826" lon="5.33809">
        <ele>231</ele>
        <time>2021-01-19T15:24:33Z</time>
      </trkpt>
      <trkpt lat="43.45826" lon="5.33808">
        <ele>231</ele>
        <time>2021-01-19T15:24:35Z</time>
      </trkpt>
      <trkpt lat="43.45827" lon="5.33806">
        <ele>231</ele>
        <time>2021-01-19T15:24:38Z</time>
      </trkpt>
      <trkpt lat="43.45829" lon="5.33803">
        <ele>231</ele>
        <time>2021-01-19T15:24:40Z</time>
      </trkpt>
      <trkpt lat="43.45829" lon="5.33802">
        <ele>231</ele>
        <time>2021-01-19T15:24:43Z</time>
      </trkpt>
      <trkpt lat="43.45829" lon="5.33803">
        <ele>231</ele>
        <time>2021-01-19T15:24:46Z</time>
      </trkpt>
      <trkpt lat="43.45829" lon="5.33803">
        <ele>231</ele>
        <time>2021-01-19T15:24:48Z</time>
      </trkpt>
      <trkpt lat="43.45827" lon="5.33806">
        <ele>233</ele>
        <time>2021-01-19T15:24:50Z</time>
      </trkpt>
      <trkpt lat="43.45826" lon="5.33808">
        <ele>234</ele>
        <time>2021-01-19T15:24:53Z</time>
      </trkpt>
      <trkpt lat="43.45826" lon="5.33808">
        <ele>234</ele>
        <time>2021-01-19T15:24:55Z</time>
      </trkpt>
      <trkpt lat="43.45826" lon="5.33808">
        <ele>234</ele>
        <time>2021-01-19T15:24:57Z</time>
      </trkpt>
      <trkpt lat="43.45826" lon="5.33808">
        <ele>234</ele>
        <time>2021-01-19T15:25:00Z</time>
      </trkpt>
      <trkpt lat="43.45826" lon="5.33808">
        <ele>234</ele>
        <time>2021-01-19T15:25:03Z</time>
      </trkpt>
      <trkpt lat="43.45826" lon="5.33808">
        <ele>234</ele>
        <time>2021-01-19T15:25:06Z</time>
      </trkpt>
      <trkpt lat="43.45826" lon="5.33808">
        <ele>234</ele>
        <time>2021-01-19T15:25:09Z</time>
      </trkpt>
      <trkpt lat="43.45826" lon="5.33808">
        <ele>234</ele>
        <time>2021-01-19T15:25:11Z</time>
      </trkpt>
      <trkpt lat="43.45826" lon="5.33808">
        <ele>234</ele>
        <time>2021-01-19T15:25:14Z</time>
      </trkpt>
      <trkpt lat="43.45826" lon="5.33808">
        <ele>234</ele>
        <time>2021-01-19T15:25:17Z</time>
      </trkpt>
      <trkpt lat="43.45826" lon="5.33808">
        <ele>234</ele>
        <time>2021-01-19T15:25:19Z</time>
      </trkpt>
      <trkpt lat="43.45826" lon="5.33808">
        <ele>234</ele>
        <time>2021-01-19T15:25:21Z</time>
      </trkpt>
      <trkpt lat="43.45826" lon="5.33808">
        <ele>233</ele>
        <time>2021-01-19T15:25:23Z</time>
      </trkpt>
      <trkpt lat="43.45826" lon="5.33811">
        <ele>233</ele>
        <time>2021-01-19T15:25:26Z</time>
      </trkpt>
      <trkpt lat="43.45826" lon="5.33811">
        <ele>233</ele>
        <time>2021-01-19T15:25:29Z</time>
      </trkpt>
      <trkpt lat="43.45826" lon="5.33811">
        <ele>233</ele>
        <time>2021-01-19T15:25:31Z</time>
      </trkpt>
      <trkpt lat="43.45826" lon="5.33811">
        <ele>233</ele>
        <time>2021-01-19T15:25:33Z</time>
      </trkpt>
      <trkpt lat="43.45828" lon="5.33813">
        <ele>233</ele>
        <time>2021-01-19T15:25:36Z</time>
      </trkpt>
      <trkpt lat="43.45828" lon="5.33814">
        <ele>233</ele>
        <time>2021-01-19T15:25:38Z</time>
      </trkpt>
      <trkpt lat="43.45828" lon="5.33814">
        <ele>233</ele>
        <time>2021-01-19T15:25:41Z</time>
      </trkpt>
      <trkpt lat="43.45828" lon="5.33815">
        <ele>233</ele>
        <time>2021-01-19T15:25:43Z</time>
      </trkpt>
      <trkpt lat="43.45828" lon="5.33815">
        <ele>233</ele>
        <time>2021-01-19T15:25:45Z</time>
      </trkpt>
      <trkpt lat="43.45827" lon="5.33814">
        <ele>234</ele>
        <time>2021-01-19T15:25:48Z</time>
      </trkpt>
      <trkpt lat="43.45827" lon="5.33813">
        <ele>234</ele>
        <time>2021-01-19T15:25:51Z</time>
      </trkpt>
      <trkpt lat="43.45827" lon="5.33813">
        <ele>233</ele>
        <time>2021-01-19T15:25:53Z</time>
      </trkpt>
      <trkpt lat="43.45826" lon="5.33813">
        <ele>233</ele>
        <time>2021-01-19T15:25:55Z</time>
      </trkpt>
      <trkpt lat="43.45825" lon="5.33814">
        <ele>233</ele>
        <time>2021-01-19T15:25:58Z</time>
      </trkpt>
      <trkpt lat="43.45825" lon="5.33814">
        <ele>233</ele>
        <time>2021-01-19T15:26:00Z</time>
      </trkpt>
      <trkpt lat="43.45825" lon="5.33814">
        <ele>233</ele>
        <time>2021-01-19T15:26:02Z</time>
      </trkpt>
      <trkpt lat="43.45825" lon="5.33814">
        <ele>233</ele>
        <time>2021-01-19T15:26:05Z</time>
      </trkpt>
      <trkpt lat="43.45825" lon="5.33814">
        <ele>233</ele>
        <time>2021-01-19T15:26:07Z</time>
      </trkpt>
      <trkpt lat="43.45825" lon="5.33814">
        <ele>233</ele>
        <time>2021-01-19T15:26:09Z</time>
      </trkpt>
      <trkpt lat="43.45825" lon="5.33814">
        <ele>233</ele>
        <time>2021-01-19T15:26:12Z</time>
      </trkpt>
      <trkpt lat="43.45825" lon="5.33814">
        <ele>233</ele>
        <time>2021-01-19T15:26:15Z</time>
      </trkpt>
      <trkpt lat="43.45825" lon="5.33814">
        <ele>233</ele>
        <time>2021-01-19T15:26:17Z</time>
      </trkpt>
      <trkpt lat="43.45825" lon="5.33814">
        <ele>233</ele>
        <time>2021-01-19T15:26:19Z</time>
      </trkpt>
      <trkpt lat="43.45825" lon="5.33814">
        <ele>233</ele>
        <time>2021-01-19T15:26:22Z</time>
      </trkpt>
      <trkpt lat="43.45825" lon="5.33814">
        <ele>233</ele>
        <time>2021-01-19T15:26:24Z</time>
      </trkpt>
      <trkpt lat="43.45827" lon="5.33813">
        <ele>233</ele>
        <time>2021-01-19T15:26:27Z</time>
      </trkpt>
      <trkpt lat="43.45828" lon="5.33813">
        <ele>233</ele>
        <time>2021-01-19T15:26:29Z</time>
      </trkpt>
      <trkpt lat="43.45828" lon="5.33813">
        <ele>233</ele>
        <time>2021-01-19T15:26:32Z</time>
      </trkpt>
      <trkpt lat="43.45827" lon="5.33813">
        <ele>233</ele>
        <time>2021-01-19T15:26:35Z</time>
      </trkpt>
      <trkpt lat="43.45827" lon="5.33813">
        <ele>233</ele>
        <time>2021-01-19T15:26:38Z</time>
      </trkpt>
      <trkpt lat="43.45827" lon="5.33813">
        <ele>233</ele>
        <time>2021-01-19T15:26:40Z</time>
      </trkpt>
      <trkpt lat="43.45827" lon="5.33813">
        <ele>233</ele>
        <time>2021-01-19T15:26:42Z</time>
      </trkpt>
      <trkpt lat="43.45827" lon="5.33813">
        <ele>233</ele>
        <time>2021-01-19T15:26:45Z</time>
      </trkpt>
      <trkpt lat="43.45827" lon="5.33813">
        <ele>233</ele>
        <time>2021-01-19T15:26:48Z</time>
      </trkpt>
      <trkpt lat="43.45827" lon="5.33813">
        <ele>233</ele>
        <time>2021-01-19T15:26:50Z</time>
      </trkpt>
      <trkpt lat="43.45827" lon="5.33813">
        <ele>233</ele>
        <time>2021-01-19T15:26:52Z</time>
      </trkpt>
      <trkpt lat="43.45827" lon="5.33813">
        <ele>233</ele>
        <time>2021-01-19T15:26:54Z</time>
      </trkpt>
      <trkpt lat="43.45827" lon="5.33813">
        <ele>233</ele>
        <time>2021-01-19T15:26:56Z</time>
      </trkpt>
      <trkpt lat="43.45827" lon="5.33813">
        <ele>233</ele>
        <time>2021-01-19T15:26:59Z</time>
      </trkpt>
      <trkpt lat="43.45827" lon="5.33813">
        <ele>233</ele>
        <time>2021-01-19T15:27:01Z</time>
      </trkpt>
      <trkpt lat="43.45827" lon="5.33813">
        <ele>233</ele>
        <time>2021-01-19T15:27:04Z</time>
      </trkpt>
      <trkpt lat="43.45827" lon="5.33813">
        <ele>233</ele>
        <time>2021-01-19T15:27:06Z</time>
      </trkpt>
      <trkpt lat="43.45827" lon="5.33813">
        <ele>233</ele>
        <time>2021-01-19T15:27:08Z</time>
      </trkpt>
      <trkpt lat="43.45827" lon="5.33813">
        <ele>235</ele>
        <time>2021-01-19T15:27:11Z</time>
      </trkpt>
      <trkpt lat="43.45827" lon="5.33812">
        <ele>235</ele>
        <time>2021-01-19T15:27:13Z</time>
      </trkpt>
      <trkpt lat="43.45827" lon="5.33812">
        <ele>235</ele>
        <time>2021-01-19T15:27:16Z</time>
      </trkpt>
      <trkpt lat="43.45827" lon="5.33811">
        <ele>235</ele>
        <time>2021-01-19T15:27:19Z</time>
      </trkpt>
      <trkpt lat="43.45828" lon="5.33811">
        <ele>235</ele>
        <time>2021-01-19T15:27:21Z</time>
      </trkpt>
      <trkpt lat="43.45827" lon="5.33811">
        <ele>235</ele>
        <time>2021-01-19T15:27:24Z</time>
      </trkpt>
      <trkpt lat="43.45828" lon="5.33809">
        <ele>233</ele>
        <time>2021-01-19T15:27:27Z</time>
      </trkpt>
      <trkpt lat="43.45826" lon="5.33809">
        <ele>233</ele>
        <time>2021-01-19T15:27:30Z</time>
      </trkpt>
      <trkpt lat="43.45825" lon="5.33809">
        <ele>233</ele>
        <time>2021-01-19T15:27:32Z</time>
      </trkpt>
      <trkpt lat="43.45825" lon="5.33809">
        <ele>233</ele>
        <time>2021-01-19T15:27:34Z</time>
      </trkpt>
      <trkpt lat="43.45825" lon="5.33809">
        <ele>233</ele>
        <time>2021-01-19T15:27:37Z</time>
      </trkpt>
      <trkpt lat="43.45825" lon="5.33809">
        <ele>233</ele>
        <time>2021-01-19T15:27:40Z</time>
      </trkpt>
      <trkpt lat="43.45825" lon="5.33809">
        <ele>233</ele>
        <time>2021-01-19T15:27:43Z</time>
      </trkpt>
      <trkpt lat="43.45825" lon="5.33809">
        <ele>233</ele>
        <time>2021-01-19T15:27:46Z</time>
      </trkpt>
      <trkpt lat="43.45825" lon="5.33809">
        <ele>233</ele>
        <time>2021-01-19T15:27:49Z</time>
      </trkpt>
      <trkpt lat="43.45825" lon="5.33809">
        <ele>233</ele>
        <time>2021-01-19T15:27:52Z</time>
      </trkpt>
      <trkpt lat="43.45825" lon="5.33809">
        <ele>233</ele>
        <time>2021-01-19T15:27:55Z</time>
      </trkpt>
      <trkpt lat="43.45825" lon="5.33809">
        <ele>233</ele>
        <time>2021-01-19T15:27:57Z</time>
      </trkpt>
      <trkpt lat="43.45825" lon="5.33809">
        <ele>233</ele>
        <time>2021-01-19T15:28:00Z</time>
      </trkpt>
      <trkpt lat="43.45825" lon="5.33809">
        <ele>233</ele>
        <time>2021-01-19T15:28:02Z</time>
      </trkpt>
      <trkpt lat="43.45825" lon="5.33809">
        <ele>233</ele>
        <time>2021-01-19T15:28:05Z</time>
      </trkpt>
      <trkpt lat="43.45825" lon="5.33809">
        <ele>233</ele>
        <time>2021-01-19T15:28:07Z</time>
      </trkpt>
      <trkpt lat="43.45825" lon="5.33809">
        <ele>233</ele>
        <time>2021-01-19T15:28:10Z</time>
      </trkpt>
      <trkpt lat="43.45825" lon="5.33809">
        <ele>233</ele>
        <time>2021-01-19T15:28:13Z</time>
      </trkpt>
      <trkpt lat="43.45825" lon="5.33809">
        <ele>233</ele>
        <time>2021-01-19T15:28:15Z</time>
      </trkpt>
      <trkpt lat="43.45825" lon="5.33809">
        <ele>233</ele>
        <time>2021-01-19T15:28:18Z</time>
      </trkpt>
      <trkpt lat="43.45825" lon="5.33809">
        <ele>233</ele>
        <time>2021-01-19T15:28:20Z</time>
      </trkpt>
      <trkpt lat="43.45825" lon="5.33809">
        <ele>233</ele>
        <time>2021-01-19T15:28:23Z</time>
      </trkpt>
      <trkpt lat="43.45825" lon="5.33809">
        <ele>233</ele>
        <time>2021-01-19T15:28:26Z</time>
      </trkpt>
      <trkpt lat="43.45825" lon="5.33807">
        <ele>233</ele>
        <time>2021-01-19T15:28:28Z</time>
      </trkpt>
      <trkpt lat="43.45825" lon="5.33807">
        <ele>234</ele>
        <time>2021-01-19T15:28:31Z</time>
      </trkpt>
      <trkpt lat="43.45826" lon="5.33807">
        <ele>233</ele>
        <time>2021-01-19T15:28:33Z</time>
      </trkpt>
      <trkpt lat="43.45827" lon="5.33808">
        <ele>233</ele>
        <time>2021-01-19T15:28:36Z</time>
      </trkpt>
      <trkpt lat="43.45827" lon="5.33808">
        <ele>233</ele>
        <time>2021-01-19T15:28:38Z</time>
      </trkpt>
      <trkpt lat="43.45827" lon="5.33808">
        <ele>233</ele>
        <time>2021-01-19T15:28:41Z</time>
      </trkpt>
      <trkpt lat="43.45827" lon="5.33808">
        <ele>233</ele>
        <time>2021-01-19T15:28:43Z</time>
      </trkpt>
      <trkpt lat="43.45827" lon="5.33808">
        <ele>233</ele>
        <time>2021-01-19T15:28:45Z</time>
      </trkpt>
      <trkpt lat="43.45827" lon="5.33808">
        <ele>233</ele>
        <time>2021-01-19T15:28:48Z</time>
      </trkpt>
      <trkpt lat="43.45827" lon="5.33808">
        <ele>233</ele>
        <time>2021-01-19T15:28:50Z</time>
      </trkpt>
      <trkpt lat="43.45827" lon="5.33808">
        <ele>233</ele>
        <time>2021-01-19T15:28:53Z</time>
      </trkpt>
      <trkpt lat="43.45826" lon="5.33808">
        <ele>232</ele>
        <time>2021-01-19T15:28:55Z</time>
      </trkpt>
      <trkpt lat="43.45824" lon="5.33809">
        <ele>231</ele>
        <time>2021-01-19T15:28:57Z</time>
      </trkpt>
      <trkpt lat="43.45822" lon="5.3381">
        <ele>230</ele>
        <time>2021-01-19T15:28:59Z</time>
      </trkpt>
      <trkpt lat="43.4582" lon="5.33811">
        <ele>229</ele>
        <time>2021-01-19T15:29:02Z</time>
      </trkpt>
      <trkpt lat="43.45818" lon="5.33812">
        <ele>228</ele>
        <time>2021-01-19T15:29:05Z</time>
      </trkpt>
      <trkpt lat="43.45816" lon="5.33812">
        <ele>228</ele>
        <time>2021-01-19T15:29:07Z</time>
      </trkpt>
      <trkpt lat="43.45813" lon="5.33813">
        <ele>228</ele>
        <time>2021-01-19T15:29:10Z</time>
      </trkpt>
      <trkpt lat="43.45812" lon="5.33814">
        <ele>228</ele>
        <time>2021-01-19T15:29:12Z</time>
      </trkpt>
      <trkpt lat="43.45809" lon="5.33815">
        <ele>227</ele>
        <time>2021-01-19T15:29:14Z</time>
      </trkpt>
      <trkpt lat="43.45807" lon="5.33815">
        <ele>226</ele>
        <time>2021-01-19T15:29:16Z</time>
      </trkpt>
      <trkpt lat="43.45804" lon="5.33817">
        <ele>227</ele>
        <time>2021-01-19T15:29:19Z</time>
      </trkpt>
      <trkpt lat="43.45802" lon="5.33818">
        <ele>226</ele>
        <time>2021-01-19T15:29:21Z</time>
      </trkpt>
      <trkpt lat="43.45799" lon="5.33819">
        <ele>226</ele>
        <time>2021-01-19T15:29:24Z</time>
      </trkpt>
      <trkpt lat="43.45798" lon="5.33819">
        <ele>226</ele>
        <time>2021-01-19T15:29:26Z</time>
      </trkpt>
      <trkpt lat="43.45796" lon="5.33821">
        <ele>226</ele>
        <time>2021-01-19T15:29:29Z</time>
      </trkpt>
      <trkpt lat="43.45793" lon="5.33823">
        <ele>225</ele>
        <time>2021-01-19T15:29:32Z</time>
      </trkpt>
      <trkpt lat="43.4579" lon="5.33826">
        <ele>226</ele>
        <time>2021-01-19T15:29:35Z</time>
      </trkpt>
      <trkpt lat="43.45788" lon="5.33827">
        <ele>227</ele>
        <time>2021-01-19T15:29:37Z</time>
      </trkpt>
      <trkpt lat="43.45786" lon="5.33829">
        <ele>227</ele>
        <time>2021-01-19T15:29:40Z</time>
      </trkpt>
      <trkpt lat="43.45784" lon="5.33832">
        <ele>226</ele>
        <time>2021-01-19T15:29:43Z</time>
      </trkpt>
      <trkpt lat="43.45782" lon="5.33833">
        <ele>226</ele>
        <time>2021-01-19T15:29:46Z</time>
      </trkpt>
      <trkpt lat="43.45779" lon="5.33835">
        <ele>226</ele>
        <time>2021-01-19T15:29:49Z</time>
      </trkpt>
      <trkpt lat="43.45777" lon="5.33837">
        <ele>225</ele>
        <time>2021-01-19T15:29:51Z</time>
      </trkpt>
      <trkpt lat="43.45774" lon="5.33839">
        <ele>226</ele>
        <time>2021-01-19T15:29:54Z</time>
      </trkpt>
      <trkpt lat="43.45771" lon="5.33841">
        <ele>226</ele>
        <time>2021-01-19T15:29:56Z</time>
      </trkpt>
      <trkpt lat="43.45769" lon="5.33843">
        <ele>227</ele>
        <time>2021-01-19T15:29:59Z</time>
      </trkpt>
      <trkpt lat="43.45767" lon="5.33845">
        <ele>228</ele>
        <time>2021-01-19T15:30:01Z</time>
      </trkpt>
      <trkpt lat="43.45765" lon="5.33848">
        <ele>230</ele>
        <time>2021-01-19T15:30:04Z</time>
      </trkpt>
      <trkpt lat="43.45762" lon="5.3385">
        <ele>229</ele>
        <time>2021-01-19T15:30:07Z</time>
      </trkpt>
      <trkpt lat="43.45761" lon="5.33852">
        <ele>230</ele>
        <time>2021-01-19T15:30:09Z</time>
      </trkpt>
      <trkpt lat="43.4576" lon="5.33853">
        <ele>230</ele>
        <time>2021-01-19T15:30:11Z</time>
      </trkpt>
      <trkpt lat="43.45758" lon="5.33854">
        <ele>230</ele>
        <time>2021-01-19T15:30:13Z</time>
      </trkpt>
      <trkpt lat="43.45755" lon="5.33857">
        <ele>231</ele>
        <time>2021-01-19T15:30:16Z</time>
      </trkpt>
      <trkpt lat="43.45752" lon="5.33859">
        <ele>231</ele>
        <time>2021-01-19T15:30:19Z</time>
      </trkpt>
      <trkpt lat="43.45752" lon="5.33859">
        <ele>231</ele>
        <time>2021-01-19T15:30:21Z</time>
      </trkpt>
      <trkpt lat="43.4575" lon="5.33861">
        <ele>230</ele>
        <time>2021-01-19T15:30:24Z</time>
      </trkpt>
      <trkpt lat="43.45749" lon="5.33863">
        <ele>230</ele>
        <time>2021-01-19T15:30:27Z</time>
      </trkpt>
      <trkpt lat="43.45748" lon="5.33864">
        <ele>230</ele>
        <time>2021-01-19T15:30:29Z</time>
      </trkpt>
      <trkpt lat="43.45747" lon="5.33866">
        <ele>230</ele>
        <time>2021-01-19T15:30:32Z</time>
      </trkpt>
      <trkpt lat="43.45744" lon="5.33868">
        <ele>230</ele>
        <time>2021-01-19T15:30:35Z</time>
      </trkpt>
      <trkpt lat="43.45742" lon="5.33869">
        <ele>230</ele>
        <time>2021-01-19T15:30:37Z</time>
      </trkpt>
      <trkpt lat="43.45741" lon="5.33871">
        <ele>231</ele>
        <time>2021-01-19T15:30:40Z</time>
      </trkpt>
      <trkpt lat="43.45738" lon="5.33873">
        <ele>232</ele>
        <time>2021-01-19T15:30:43Z</time>
      </trkpt>
      <trkpt lat="43.45735" lon="5.33875">
        <ele>231</ele>
        <time>2021-01-19T15:30:46Z</time>
      </trkpt>
      <trkpt lat="43.45733" lon="5.33878">
        <ele>231</ele>
        <time>2021-01-19T15:30:49Z</time>
      </trkpt>
      <trkpt lat="43.45731" lon="5.33879">
        <ele>231</ele>
        <time>2021-01-19T15:30:51Z</time>
      </trkpt>
      <trkpt lat="43.45729" lon="5.33881">
        <ele>232</ele>
        <time>2021-01-19T15:30:54Z</time>
      </trkpt>
      <trkpt lat="43.45727" lon="5.33883">
        <ele>231</ele>
        <time>2021-01-19T15:30:57Z</time>
      </trkpt>
      <trkpt lat="43.45726" lon="5.33884">
        <ele>231</ele>
        <time>2021-01-19T15:30:59Z</time>
      </trkpt>
      <trkpt lat="43.45724" lon="5.33886">
        <ele>232</ele>
        <time>2021-01-19T15:31:01Z</time>
      </trkpt>
      <trkpt lat="43.45722" lon="5.33888">
        <ele>232</ele>
        <time>2021-01-19T15:31:04Z</time>
      </trkpt>
      <trkpt lat="43.4572" lon="5.3389">
        <ele>232</ele>
        <time>2021-01-19T15:31:07Z</time>
      </trkpt>
      <trkpt lat="43.45719" lon="5.33892">
        <ele>233</ele>
        <time>2021-01-19T15:31:10Z</time>
      </trkpt>
      <trkpt lat="43.45717" lon="5.33894">
        <ele>232</ele>
        <time>2021-01-19T15:31:12Z</time>
      </trkpt>
      <trkpt lat="43.45714" lon="5.33897">
        <ele>232</ele>
        <time>2021-01-19T15:31:15Z</time>
      </trkpt>
      <trkpt lat="43.45712" lon="5.33899">
        <ele>231</ele>
        <time>2021-01-19T15:31:17Z</time>
      </trkpt>
      <trkpt lat="43.4571" lon="5.33901">
        <ele>231</ele>
        <time>2021-01-19T15:31:20Z</time>
      </trkpt>
      <trkpt lat="43.45708" lon="5.33903">
        <ele>232</ele>
        <time>2021-01-19T15:31:23Z</time>
      </trkpt>
      <trkpt lat="43.45706" lon="5.33904">
        <ele>231</ele>
        <time>2021-01-19T15:31:25Z</time>
      </trkpt>
      <trkpt lat="43.45703" lon="5.33906">
        <ele>231</ele>
        <time>2021-01-19T15:31:28Z</time>
      </trkpt>
      <trkpt lat="43.45701" lon="5.33907">
        <ele>230</ele>
        <time>2021-01-19T15:31:30Z</time>
      </trkpt>
      <trkpt lat="43.45698" lon="5.33908">
        <ele>232</ele>
        <time>2021-01-19T15:31:33Z</time>
      </trkpt>
      <trkpt lat="43.45696" lon="5.3391">
        <ele>232</ele>
        <time>2021-01-19T15:31:35Z</time>
      </trkpt>
      <trkpt lat="43.45694" lon="5.33911">
        <ele>232</ele>
        <time>2021-01-19T15:31:38Z</time>
      </trkpt>
      <trkpt lat="43.45692" lon="5.33913">
        <ele>231</ele>
        <time>2021-01-19T15:31:41Z</time>
      </trkpt>
      <trkpt lat="43.4569" lon="5.33916">
        <ele>231</ele>
        <time>2021-01-19T15:31:44Z</time>
      </trkpt>
      <trkpt lat="43.45688" lon="5.33918">
        <ele>231</ele>
        <time>2021-01-19T15:31:47Z</time>
      </trkpt>
      <trkpt lat="43.45687" lon="5.3392">
        <ele>232</ele>
        <time>2021-01-19T15:31:49Z</time>
      </trkpt>
      <trkpt lat="43.45685" lon="5.33923">
        <ele>232</ele>
        <time>2021-01-19T15:31:52Z</time>
      </trkpt>
      <trkpt lat="43.45684" lon="5.33923">
        <ele>232</ele>
        <time>2021-01-19T15:31:54Z</time>
      </trkpt>
      <trkpt lat="43.45681" lon="5.33926">
        <ele>233</ele>
        <time>2021-01-19T15:31:57Z</time>
      </trkpt>
      <trkpt lat="43.45678" lon="5.33929">
        <ele>234</ele>
        <time>2021-01-19T15:32:00Z</time>
      </trkpt>
      <trkpt lat="43.45676" lon="5.33931">
        <ele>234</ele>
        <time>2021-01-19T15:32:02Z</time>
      </trkpt>
      <trkpt lat="43.45674" lon="5.33933">
        <ele>234</ele>
        <time>2021-01-19T15:32:04Z</time>
      </trkpt>
      <trkpt lat="43.45673" lon="5.33935">
        <ele>234</ele>
        <time>2021-01-19T15:32:06Z</time>
      </trkpt>
      <trkpt lat="43.4567" lon="5.33936">
        <ele>233</ele>
        <time>2021-01-19T15:32:09Z</time>
      </trkpt>
      <trkpt lat="43.45669" lon="5.33938">
        <ele>233</ele>
        <time>2021-01-19T15:32:11Z</time>
      </trkpt>
      <trkpt lat="43.45668" lon="5.33938">
        <ele>233</ele>
        <time>2021-01-19T15:32:13Z</time>
      </trkpt>
      <trkpt lat="43.45665" lon="5.33941">
        <ele>233</ele>
        <time>2021-01-19T15:32:16Z</time>
      </trkpt>
      <trkpt lat="43.45662" lon="5.33943">
        <ele>234</ele>
        <time>2021-01-19T15:32:19Z</time>
      </trkpt>
      <trkpt lat="43.4566" lon="5.33945">
        <ele>234</ele>
        <time>2021-01-19T15:32:21Z</time>
      </trkpt>
      <trkpt lat="43.45658" lon="5.33946">
        <ele>235</ele>
        <time>2021-01-19T15:32:23Z</time>
      </trkpt>
      <trkpt lat="43.45656" lon="5.33947">
        <ele>235</ele>
        <time>2021-01-19T15:32:25Z</time>
      </trkpt>
      <trkpt lat="43.45653" lon="5.33949">
        <ele>235</ele>
        <time>2021-01-19T15:32:27Z</time>
      </trkpt>
      <trkpt lat="43.4565" lon="5.33951">
        <ele>236</ele>
        <time>2021-01-19T15:32:30Z</time>
      </trkpt>
      <trkpt lat="43.45649" lon="5.33952">
        <ele>237</ele>
        <time>2021-01-19T15:32:32Z</time>
      </trkpt>
      <trkpt lat="43.45646" lon="5.33954">
        <ele>237</ele>
        <time>2021-01-19T15:32:35Z</time>
      </trkpt>
      <trkpt lat="43.45645" lon="5.33955">
        <ele>238</ele>
        <time>2021-01-19T15:32:37Z</time>
      </trkpt>
      <trkpt lat="43.45643" lon="5.33957">
        <ele>239</ele>
        <time>2021-01-19T15:32:39Z</time>
      </trkpt>
      <trkpt lat="43.45641" lon="5.3396">
        <ele>238</ele>
        <time>2021-01-19T15:32:42Z</time>
      </trkpt>
      <trkpt lat="43.45639" lon="5.33963">
        <ele>238</ele>
        <time>2021-01-19T15:32:45Z</time>
      </trkpt>
      <trkpt lat="43.45636" lon="5.33965">
        <ele>238</ele>
        <time>2021-01-19T15:32:48Z</time>
      </trkpt>
      <trkpt lat="43.45635" lon="5.33967">
        <ele>238</ele>
        <time>2021-01-19T15:32:50Z</time>
      </trkpt>
      <trkpt lat="43.45632" lon="5.33969">
        <ele>238</ele>
        <time>2021-01-19T15:32:53Z</time>
      </trkpt>
      <trkpt lat="43.4563" lon="5.3397">
        <ele>237</ele>
        <time>2021-01-19T15:32:55Z</time>
      </trkpt>
      <trkpt lat="43.45628" lon="5.33971">
        <ele>238</ele>
        <time>2021-01-19T15:32:57Z</time>
      </trkpt>
      <trkpt lat="43.45625" lon="5.33973">
        <ele>238</ele>
        <time>2021-01-19T15:33:00Z</time>
      </trkpt>
      <trkpt lat="43.45622" lon="5.33975">
        <ele>238</ele>
        <time>2021-01-19T15:33:03Z</time>
      </trkpt>
      <trkpt lat="43.4562" lon="5.33977">
        <ele>238</ele>
        <time>2021-01-19T15:33:06Z</time>
      </trkpt>
      <trkpt lat="43.45617" lon="5.33979">
        <ele>238</ele>
        <time>2021-01-19T15:33:09Z</time>
      </trkpt>
      <trkpt lat="43.45614" lon="5.3398">
        <ele>238</ele>
        <time>2021-01-19T15:33:12Z</time>
      </trkpt>
      <trkpt lat="43.45612" lon="5.33982">
        <ele>239</ele>
        <time>2021-01-19T15:33:15Z</time>
      </trkpt>
      <trkpt lat="43.4561" lon="5.33983">
        <ele>239</ele>
        <time>2021-01-19T15:33:17Z</time>
      </trkpt>
      <trkpt lat="43.45608" lon="5.33984">
        <ele>239</ele>
        <time>2021-01-19T15:33:20Z</time>
      </trkpt>
      <trkpt lat="43.45607" lon="5.33985">
        <ele>239</ele>
        <time>2021-01-19T15:33:22Z</time>
      </trkpt>
      <trkpt lat="43.45605" lon="5.33986">
        <ele>240</ele>
        <time>2021-01-19T15:33:24Z</time>
      </trkpt>
      <trkpt lat="43.45603" lon="5.33987">
        <ele>239</ele>
        <time>2021-01-19T15:33:27Z</time>
      </trkpt>
      <trkpt lat="43.456" lon="5.33989">
        <ele>239</ele>
        <time>2021-01-19T15:33:30Z</time>
      </trkpt>
      <trkpt lat="43.45598" lon="5.33991">
        <ele>239</ele>
        <time>2021-01-19T15:33:33Z</time>
      </trkpt>
      <trkpt lat="43.45597" lon="5.33991">
        <ele>240</ele>
        <time>2021-01-19T15:33:36Z</time>
      </trkpt>
      <trkpt lat="43.45596" lon="5.33991">
        <ele>240</ele>
        <time>2021-01-19T15:33:39Z</time>
      </trkpt>
      <trkpt lat="43.45595" lon="5.33991">
        <ele>240</ele>
        <time>2021-01-19T15:33:41Z</time>
      </trkpt>
      <trkpt lat="43.45595" lon="5.33991">
        <ele>240</ele>
        <time>2021-01-19T15:33:43Z</time>
      </trkpt>
      <trkpt lat="43.45595" lon="5.33991">
        <ele>240</ele>
        <time>2021-01-19T15:33:46Z</time>
      </trkpt>
      <trkpt lat="43.45595" lon="5.33991">
        <ele>239</ele>
        <time>2021-01-19T15:33:49Z</time>
      </trkpt>
      <trkpt lat="43.45595" lon="5.33992">
        <ele>239</ele>
        <time>2021-01-19T15:33:51Z</time>
      </trkpt>
      <trkpt lat="43.45595" lon="5.33992">
        <ele>239</ele>
        <time>2021-01-19T15:33:54Z</time>
      </trkpt>
      <trkpt lat="43.45595" lon="5.33992">
        <ele>239</ele>
        <time>2021-01-19T15:33:56Z</time>
      </trkpt>
      <trkpt lat="43.45595" lon="5.33992">
        <ele>239</ele>
        <time>2021-01-19T15:33:59Z</time>
      </trkpt>
      <trkpt lat="43.45595" lon="5.33992">
        <ele>239</ele>
        <time>2021-01-19T15:34:01Z</time>
      </trkpt>
      <trkpt lat="43.45595" lon="5.33992">
        <ele>239</ele>
        <time>2021-01-19T15:34:04Z</time>
      </trkpt>
      <trkpt lat="43.45595" lon="5.33992">
        <ele>239</ele>
        <time>2021-01-19T15:34:07Z</time>
      </trkpt>
      <trkpt lat="43.45594" lon="5.33993">
        <ele>239</ele>
        <time>2021-01-19T15:34:09Z</time>
      </trkpt>
      <trkpt lat="43.45594" lon="5.33993">
        <ele>239</ele>
        <time>2021-01-19T15:34:11Z</time>
      </trkpt>
      <trkpt lat="43.45594" lon="5.33993">
        <ele>239</ele>
        <time>2021-01-19T15:34:14Z</time>
      </trkpt>
      <trkpt lat="43.45594" lon="5.33993">
        <ele>239</ele>
        <time>2021-01-19T15:34:16Z</time>
      </trkpt>
      <trkpt lat="43.45594" lon="5.33993">
        <ele>239</ele>
        <time>2021-01-19T15:34:18Z</time>
      </trkpt>
      <trkpt lat="43.45593" lon="5.33993">
        <ele>239</ele>
        <time>2021-01-19T15:34:21Z</time>
      </trkpt>
      <trkpt lat="43.45592" lon="5.33993">
        <ele>240</ele>
        <time>2021-01-19T15:34:23Z</time>
      </trkpt>
      <trkpt lat="43.45592" lon="5.33994">
        <ele>240</ele>
        <time>2021-01-19T15:34:26Z</time>
      </trkpt>
      <trkpt lat="43.45592" lon="5.33994">
        <ele>240</ele>
        <time>2021-01-19T15:34:28Z</time>
      </trkpt>
      <trkpt lat="43.45592" lon="5.33994">
        <ele>240</ele>
        <time>2021-01-19T15:34:30Z</time>
      </trkpt>
      <trkpt lat="43.45592" lon="5.33994">
        <ele>240</ele>
        <time>2021-01-19T15:34:33Z</time>
      </trkpt>
      <trkpt lat="43.45592" lon="5.33994">
        <ele>240</ele>
        <time>2021-01-19T15:34:35Z</time>
      </trkpt>
      <trkpt lat="43.45592" lon="5.33994">
        <ele>240</ele>
        <time>2021-01-19T15:34:38Z</time>
      </trkpt>
      <trkpt lat="43.45592" lon="5.33994">
        <ele>240</ele>
        <time>2021-01-19T15:34:41Z</time>
      </trkpt>
      <trkpt lat="43.45592" lon="5.33994">
        <ele>240</ele>
        <time>2021-01-19T15:34:43Z</time>
      </trkpt>
      <trkpt lat="43.45592" lon="5.33994">
        <ele>240</ele>
        <time>2021-01-19T15:34:46Z</time>
      </trkpt>
      <trkpt lat="43.45592" lon="5.33994">
        <ele>240</ele>
        <time>2021-01-19T15:34:49Z</time>
      </trkpt>
      <trkpt lat="43.45591" lon="5.33995">
        <ele>240</ele>
        <time>2021-01-19T15:34:52Z</time>
      </trkpt>
      <trkpt lat="43.4559" lon="5.33996">
        <ele>240</ele>
        <time>2021-01-19T15:34:54Z</time>
      </trkpt>
      <trkpt lat="43.45589" lon="5.33996">
        <ele>239</ele>
        <time>2021-01-19T15:34:57Z</time>
      </trkpt>
      <trkpt lat="43.45587" lon="5.33997">
        <ele>239</ele>
        <time>2021-01-19T15:34:59Z</time>
      </trkpt>
      <trkpt lat="43.45585" lon="5.33999">
        <ele>239</ele>
        <time>2021-01-19T15:35:02Z</time>
      </trkpt>
      <trkpt lat="43.45583" lon="5.34">
        <ele>239</ele>
        <time>2021-01-19T15:35:04Z</time>
      </trkpt>
      <trkpt lat="43.4558" lon="5.34002">
        <ele>239</ele>
        <time>2021-01-19T15:35:07Z</time>
      </trkpt>
      <trkpt lat="43.45578" lon="5.34004">
        <ele>239</ele>
        <time>2021-01-19T15:35:10Z</time>
      </trkpt>
      <trkpt lat="43.45577" lon="5.34005">
        <ele>239</ele>
        <time>2021-01-19T15:35:12Z</time>
      </trkpt>
      <trkpt lat="43.45576" lon="5.34006">
        <ele>239</ele>
        <time>2021-01-19T15:35:14Z</time>
      </trkpt>
      <trkpt lat="43.45574" lon="5.34007">
        <ele>240</ele>
        <time>2021-01-19T15:35:17Z</time>
      </trkpt>
      <trkpt lat="43.45572" lon="5.34007">
        <ele>240</ele>
        <time>2021-01-19T15:35:19Z</time>
      </trkpt>
      <trkpt lat="43.4557" lon="5.34009">
        <ele>240</ele>
        <time>2021-01-19T15:35:21Z</time>
      </trkpt>
      <trkpt lat="43.45569" lon="5.34011">
        <ele>240</ele>
        <time>2021-01-19T15:35:23Z</time>
      </trkpt>
      <trkpt lat="43.45566" lon="5.34013">
        <ele>240</ele>
        <time>2021-01-19T15:35:26Z</time>
      </trkpt>
      <trkpt lat="43.45563" lon="5.34014">
        <ele>240</ele>
        <time>2021-01-19T15:35:29Z</time>
      </trkpt>
      <trkpt lat="43.45561" lon="5.34016">
        <ele>239</ele>
        <time>2021-01-19T15:35:31Z</time>
      </trkpt>
      <trkpt lat="43.45559" lon="5.34018">
        <ele>239</ele>
        <time>2021-01-19T15:35:34Z</time>
      </trkpt>
      <trkpt lat="43.45557" lon="5.34019">
        <ele>239</ele>
        <time>2021-01-19T15:35:36Z</time>
      </trkpt>
      <trkpt lat="43.45555" lon="5.34021">
        <ele>240</ele>
        <time>2021-01-19T15:35:39Z</time>
      </trkpt>
      <trkpt lat="43.45553" lon="5.34023">
        <ele>241</ele>
        <time>2021-01-19T15:35:42Z</time>
      </trkpt>
      <trkpt lat="43.45552" lon="5.34024">
        <ele>240</ele>
        <time>2021-01-19T15:35:44Z</time>
      </trkpt>
      <trkpt lat="43.4555" lon="5.34025">
        <ele>239</ele>
        <time>2021-01-19T15:35:47Z</time>
      </trkpt>
      <trkpt lat="43.45547" lon="5.34026">
        <ele>238</ele>
        <time>2021-01-19T15:35:50Z</time>
      </trkpt>
      <trkpt lat="43.45546" lon="5.34026">
        <ele>238</ele>
        <time>2021-01-19T15:35:52Z</time>
      </trkpt>
      <trkpt lat="43.45543" lon="5.34028">
        <ele>238</ele>
        <time>2021-01-19T15:35:55Z</time>
      </trkpt>
      <trkpt lat="43.45541" lon="5.34029">
        <ele>238</ele>
        <time>2021-01-19T15:35:58Z</time>
      </trkpt>
      <trkpt lat="43.45539" lon="5.34031">
        <ele>239</ele>
        <time>2021-01-19T15:36:01Z</time>
      </trkpt>
      <trkpt lat="43.45537" lon="5.34031">
        <ele>240</ele>
        <time>2021-01-19T15:36:03Z</time>
      </trkpt>
      <trkpt lat="43.45534" lon="5.34032">
        <ele>240</ele>
        <time>2021-01-19T15:36:05Z</time>
      </trkpt>
      <trkpt lat="43.45531" lon="5.34032">
        <ele>241</ele>
        <time>2021-01-19T15:36:08Z</time>
      </trkpt>
      <trkpt lat="43.45529" lon="5.34033">
        <ele>240</ele>
        <time>2021-01-19T15:36:10Z</time>
      </trkpt>
      <trkpt lat="43.45527" lon="5.34034">
        <ele>241</ele>
        <time>2021-01-19T15:36:12Z</time>
      </trkpt>
      <trkpt lat="43.45525" lon="5.34035">
        <ele>241</ele>
        <time>2021-01-19T15:36:14Z</time>
      </trkpt>
      <trkpt lat="43.45523" lon="5.34036">
        <ele>240</ele>
        <time>2021-01-19T15:36:17Z</time>
      </trkpt>
      <trkpt lat="43.45521" lon="5.34037">
        <ele>239</ele>
        <time>2021-01-19T15:36:19Z</time>
      </trkpt>
      <trkpt lat="43.45518" lon="5.34038">
        <ele>239</ele>
        <time>2021-01-19T15:36:22Z</time>
      </trkpt>
      <trkpt lat="43.45515" lon="5.3404">
        <ele>239</ele>
        <time>2021-01-19T15:36:25Z</time>
      </trkpt>
      <trkpt lat="43.45512" lon="5.34041">
        <ele>239</ele>
        <time>2021-01-19T15:36:28Z</time>
      </trkpt>
      <trkpt lat="43.45509" lon="5.34042">
        <ele>239</ele>
        <time>2021-01-19T15:36:31Z</time>
      </trkpt>
      <trkpt lat="43.45508" lon="5.34044">
        <ele>239</ele>
        <time>2021-01-19T15:36:33Z</time>
      </trkpt>
      <trkpt lat="43.45505" lon="5.34047">
        <ele>239</ele>
        <time>2021-01-19T15:36:36Z</time>
      </trkpt>
      <trkpt lat="43.45503" lon="5.34048">
        <ele>240</ele>
        <time>2021-01-19T15:36:38Z</time>
      </trkpt>
      <trkpt lat="43.45501" lon="5.3405">
        <ele>239</ele>
        <time>2021-01-19T15:36:41Z</time>
      </trkpt>
      <trkpt lat="43.45499" lon="5.34052">
        <ele>239</ele>
        <time>2021-01-19T15:36:43Z</time>
      </trkpt>
      <trkpt lat="43.45497" lon="5.34053">
        <ele>239</ele>
        <time>2021-01-19T15:36:45Z</time>
      </trkpt>
      <trkpt lat="43.45495" lon="5.34055">
        <ele>239</ele>
        <time>2021-01-19T15:36:47Z</time>
      </trkpt>
      <trkpt lat="43.45493" lon="5.34057">
        <ele>240</ele>
        <time>2021-01-19T15:36:50Z</time>
      </trkpt>
      <trkpt lat="43.45491" lon="5.34058">
        <ele>241</ele>
        <time>2021-01-19T15:36:52Z</time>
      </trkpt>
      <trkpt lat="43.45488" lon="5.3406">
        <ele>241</ele>
        <time>2021-01-19T15:36:55Z</time>
      </trkpt>
      <trkpt lat="43.45486" lon="5.34061">
        <ele>240</ele>
        <time>2021-01-19T15:36:57Z</time>
      </trkpt>
      <trkpt lat="43.45484" lon="5.34063">
        <ele>240</ele>
        <time>2021-01-19T15:36:59Z</time>
      </trkpt>
      <trkpt lat="43.45483" lon="5.34064">
        <ele>240</ele>
        <time>2021-01-19T15:37:01Z</time>
      </trkpt>
      <trkpt lat="43.4548" lon="5.34066">
        <ele>240</ele>
        <time>2021-01-19T15:37:04Z</time>
      </trkpt>
      <trkpt lat="43.45477" lon="5.34067">
        <ele>240</ele>
        <time>2021-01-19T15:37:07Z</time>
      </trkpt>
      <trkpt lat="43.45473" lon="5.34069">
        <ele>241</ele>
        <time>2021-01-19T15:37:10Z</time>
      </trkpt>
      <trkpt lat="43.45472" lon="5.34071">
        <ele>241</ele>
        <time>2021-01-19T15:37:13Z</time>
      </trkpt>
      <trkpt lat="43.4547" lon="5.34073">
        <ele>241</ele>
        <time>2021-01-19T15:37:16Z</time>
      </trkpt>
      <trkpt lat="43.45468" lon="5.34076">
        <ele>242</ele>
        <time>2021-01-19T15:37:19Z</time>
      </trkpt>
      <trkpt lat="43.45465" lon="5.34077">
        <ele>241</ele>
        <time>2021-01-19T15:37:22Z</time>
      </trkpt>
      <trkpt lat="43.45464" lon="5.34078">
        <ele>241</ele>
        <time>2021-01-19T15:37:24Z</time>
      </trkpt>
      <trkpt lat="43.45462" lon="5.34079">
        <ele>241</ele>
        <time>2021-01-19T15:37:26Z</time>
      </trkpt>
      <trkpt lat="43.45459" lon="5.34081">
        <ele>241</ele>
        <time>2021-01-19T15:37:29Z</time>
      </trkpt>
      <trkpt lat="43.45457" lon="5.34082">
        <ele>242</ele>
        <time>2021-01-19T15:37:31Z</time>
      </trkpt>
      <trkpt lat="43.45454" lon="5.34085">
        <ele>241</ele>
        <time>2021-01-19T15:37:34Z</time>
      </trkpt>
      <trkpt lat="43.45451" lon="5.34087">
        <ele>241</ele>
        <time>2021-01-19T15:37:37Z</time>
      </trkpt>
      <trkpt lat="43.45449" lon="5.34088">
        <ele>241</ele>
        <time>2021-01-19T15:37:39Z</time>
      </trkpt>
      <trkpt lat="43.45448" lon="5.34089">
        <ele>241</ele>
        <time>2021-01-19T15:37:41Z</time>
      </trkpt>
      <trkpt lat="43.45446" lon="5.34091">
        <ele>241</ele>
        <time>2021-01-19T15:37:44Z</time>
      </trkpt>
      <trkpt lat="43.45445" lon="5.34091">
        <ele>242</ele>
        <time>2021-01-19T15:37:47Z</time>
      </trkpt>
      <trkpt lat="43.45443" lon="5.34093">
        <ele>242</ele>
        <time>2021-01-19T15:37:49Z</time>
      </trkpt>
      <trkpt lat="43.45441" lon="5.34096">
        <ele>241</ele>
        <time>2021-01-19T15:37:52Z</time>
      </trkpt>
      <trkpt lat="43.4544" lon="5.341">
        <ele>241</ele>
        <time>2021-01-19T15:37:55Z</time>
      </trkpt>
      <trkpt lat="43.45438" lon="5.34102">
        <ele>241</ele>
        <time>2021-01-19T15:37:57Z</time>
      </trkpt>
      <trkpt lat="43.45436" lon="5.34104">
        <ele>241</ele>
        <time>2021-01-19T15:38:00Z</time>
      </trkpt>
      <trkpt lat="43.45434" lon="5.34105">
        <ele>241</ele>
        <time>2021-01-19T15:38:02Z</time>
      </trkpt>
      <trkpt lat="43.45432" lon="5.34106">
        <ele>241</ele>
        <time>2021-01-19T15:38:04Z</time>
      </trkpt>
      <trkpt lat="43.45429" lon="5.34107">
        <ele>241</ele>
        <time>2021-01-19T15:38:07Z</time>
      </trkpt>
      <trkpt lat="43.45427" lon="5.34108">
        <ele>240</ele>
        <time>2021-01-19T15:38:09Z</time>
      </trkpt>
      <trkpt lat="43.45425" lon="5.34109">
        <ele>240</ele>
        <time>2021-01-19T15:38:12Z</time>
      </trkpt>
      <trkpt lat="43.45424" lon="5.3411">
        <ele>241</ele>
        <time>2021-01-19T15:38:14Z</time>
      </trkpt>
      <trkpt lat="43.45422" lon="5.34112">
        <ele>241</ele>
        <time>2021-01-19T15:38:17Z</time>
      </trkpt>
      <trkpt lat="43.4542" lon="5.34113">
        <ele>241</ele>
        <time>2021-01-19T15:38:19Z</time>
      </trkpt>
      <trkpt lat="43.45418" lon="5.34115">
        <ele>241</ele>
        <time>2021-01-19T15:38:22Z</time>
      </trkpt>
      <trkpt lat="43.45417" lon="5.34117">
        <ele>240</ele>
        <time>2021-01-19T15:38:24Z</time>
      </trkpt>
      <trkpt lat="43.45414" lon="5.34119">
        <ele>240</ele>
        <time>2021-01-19T15:38:27Z</time>
      </trkpt>
      <trkpt lat="43.45412" lon="5.34121">
        <ele>240</ele>
        <time>2021-01-19T15:38:30Z</time>
      </trkpt>
      <trkpt lat="43.45411" lon="5.34122">
        <ele>240</ele>
        <time>2021-01-19T15:38:33Z</time>
      </trkpt>
      <trkpt lat="43.45409" lon="5.34123">
        <ele>239</ele>
        <time>2021-01-19T15:38:35Z</time>
      </trkpt>
      <trkpt lat="43.45406" lon="5.34126">
        <ele>239</ele>
        <time>2021-01-19T15:38:38Z</time>
      </trkpt>
      <trkpt lat="43.45404" lon="5.34127">
        <ele>239</ele>
        <time>2021-01-19T15:38:40Z</time>
      </trkpt>
      <trkpt lat="43.454" lon="5.34129">
        <ele>240</ele>
        <time>2021-01-19T15:38:43Z</time>
      </trkpt>
      <trkpt lat="43.45399" lon="5.3413">
        <ele>241</ele>
        <time>2021-01-19T15:38:45Z</time>
      </trkpt>
      <trkpt lat="43.45396" lon="5.34132">
        <ele>241</ele>
        <time>2021-01-19T15:38:48Z</time>
      </trkpt>
      <trkpt lat="43.45395" lon="5.34133">
        <ele>242</ele>
        <time>2021-01-19T15:38:50Z</time>
      </trkpt>
      <trkpt lat="43.45393" lon="5.34135">
        <ele>241</ele>
        <time>2021-01-19T15:38:52Z</time>
      </trkpt>
      <trkpt lat="43.45391" lon="5.34136">
        <ele>241</ele>
        <time>2021-01-19T15:38:54Z</time>
      </trkpt>
      <trkpt lat="43.45388" lon="5.34139">
        <ele>241</ele>
        <time>2021-01-19T15:38:57Z</time>
      </trkpt>
      <trkpt lat="43.45387" lon="5.34141">
        <ele>240</ele>
        <time>2021-01-19T15:38:59Z</time>
      </trkpt>
      <trkpt lat="43.45384" lon="5.34143">
        <ele>241</ele>
        <time>2021-01-19T15:39:02Z</time>
      </trkpt>
      <trkpt lat="43.45383" lon="5.34144">
        <ele>241</ele>
        <time>2021-01-19T15:39:04Z</time>
      </trkpt>
      <trkpt lat="43.45381" lon="5.34146">
        <ele>240</ele>
        <time>2021-01-19T15:39:06Z</time>
      </trkpt>
      <trkpt lat="43.45379" lon="5.34147">
        <ele>240</ele>
        <time>2021-01-19T15:39:09Z</time>
      </trkpt>
      <trkpt lat="43.45377" lon="5.34149">
        <ele>240</ele>
        <time>2021-01-19T15:39:12Z</time>
      </trkpt>
      <trkpt lat="43.45375" lon="5.3415">
        <ele>240</ele>
        <time>2021-01-19T15:39:14Z</time>
      </trkpt>
      <trkpt lat="43.45373" lon="5.34151">
        <ele>240</ele>
        <time>2021-01-19T15:39:16Z</time>
      </trkpt>
      <trkpt lat="43.45371" lon="5.34152">
        <ele>241</ele>
        <time>2021-01-19T15:39:18Z</time>
      </trkpt>
      <trkpt lat="43.45369" lon="5.34154">
        <ele>241</ele>
        <time>2021-01-19T15:39:21Z</time>
      </trkpt>
      <trkpt lat="43.45367" lon="5.34156">
        <ele>241</ele>
        <time>2021-01-19T15:39:24Z</time>
      </trkpt>
      <trkpt lat="43.45364" lon="5.34158">
        <ele>241</ele>
        <time>2021-01-19T15:39:27Z</time>
      </trkpt>
      <trkpt lat="43.45361" lon="5.3416">
        <ele>241</ele>
        <time>2021-01-19T15:39:30Z</time>
      </trkpt>
      <trkpt lat="43.45359" lon="5.34161">
        <ele>241</ele>
        <time>2021-01-19T15:39:32Z</time>
      </trkpt>
      <trkpt lat="43.45357" lon="5.34162">
        <ele>242</ele>
        <time>2021-01-19T15:39:34Z</time>
      </trkpt>
      <trkpt lat="43.45355" lon="5.34163">
        <ele>243</ele>
        <time>2021-01-19T15:39:36Z</time>
      </trkpt>
      <trkpt lat="43.45352" lon="5.34165">
        <ele>243</ele>
        <time>2021-01-19T15:39:39Z</time>
      </trkpt>
      <trkpt lat="43.4535" lon="5.34166">
        <ele>243</ele>
        <time>2021-01-19T15:39:41Z</time>
      </trkpt>
      <trkpt lat="43.45348" lon="5.34168">
        <ele>243</ele>
        <time>2021-01-19T15:39:44Z</time>
      </trkpt>
      <trkpt lat="43.45347" lon="5.34169">
        <ele>243</ele>
        <time>2021-01-19T15:39:46Z</time>
      </trkpt>
      <trkpt lat="43.45345" lon="5.3417">
        <ele>242</ele>
        <time>2021-01-19T15:39:48Z</time>
      </trkpt>
      <trkpt lat="43.45343" lon="5.34172">
        <ele>242</ele>
        <time>2021-01-19T15:39:50Z</time>
      </trkpt>
      <trkpt lat="43.45341" lon="5.34174">
        <ele>242</ele>
        <time>2021-01-19T15:39:53Z</time>
      </trkpt>
      <trkpt lat="43.45338" lon="5.34176">
        <ele>242</ele>
        <time>2021-01-19T15:39:56Z</time>
      </trkpt>
      <trkpt lat="43.45336" lon="5.34179">
        <ele>242</ele>
        <time>2021-01-19T15:39:59Z</time>
      </trkpt>
      <trkpt lat="43.45333" lon="5.3418">
        <ele>242</ele>
        <time>2021-01-19T15:40:02Z</time>
      </trkpt>
      <trkpt lat="43.45331" lon="5.3418">
        <ele>242</ele>
        <time>2021-01-19T15:40:04Z</time>
      </trkpt>
      <trkpt lat="43.45329" lon="5.3418">
        <ele>242</ele>
        <time>2021-01-19T15:40:06Z</time>
      </trkpt>
      <trkpt lat="43.45327" lon="5.3418">
        <ele>242</ele>
        <time>2021-01-19T15:40:09Z</time>
      </trkpt>
      <trkpt lat="43.45324" lon="5.34181">
        <ele>242</ele>
        <time>2021-01-19T15:40:12Z</time>
      </trkpt>
      <trkpt lat="43.45322" lon="5.34182">
        <ele>242</ele>
        <time>2021-01-19T15:40:14Z</time>
      </trkpt>
      <trkpt lat="43.4532" lon="5.34183">
        <ele>243</ele>
        <time>2021-01-19T15:40:17Z</time>
      </trkpt>
      <trkpt lat="43.45318" lon="5.34184">
        <ele>243</ele>
        <time>2021-01-19T15:40:19Z</time>
      </trkpt>
      <trkpt lat="43.45317" lon="5.34185">
        <ele>244</ele>
        <time>2021-01-19T15:40:22Z</time>
      </trkpt>
      <trkpt lat="43.45316" lon="5.34185">
        <ele>244</ele>
        <time>2021-01-19T15:40:24Z</time>
      </trkpt>
      <trkpt lat="43.45316" lon="5.34185">
        <ele>244</ele>
        <time>2021-01-19T15:40:26Z</time>
      </trkpt>
      <trkpt lat="43.45316" lon="5.34185">
        <ele>244</ele>
        <time>2021-01-19T15:40:29Z</time>
      </trkpt>
      <trkpt lat="43.45316" lon="5.34185">
        <ele>244</ele>
        <time>2021-01-19T15:40:32Z</time>
      </trkpt>
      <trkpt lat="43.45316" lon="5.34185">
        <ele>245</ele>
        <time>2021-01-19T15:40:35Z</time>
      </trkpt>
      <trkpt lat="43.45316" lon="5.34186">
        <ele>245</ele>
        <time>2021-01-19T15:40:37Z</time>
      </trkpt>
      <trkpt lat="43.45316" lon="5.34186">
        <ele>245</ele>
        <time>2021-01-19T15:40:40Z</time>
      </trkpt>
      <trkpt lat="43.45316" lon="5.34186">
        <ele>245</ele>
        <time>2021-01-19T15:40:42Z</time>
      </trkpt>
      <trkpt lat="43.45316" lon="5.34186">
        <ele>245</ele>
        <time>2021-01-19T15:40:45Z</time>
      </trkpt>
      <trkpt lat="43.45316" lon="5.34186">
        <ele>245</ele>
        <time>2021-01-19T15:40:48Z</time>
      </trkpt>
      <trkpt lat="43.45316" lon="5.34186">
        <ele>245</ele>
        <time>2021-01-19T15:40:51Z</time>
      </trkpt>
      <trkpt lat="43.45316" lon="5.34186">
        <ele>245</ele>
        <time>2021-01-19T15:40:53Z</time>
      </trkpt>
      <trkpt lat="43.45316" lon="5.34186">
        <ele>245</ele>
        <time>2021-01-19T15:40:56Z</time>
      </trkpt>
      <trkpt lat="43.45316" lon="5.34186">
        <ele>245</ele>
        <time>2021-01-19T15:40:58Z</time>
      </trkpt>
      <trkpt lat="43.45316" lon="5.34186">
        <ele>245</ele>
        <time>2021-01-19T15:41:00Z</time>
      </trkpt>
      <trkpt lat="43.45316" lon="5.34186">
        <ele>245</ele>
        <time>2021-01-19T15:41:03Z</time>
      </trkpt>
      <trkpt lat="43.45316" lon="5.34186">
        <ele>245</ele>
        <time>2021-01-19T15:41:06Z</time>
      </trkpt>
      <trkpt lat="43.45316" lon="5.34186">
        <ele>245</ele>
        <time>2021-01-19T15:41:09Z</time>
      </trkpt>
      <trkpt lat="43.45316" lon="5.34186">
        <ele>245</ele>
        <time>2021-01-19T15:41:11Z</time>
      </trkpt>
      <trkpt lat="43.45316" lon="5.34186">
        <ele>245</ele>
        <time>2021-01-19T15:41:14Z</time>
      </trkpt>
      <trkpt lat="43.45316" lon="5.34186">
        <ele>245</ele>
        <time>2021-01-19T15:41:16Z</time>
      </trkpt>
      <trkpt lat="43.45316" lon="5.34186">
        <ele>245</ele>
        <time>2021-01-19T15:41:19Z</time>
      </trkpt>
      <trkpt lat="43.45315" lon="5.34186">
        <ele>246</ele>
        <time>2021-01-19T15:41:21Z</time>
      </trkpt>
      <trkpt lat="43.45313" lon="5.34186">
        <ele>245</ele>
        <time>2021-01-19T15:41:24Z</time>
      </trkpt>
      <trkpt lat="43.45312" lon="5.34187">
        <ele>245</ele>
        <time>2021-01-19T15:41:26Z</time>
      </trkpt>
      <trkpt lat="43.4531" lon="5.34188">
        <ele>245</ele>
        <time>2021-01-19T15:41:28Z</time>
      </trkpt>
      <trkpt lat="43.45307" lon="5.34189">
        <ele>244</ele>
        <time>2021-01-19T15:41:30Z</time>
      </trkpt>
      <trkpt lat="43.45305" lon="5.34189">
        <ele>245</ele>
        <time>2021-01-19T15:41:32Z</time>
      </trkpt>
      <trkpt lat="43.45303" lon="5.34189">
        <ele>244</ele>
        <time>2021-01-19T15:41:35Z</time>
      </trkpt>
      <trkpt lat="43.45301" lon="5.3419">
        <ele>245</ele>
        <time>2021-01-19T15:41:37Z</time>
      </trkpt>
      <trkpt lat="43.45299" lon="5.34191">
        <ele>244</ele>
        <time>2021-01-19T15:41:39Z</time>
      </trkpt>
      <trkpt lat="43.45296" lon="5.34192">
        <ele>245</ele>
        <time>2021-01-19T15:41:42Z</time>
      </trkpt>
      <trkpt lat="43.45294" lon="5.34193">
        <ele>245</ele>
        <time>2021-01-19T15:41:44Z</time>
      </trkpt>
      <trkpt lat="43.45292" lon="5.34194">
        <ele>245</ele>
        <time>2021-01-19T15:41:47Z</time>
      </trkpt>
      <trkpt lat="43.4529" lon="5.34195">
        <ele>245</ele>
        <time>2021-01-19T15:41:49Z</time>
      </trkpt>
      <trkpt lat="43.45287" lon="5.34197">
        <ele>246</ele>
        <time>2021-01-19T15:41:52Z</time>
      </trkpt>
      <trkpt lat="43.45284" lon="5.34199">
        <ele>246</ele>
        <time>2021-01-19T15:41:55Z</time>
      </trkpt>
      <trkpt lat="43.45281" lon="5.34201">
        <ele>245</ele>
        <time>2021-01-19T15:41:58Z</time>
      </trkpt>
      <trkpt lat="43.45279" lon="5.34202">
        <ele>245</ele>
        <time>2021-01-19T15:42:00Z</time>
      </trkpt>
      <trkpt lat="43.45276" lon="5.34203">
        <ele>245</ele>
        <time>2021-01-19T15:42:03Z</time>
      </trkpt>
      <trkpt lat="43.45274" lon="5.34204">
        <ele>245</ele>
        <time>2021-01-19T15:42:05Z</time>
      </trkpt>
      <trkpt lat="43.45273" lon="5.34205">
        <ele>245</ele>
        <time>2021-01-19T15:42:07Z</time>
      </trkpt>
      <trkpt lat="43.4527" lon="5.34207">
        <ele>245</ele>
        <time>2021-01-19T15:42:10Z</time>
      </trkpt>
      <trkpt lat="43.45269" lon="5.34208">
        <ele>245</ele>
        <time>2021-01-19T15:42:12Z</time>
      </trkpt>
      <trkpt lat="43.45265" lon="5.34211">
        <ele>245</ele>
        <time>2021-01-19T15:42:15Z</time>
      </trkpt>
      <trkpt lat="43.45264" lon="5.34212">
        <ele>245</ele>
        <time>2021-01-19T15:42:17Z</time>
      </trkpt>
      <trkpt lat="43.45261" lon="5.34213">
        <ele>244</ele>
        <time>2021-01-19T15:42:20Z</time>
      </trkpt>
      <trkpt lat="43.45259" lon="5.34215">
        <ele>243</ele>
        <time>2021-01-19T15:42:23Z</time>
      </trkpt>
      <trkpt lat="43.45257" lon="5.34216">
        <ele>242</ele>
        <time>2021-01-19T15:42:25Z</time>
      </trkpt>
      <trkpt lat="43.45255" lon="5.34218">
        <ele>241</ele>
        <time>2021-01-19T15:42:27Z</time>
      </trkpt>
      <trkpt lat="43.45254" lon="5.34219">
        <ele>240</ele>
        <time>2021-01-19T15:42:29Z</time>
      </trkpt>
      <trkpt lat="43.45252" lon="5.3422">
        <ele>240</ele>
        <time>2021-01-19T15:42:31Z</time>
      </trkpt>
      <trkpt lat="43.45249" lon="5.34221">
        <ele>241</ele>
        <time>2021-01-19T15:42:34Z</time>
      </trkpt>
      <trkpt lat="43.45246" lon="5.34223">
        <ele>241</ele>
        <time>2021-01-19T15:42:37Z</time>
      </trkpt>
      <trkpt lat="43.45244" lon="5.34224">
        <ele>241</ele>
        <time>2021-01-19T15:42:39Z</time>
      </trkpt>
      <trkpt lat="43.45242" lon="5.34226">
        <ele>241</ele>
        <time>2021-01-19T15:42:42Z</time>
      </trkpt>
      <trkpt lat="43.4524" lon="5.34227">
        <ele>241</ele>
        <time>2021-01-19T15:42:44Z</time>
      </trkpt>
      <trkpt lat="43.45238" lon="5.34228">
        <ele>242</ele>
        <time>2021-01-19T15:42:46Z</time>
      </trkpt>
      <trkpt lat="43.45235" lon="5.3423">
        <ele>242</ele>
        <time>2021-01-19T15:42:49Z</time>
      </trkpt>
      <trkpt lat="43.45233" lon="5.34231">
        <ele>242</ele>
        <time>2021-01-19T15:42:51Z</time>
      </trkpt>
      <trkpt lat="43.45231" lon="5.34233">
        <ele>242</ele>
        <time>2021-01-19T15:42:54Z</time>
      </trkpt>
      <trkpt lat="43.45229" lon="5.34234">
        <ele>242</ele>
        <time>2021-01-19T15:42:56Z</time>
      </trkpt>
      <trkpt lat="43.45226" lon="5.34236">
        <ele>243</ele>
        <time>2021-01-19T15:42:59Z</time>
      </trkpt>
      <trkpt lat="43.45223" lon="5.34239">
        <ele>243</ele>
        <time>2021-01-19T15:43:02Z</time>
      </trkpt>
      <trkpt lat="43.45221" lon="5.34242">
        <ele>242</ele>
        <time>2021-01-19T15:43:05Z</time>
      </trkpt>
      <trkpt lat="43.45219" lon="5.34244">
        <ele>242</ele>
        <time>2021-01-19T15:43:08Z</time>
      </trkpt>
      <trkpt lat="43.45217" lon="5.34246">
        <ele>241</ele>
        <time>2021-01-19T15:43:10Z</time>
      </trkpt>
      <trkpt lat="43.45216" lon="5.34247">
        <ele>241</ele>
        <time>2021-01-19T15:43:12Z</time>
      </trkpt>
      <trkpt lat="43.45213" lon="5.34249">
        <ele>241</ele>
        <time>2021-01-19T15:43:15Z</time>
      </trkpt>
      <trkpt lat="43.45211" lon="5.34251">
        <ele>242</ele>
        <time>2021-01-19T15:43:17Z</time>
      </trkpt>
      <trkpt lat="43.45209" lon="5.34253">
        <ele>243</ele>
        <time>2021-01-19T15:43:19Z</time>
      </trkpt>
      <trkpt lat="43.45206" lon="5.34256">
        <ele>243</ele>
        <time>2021-01-19T15:43:22Z</time>
      </trkpt>
      <trkpt lat="43.45203" lon="5.34258">
        <ele>244</ele>
        <time>2021-01-19T15:43:25Z</time>
      </trkpt>
      <trkpt lat="43.45201" lon="5.34259">
        <ele>245</ele>
        <time>2021-01-19T15:43:27Z</time>
      </trkpt>
      <trkpt lat="43.452" lon="5.3426">
        <ele>246</ele>
        <time>2021-01-19T15:43:29Z</time>
      </trkpt>
      <trkpt lat="43.45198" lon="5.34261">
        <ele>246</ele>
        <time>2021-01-19T15:43:31Z</time>
      </trkpt>
      <trkpt lat="43.45196" lon="5.34263">
        <ele>246</ele>
        <time>2021-01-19T15:43:34Z</time>
      </trkpt>
      <trkpt lat="43.45193" lon="5.34265">
        <ele>246</ele>
        <time>2021-01-19T15:43:37Z</time>
      </trkpt>
      <trkpt lat="43.4519" lon="5.34267">
        <ele>245</ele>
        <time>2021-01-19T15:43:40Z</time>
      </trkpt>
      <trkpt lat="43.45188" lon="5.34269">
        <ele>245</ele>
        <time>2021-01-19T15:43:43Z</time>
      </trkpt>
      <trkpt lat="43.45186" lon="5.34271">
        <ele>245</ele>
        <time>2021-01-19T15:43:46Z</time>
      </trkpt>
      <trkpt lat="43.45184" lon="5.34272">
        <ele>246</ele>
        <time>2021-01-19T15:43:48Z</time>
      </trkpt>
      <trkpt lat="43.45181" lon="5.34273">
        <ele>247</ele>
        <time>2021-01-19T15:43:50Z</time>
      </trkpt>
      <trkpt lat="43.45179" lon="5.34275">
        <ele>248</ele>
        <time>2021-01-19T15:43:52Z</time>
      </trkpt>
      <trkpt lat="43.45176" lon="5.34277">
        <ele>248</ele>
        <time>2021-01-19T15:43:55Z</time>
      </trkpt>
      <trkpt lat="43.45174" lon="5.34279">
        <ele>248</ele>
        <time>2021-01-19T15:43:58Z</time>
      </trkpt>
      <trkpt lat="43.45172" lon="5.34281">
        <ele>249</ele>
        <time>2021-01-19T15:44:00Z</time>
      </trkpt>
      <trkpt lat="43.4517" lon="5.34282">
        <ele>248</ele>
        <time>2021-01-19T15:44:02Z</time>
      </trkpt>
      <trkpt lat="43.45168" lon="5.34284">
        <ele>248</ele>
        <time>2021-01-19T15:44:05Z</time>
      </trkpt>
      <trkpt lat="43.45167" lon="5.34285">
        <ele>248</ele>
        <time>2021-01-19T15:44:07Z</time>
      </trkpt>
      <trkpt lat="43.45164" lon="5.34287">
        <ele>248</ele>
        <time>2021-01-19T15:44:10Z</time>
      </trkpt>
      <trkpt lat="43.45162" lon="5.34288">
        <ele>248</ele>
        <time>2021-01-19T15:44:12Z</time>
      </trkpt>
      <trkpt lat="43.45159" lon="5.34289">
        <ele>249</ele>
        <time>2021-01-19T15:44:15Z</time>
      </trkpt>
      <trkpt lat="43.45158" lon="5.3429">
        <ele>248</ele>
        <time>2021-01-19T15:44:17Z</time>
      </trkpt>
      <trkpt lat="43.45156" lon="5.34291">
        <ele>247</ele>
        <time>2021-01-19T15:44:19Z</time>
      </trkpt>
      <trkpt lat="43.45153" lon="5.34293">
        <ele>246</ele>
        <time>2021-01-19T15:44:22Z</time>
      </trkpt>
      <trkpt lat="43.45151" lon="5.34294">
        <ele>248</ele>
        <time>2021-01-19T15:44:25Z</time>
      </trkpt>
      <trkpt lat="43.45149" lon="5.34296">
        <ele>248</ele>
        <time>2021-01-19T15:44:27Z</time>
      </trkpt>
      <trkpt lat="43.45148" lon="5.34297">
        <ele>247</ele>
        <time>2021-01-19T15:44:29Z</time>
      </trkpt>
      <trkpt lat="43.45145" lon="5.34299">
        <ele>246</ele>
        <time>2021-01-19T15:44:32Z</time>
      </trkpt>
      <trkpt lat="43.45143" lon="5.343">
        <ele>245</ele>
        <time>2021-01-19T15:44:34Z</time>
      </trkpt>
      <trkpt lat="43.45139" lon="5.34302">
        <ele>244</ele>
        <time>2021-01-19T15:44:37Z</time>
      </trkpt>
      <trkpt lat="43.45137" lon="5.34303">
        <ele>245</ele>
        <time>2021-01-19T15:44:40Z</time>
      </trkpt>
      <trkpt lat="43.45135" lon="5.34304">
        <ele>244</ele>
        <time>2021-01-19T15:44:42Z</time>
      </trkpt>
      <trkpt lat="43.45133" lon="5.34305">
        <ele>244</ele>
        <time>2021-01-19T15:44:45Z</time>
      </trkpt>
      <trkpt lat="43.45131" lon="5.34305">
        <ele>245</ele>
        <time>2021-01-19T15:44:48Z</time>
      </trkpt>
      <trkpt lat="43.45129" lon="5.34307">
        <ele>245</ele>
        <time>2021-01-19T15:44:50Z</time>
      </trkpt>
      <trkpt lat="43.45128" lon="5.34308">
        <ele>246</ele>
        <time>2021-01-19T15:44:52Z</time>
      </trkpt>
      <trkpt lat="43.45126" lon="5.34309">
        <ele>247</ele>
        <time>2021-01-19T15:44:54Z</time>
      </trkpt>
      <trkpt lat="43.45124" lon="5.34309">
        <ele>247</ele>
        <time>2021-01-19T15:44:56Z</time>
      </trkpt>
      <trkpt lat="43.45121" lon="5.34308">
        <ele>247</ele>
        <time>2021-01-19T15:44:59Z</time>
      </trkpt>
      <trkpt lat="43.4512" lon="5.34309">
        <ele>247</ele>
        <time>2021-01-19T15:45:01Z</time>
      </trkpt>
      <trkpt lat="43.45118" lon="5.3431">
        <ele>246</ele>
        <time>2021-01-19T15:45:03Z</time>
      </trkpt>
      <trkpt lat="43.45117" lon="5.3431">
        <ele>246</ele>
        <time>2021-01-19T15:45:05Z</time>
      </trkpt>
      <trkpt lat="43.45114" lon="5.34312">
        <ele>247</ele>
        <time>2021-01-19T15:45:08Z</time>
      </trkpt>
      <trkpt lat="43.45111" lon="5.34313">
        <ele>247</ele>
        <time>2021-01-19T15:45:11Z</time>
      </trkpt>
      <trkpt lat="43.45109" lon="5.34314">
        <ele>246</ele>
        <time>2021-01-19T15:45:13Z</time>
      </trkpt>
      <trkpt lat="43.45106" lon="5.34314">
        <ele>246</ele>
        <time>2021-01-19T15:45:16Z</time>
      </trkpt>
      <trkpt lat="43.45102" lon="5.34315">
        <ele>246</ele>
        <time>2021-01-19T15:45:19Z</time>
      </trkpt>
      <trkpt lat="43.45099" lon="5.34318">
        <ele>246</ele>
        <time>2021-01-19T15:45:22Z</time>
      </trkpt>
      <trkpt lat="43.45097" lon="5.3432">
        <ele>245</ele>
        <time>2021-01-19T15:45:24Z</time>
      </trkpt>
      <trkpt lat="43.45095" lon="5.34322">
        <ele>245</ele>
        <time>2021-01-19T15:45:27Z</time>
      </trkpt>
      <trkpt lat="43.45092" lon="5.34324">
        <ele>245</ele>
        <time>2021-01-19T15:45:30Z</time>
      </trkpt>
      <trkpt lat="43.45089" lon="5.34325">
        <ele>244</ele>
        <time>2021-01-19T15:45:33Z</time>
      </trkpt>
      <trkpt lat="43.45086" lon="5.34327">
        <ele>244</ele>
        <time>2021-01-19T15:45:36Z</time>
      </trkpt>
      <trkpt lat="43.45083" lon="5.34328">
        <ele>244</ele>
        <time>2021-01-19T15:45:39Z</time>
      </trkpt>
      <trkpt lat="43.45081" lon="5.34329">
        <ele>245</ele>
        <time>2021-01-19T15:45:41Z</time>
      </trkpt>
      <trkpt lat="43.45077" lon="5.3433">
        <ele>245</ele>
        <time>2021-01-19T15:45:44Z</time>
      </trkpt>
      <trkpt lat="43.45076" lon="5.34331">
        <ele>245</ele>
        <time>2021-01-19T15:45:46Z</time>
      </trkpt>
      <trkpt lat="43.45073" lon="5.34332">
        <ele>246</ele>
        <time>2021-01-19T15:45:49Z</time>
      </trkpt>
      <trkpt lat="43.45069" lon="5.34334">
        <ele>246</ele>
        <time>2021-01-19T15:45:52Z</time>
      </trkpt>
      <trkpt lat="43.45067" lon="5.34335">
        <ele>246</ele>
        <time>2021-01-19T15:45:54Z</time>
      </trkpt>
      <trkpt lat="43.45065" lon="5.34334">
        <ele>245</ele>
        <time>2021-01-19T15:45:56Z</time>
      </trkpt>
      <trkpt lat="43.45063" lon="5.34334">
        <ele>246</ele>
        <time>2021-01-19T15:45:59Z</time>
      </trkpt>
      <trkpt lat="43.45063" lon="5.34334">
        <ele>246</ele>
        <time>2021-01-19T15:46:02Z</time>
      </trkpt>
      <trkpt lat="43.45063" lon="5.34334">
        <ele>247</ele>
        <time>2021-01-19T15:46:05Z</time>
      </trkpt>
      <trkpt lat="43.45062" lon="5.34335">
        <ele>247</ele>
        <time>2021-01-19T15:46:07Z</time>
      </trkpt>
      <trkpt lat="43.45061" lon="5.34335">
        <ele>247</ele>
        <time>2021-01-19T15:46:09Z</time>
      </trkpt>
      <trkpt lat="43.4506" lon="5.34337">
        <ele>247</ele>
        <time>2021-01-19T15:46:12Z</time>
      </trkpt>
      <trkpt lat="43.45058" lon="5.34337">
        <ele>246</ele>
        <time>2021-01-19T15:46:14Z</time>
      </trkpt>
      <trkpt lat="43.45056" lon="5.34337">
        <ele>247</ele>
        <time>2021-01-19T15:46:17Z</time>
      </trkpt>
      <trkpt lat="43.45053" lon="5.34337">
        <ele>248</ele>
        <time>2021-01-19T15:46:20Z</time>
      </trkpt>
      <trkpt lat="43.45052" lon="5.34337">
        <ele>248</ele>
        <time>2021-01-19T15:46:22Z</time>
      </trkpt>
      <trkpt lat="43.45051" lon="5.34336">
        <ele>248</ele>
        <time>2021-01-19T15:46:24Z</time>
      </trkpt>
      <trkpt lat="43.45049" lon="5.34336">
        <ele>248</ele>
        <time>2021-01-19T15:46:27Z</time>
      </trkpt>
      <trkpt lat="43.45048" lon="5.34336">
        <ele>249</ele>
        <time>2021-01-19T15:46:29Z</time>
      </trkpt>
      <trkpt lat="43.45048" lon="5.34336">
        <ele>250</ele>
        <time>2021-01-19T15:46:32Z</time>
      </trkpt>
      <trkpt lat="43.45048" lon="5.34336">
        <ele>250</ele>
        <time>2021-01-19T15:46:35Z</time>
      </trkpt>
      <trkpt lat="43.45048" lon="5.34336">
        <ele>250</ele>
        <time>2021-01-19T15:46:37Z</time>
      </trkpt>
      <trkpt lat="43.45048" lon="5.34336">
        <ele>250</ele>
        <time>2021-01-19T15:46:40Z</time>
      </trkpt>
      <trkpt lat="43.45048" lon="5.34336">
        <ele>250</ele>
        <time>2021-01-19T15:46:42Z</time>
      </trkpt>
      <trkpt lat="43.45048" lon="5.34336">
        <ele>250</ele>
        <time>2021-01-19T15:46:44Z</time>
      </trkpt>
      <trkpt lat="43.45048" lon="5.34336">
        <ele>250</ele>
        <time>2021-01-19T15:46:47Z</time>
      </trkpt>
      <trkpt lat="43.45048" lon="5.34336">
        <ele>250</ele>
        <time>2021-01-19T15:46:49Z</time>
      </trkpt>
      <trkpt lat="43.45048" lon="5.34336">
        <ele>250</ele>
        <time>2021-01-19T15:46:51Z</time>
      </trkpt>
      <trkpt lat="43.45049" lon="5.34336">
        <ele>250</ele>
        <time>2021-01-19T15:46:54Z</time>
      </trkpt>
      <trkpt lat="43.45049" lon="5.34336">
        <ele>250</ele>
        <time>2021-01-19T15:46:57Z</time>
      </trkpt>
      <trkpt lat="43.45049" lon="5.34336">
        <ele>250</ele>
        <time>2021-01-19T15:46:59Z</time>
      </trkpt>
      <trkpt lat="43.45049" lon="5.34336">
        <ele>250</ele>
        <time>2021-01-19T15:47:02Z</time>
      </trkpt>
      <trkpt lat="43.45049" lon="5.34336">
        <ele>250</ele>
        <time>2021-01-19T15:47:04Z</time>
      </trkpt>
      <trkpt lat="43.45049" lon="5.34336">
        <ele>250</ele>
        <time>2021-01-19T15:47:07Z</time>
      </trkpt>
      <trkpt lat="43.45049" lon="5.34336">
        <ele>250</ele>
        <time>2021-01-19T15:47:09Z</time>
      </trkpt>
      <trkpt lat="43.45049" lon="5.34336">
        <ele>250</ele>
        <time>2021-01-19T15:47:11Z</time>
      </trkpt>
      <trkpt lat="43.45049" lon="5.34336">
        <ele>250</ele>
        <time>2021-01-19T15:47:14Z</time>
      </trkpt>
      <trkpt lat="43.45049" lon="5.34336">
        <ele>250</ele>
        <time>2021-01-19T15:47:17Z</time>
      </trkpt>
      <trkpt lat="43.45049" lon="5.34336">
        <ele>250</ele>
        <time>2021-01-19T15:47:19Z</time>
      </trkpt>
      <trkpt lat="43.45049" lon="5.34336">
        <ele>250</ele>
        <time>2021-01-19T15:47:22Z</time>
      </trkpt>
      <trkpt lat="43.45049" lon="5.34336">
        <ele>250</ele>
        <time>2021-01-19T15:47:25Z</time>
      </trkpt>
      <trkpt lat="43.45049" lon="5.34336">
        <ele>250</ele>
        <time>2021-01-19T15:47:28Z</time>
      </trkpt>
      <trkpt lat="43.45049" lon="5.34336">
        <ele>250</ele>
        <time>2021-01-19T15:47:30Z</time>
      </trkpt>
      <trkpt lat="43.45049" lon="5.34336">
        <ele>250</ele>
        <time>2021-01-19T15:47:33Z</time>
      </trkpt>
      <trkpt lat="43.45049" lon="5.34336">
        <ele>250</ele>
        <time>2021-01-19T15:47:35Z</time>
      </trkpt>
      <trkpt lat="43.45049" lon="5.34336">
        <ele>250</ele>
        <time>2021-01-19T15:47:37Z</time>
      </trkpt>
      <trkpt lat="43.45049" lon="5.34336">
        <ele>250</ele>
        <time>2021-01-19T15:47:40Z</time>
      </trkpt>
      <trkpt lat="43.45049" lon="5.34336">
        <ele>250</ele>
        <time>2021-01-19T15:47:43Z</time>
      </trkpt>
      <trkpt lat="43.45049" lon="5.34336">
        <ele>250</ele>
        <time>2021-01-19T15:47:45Z</time>
      </trkpt>
      <trkpt lat="43.45049" lon="5.34336">
        <ele>250</ele>
        <time>2021-01-19T15:47:47Z</time>
      </trkpt>
      <trkpt lat="43.45049" lon="5.34336">
        <ele>250</ele>
        <time>2021-01-19T15:47:50Z</time>
      </trkpt>
      <trkpt lat="43.45049" lon="5.34336">
        <ele>250</ele>
        <time>2021-01-19T15:47:53Z</time>
      </trkpt>
      <trkpt lat="43.45049" lon="5.34336">
        <ele>250</ele>
        <time>2021-01-19T15:47:56Z</time>
      </trkpt>
      <trkpt lat="43.45049" lon="5.34336">
        <ele>250</ele>
        <time>2021-01-19T15:47:58Z</time>
      </trkpt>
      <trkpt lat="43.45049" lon="5.34336">
        <ele>250</ele>
        <time>2021-01-19T15:48:01Z</time>
      </trkpt>
      <trkpt lat="43.45049" lon="5.34336">
        <ele>250</ele>
        <time>2021-01-19T15:48:04Z</time>
      </trkpt>
      <trkpt lat="43.45049" lon="5.34336">
        <ele>250</ele>
        <time>2021-01-19T15:48:07Z</time>
      </trkpt>
      <trkpt lat="43.45049" lon="5.34336">
        <ele>250</ele>
        <time>2021-01-19T15:48:09Z</time>
      </trkpt>
      <trkpt lat="43.45049" lon="5.34336">
        <ele>250</ele>
        <time>2021-01-19T15:48:12Z</time>
      </trkpt>
      <trkpt lat="43.45049" lon="5.34336">
        <ele>250</ele>
        <time>2021-01-19T15:48:14Z</time>
      </trkpt>
      <trkpt lat="43.45049" lon="5.34336">
        <ele>250</ele>
        <time>2021-01-19T15:48:17Z</time>
      </trkpt>
      <trkpt lat="43.45049" lon="5.34336">
        <ele>250</ele>
        <time>2021-01-19T15:48:19Z</time>
      </trkpt>
      <trkpt lat="43.45049" lon="5.34336">
        <ele>250</ele>
        <time>2021-01-19T15:48:21Z</time>
      </trkpt>
      <trkpt lat="43.45049" lon="5.34336">
        <ele>250</ele>
        <time>2021-01-19T15:48:23Z</time>
      </trkpt>
      <trkpt lat="43.45049" lon="5.34336">
        <ele>250</ele>
        <time>2021-01-19T15:48:26Z</time>
      </trkpt>
      <trkpt lat="43.45049" lon="5.34336">
        <ele>250</ele>
        <time>2021-01-19T15:48:29Z</time>
      </trkpt>
      <trkpt lat="43.45049" lon="5.34336">
        <ele>250</ele>
        <time>2021-01-19T15:48:31Z</time>
      </trkpt>
      <trkpt lat="43.45049" lon="5.34336">
        <ele>250</ele>
        <time>2021-01-19T15:48:34Z</time>
      </trkpt>
      <trkpt lat="43.45049" lon="5.34336">
        <ele>250</ele>
        <time>2021-01-19T15:48:37Z</time>
      </trkpt>
      <trkpt lat="43.45049" lon="5.34336">
        <ele>250</ele>
        <time>2021-01-19T15:48:40Z</time>
      </trkpt>
      <trkpt lat="43.45049" lon="5.34336">
        <ele>250</ele>
        <time>2021-01-19T15:48:42Z</time>
      </trkpt>
      <trkpt lat="43.45049" lon="5.34336">
        <ele>250</ele>
        <time>2021-01-19T15:48:45Z</time>
      </trkpt>
      <trkpt lat="43.45049" lon="5.34336">
        <ele>250</ele>
        <time>2021-01-19T15:48:48Z</time>
      </trkpt>
      <trkpt lat="43.45049" lon="5.34336">
        <ele>250</ele>
        <time>2021-01-19T15:48:50Z</time>
      </trkpt>
      <trkpt lat="43.45049" lon="5.34336">
        <ele>250</ele>
        <time>2021-01-19T15:48:52Z</time>
      </trkpt>
      <trkpt lat="43.45049" lon="5.34336">
        <ele>250</ele>
        <time>2021-01-19T15:48:54Z</time>
      </trkpt>
      <trkpt lat="43.45048" lon="5.34336">
        <ele>250</ele>
        <time>2021-01-19T15:48:57Z</time>
      </trkpt>
      <trkpt lat="43.45048" lon="5.34336">
        <ele>250</ele>
        <time>2021-01-19T15:48:59Z</time>
      </trkpt>
      <trkpt lat="43.45048" lon="5.34336">
        <ele>250</ele>
        <time>2021-01-19T15:49:01Z</time>
      </trkpt>
      <trkpt lat="43.45048" lon="5.34336">
        <ele>250</ele>
        <time>2021-01-19T15:49:03Z</time>
      </trkpt>
      <trkpt lat="43.45048" lon="5.34336">
        <ele>250</ele>
        <time>2021-01-19T15:49:05Z</time>
      </trkpt>
      <trkpt lat="43.45048" lon="5.34336">
        <ele>250</ele>
        <time>2021-01-19T15:49:08Z</time>
      </trkpt>
      <trkpt lat="43.45048" lon="5.34336">
        <ele>250</ele>
        <time>2021-01-19T15:49:11Z</time>
      </trkpt>
      <trkpt lat="43.45048" lon="5.34336">
        <ele>250</ele>
        <time>2021-01-19T15:49:14Z</time>
      </trkpt>
      <trkpt lat="43.45048" lon="5.34336">
        <ele>250</ele>
        <time>2021-01-19T15:49:16Z</time>
      </trkpt>
      <trkpt lat="43.45048" lon="5.34336">
        <ele>250</ele>
        <time>2021-01-19T15:49:18Z</time>
      </trkpt>
      <trkpt lat="43.45048" lon="5.34336">
        <ele>250</ele>
        <time>2021-01-19T15:49:20Z</time>
      </trkpt>
      <trkpt lat="43.45048" lon="5.34336">
        <ele>250</ele>
        <time>2021-01-19T15:49:22Z</time>
      </trkpt>
      <trkpt lat="43.45048" lon="5.34336">
        <ele>250</ele>
        <time>2021-01-19T15:49:25Z</time>
      </trkpt>
      <trkpt lat="43.45048" lon="5.34336">
        <ele>250</ele>
        <time>2021-01-19T15:49:28Z</time>
      </trkpt>
      <trkpt lat="43.45048" lon="5.34336">
        <ele>250</ele>
        <time>2021-01-19T15:49:30Z</time>
      </trkpt>
      <trkpt lat="43.45048" lon="5.34336">
        <ele>250</ele>
        <time>2021-01-19T15:49:33Z</time>
      </trkpt>
      <trkpt lat="43.45048" lon="5.34336">
        <ele>250</ele>
        <time>2021-01-19T15:49:35Z</time>
      </trkpt>
      <trkpt lat="43.45048" lon="5.34336">
        <ele>250</ele>
        <time>2021-01-19T15:49:38Z</time>
      </trkpt>
      <trkpt lat="43.45048" lon="5.34336">
        <ele>250</ele>
        <time>2021-01-19T15:49:40Z</time>
      </trkpt>
      <trkpt lat="43.45048" lon="5.34336">
        <ele>250</ele>
        <time>2021-01-19T15:49:43Z</time>
      </trkpt>
      <trkpt lat="43.45048" lon="5.34336">
        <ele>250</ele>
        <time>2021-01-19T15:49:45Z</time>
      </trkpt>
      <trkpt lat="43.45048" lon="5.34336">
        <ele>250</ele>
        <time>2021-01-19T15:49:47Z</time>
      </trkpt>
      <trkpt lat="43.45048" lon="5.34336">
        <ele>250</ele>
        <time>2021-01-19T15:49:50Z</time>
      </trkpt>
      <trkpt lat="43.45048" lon="5.34336">
        <ele>250</ele>
        <time>2021-01-19T15:49:52Z</time>
      </trkpt>
      <trkpt lat="43.45048" lon="5.34336">
        <ele>250</ele>
        <time>2021-01-19T15:49:55Z</time>
      </trkpt>
      <trkpt lat="43.45048" lon="5.34336">
        <ele>250</ele>
        <time>2021-01-19T15:49:57Z</time>
      </trkpt>
      <trkpt lat="43.45048" lon="5.34336">
        <ele>250</ele>
        <time>2021-01-19T15:50:00Z</time>
      </trkpt>
      <trkpt lat="43.45048" lon="5.34336">
        <ele>250</ele>
        <time>2021-01-19T15:50:02Z</time>
      </trkpt>
      <trkpt lat="43.45048" lon="5.34336">
        <ele>250</ele>
        <time>2021-01-19T15:50:04Z</time>
      </trkpt>
      <trkpt lat="43.45048" lon="5.34336">
        <ele>250</ele>
        <time>2021-01-19T15:50:06Z</time>
      </trkpt>
      <trkpt lat="43.45048" lon="5.34336">
        <ele>250</ele>
        <time>2021-01-19T15:50:09Z</time>
      </trkpt>
      <trkpt lat="43.45048" lon="5.34336">
        <ele>250</ele>
        <time>2021-01-19T15:50:11Z</time>
      </trkpt>
      <trkpt lat="43.45048" lon="5.34336">
        <ele>250</ele>
        <time>2021-01-19T15:50:13Z</time>
      </trkpt>
      <trkpt lat="43.45048" lon="5.34336">
        <ele>250</ele>
        <time>2021-01-19T15:50:16Z</time>
      </trkpt>
      <trkpt lat="43.45048" lon="5.34336">
        <ele>250</ele>
        <time>2021-01-19T15:50:18Z</time>
      </trkpt>
      <trkpt lat="43.45048" lon="5.34336">
        <ele>251</ele>
        <time>2021-01-19T15:50:21Z</time>
      </trkpt>
      <trkpt lat="43.45048" lon="5.34336">
        <ele>251</ele>
        <time>2021-01-19T15:50:23Z</time>
      </trkpt>
      <trkpt lat="43.45048" lon="5.34336">
        <ele>251</ele>
        <time>2021-01-19T15:50:25Z</time>
      </trkpt>
      <trkpt lat="43.45048" lon="5.34336">
        <ele>251</ele>
        <time>2021-01-19T15:50:28Z</time>
      </trkpt>
      <trkpt lat="43.45048" lon="5.34336">
        <ele>251</ele>
        <time>2021-01-19T15:50:30Z</time>
      </trkpt>
      <trkpt lat="43.45048" lon="5.34336">
        <ele>251</ele>
        <time>2021-01-19T15:50:33Z</time>
      </trkpt>
      <trkpt lat="43.45048" lon="5.34336">
        <ele>251</ele>
        <time>2021-01-19T15:50:36Z</time>
      </trkpt>
      <trkpt lat="43.45048" lon="5.34336">
        <ele>251</ele>
        <time>2021-01-19T15:50:38Z</time>
      </trkpt>
      <trkpt lat="43.45048" lon="5.34336">
        <ele>251</ele>
        <time>2021-01-19T15:50:41Z</time>
      </trkpt>
      <trkpt lat="43.45048" lon="5.34336">
        <ele>251</ele>
        <time>2021-01-19T15:50:43Z</time>
      </trkpt>
      <trkpt lat="43.45048" lon="5.34336">
        <ele>251</ele>
        <time>2021-01-19T15:50:46Z</time>
      </trkpt>
      <trkpt lat="43.45048" lon="5.34336">
        <ele>251</ele>
        <time>2021-01-19T15:50:48Z</time>
      </trkpt>
      <trkpt lat="43.45048" lon="5.34336">
        <ele>251</ele>
        <time>2021-01-19T15:50:51Z</time>
      </trkpt>
      <trkpt lat="43.45048" lon="5.34336">
        <ele>251</ele>
        <time>2021-01-19T15:50:53Z</time>
      </trkpt>
      <trkpt lat="43.45048" lon="5.34336">
        <ele>251</ele>
        <time>2021-01-19T15:50:55Z</time>
      </trkpt>
      <trkpt lat="43.45048" lon="5.34336">
        <ele>251</ele>
        <time>2021-01-19T15:50:57Z</time>
      </trkpt>
      <trkpt lat="43.45048" lon="5.34336">
        <ele>251</ele>
        <time>2021-01-19T15:51:00Z</time>
      </trkpt>
      <trkpt lat="43.45048" lon="5.34336">
        <ele>251</ele>
        <time>2021-01-19T15:51:02Z</time>
      </trkpt>
      <trkpt lat="43.45048" lon="5.34336">
        <ele>251</ele>
        <time>2021-01-19T15:51:04Z</time>
      </trkpt>
      <trkpt lat="43.45048" lon="5.34336">
        <ele>251</ele>
        <time>2021-01-19T15:51:06Z</time>
      </trkpt>
      <trkpt lat="43.45048" lon="5.34336">
        <ele>251</ele>
        <time>2021-01-19T15:51:08Z</time>
      </trkpt>
      <trkpt lat="43.45048" lon="5.34336">
        <ele>251</ele>
        <time>2021-01-19T15:51:11Z</time>
      </trkpt>
      <trkpt lat="43.45048" lon="5.34336">
        <ele>251</ele>
        <time>2021-01-19T15:51:13Z</time>
      </trkpt>
      <trkpt lat="43.45048" lon="5.34336">
        <ele>251</ele>
        <time>2021-01-19T15:51:15Z</time>
      </trkpt>
      <trkpt lat="43.45048" lon="5.34336">
        <ele>251</ele>
        <time>2021-01-19T15:51:17Z</time>
      </trkpt>
      <trkpt lat="43.45048" lon="5.34336">
        <ele>251</ele>
        <time>2021-01-19T15:51:19Z</time>
      </trkpt>
      <trkpt lat="43.45048" lon="5.34336">
        <ele>251</ele>
        <time>2021-01-19T15:51:22Z</time>
      </trkpt>
      <trkpt lat="43.45048" lon="5.34336">
        <ele>251</ele>
        <time>2021-01-19T15:51:25Z</time>
      </trkpt>
      <trkpt lat="43.45048" lon="5.34336">
        <ele>251</ele>
        <time>2021-01-19T15:51:28Z</time>
      </trkpt>
      <trkpt lat="43.45048" lon="5.34336">
        <ele>251</ele>
        <time>2021-01-19T15:51:31Z</time>
      </trkpt>
      <trkpt lat="43.45048" lon="5.34336">
        <ele>251</ele>
        <time>2021-01-19T15:51:33Z</time>
      </trkpt>
      <trkpt lat="43.45048" lon="5.34336">
        <ele>251</ele>
        <time>2021-01-19T15:51:35Z</time>
      </trkpt>
      <trkpt lat="43.45048" lon="5.34336">
        <ele>251</ele>
        <time>2021-01-19T15:51:38Z</time>
      </trkpt>
      <trkpt lat="43.45048" lon="5.34336">
        <ele>251</ele>
        <time>2021-01-19T15:51:41Z</time>
      </trkpt>
      <trkpt lat="43.45048" lon="5.34336">
        <ele>251</ele>
        <time>2021-01-19T15:51:44Z</time>
      </trkpt>
      <trkpt lat="43.45048" lon="5.34336">
        <ele>251</ele>
        <time>2021-01-19T15:51:47Z</time>
      </trkpt>
      <trkpt lat="43.45048" lon="5.34336">
        <ele>251</ele>
        <time>2021-01-19T15:51:49Z</time>
      </trkpt>
      <trkpt lat="43.45048" lon="5.34336">
        <ele>251</ele>
        <time>2021-01-19T15:51:52Z</time>
      </trkpt>
      <trkpt lat="43.45048" lon="5.34336">
        <ele>251</ele>
        <time>2021-01-19T15:51:54Z</time>
      </trkpt>
      <trkpt lat="43.45048" lon="5.34336">
        <ele>251</ele>
        <time>2021-01-19T15:51:57Z</time>
      </trkpt>
      <trkpt lat="43.45048" lon="5.34336">
        <ele>251</ele>
        <time>2021-01-19T15:51:59Z</time>
      </trkpt>
      <trkpt lat="43.45048" lon="5.34336">
        <ele>251</ele>
        <time>2021-01-19T15:52:02Z</time>
      </trkpt>
      <trkpt lat="43.45048" lon="5.34336">
        <ele>251</ele>
        <time>2021-01-19T15:52:04Z</time>
      </trkpt>
      <trkpt lat="43.45048" lon="5.34336">
        <ele>251</ele>
        <time>2021-01-19T15:52:07Z</time>
      </trkpt>
      <trkpt lat="43.45048" lon="5.34336">
        <ele>251</ele>
        <time>2021-01-19T15:52:09Z</time>
      </trkpt>
      <trkpt lat="43.45048" lon="5.34336">
        <ele>251</ele>
        <time>2021-01-19T15:52:12Z</time>
      </trkpt>
      <trkpt lat="43.45048" lon="5.34336">
        <ele>251</ele>
        <time>2021-01-19T15:52:15Z</time>
      </trkpt>
      <trkpt lat="43.45048" lon="5.34336">
        <ele>251</ele>
        <time>2021-01-19T15:52:18Z</time>
      </trkpt>
      <trkpt lat="43.45048" lon="5.34336">
        <ele>251</ele>
        <time>2021-01-19T15:52:21Z</time>
      </trkpt>
      <trkpt lat="43.45048" lon="5.34336">
        <ele>251</ele>
        <time>2021-01-19T15:52:24Z</time>
      </trkpt>
      <trkpt lat="43.45048" lon="5.34335">
        <ele>250</ele>
        <time>2021-01-19T15:52:26Z</time>
      </trkpt>
      <trkpt lat="43.45047" lon="5.34335">
        <ele>250</ele>
        <time>2021-01-19T15:52:29Z</time>
      </trkpt>
      <trkpt lat="43.45044" lon="5.34336">
        <ele>249</ele>
        <time>2021-01-19T15:52:32Z</time>
      </trkpt>
      <trkpt lat="43.45041" lon="5.34337">
        <ele>250</ele>
        <time>2021-01-19T15:52:34Z</time>
      </trkpt>
      <trkpt lat="43.45038" lon="5.34337">
        <ele>250</ele>
        <time>2021-01-19T15:52:37Z</time>
      </trkpt>
      <trkpt lat="43.45036" lon="5.34336">
        <ele>251</ele>
        <time>2021-01-19T15:52:40Z</time>
      </trkpt>
      <trkpt lat="43.45034" lon="5.34337">
        <ele>251</ele>
        <time>2021-01-19T15:52:43Z</time>
      </trkpt>
      <trkpt lat="43.45032" lon="5.34337">
        <ele>252</ele>
        <time>2021-01-19T15:52:46Z</time>
      </trkpt>
      <trkpt lat="43.4503" lon="5.34336">
        <ele>253</ele>
        <time>2021-01-19T15:52:49Z</time>
      </trkpt>
      <trkpt lat="43.45028" lon="5.34336">
        <ele>252</ele>
        <time>2021-01-19T15:52:52Z</time>
      </trkpt>
      <trkpt lat="43.45027" lon="5.34335">
        <ele>252</ele>
        <time>2021-01-19T15:52:54Z</time>
      </trkpt>
      <trkpt lat="43.45025" lon="5.34335">
        <ele>251</ele>
        <time>2021-01-19T15:52:56Z</time>
      </trkpt>
      <trkpt lat="43.45023" lon="5.34334">
        <ele>252</ele>
        <time>2021-01-19T15:52:59Z</time>
      </trkpt>
      <trkpt lat="43.45021" lon="5.34333">
        <ele>253</ele>
        <time>2021-01-19T15:53:02Z</time>
      </trkpt>
      <trkpt lat="43.45019" lon="5.34333">
        <ele>254</ele>
        <time>2021-01-19T15:53:04Z</time>
      </trkpt>
      <trkpt lat="43.45017" lon="5.34333">
        <ele>254</ele>
        <time>2021-01-19T15:53:07Z</time>
      </trkpt>
      <trkpt lat="43.45014" lon="5.34334">
        <ele>253</ele>
        <time>2021-01-19T15:53:10Z</time>
      </trkpt>
      <trkpt lat="43.45011" lon="5.34335">
        <ele>252</ele>
        <time>2021-01-19T15:53:13Z</time>
      </trkpt>
      <trkpt lat="43.45009" lon="5.34335">
        <ele>252</ele>
        <time>2021-01-19T15:53:15Z</time>
      </trkpt>
      <trkpt lat="43.45006" lon="5.34334">
        <ele>251</ele>
        <time>2021-01-19T15:53:18Z</time>
      </trkpt>
      <trkpt lat="43.45004" lon="5.34334">
        <ele>251</ele>
        <time>2021-01-19T15:53:21Z</time>
      </trkpt>
      <trkpt lat="43.45002" lon="5.34333">
        <ele>252</ele>
        <time>2021-01-19T15:53:23Z</time>
      </trkpt>
      <trkpt lat="43.44999" lon="5.34333">
        <ele>252</ele>
        <time>2021-01-19T15:53:26Z</time>
      </trkpt>
      <trkpt lat="43.44998" lon="5.34332">
        <ele>251</ele>
        <time>2021-01-19T15:53:28Z</time>
      </trkpt>
      <trkpt lat="43.44997" lon="5.34332">
        <ele>251</ele>
        <time>2021-01-19T15:53:31Z</time>
      </trkpt>
      <trkpt lat="43.44995" lon="5.34333">
        <ele>251</ele>
        <time>2021-01-19T15:53:33Z</time>
      </trkpt>
      <trkpt lat="43.44994" lon="5.34332">
        <ele>250</ele>
        <time>2021-01-19T15:53:36Z</time>
      </trkpt>
      <trkpt lat="43.44993" lon="5.34332">
        <ele>250</ele>
        <time>2021-01-19T15:53:38Z</time>
      </trkpt>
      <trkpt lat="43.44991" lon="5.3433">
        <ele>250</ele>
        <time>2021-01-19T15:53:40Z</time>
      </trkpt>
      <trkpt lat="43.44989" lon="5.34329">
        <ele>251</ele>
        <time>2021-01-19T15:53:42Z</time>
      </trkpt>
      <trkpt lat="43.44987" lon="5.34328">
        <ele>250</ele>
        <time>2021-01-19T15:53:44Z</time>
      </trkpt>
      <trkpt lat="43.44985" lon="5.34327">
        <ele>249</ele>
        <time>2021-01-19T15:53:47Z</time>
      </trkpt>
      <trkpt lat="43.44983" lon="5.34326">
        <ele>250</ele>
        <time>2021-01-19T15:53:49Z</time>
      </trkpt>
      <trkpt lat="43.44981" lon="5.34326">
        <ele>250</ele>
        <time>2021-01-19T15:53:51Z</time>
      </trkpt>
      <trkpt lat="43.4498" lon="5.34326">
        <ele>249</ele>
        <time>2021-01-19T15:53:53Z</time>
      </trkpt>
      <trkpt lat="43.44977" lon="5.34326">
        <ele>248</ele>
        <time>2021-01-19T15:53:56Z</time>
      </trkpt>
      <trkpt lat="43.44975" lon="5.34326">
        <ele>248</ele>
        <time>2021-01-19T15:53:58Z</time>
      </trkpt>
      <trkpt lat="43.44972" lon="5.34326">
        <ele>250</ele>
        <time>2021-01-19T15:54:01Z</time>
      </trkpt>
      <trkpt lat="43.4497" lon="5.34326">
        <ele>249</ele>
        <time>2021-01-19T15:54:04Z</time>
      </trkpt>
      <trkpt lat="43.4497" lon="5.34326">
        <ele>249</ele>
        <time>2021-01-19T15:54:06Z</time>
      </trkpt>
      <trkpt lat="43.44969" lon="5.34325">
        <ele>251</ele>
        <time>2021-01-19T15:54:09Z</time>
      </trkpt>
      <trkpt lat="43.44969" lon="5.34324">
        <ele>252</ele>
        <time>2021-01-19T15:54:12Z</time>
      </trkpt>
      <trkpt lat="43.44967" lon="5.34323">
        <ele>252</ele>
        <time>2021-01-19T15:54:15Z</time>
      </trkpt>
      <trkpt lat="43.44965" lon="5.34322">
        <ele>252</ele>
        <time>2021-01-19T15:54:17Z</time>
      </trkpt>
      <trkpt lat="43.44962" lon="5.34322">
        <ele>252</ele>
        <time>2021-01-19T15:54:20Z</time>
      </trkpt>
      <trkpt lat="43.4496" lon="5.3432">
        <ele>253</ele>
        <time>2021-01-19T15:54:22Z</time>
      </trkpt>
      <trkpt lat="43.44957" lon="5.34319">
        <ele>253</ele>
        <time>2021-01-19T15:54:25Z</time>
      </trkpt>
      <trkpt lat="43.44955" lon="5.34318">
        <ele>253</ele>
        <time>2021-01-19T15:54:28Z</time>
      </trkpt>
      <trkpt lat="43.44953" lon="5.34317">
        <ele>253</ele>
        <time>2021-01-19T15:54:30Z</time>
      </trkpt>
      <trkpt lat="43.4495" lon="5.34317">
        <ele>253</ele>
        <time>2021-01-19T15:54:33Z</time>
      </trkpt>
      <trkpt lat="43.44948" lon="5.34317">
        <ele>252</ele>
        <time>2021-01-19T15:54:35Z</time>
      </trkpt>
      <trkpt lat="43.44946" lon="5.34317">
        <ele>253</ele>
        <time>2021-01-19T15:54:37Z</time>
      </trkpt>
      <trkpt lat="43.44945" lon="5.34317">
        <ele>253</ele>
        <time>2021-01-19T15:54:39Z</time>
      </trkpt>
      <trkpt lat="43.44943" lon="5.34317">
        <ele>253</ele>
        <time>2021-01-19T15:54:42Z</time>
      </trkpt>
      <trkpt lat="43.44941" lon="5.34318">
        <ele>253</ele>
        <time>2021-01-19T15:54:45Z</time>
      </trkpt>
      <trkpt lat="43.44939" lon="5.34319">
        <ele>252</ele>
        <time>2021-01-19T15:54:47Z</time>
      </trkpt>
      <trkpt lat="43.44937" lon="5.3432">
        <ele>252</ele>
        <time>2021-01-19T15:54:49Z</time>
      </trkpt>
      <trkpt lat="43.44935" lon="5.34322">
        <ele>252</ele>
        <time>2021-01-19T15:54:52Z</time>
      </trkpt>
      <trkpt lat="43.44933" lon="5.34323">
        <ele>252</ele>
        <time>2021-01-19T15:54:54Z</time>
      </trkpt>
      <trkpt lat="43.4493" lon="5.34324">
        <ele>252</ele>
        <time>2021-01-19T15:54:57Z</time>
      </trkpt>
      <trkpt lat="43.44927" lon="5.34326">
        <ele>252</ele>
        <time>2021-01-19T15:55:00Z</time>
      </trkpt>
      <trkpt lat="43.44924" lon="5.34328">
        <ele>251</ele>
        <time>2021-01-19T15:55:03Z</time>
      </trkpt>
      <trkpt lat="43.44922" lon="5.3433">
        <ele>251</ele>
        <time>2021-01-19T15:55:05Z</time>
      </trkpt>
      <trkpt lat="43.44919" lon="5.34332">
        <ele>250</ele>
        <time>2021-01-19T15:55:08Z</time>
      </trkpt>
      <trkpt lat="43.44917" lon="5.34333">
        <ele>249</ele>
        <time>2021-01-19T15:55:10Z</time>
      </trkpt>
      <trkpt lat="43.44914" lon="5.34335">
        <ele>249</ele>
        <time>2021-01-19T15:55:13Z</time>
      </trkpt>
      <trkpt lat="43.44913" lon="5.34337">
        <ele>250</ele>
        <time>2021-01-19T15:55:15Z</time>
      </trkpt>
      <trkpt lat="43.4491" lon="5.34339">
        <ele>249</ele>
        <time>2021-01-19T15:55:18Z</time>
      </trkpt>
      <trkpt lat="43.44907" lon="5.34341">
        <ele>250</ele>
        <time>2021-01-19T15:55:21Z</time>
      </trkpt>
      <trkpt lat="43.44905" lon="5.34342">
        <ele>249</ele>
        <time>2021-01-19T15:55:23Z</time>
      </trkpt>
      <trkpt lat="43.44903" lon="5.34343">
        <ele>250</ele>
        <time>2021-01-19T15:55:25Z</time>
      </trkpt>
      <trkpt lat="43.44902" lon="5.34344">
        <ele>250</ele>
        <time>2021-01-19T15:55:27Z</time>
      </trkpt>
      <trkpt lat="43.449" lon="5.34347">
        <ele>249</ele>
        <time>2021-01-19T15:55:30Z</time>
      </trkpt>
      <trkpt lat="43.44897" lon="5.34349">
        <ele>249</ele>
        <time>2021-01-19T15:55:33Z</time>
      </trkpt>
      <trkpt lat="43.44896" lon="5.34351">
        <ele>249</ele>
        <time>2021-01-19T15:55:35Z</time>
      </trkpt>
      <trkpt lat="43.44894" lon="5.34352">
        <ele>249</ele>
        <time>2021-01-19T15:55:37Z</time>
      </trkpt>
      <trkpt lat="43.44891" lon="5.34355">
        <ele>249</ele>
        <time>2021-01-19T15:55:40Z</time>
      </trkpt>
      <trkpt lat="43.44888" lon="5.34357">
        <ele>250</ele>
        <time>2021-01-19T15:55:42Z</time>
      </trkpt>
      <trkpt lat="43.44885" lon="5.34359">
        <ele>251</ele>
        <time>2021-01-19T15:55:45Z</time>
      </trkpt>
      <trkpt lat="43.44882" lon="5.34361">
        <ele>252</ele>
        <time>2021-01-19T15:55:48Z</time>
      </trkpt>
      <trkpt lat="43.44881" lon="5.34363">
        <ele>253</ele>
        <time>2021-01-19T15:55:50Z</time>
      </trkpt>
      <trkpt lat="43.44879" lon="5.34366">
        <ele>254</ele>
        <time>2021-01-19T15:55:53Z</time>
      </trkpt>
      <trkpt lat="43.44877" lon="5.34368">
        <ele>253</ele>
        <time>2021-01-19T15:55:55Z</time>
      </trkpt>
      <trkpt lat="43.44875" lon="5.34371">
        <ele>252</ele>
        <time>2021-01-19T15:55:58Z</time>
      </trkpt>
      <trkpt lat="43.44873" lon="5.34374">
        <ele>252</ele>
        <time>2021-01-19T15:56:00Z</time>
      </trkpt>
      <trkpt lat="43.44872" lon="5.34376">
        <ele>252</ele>
        <time>2021-01-19T15:56:02Z</time>
      </trkpt>
      <trkpt lat="43.44871" lon="5.34379">
        <ele>253</ele>
        <time>2021-01-19T15:56:04Z</time>
      </trkpt>
      <trkpt lat="43.44869" lon="5.34383">
        <ele>253</ele>
        <time>2021-01-19T15:56:07Z</time>
      </trkpt>
      <trkpt lat="43.44865" lon="5.34385">
        <ele>253</ele>
        <time>2021-01-19T15:56:10Z</time>
      </trkpt>
      <trkpt lat="43.44863" lon="5.34385">
        <ele>254</ele>
        <time>2021-01-19T15:56:12Z</time>
      </trkpt>
      <trkpt lat="43.4486" lon="5.34387">
        <ele>255</ele>
        <time>2021-01-19T15:56:15Z</time>
      </trkpt>
      <trkpt lat="43.44858" lon="5.34387">
        <ele>255</ele>
        <time>2021-01-19T15:56:17Z</time>
      </trkpt>
      <trkpt lat="43.44855" lon="5.34388">
        <ele>255</ele>
        <time>2021-01-19T15:56:20Z</time>
      </trkpt>
      <trkpt lat="43.44853" lon="5.34388">
        <ele>254</ele>
        <time>2021-01-19T15:56:22Z</time>
      </trkpt>
      <trkpt lat="43.44851" lon="5.34387">
        <ele>254</ele>
        <time>2021-01-19T15:56:25Z</time>
      </trkpt>
      <trkpt lat="43.44849" lon="5.34387">
        <ele>254</ele>
        <time>2021-01-19T15:56:27Z</time>
      </trkpt>
      <trkpt lat="43.44846" lon="5.34386">
        <ele>256</ele>
        <time>2021-01-19T15:56:30Z</time>
      </trkpt>
      <trkpt lat="43.44845" lon="5.34386">
        <ele>256</ele>
        <time>2021-01-19T15:56:32Z</time>
      </trkpt>
      <trkpt lat="43.44843" lon="5.34386">
        <ele>257</ele>
        <time>2021-01-19T15:56:34Z</time>
      </trkpt>
      <trkpt lat="43.44841" lon="5.34387">
        <ele>256</ele>
        <time>2021-01-19T15:56:37Z</time>
      </trkpt>
      <trkpt lat="43.4484" lon="5.34388">
        <ele>256</ele>
        <time>2021-01-19T15:56:39Z</time>
      </trkpt>
      <trkpt lat="43.44837" lon="5.3439">
        <ele>256</ele>
        <time>2021-01-19T15:56:42Z</time>
      </trkpt>
      <trkpt lat="43.44834" lon="5.34392">
        <ele>255</ele>
        <time>2021-01-19T15:56:45Z</time>
      </trkpt>
      <trkpt lat="43.44831" lon="5.34393">
        <ele>255</ele>
        <time>2021-01-19T15:56:47Z</time>
      </trkpt>
      <trkpt lat="43.44828" lon="5.34393">
        <ele>254</ele>
        <time>2021-01-19T15:56:50Z</time>
      </trkpt>
      <trkpt lat="43.44827" lon="5.34395">
        <ele>254</ele>
        <time>2021-01-19T15:56:53Z</time>
      </trkpt>
      <trkpt lat="43.44825" lon="5.34398">
        <ele>252</ele>
        <time>2021-01-19T15:56:56Z</time>
      </trkpt>
      <trkpt lat="43.44824" lon="5.34399">
        <ele>252</ele>
        <time>2021-01-19T15:56:58Z</time>
      </trkpt>
      <trkpt lat="43.44822" lon="5.34401">
        <ele>252</ele>
        <time>2021-01-19T15:57:01Z</time>
      </trkpt>
      <trkpt lat="43.44821" lon="5.34403">
        <ele>251</ele>
        <time>2021-01-19T15:57:03Z</time>
      </trkpt>
      <trkpt lat="43.44819" lon="5.34405">
        <ele>251</ele>
        <time>2021-01-19T15:57:05Z</time>
      </trkpt>
      <trkpt lat="43.44818" lon="5.34408">
        <ele>252</ele>
        <time>2021-01-19T15:57:08Z</time>
      </trkpt>
      <trkpt lat="43.44816" lon="5.3441">
        <ele>253</ele>
        <time>2021-01-19T15:57:11Z</time>
      </trkpt>
      <trkpt lat="43.44815" lon="5.34414">
        <ele>253</ele>
        <time>2021-01-19T15:57:14Z</time>
      </trkpt>
      <trkpt lat="43.44814" lon="5.34418">
        <ele>253</ele>
        <time>2021-01-19T15:57:17Z</time>
      </trkpt>
      <trkpt lat="43.44813" lon="5.34422">
        <ele>253</ele>
        <time>2021-01-19T15:57:20Z</time>
      </trkpt>
      <trkpt lat="43.44812" lon="5.34424">
        <ele>255</ele>
        <time>2021-01-19T15:57:22Z</time>
      </trkpt>
      <trkpt lat="43.4481" lon="5.34426">
        <ele>255</ele>
        <time>2021-01-19T15:57:25Z</time>
      </trkpt>
      <trkpt lat="43.44808" lon="5.34429">
        <ele>254</ele>
        <time>2021-01-19T15:57:28Z</time>
      </trkpt>
      <trkpt lat="43.44807" lon="5.34432">
        <ele>253</ele>
        <time>2021-01-19T15:57:31Z</time>
      </trkpt>
      <trkpt lat="43.44807" lon="5.34436">
        <ele>253</ele>
        <time>2021-01-19T15:57:34Z</time>
      </trkpt>
      <trkpt lat="43.44806" lon="5.34438">
        <ele>253</ele>
        <time>2021-01-19T15:57:36Z</time>
      </trkpt>
      <trkpt lat="43.44805" lon="5.34442">
        <ele>254</ele>
        <time>2021-01-19T15:57:39Z</time>
      </trkpt>
      <trkpt lat="43.44805" lon="5.34444">
        <ele>255</ele>
        <time>2021-01-19T15:57:41Z</time>
      </trkpt>
      <trkpt lat="43.44805" lon="5.34447">
        <ele>255</ele>
        <time>2021-01-19T15:57:43Z</time>
      </trkpt>
      <trkpt lat="43.44805" lon="5.34448">
        <ele>255</ele>
        <time>2021-01-19T15:57:46Z</time>
      </trkpt>
      <trkpt lat="43.44804" lon="5.34451">
        <ele>255</ele>
        <time>2021-01-19T15:57:48Z</time>
      </trkpt>
      <trkpt lat="43.44803" lon="5.34454">
        <ele>253</ele>
        <time>2021-01-19T15:57:51Z</time>
      </trkpt>
      <trkpt lat="43.44803" lon="5.34456">
        <ele>254</ele>
        <time>2021-01-19T15:57:53Z</time>
      </trkpt>
      <trkpt lat="43.44802" lon="5.34457">
        <ele>254</ele>
        <time>2021-01-19T15:57:55Z</time>
      </trkpt>
      <trkpt lat="43.44802" lon="5.34459">
        <ele>254</ele>
        <time>2021-01-19T15:57:57Z</time>
      </trkpt>
      <trkpt lat="43.44801" lon="5.34461">
        <ele>254</ele>
        <time>2021-01-19T15:57:59Z</time>
      </trkpt>
      <trkpt lat="43.44798" lon="5.34463">
        <ele>253</ele>
        <time>2021-01-19T15:58:02Z</time>
      </trkpt>
      <trkpt lat="43.44797" lon="5.34464">
        <ele>254</ele>
        <time>2021-01-19T15:58:04Z</time>
      </trkpt>
      <trkpt lat="43.44795" lon="5.34467">
        <ele>253</ele>
        <time>2021-01-19T15:58:07Z</time>
      </trkpt>
      <trkpt lat="43.44794" lon="5.34469">
        <ele>253</ele>
        <time>2021-01-19T15:58:09Z</time>
      </trkpt>
      <trkpt lat="43.44793" lon="5.34471">
        <ele>253</ele>
        <time>2021-01-19T15:58:11Z</time>
      </trkpt>
      <trkpt lat="43.44792" lon="5.34475">
        <ele>252</ele>
        <time>2021-01-19T15:58:14Z</time>
      </trkpt>
      <trkpt lat="43.44791" lon="5.34478">
        <ele>252</ele>
        <time>2021-01-19T15:58:17Z</time>
      </trkpt>
      <trkpt lat="43.44789" lon="5.34482">
        <ele>251</ele>
        <time>2021-01-19T15:58:20Z</time>
      </trkpt>
      <trkpt lat="43.44788" lon="5.34484">
        <ele>251</ele>
        <time>2021-01-19T15:58:22Z</time>
      </trkpt>
      <trkpt lat="43.44786" lon="5.34487">
        <ele>252</ele>
        <time>2021-01-19T15:58:25Z</time>
      </trkpt>
      <trkpt lat="43.44785" lon="5.34489">
        <ele>251</ele>
        <time>2021-01-19T15:58:27Z</time>
      </trkpt>
      <trkpt lat="43.44783" lon="5.34491">
        <ele>252</ele>
        <time>2021-01-19T15:58:30Z</time>
      </trkpt>
      <trkpt lat="43.44781" lon="5.34492">
        <ele>252</ele>
        <time>2021-01-19T15:58:32Z</time>
      </trkpt>
      <trkpt lat="43.4478" lon="5.34493">
        <ele>252</ele>
        <time>2021-01-19T15:58:35Z</time>
      </trkpt>
      <trkpt lat="43.44779" lon="5.34495">
        <ele>251</ele>
        <time>2021-01-19T15:58:37Z</time>
      </trkpt>
      <trkpt lat="43.44777" lon="5.34497">
        <ele>251</ele>
        <time>2021-01-19T15:58:40Z</time>
      </trkpt>
      <trkpt lat="43.44776" lon="5.34499">
        <ele>252</ele>
        <time>2021-01-19T15:58:42Z</time>
      </trkpt>
      <trkpt lat="43.44775" lon="5.34499">
        <ele>251</ele>
        <time>2021-01-19T15:58:44Z</time>
      </trkpt>
      <trkpt lat="43.44773" lon="5.34501">
        <ele>251</ele>
        <time>2021-01-19T15:58:47Z</time>
      </trkpt>
      <trkpt lat="43.44771" lon="5.34501">
        <ele>251</ele>
        <time>2021-01-19T15:58:49Z</time>
      </trkpt>
      <trkpt lat="43.4477" lon="5.34502">
        <ele>251</ele>
        <time>2021-01-19T15:58:51Z</time>
      </trkpt>
      <trkpt lat="43.44768" lon="5.34505">
        <ele>251</ele>
        <time>2021-01-19T15:58:54Z</time>
      </trkpt>
      <trkpt lat="43.44765" lon="5.34508">
        <ele>252</ele>
        <time>2021-01-19T15:58:57Z</time>
      </trkpt>
      <trkpt lat="43.44765" lon="5.3451">
        <ele>251</ele>
        <time>2021-01-19T15:58:59Z</time>
      </trkpt>
      <trkpt lat="43.44764" lon="5.34511">
        <ele>251</ele>
        <time>2021-01-19T15:59:02Z</time>
      </trkpt>
      <trkpt lat="43.44761" lon="5.34514">
        <ele>251</ele>
        <time>2021-01-19T15:59:05Z</time>
      </trkpt>
      <trkpt lat="43.44759" lon="5.34515">
        <ele>251</ele>
        <time>2021-01-19T15:59:07Z</time>
      </trkpt>
      <trkpt lat="43.44757" lon="5.34517">
        <ele>251</ele>
        <time>2021-01-19T15:59:09Z</time>
      </trkpt>
      <trkpt lat="43.44754" lon="5.34518">
        <ele>251</ele>
        <time>2021-01-19T15:59:12Z</time>
      </trkpt>
      <trkpt lat="43.44753" lon="5.34519">
        <ele>251</ele>
        <time>2021-01-19T15:59:14Z</time>
      </trkpt>
      <trkpt lat="43.44751" lon="5.3452">
        <ele>251</ele>
        <time>2021-01-19T15:59:17Z</time>
      </trkpt>
      <trkpt lat="43.44749" lon="5.34521">
        <ele>251</ele>
        <time>2021-01-19T15:59:19Z</time>
      </trkpt>
      <trkpt lat="43.44746" lon="5.34522">
        <ele>250</ele>
        <time>2021-01-19T15:59:22Z</time>
      </trkpt>
      <trkpt lat="43.44744" lon="5.34523">
        <ele>250</ele>
        <time>2021-01-19T15:59:24Z</time>
      </trkpt>
      <trkpt lat="43.44741" lon="5.34525">
        <ele>250</ele>
        <time>2021-01-19T15:59:27Z</time>
      </trkpt>
      <trkpt lat="43.4474" lon="5.34526">
        <ele>250</ele>
        <time>2021-01-19T15:59:29Z</time>
      </trkpt>
      <trkpt lat="43.44739" lon="5.34528">
        <ele>250</ele>
        <time>2021-01-19T15:59:31Z</time>
      </trkpt>
      <trkpt lat="43.44738" lon="5.34529">
        <ele>250</ele>
        <time>2021-01-19T15:59:33Z</time>
      </trkpt>
      <trkpt lat="43.44736" lon="5.34533">
        <ele>249</ele>
        <time>2021-01-19T15:59:36Z</time>
      </trkpt>
      <trkpt lat="43.44735" lon="5.34535">
        <ele>249</ele>
        <time>2021-01-19T15:59:38Z</time>
      </trkpt>
      <trkpt lat="43.44734" lon="5.34537">
        <ele>250</ele>
        <time>2021-01-19T15:59:40Z</time>
      </trkpt>
      <trkpt lat="43.44733" lon="5.3454">
        <ele>250</ele>
        <time>2021-01-19T15:59:43Z</time>
      </trkpt>
      <trkpt lat="43.44733" lon="5.34542">
        <ele>250</ele>
        <time>2021-01-19T15:59:45Z</time>
      </trkpt>
      <trkpt lat="43.44731" lon="5.34544">
        <ele>250</ele>
        <time>2021-01-19T15:59:48Z</time>
      </trkpt>
      <trkpt lat="43.44729" lon="5.34547">
        <ele>251</ele>
        <time>2021-01-19T15:59:51Z</time>
      </trkpt>
      <trkpt lat="43.44729" lon="5.3455">
        <ele>251</ele>
        <time>2021-01-19T15:59:53Z</time>
      </trkpt>
      <trkpt lat="43.44728" lon="5.34551">
        <ele>250</ele>
        <time>2021-01-19T15:59:55Z</time>
      </trkpt>
      <trkpt lat="43.44726" lon="5.34554">
        <ele>250</ele>
        <time>2021-01-19T15:59:58Z</time>
      </trkpt>
      <trkpt lat="43.44725" lon="5.34555">
        <ele>250</ele>
        <time>2021-01-19T16:00:00Z</time>
      </trkpt>
      <trkpt lat="43.44724" lon="5.34558">
        <ele>249</ele>
        <time>2021-01-19T16:00:02Z</time>
      </trkpt>
      <trkpt lat="43.44723" lon="5.3456">
        <ele>250</ele>
        <time>2021-01-19T16:00:05Z</time>
      </trkpt>
      <trkpt lat="43.44721" lon="5.34563">
        <ele>249</ele>
        <time>2021-01-19T16:00:08Z</time>
      </trkpt>
      <trkpt lat="43.4472" lon="5.34564">
        <ele>248</ele>
        <time>2021-01-19T16:00:10Z</time>
      </trkpt>
      <trkpt lat="43.44718" lon="5.34568">
        <ele>248</ele>
        <time>2021-01-19T16:00:13Z</time>
      </trkpt>
      <trkpt lat="43.44716" lon="5.34569">
        <ele>248</ele>
        <time>2021-01-19T16:00:15Z</time>
      </trkpt>
      <trkpt lat="43.44715" lon="5.34571">
        <ele>248</ele>
        <time>2021-01-19T16:00:17Z</time>
      </trkpt>
      <trkpt lat="43.44713" lon="5.34575">
        <ele>248</ele>
        <time>2021-01-19T16:00:20Z</time>
      </trkpt>
      <trkpt lat="43.44711" lon="5.34579">
        <ele>249</ele>
        <time>2021-01-19T16:00:23Z</time>
      </trkpt>
      <trkpt lat="43.44708" lon="5.34583">
        <ele>249</ele>
        <time>2021-01-19T16:00:26Z</time>
      </trkpt>
      <trkpt lat="43.44706" lon="5.34585">
        <ele>248</ele>
        <time>2021-01-19T16:00:29Z</time>
      </trkpt>
      <trkpt lat="43.44705" lon="5.34587">
        <ele>249</ele>
        <time>2021-01-19T16:00:31Z</time>
      </trkpt>
      <trkpt lat="43.44704" lon="5.34589">
        <ele>250</ele>
        <time>2021-01-19T16:00:33Z</time>
      </trkpt>
      <trkpt lat="43.44701" lon="5.34591">
        <ele>249</ele>
        <time>2021-01-19T16:00:36Z</time>
      </trkpt>
      <trkpt lat="43.44699" lon="5.34591">
        <ele>248</ele>
        <time>2021-01-19T16:00:39Z</time>
      </trkpt>
      <trkpt lat="43.44697" lon="5.3459">
        <ele>247</ele>
        <time>2021-01-19T16:00:41Z</time>
      </trkpt>
      <trkpt lat="43.44694" lon="5.34591">
        <ele>248</ele>
        <time>2021-01-19T16:00:44Z</time>
      </trkpt>
      <trkpt lat="43.44692" lon="5.34592">
        <ele>248</ele>
        <time>2021-01-19T16:00:46Z</time>
      </trkpt>
      <trkpt lat="43.44692" lon="5.34592">
        <ele>248</ele>
        <time>2021-01-19T16:00:48Z</time>
      </trkpt>
      <trkpt lat="43.44691" lon="5.34595">
        <ele>247</ele>
        <time>2021-01-19T16:00:51Z</time>
      </trkpt>
      <trkpt lat="43.44688" lon="5.34596">
        <ele>247</ele>
        <time>2021-01-19T16:00:53Z</time>
      </trkpt>
      <trkpt lat="43.44686" lon="5.34596">
        <ele>248</ele>
        <time>2021-01-19T16:00:56Z</time>
      </trkpt>
      <trkpt lat="43.44684" lon="5.34596">
        <ele>248</ele>
        <time>2021-01-19T16:00:58Z</time>
      </trkpt>
      <trkpt lat="43.44681" lon="5.34596">
        <ele>248</ele>
        <time>2021-01-19T16:01:00Z</time>
      </trkpt>
      <trkpt lat="43.4468" lon="5.34598">
        <ele>249</ele>
        <time>2021-01-19T16:01:02Z</time>
      </trkpt>
      <trkpt lat="43.44679" lon="5.34601">
        <ele>249</ele>
        <time>2021-01-19T16:01:05Z</time>
      </trkpt>
      <trkpt lat="43.44678" lon="5.34603">
        <ele>248</ele>
        <time>2021-01-19T16:01:08Z</time>
      </trkpt>
      <trkpt lat="43.44675" lon="5.34606">
        <ele>248</ele>
        <time>2021-01-19T16:01:11Z</time>
      </trkpt>
      <trkpt lat="43.44674" lon="5.34608">
        <ele>248</ele>
        <time>2021-01-19T16:01:13Z</time>
      </trkpt>
      <trkpt lat="43.44673" lon="5.3461">
        <ele>249</ele>
        <time>2021-01-19T16:01:15Z</time>
      </trkpt>
      <trkpt lat="43.44672" lon="5.34613">
        <ele>248</ele>
        <time>2021-01-19T16:01:18Z</time>
      </trkpt>
      <trkpt lat="43.44672" lon="5.34614">
        <ele>248</ele>
        <time>2021-01-19T16:01:20Z</time>
      </trkpt>
      <trkpt lat="43.44671" lon="5.34616">
        <ele>249</ele>
        <time>2021-01-19T16:01:22Z</time>
      </trkpt>
      <trkpt lat="43.44669" lon="5.34619">
        <ele>249</ele>
        <time>2021-01-19T16:01:25Z</time>
      </trkpt>
      <trkpt lat="43.44668" lon="5.34623">
        <ele>248</ele>
        <time>2021-01-19T16:01:28Z</time>
      </trkpt>
      <trkpt lat="43.44668" lon="5.34625">
        <ele>248</ele>
        <time>2021-01-19T16:01:30Z</time>
      </trkpt>
      <trkpt lat="43.44667" lon="5.34626">
        <ele>247</ele>
        <time>2021-01-19T16:01:32Z</time>
      </trkpt>
      <trkpt lat="43.44664" lon="5.34629">
        <ele>247</ele>
        <time>2021-01-19T16:01:35Z</time>
      </trkpt>
      <trkpt lat="43.44663" lon="5.3463">
        <ele>247</ele>
        <time>2021-01-19T16:01:37Z</time>
      </trkpt>
      <trkpt lat="43.44661" lon="5.34633">
        <ele>247</ele>
        <time>2021-01-19T16:01:40Z</time>
      </trkpt>
      <trkpt lat="43.4466" lon="5.34634">
        <ele>246</ele>
        <time>2021-01-19T16:01:42Z</time>
      </trkpt>
      <trkpt lat="43.44658" lon="5.34637">
        <ele>246</ele>
        <time>2021-01-19T16:01:45Z</time>
      </trkpt>
      <trkpt lat="43.44657" lon="5.34639">
        <ele>246</ele>
        <time>2021-01-19T16:01:47Z</time>
      </trkpt>
      <trkpt lat="43.44656" lon="5.34642">
        <ele>245</ele>
        <time>2021-01-19T16:01:49Z</time>
      </trkpt>
      <trkpt lat="43.44655" lon="5.34643">
        <ele>245</ele>
        <time>2021-01-19T16:01:51Z</time>
      </trkpt>
      <trkpt lat="43.44654" lon="5.34645">
        <ele>245</ele>
        <time>2021-01-19T16:01:53Z</time>
      </trkpt>
      <trkpt lat="43.44651" lon="5.34648">
        <ele>246</ele>
        <time>2021-01-19T16:01:56Z</time>
      </trkpt>
      <trkpt lat="43.44649" lon="5.3465">
        <ele>246</ele>
        <time>2021-01-19T16:01:59Z</time>
      </trkpt>
      <trkpt lat="43.44646" lon="5.34653">
        <ele>246</ele>
        <time>2021-01-19T16:02:02Z</time>
      </trkpt>
      <trkpt lat="43.44645" lon="5.34655">
        <ele>246</ele>
        <time>2021-01-19T16:02:04Z</time>
      </trkpt>
      <trkpt lat="43.44644" lon="5.34657">
        <ele>247</ele>
        <time>2021-01-19T16:02:07Z</time>
      </trkpt>
      <trkpt lat="43.44643" lon="5.34659">
        <ele>247</ele>
        <time>2021-01-19T16:02:09Z</time>
      </trkpt>
      <trkpt lat="43.44642" lon="5.34661">
        <ele>247</ele>
        <time>2021-01-19T16:02:11Z</time>
      </trkpt>
      <trkpt lat="43.4464" lon="5.34666">
        <ele>248</ele>
        <time>2021-01-19T16:02:14Z</time>
      </trkpt>
      <trkpt lat="43.44638" lon="5.34669">
        <ele>249</ele>
        <time>2021-01-19T16:02:17Z</time>
      </trkpt>
      <trkpt lat="43.44635" lon="5.34672">
        <ele>249</ele>
        <time>2021-01-19T16:02:20Z</time>
      </trkpt>
      <trkpt lat="43.44633" lon="5.34675">
        <ele>249</ele>
        <time>2021-01-19T16:02:23Z</time>
      </trkpt>
      <trkpt lat="43.4463" lon="5.34678">
        <ele>250</ele>
        <time>2021-01-19T16:02:26Z</time>
      </trkpt>
      <trkpt lat="43.44628" lon="5.34681">
        <ele>250</ele>
        <time>2021-01-19T16:02:29Z</time>
      </trkpt>
      <trkpt lat="43.44627" lon="5.34684">
        <ele>249</ele>
        <time>2021-01-19T16:02:32Z</time>
      </trkpt>
      <trkpt lat="43.44625" lon="5.34687">
        <ele>249</ele>
        <time>2021-01-19T16:02:34Z</time>
      </trkpt>
      <trkpt lat="43.44623" lon="5.34689">
        <ele>249</ele>
        <time>2021-01-19T16:02:37Z</time>
      </trkpt>
      <trkpt lat="43.44621" lon="5.34691">
        <ele>247</ele>
        <time>2021-01-19T16:02:40Z</time>
      </trkpt>
      <trkpt lat="43.44619" lon="5.34693">
        <ele>247</ele>
        <time>2021-01-19T16:02:43Z</time>
      </trkpt>
      <trkpt lat="43.44618" lon="5.34693">
        <ele>247</ele>
        <time>2021-01-19T16:02:46Z</time>
      </trkpt>
      <trkpt lat="43.44617" lon="5.34693">
        <ele>247</ele>
        <time>2021-01-19T16:02:48Z</time>
      </trkpt>
      <trkpt lat="43.44614" lon="5.34694">
        <ele>247</ele>
        <time>2021-01-19T16:02:51Z</time>
      </trkpt>
      <trkpt lat="43.44612" lon="5.34696">
        <ele>248</ele>
        <time>2021-01-19T16:02:54Z</time>
      </trkpt>
      <trkpt lat="43.4461" lon="5.34698">
        <ele>248</ele>
        <time>2021-01-19T16:02:56Z</time>
      </trkpt>
      <trkpt lat="43.44609" lon="5.347">
        <ele>248</ele>
        <time>2021-01-19T16:02:58Z</time>
      </trkpt>
      <trkpt lat="43.44606" lon="5.34703">
        <ele>248</ele>
        <time>2021-01-19T16:03:01Z</time>
      </trkpt>
      <trkpt lat="43.44604" lon="5.34704">
        <ele>249</ele>
        <time>2021-01-19T16:03:03Z</time>
      </trkpt>
      <trkpt lat="43.44602" lon="5.34706">
        <ele>249</ele>
        <time>2021-01-19T16:03:06Z</time>
      </trkpt>
      <trkpt lat="43.446" lon="5.34707">
        <ele>249</ele>
        <time>2021-01-19T16:03:08Z</time>
      </trkpt>
      <trkpt lat="43.44599" lon="5.34707">
        <ele>249</ele>
        <time>2021-01-19T16:03:10Z</time>
      </trkpt>
      <trkpt lat="43.44597" lon="5.34708">
        <ele>248</ele>
        <time>2021-01-19T16:03:13Z</time>
      </trkpt>
      <trkpt lat="43.44596" lon="5.34709">
        <ele>249</ele>
        <time>2021-01-19T16:03:15Z</time>
      </trkpt>
      <trkpt lat="43.44594" lon="5.3471">
        <ele>249</ele>
        <time>2021-01-19T16:03:17Z</time>
      </trkpt>
      <trkpt lat="43.44593" lon="5.34712">
        <ele>249</ele>
        <time>2021-01-19T16:03:19Z</time>
      </trkpt>
      <trkpt lat="43.44591" lon="5.34714">
        <ele>250</ele>
        <time>2021-01-19T16:03:22Z</time>
      </trkpt>
      <trkpt lat="43.4459" lon="5.34716">
        <ele>250</ele>
        <time>2021-01-19T16:03:24Z</time>
      </trkpt>
      <trkpt lat="43.44589" lon="5.34719">
        <ele>250</ele>
        <time>2021-01-19T16:03:27Z</time>
      </trkpt>
      <trkpt lat="43.44588" lon="5.34722">
        <ele>250</ele>
        <time>2021-01-19T16:03:30Z</time>
      </trkpt>
      <trkpt lat="43.44586" lon="5.34726">
        <ele>250</ele>
        <time>2021-01-19T16:03:33Z</time>
      </trkpt>
      <trkpt lat="43.44585" lon="5.34728">
        <ele>250</ele>
        <time>2021-01-19T16:03:35Z</time>
      </trkpt>
      <trkpt lat="43.44583" lon="5.34731">
        <ele>251</ele>
        <time>2021-01-19T16:03:38Z</time>
      </trkpt>
      <trkpt lat="43.44583" lon="5.34733">
        <ele>251</ele>
        <time>2021-01-19T16:03:40Z</time>
      </trkpt>
      <trkpt lat="43.44582" lon="5.34737">
        <ele>251</ele>
        <time>2021-01-19T16:03:43Z</time>
      </trkpt>
      <trkpt lat="43.44581" lon="5.34739">
        <ele>251</ele>
        <time>2021-01-19T16:03:45Z</time>
      </trkpt>
      <trkpt lat="43.4458" lon="5.34742">
        <ele>251</ele>
        <time>2021-01-19T16:03:47Z</time>
      </trkpt>
      <trkpt lat="43.44579" lon="5.34744">
        <ele>250</ele>
        <time>2021-01-19T16:03:49Z</time>
      </trkpt>
      <trkpt lat="43.44578" lon="5.34747">
        <ele>250</ele>
        <time>2021-01-19T16:03:51Z</time>
      </trkpt>
      <trkpt lat="43.44577" lon="5.3475">
        <ele>249</ele>
        <time>2021-01-19T16:03:54Z</time>
      </trkpt>
      <trkpt lat="43.44576" lon="5.34755">
        <ele>250</ele>
        <time>2021-01-19T16:03:57Z</time>
      </trkpt>
      <trkpt lat="43.44575" lon="5.34758">
        <ele>250</ele>
        <time>2021-01-19T16:04:00Z</time>
      </trkpt>
      <trkpt lat="43.44573" lon="5.34762">
        <ele>251</ele>
        <time>2021-01-19T16:04:03Z</time>
      </trkpt>
      <trkpt lat="43.44572" lon="5.34765">
        <ele>251</ele>
        <time>2021-01-19T16:04:05Z</time>
      </trkpt>
      <trkpt lat="43.44572" lon="5.34767">
        <ele>251</ele>
        <time>2021-01-19T16:04:07Z</time>
      </trkpt>
      <trkpt lat="43.44571" lon="5.3477">
        <ele>251</ele>
        <time>2021-01-19T16:04:09Z</time>
      </trkpt>
      <trkpt lat="43.4457" lon="5.34773">
        <ele>251</ele>
        <time>2021-01-19T16:04:11Z</time>
      </trkpt>
      <trkpt lat="43.44569" lon="5.34775">
        <ele>251</ele>
        <time>2021-01-19T16:04:13Z</time>
      </trkpt>
      <trkpt lat="43.44569" lon="5.34778">
        <ele>250</ele>
        <time>2021-01-19T16:04:15Z</time>
      </trkpt>
      <trkpt lat="43.44568" lon="5.34781">
        <ele>250</ele>
        <time>2021-01-19T16:04:18Z</time>
      </trkpt>
      <trkpt lat="43.44566" lon="5.34784">
        <ele>251</ele>
        <time>2021-01-19T16:04:21Z</time>
      </trkpt>
      <trkpt lat="43.44565" lon="5.34788">
        <ele>250</ele>
        <time>2021-01-19T16:04:24Z</time>
      </trkpt>
      <trkpt lat="43.44564" lon="5.34791">
        <ele>250</ele>
        <time>2021-01-19T16:04:27Z</time>
      </trkpt>
      <trkpt lat="43.44564" lon="5.34793">
        <ele>249</ele>
        <time>2021-01-19T16:04:29Z</time>
      </trkpt>
      <trkpt lat="43.44563" lon="5.34796">
        <ele>249</ele>
        <time>2021-01-19T16:04:31Z</time>
      </trkpt>
      <trkpt lat="43.44563" lon="5.348">
        <ele>249</ele>
        <time>2021-01-19T16:04:34Z</time>
      </trkpt>
      <trkpt lat="43.44562" lon="5.34804">
        <ele>248</ele>
        <time>2021-01-19T16:04:37Z</time>
      </trkpt>
      <trkpt lat="43.44561" lon="5.34807">
        <ele>248</ele>
        <time>2021-01-19T16:04:40Z</time>
      </trkpt>
      <trkpt lat="43.4456" lon="5.3481">
        <ele>249</ele>
        <time>2021-01-19T16:04:42Z</time>
      </trkpt>
      <trkpt lat="43.44558" lon="5.34814">
        <ele>248</ele>
        <time>2021-01-19T16:04:45Z</time>
      </trkpt>
      <trkpt lat="43.44557" lon="5.34817">
        <ele>249</ele>
        <time>2021-01-19T16:04:48Z</time>
      </trkpt>
      <trkpt lat="43.44556" lon="5.34819">
        <ele>249</ele>
        <time>2021-01-19T16:04:50Z</time>
      </trkpt>
      <trkpt lat="43.44556" lon="5.34823">
        <ele>248</ele>
        <time>2021-01-19T16:04:53Z</time>
      </trkpt>
      <trkpt lat="43.44555" lon="5.34826">
        <ele>249</ele>
        <time>2021-01-19T16:04:55Z</time>
      </trkpt>
      <trkpt lat="43.44555" lon="5.34829">
        <ele>249</ele>
        <time>2021-01-19T16:04:57Z</time>
      </trkpt>
      <trkpt lat="43.44555" lon="5.34833">
        <ele>249</ele>
        <time>2021-01-19T16:05:00Z</time>
      </trkpt>
      <trkpt lat="43.44555" lon="5.34836">
        <ele>248</ele>
        <time>2021-01-19T16:05:02Z</time>
      </trkpt>
      <trkpt lat="43.44556" lon="5.34839">
        <ele>249</ele>
        <time>2021-01-19T16:05:04Z</time>
      </trkpt>
      <trkpt lat="43.44557" lon="5.34842">
        <ele>249</ele>
        <time>2021-01-19T16:05:06Z</time>
      </trkpt>
      <trkpt lat="43.44558" lon="5.34845">
        <ele>249</ele>
        <time>2021-01-19T16:05:09Z</time>
      </trkpt>
      <trkpt lat="43.44558" lon="5.3485">
        <ele>249</ele>
        <time>2021-01-19T16:05:12Z</time>
      </trkpt>
      <trkpt lat="43.44559" lon="5.34854">
        <ele>249</ele>
        <time>2021-01-19T16:05:15Z</time>
      </trkpt>
      <trkpt lat="43.4456" lon="5.34856">
        <ele>249</ele>
        <time>2021-01-19T16:05:17Z</time>
      </trkpt>
      <trkpt lat="43.4456" lon="5.3486">
        <ele>249</ele>
        <time>2021-01-19T16:05:20Z</time>
      </trkpt>
      <trkpt lat="43.44561" lon="5.34864">
        <ele>249</ele>
        <time>2021-01-19T16:05:23Z</time>
      </trkpt>
      <trkpt lat="43.44561" lon="5.34868">
        <ele>249</ele>
        <time>2021-01-19T16:05:26Z</time>
      </trkpt>
      <trkpt lat="43.44561" lon="5.34871">
        <ele>249</ele>
        <time>2021-01-19T16:05:28Z</time>
      </trkpt>
      <trkpt lat="43.44561" lon="5.34875">
        <ele>249</ele>
        <time>2021-01-19T16:05:31Z</time>
      </trkpt>
      <trkpt lat="43.44562" lon="5.34879">
        <ele>249</ele>
        <time>2021-01-19T16:05:34Z</time>
      </trkpt>
      <trkpt lat="43.44562" lon="5.34881">
        <ele>249</ele>
        <time>2021-01-19T16:05:36Z</time>
      </trkpt>
      <trkpt lat="43.44562" lon="5.34884">
        <ele>249</ele>
        <time>2021-01-19T16:05:38Z</time>
      </trkpt>
      <trkpt lat="43.44563" lon="5.34889">
        <ele>249</ele>
        <time>2021-01-19T16:05:41Z</time>
      </trkpt>
      <trkpt lat="43.44563" lon="5.34893">
        <ele>249</ele>
        <time>2021-01-19T16:05:44Z</time>
      </trkpt>
      <trkpt lat="43.44563" lon="5.34897">
        <ele>250</ele>
        <time>2021-01-19T16:05:47Z</time>
      </trkpt>
      <trkpt lat="43.44563" lon="5.349">
        <ele>249</ele>
        <time>2021-01-19T16:05:49Z</time>
      </trkpt>
      <trkpt lat="43.44563" lon="5.34903">
        <ele>249</ele>
        <time>2021-01-19T16:05:51Z</time>
      </trkpt>
      <trkpt lat="43.44563" lon="5.34906">
        <ele>250</ele>
        <time>2021-01-19T16:05:54Z</time>
      </trkpt>
      <trkpt lat="43.44564" lon="5.3491">
        <ele>250</ele>
        <time>2021-01-19T16:05:57Z</time>
      </trkpt>
      <trkpt lat="43.44564" lon="5.34912">
        <ele>250</ele>
        <time>2021-01-19T16:05:59Z</time>
      </trkpt>
      <trkpt lat="43.44565" lon="5.34916">
        <ele>250</ele>
        <time>2021-01-19T16:06:02Z</time>
      </trkpt>
      <trkpt lat="43.44565" lon="5.34921">
        <ele>249</ele>
        <time>2021-01-19T16:06:05Z</time>
      </trkpt>
      <trkpt lat="43.44566" lon="5.34924">
        <ele>249</ele>
        <time>2021-01-19T16:06:07Z</time>
      </trkpt>
      <trkpt lat="43.44567" lon="5.34927">
        <ele>249</ele>
        <time>2021-01-19T16:06:10Z</time>
      </trkpt>
      <trkpt lat="43.44568" lon="5.3493">
        <ele>249</ele>
        <time>2021-01-19T16:06:12Z</time>
      </trkpt>
      <trkpt lat="43.44568" lon="5.34932">
        <ele>249</ele>
        <time>2021-01-19T16:06:14Z</time>
      </trkpt>
      <trkpt lat="43.44569" lon="5.34934">
        <ele>249</ele>
        <time>2021-01-19T16:06:16Z</time>
      </trkpt>
      <trkpt lat="43.44569" lon="5.34935">
        <ele>249</ele>
        <time>2021-01-19T16:06:18Z</time>
      </trkpt>
      <trkpt lat="43.44569" lon="5.34936">
        <ele>249</ele>
        <time>2021-01-19T16:06:20Z</time>
      </trkpt>
      <trkpt lat="43.4457" lon="5.34937">
        <ele>249</ele>
        <time>2021-01-19T16:06:23Z</time>
      </trkpt>
      <trkpt lat="43.4457" lon="5.34939">
        <ele>249</ele>
        <time>2021-01-19T16:06:25Z</time>
      </trkpt>
      <trkpt lat="43.44571" lon="5.34942">
        <ele>248</ele>
        <time>2021-01-19T16:06:28Z</time>
      </trkpt>
      <trkpt lat="43.44571" lon="5.34944">
        <ele>249</ele>
        <time>2021-01-19T16:06:30Z</time>
      </trkpt>
      <trkpt lat="43.44572" lon="5.34948">
        <ele>249</ele>
        <time>2021-01-19T16:06:33Z</time>
      </trkpt>
      <trkpt lat="43.44572" lon="5.34951">
        <ele>248</ele>
        <time>2021-01-19T16:06:35Z</time>
      </trkpt>
      <trkpt lat="43.44574" lon="5.34954">
        <ele>247</ele>
        <time>2021-01-19T16:06:38Z</time>
      </trkpt>
      <trkpt lat="43.44575" lon="5.34956">
        <ele>247</ele>
        <time>2021-01-19T16:06:40Z</time>
      </trkpt>
      <trkpt lat="43.44576" lon="5.34958">
        <ele>246</ele>
        <time>2021-01-19T16:06:42Z</time>
      </trkpt>
      <trkpt lat="43.44577" lon="5.34962">
        <ele>246</ele>
        <time>2021-01-19T16:06:45Z</time>
      </trkpt>
      <trkpt lat="43.44578" lon="5.34967">
        <ele>246</ele>
        <time>2021-01-19T16:06:48Z</time>
      </trkpt>
      <trkpt lat="43.44579" lon="5.34969">
        <ele>246</ele>
        <time>2021-01-19T16:06:50Z</time>
      </trkpt>
      <trkpt lat="43.4458" lon="5.34974">
        <ele>246</ele>
        <time>2021-01-19T16:06:53Z</time>
      </trkpt>
      <trkpt lat="43.44581" lon="5.34977">
        <ele>246</ele>
        <time>2021-01-19T16:06:55Z</time>
      </trkpt>
      <trkpt lat="43.44581" lon="5.3498">
        <ele>246</ele>
        <time>2021-01-19T16:06:57Z</time>
      </trkpt>
      <trkpt lat="43.44582" lon="5.34983">
        <ele>246</ele>
        <time>2021-01-19T16:06:59Z</time>
      </trkpt>
      <trkpt lat="43.44582" lon="5.34986">
        <ele>246</ele>
        <time>2021-01-19T16:07:01Z</time>
      </trkpt>
      <trkpt lat="43.44583" lon="5.34989">
        <ele>246</ele>
        <time>2021-01-19T16:07:04Z</time>
      </trkpt>
      <trkpt lat="43.44583" lon="5.34992">
        <ele>246</ele>
        <time>2021-01-19T16:07:06Z</time>
      </trkpt>
      <trkpt lat="43.44584" lon="5.34995">
        <ele>246</ele>
        <time>2021-01-19T16:07:08Z</time>
      </trkpt>
      <trkpt lat="43.44585" lon="5.34997">
        <ele>246</ele>
        <time>2021-01-19T16:07:10Z</time>
      </trkpt>
      <trkpt lat="43.44586" lon="5.35">
        <ele>246</ele>
        <time>2021-01-19T16:07:13Z</time>
      </trkpt>
      <trkpt lat="43.44587" lon="5.35003">
        <ele>246</ele>
        <time>2021-01-19T16:07:15Z</time>
      </trkpt>
      <trkpt lat="43.44587" lon="5.35008">
        <ele>246</ele>
        <time>2021-01-19T16:07:18Z</time>
      </trkpt>
      <trkpt lat="43.44588" lon="5.35012">
        <ele>246</ele>
        <time>2021-01-19T16:07:21Z</time>
      </trkpt>
      <trkpt lat="43.44589" lon="5.35016">
        <ele>246</ele>
        <time>2021-01-19T16:07:24Z</time>
      </trkpt>
      <trkpt lat="43.44591" lon="5.3502">
        <ele>246</ele>
        <time>2021-01-19T16:07:27Z</time>
      </trkpt>
      <trkpt lat="43.44591" lon="5.35022">
        <ele>246</ele>
        <time>2021-01-19T16:07:29Z</time>
      </trkpt>
      <trkpt lat="43.4459" lon="5.35026">
        <ele>246</ele>
        <time>2021-01-19T16:07:32Z</time>
      </trkpt>
      <trkpt lat="43.44589" lon="5.35028">
        <ele>246</ele>
        <time>2021-01-19T16:07:34Z</time>
      </trkpt>
      <trkpt lat="43.44588" lon="5.35032">
        <ele>246</ele>
        <time>2021-01-19T16:07:37Z</time>
      </trkpt>
      <trkpt lat="43.44587" lon="5.35035">
        <ele>246</ele>
        <time>2021-01-19T16:07:39Z</time>
      </trkpt>
      <trkpt lat="43.44587" lon="5.35039">
        <ele>247</ele>
        <time>2021-01-19T16:07:42Z</time>
      </trkpt>
      <trkpt lat="43.44586" lon="5.35042">
        <ele>248</ele>
        <time>2021-01-19T16:07:45Z</time>
      </trkpt>
      <trkpt lat="43.44586" lon="5.35044">
        <ele>248</ele>
        <time>2021-01-19T16:07:48Z</time>
      </trkpt>
      <trkpt lat="43.44586" lon="5.35045">
        <ele>248</ele>
        <time>2021-01-19T16:07:50Z</time>
      </trkpt>
      <trkpt lat="43.44586" lon="5.35048">
        <ele>249</ele>
        <time>2021-01-19T16:07:53Z</time>
      </trkpt>
      <trkpt lat="43.44586" lon="5.35051">
        <ele>249</ele>
        <time>2021-01-19T16:07:55Z</time>
      </trkpt>
      <trkpt lat="43.44585" lon="5.35055">
        <ele>249</ele>
        <time>2021-01-19T16:07:58Z</time>
      </trkpt>
      <trkpt lat="43.44585" lon="5.35059">
        <ele>248</ele>
        <time>2021-01-19T16:08:01Z</time>
      </trkpt>
      <trkpt lat="43.44585" lon="5.35063">
        <ele>248</ele>
        <time>2021-01-19T16:08:04Z</time>
      </trkpt>
      <trkpt lat="43.44585" lon="5.35065">
        <ele>248</ele>
        <time>2021-01-19T16:08:06Z</time>
      </trkpt>
      <trkpt lat="43.44585" lon="5.35068">
        <ele>248</ele>
        <time>2021-01-19T16:08:08Z</time>
      </trkpt>
      <trkpt lat="43.44585" lon="5.35072">
        <ele>248</ele>
        <time>2021-01-19T16:08:11Z</time>
      </trkpt>
      <trkpt lat="43.44585" lon="5.35074">
        <ele>247</ele>
        <time>2021-01-19T16:08:13Z</time>
      </trkpt>
      <trkpt lat="43.44586" lon="5.35079">
        <ele>246</ele>
        <time>2021-01-19T16:08:16Z</time>
      </trkpt>
      <trkpt lat="43.44586" lon="5.35082">
        <ele>246</ele>
        <time>2021-01-19T16:08:18Z</time>
      </trkpt>
      <trkpt lat="43.44585" lon="5.35085">
        <ele>246</ele>
        <time>2021-01-19T16:08:20Z</time>
      </trkpt>
      <trkpt lat="43.44585" lon="5.3509">
        <ele>247</ele>
        <time>2021-01-19T16:08:23Z</time>
      </trkpt>
      <trkpt lat="43.44585" lon="5.35093">
        <ele>246</ele>
        <time>2021-01-19T16:08:25Z</time>
      </trkpt>
      <trkpt lat="43.44585" lon="5.35096">
        <ele>247</ele>
        <time>2021-01-19T16:08:27Z</time>
      </trkpt>
      <trkpt lat="43.44585" lon="5.35098">
        <ele>247</ele>
        <time>2021-01-19T16:08:29Z</time>
      </trkpt>
      <trkpt lat="43.44585" lon="5.35101">
        <ele>247</ele>
        <time>2021-01-19T16:08:31Z</time>
      </trkpt>
      <trkpt lat="43.44585" lon="5.35105">
        <ele>247</ele>
        <time>2021-01-19T16:08:34Z</time>
      </trkpt>
      <trkpt lat="43.44585" lon="5.35108">
        <ele>247</ele>
        <time>2021-01-19T16:08:36Z</time>
      </trkpt>
      <trkpt lat="43.44585" lon="5.35113">
        <ele>247</ele>
        <time>2021-01-19T16:08:39Z</time>
      </trkpt>
      <trkpt lat="43.44586" lon="5.35116">
        <ele>247</ele>
        <time>2021-01-19T16:08:41Z</time>
      </trkpt>
      <trkpt lat="43.44586" lon="5.35119">
        <ele>247</ele>
        <time>2021-01-19T16:08:43Z</time>
      </trkpt>
      <trkpt lat="43.44586" lon="5.35124">
        <ele>247</ele>
        <time>2021-01-19T16:08:46Z</time>
      </trkpt>
      <trkpt lat="43.44586" lon="5.35127">
        <ele>247</ele>
        <time>2021-01-19T16:08:48Z</time>
      </trkpt>
      <trkpt lat="43.44586" lon="5.3513">
        <ele>247</ele>
        <time>2021-01-19T16:08:50Z</time>
      </trkpt>
      <trkpt lat="43.44586" lon="5.35133">
        <ele>247</ele>
        <time>2021-01-19T16:08:53Z</time>
      </trkpt>
      <trkpt lat="43.44586" lon="5.35138">
        <ele>247</ele>
        <time>2021-01-19T16:08:56Z</time>
      </trkpt>
      <trkpt lat="43.44586" lon="5.35142">
        <ele>248</ele>
        <time>2021-01-19T16:08:59Z</time>
      </trkpt>
      <trkpt lat="43.44586" lon="5.35147">
        <ele>248</ele>
        <time>2021-01-19T16:09:02Z</time>
      </trkpt>
      <trkpt lat="43.44586" lon="5.3515">
        <ele>248</ele>
        <time>2021-01-19T16:09:04Z</time>
      </trkpt>
      <trkpt lat="43.44585" lon="5.35154">
        <ele>248</ele>
        <time>2021-01-19T16:09:07Z</time>
      </trkpt>
      <trkpt lat="43.44585" lon="5.35158">
        <ele>247</ele>
        <time>2021-01-19T16:09:10Z</time>
      </trkpt>
      <trkpt lat="43.44584" lon="5.35162">
        <ele>247</ele>
        <time>2021-01-19T16:09:13Z</time>
      </trkpt>
      <trkpt lat="43.44584" lon="5.35165">
        <ele>246</ele>
        <time>2021-01-19T16:09:15Z</time>
      </trkpt>
      <trkpt lat="43.44583" lon="5.35169">
        <ele>247</ele>
        <time>2021-01-19T16:09:18Z</time>
      </trkpt>
      <trkpt lat="43.44583" lon="5.35171">
        <ele>247</ele>
        <time>2021-01-19T16:09:20Z</time>
      </trkpt>
      <trkpt lat="43.44583" lon="5.35175">
        <ele>247</ele>
        <time>2021-01-19T16:09:23Z</time>
      </trkpt>
      <trkpt lat="43.44582" lon="5.35177">
        <ele>247</ele>
        <time>2021-01-19T16:09:25Z</time>
      </trkpt>
      <trkpt lat="43.44582" lon="5.3518">
        <ele>247</ele>
        <time>2021-01-19T16:09:27Z</time>
      </trkpt>
      <trkpt lat="43.44582" lon="5.35183">
        <ele>247</ele>
        <time>2021-01-19T16:09:29Z</time>
      </trkpt>
      <trkpt lat="43.44582" lon="5.35187">
        <ele>246</ele>
        <time>2021-01-19T16:09:32Z</time>
      </trkpt>
      <trkpt lat="43.44582" lon="5.3519">
        <ele>246</ele>
        <time>2021-01-19T16:09:34Z</time>
      </trkpt>
      <trkpt lat="43.44581" lon="5.35194">
        <ele>247</ele>
        <time>2021-01-19T16:09:36Z</time>
      </trkpt>
      <trkpt lat="43.44581" lon="5.35197">
        <ele>246</ele>
        <time>2021-01-19T16:09:38Z</time>
      </trkpt>
      <trkpt lat="43.44581" lon="5.352">
        <ele>246</ele>
        <time>2021-01-19T16:09:40Z</time>
      </trkpt>
      <trkpt lat="43.4458" lon="5.35203">
        <ele>247</ele>
        <time>2021-01-19T16:09:42Z</time>
      </trkpt>
      <trkpt lat="43.4458" lon="5.35207">
        <ele>247</ele>
        <time>2021-01-19T16:09:45Z</time>
      </trkpt>
      <trkpt lat="43.44579" lon="5.3521">
        <ele>247</ele>
        <time>2021-01-19T16:09:47Z</time>
      </trkpt>
      <trkpt lat="43.44579" lon="5.35213">
        <ele>248</ele>
        <time>2021-01-19T16:09:49Z</time>
      </trkpt>
      <trkpt lat="43.44579" lon="5.35218">
        <ele>248</ele>
        <time>2021-01-19T16:09:52Z</time>
      </trkpt>
      <trkpt lat="43.4458" lon="5.35221">
        <ele>247</ele>
        <time>2021-01-19T16:09:54Z</time>
      </trkpt>
      <trkpt lat="43.44581" lon="5.35226">
        <ele>247</ele>
        <time>2021-01-19T16:09:57Z</time>
      </trkpt>
      <trkpt lat="43.44583" lon="5.35231">
        <ele>247</ele>
        <time>2021-01-19T16:10:00Z</time>
      </trkpt>
      <trkpt lat="43.44584" lon="5.35234">
        <ele>247</ele>
        <time>2021-01-19T16:10:02Z</time>
      </trkpt>
      <trkpt lat="43.44586" lon="5.35237">
        <ele>247</ele>
        <time>2021-01-19T16:10:05Z</time>
      </trkpt>
      <trkpt lat="43.44587" lon="5.35239">
        <ele>247</ele>
        <time>2021-01-19T16:10:07Z</time>
      </trkpt>
      <trkpt lat="43.44586" lon="5.35243">
        <ele>247</ele>
        <time>2021-01-19T16:10:10Z</time>
      </trkpt>
      <trkpt lat="43.44586" lon="5.35247">
        <ele>247</ele>
        <time>2021-01-19T16:10:13Z</time>
      </trkpt>
      <trkpt lat="43.44586" lon="5.35249">
        <ele>247</ele>
        <time>2021-01-19T16:10:15Z</time>
      </trkpt>
      <trkpt lat="43.44585" lon="5.35252">
        <ele>247</ele>
        <time>2021-01-19T16:10:17Z</time>
      </trkpt>
      <trkpt lat="43.44584" lon="5.35256">
        <ele>247</ele>
        <time>2021-01-19T16:10:20Z</time>
      </trkpt>
      <trkpt lat="43.44582" lon="5.35259">
        <ele>247</ele>
        <time>2021-01-19T16:10:23Z</time>
      </trkpt>
      <trkpt lat="43.44581" lon="5.35263">
        <ele>248</ele>
        <time>2021-01-19T16:10:26Z</time>
      </trkpt>
      <trkpt lat="43.4458" lon="5.35266">
        <ele>248</ele>
        <time>2021-01-19T16:10:28Z</time>
      </trkpt>
      <trkpt lat="43.4458" lon="5.35269">
        <ele>248</ele>
        <time>2021-01-19T16:10:30Z</time>
      </trkpt>
      <trkpt lat="43.44579" lon="5.35271">
        <ele>248</ele>
        <time>2021-01-19T16:10:32Z</time>
      </trkpt>
      <trkpt lat="43.44578" lon="5.35271">
        <ele>247</ele>
        <time>2021-01-19T16:10:34Z</time>
      </trkpt>
      <trkpt lat="43.44577" lon="5.35274">
        <ele>247</ele>
        <time>2021-01-19T16:10:37Z</time>
      </trkpt>
      <trkpt lat="43.44577" lon="5.35277">
        <ele>247</ele>
        <time>2021-01-19T16:10:39Z</time>
      </trkpt>
      <trkpt lat="43.44576" lon="5.35279">
        <ele>247</ele>
        <time>2021-01-19T16:10:41Z</time>
      </trkpt>
      <trkpt lat="43.44577" lon="5.35283">
        <ele>248</ele>
        <time>2021-01-19T16:10:44Z</time>
      </trkpt>
      <trkpt lat="43.44578" lon="5.35286">
        <ele>248</ele>
        <time>2021-01-19T16:10:46Z</time>
      </trkpt>
      <trkpt lat="43.44578" lon="5.3529">
        <ele>247</ele>
        <time>2021-01-19T16:10:49Z</time>
      </trkpt>
      <trkpt lat="43.44577" lon="5.35294">
        <ele>248</ele>
        <time>2021-01-19T16:10:52Z</time>
      </trkpt>
      <trkpt lat="43.44577" lon="5.35298">
        <ele>248</ele>
        <time>2021-01-19T16:10:55Z</time>
      </trkpt>
      <trkpt lat="43.44576" lon="5.35301">
        <ele>248</ele>
        <time>2021-01-19T16:10:57Z</time>
      </trkpt>
      <trkpt lat="43.44576" lon="5.35306">
        <ele>248</ele>
        <time>2021-01-19T16:11:00Z</time>
      </trkpt>
      <trkpt lat="43.44576" lon="5.35309">
        <ele>248</ele>
        <time>2021-01-19T16:11:02Z</time>
      </trkpt>
      <trkpt lat="43.44575" lon="5.35312">
        <ele>248</ele>
        <time>2021-01-19T16:11:04Z</time>
      </trkpt>
      <trkpt lat="43.44575" lon="5.35314">
        <ele>248</ele>
        <time>2021-01-19T16:11:06Z</time>
      </trkpt>
      <trkpt lat="43.44574" lon="5.35319">
        <ele>249</ele>
        <time>2021-01-19T16:11:09Z</time>
      </trkpt>
    </trkseg>
  </trk>
</gpx>